<?xml version="1.0" encoding="UTF-8" standalone="no" ?>
<gpx xmlns="http://www.topografix.com/GPX/1/1" xmlns:xsi="http://www.w3.org/2001/XMLSchema-instance" xsi:schemaLocation="http://www.topografix.com/GPX/1/1 http://www.topografix.com/GPX/1/1/gpx.xsd" version="1.1" creator="VisuGPX - https://www.visugpx.com">
  <metadata>
    <name>Pechabou 3 2018-05-27</name>
  </metadata>
  <trk>
    <name><![CDATA[Ride 2018-05-27]]></name>
    <extensions>
      <line xmlns="http://www.topografix.com/GPX/gpx_style/0/2">
        <color>0000FF</color>
        <width>4</width>
      </line>
    </extensions>
    <trkseg>
      <trkpt lat="43.50197" lon="1.51219">
        <ele>134.62992859</ele>
        <time>2018-05-27T06:33:17Z</time>
      </trkpt>
      <trkpt lat="43.50192" lon="1.51224">
        <ele>134.62992859</ele>
        <time>2018-05-27T06:33:21Z</time>
      </trkpt>
      <trkpt lat="43.50178" lon="1.51235">
        <ele>134.62992859</ele>
        <time>2018-05-27T06:33:23Z</time>
      </trkpt>
      <trkpt lat="43.50168" lon="1.51245">
        <ele>134.62992859</ele>
        <time>2018-05-27T06:33:25Z</time>
      </trkpt>
      <trkpt lat="43.50158" lon="1.51257">
        <ele>134.62992859</ele>
        <time>2018-05-27T06:33:28Z</time>
      </trkpt>
      <trkpt lat="43.50147" lon="1.51271">
        <ele>134.62992859</ele>
        <time>2018-05-27T06:33:30Z</time>
      </trkpt>
      <trkpt lat="43.50137" lon="1.51283">
        <ele>134.62992859</ele>
        <time>2018-05-27T06:33:33Z</time>
      </trkpt>
      <trkpt lat="43.50125" lon="1.51297">
        <ele>134.62992859</ele>
        <time>2018-05-27T06:33:36Z</time>
      </trkpt>
      <trkpt lat="43.50112" lon="1.51311">
        <ele>134.62992859</ele>
        <time>2018-05-27T06:33:39Z</time>
      </trkpt>
      <trkpt lat="43.50099" lon="1.51324">
        <ele>134.62992859</ele>
        <time>2018-05-27T06:33:42Z</time>
      </trkpt>
      <trkpt lat="43.50085" lon="1.51338">
        <ele>134.62992859</ele>
        <time>2018-05-27T06:33:45Z</time>
      </trkpt>
      <trkpt lat="43.50073" lon="1.51345">
        <ele>134.62992859</ele>
        <time>2018-05-27T06:33:47Z</time>
      </trkpt>
      <trkpt lat="43.50062" lon="1.51354">
        <ele>134.62992859</ele>
        <time>2018-05-27T06:33:50Z</time>
      </trkpt>
      <trkpt lat="43.50049" lon="1.51366">
        <ele>134.62992859</ele>
        <time>2018-05-27T06:33:53Z</time>
      </trkpt>
      <trkpt lat="43.50035" lon="1.51374">
        <ele>134.62992859</ele>
        <time>2018-05-27T06:33:56Z</time>
      </trkpt>
      <trkpt lat="43.50023" lon="1.51385">
        <ele>134.62992859</ele>
        <time>2018-05-27T06:33:59Z</time>
      </trkpt>
      <trkpt lat="43.50009" lon="1.51396">
        <ele>134.62992859</ele>
        <time>2018-05-27T06:34:02Z</time>
      </trkpt>
      <trkpt lat="43.49999" lon="1.5141">
        <ele>134.62992859</ele>
        <time>2018-05-27T06:34:04Z</time>
      </trkpt>
      <trkpt lat="43.49991" lon="1.51421">
        <ele>134.62992859</ele>
        <time>2018-05-27T06:34:07Z</time>
      </trkpt>
      <trkpt lat="43.49993" lon="1.5142">
        <ele>137.00891113</ele>
        <time>2018-05-27T06:34:13Z</time>
      </trkpt>
      <trkpt lat="43.49991" lon="1.51411">
        <ele>137.00891113</ele>
        <time>2018-05-27T06:34:16Z</time>
      </trkpt>
      <trkpt lat="43.49983" lon="1.51396">
        <ele>137.00891113</ele>
        <time>2018-05-27T06:34:18Z</time>
      </trkpt>
      <trkpt lat="43.49981" lon="1.51386">
        <ele>137.69030762</ele>
        <time>2018-05-27T06:34:21Z</time>
      </trkpt>
      <trkpt lat="43.49976" lon="1.51376">
        <ele>137.69030762</ele>
        <time>2018-05-27T06:34:25Z</time>
      </trkpt>
      <trkpt lat="43.49976" lon="1.51366">
        <ele>139.87268066</ele>
        <time>2018-05-27T06:34:30Z</time>
      </trkpt>
      <trkpt lat="43.49975" lon="1.51353">
        <ele>141.22901917</ele>
        <time>2018-05-27T06:34:34Z</time>
      </trkpt>
      <trkpt lat="43.49957" lon="1.51336">
        <ele>141.22901917</ele>
        <time>2018-05-27T06:34:37Z</time>
      </trkpt>
      <trkpt lat="43.49956" lon="1.51327">
        <ele>143.42713928</ele>
        <time>2018-05-27T06:34:45Z</time>
      </trkpt>
      <trkpt lat="43.49939" lon="1.51324">
        <ele>144.49316406</ele>
        <time>2018-05-27T06:34:48Z</time>
      </trkpt>
      <trkpt lat="43.49923" lon="1.51322">
        <ele>144.49316406</ele>
        <time>2018-05-27T06:34:50Z</time>
      </trkpt>
      <trkpt lat="43.49906" lon="1.51318">
        <ele>145.51435852</ele>
        <time>2018-05-27T06:34:52Z</time>
      </trkpt>
      <trkpt lat="43.49896" lon="1.51319">
        <ele>146.51502991</ele>
        <time>2018-05-27T06:34:56Z</time>
      </trkpt>
      <trkpt lat="43.49885" lon="1.51324">
        <ele>147.60620117</ele>
        <time>2018-05-27T06:35:01Z</time>
      </trkpt>
      <trkpt lat="43.49874" lon="1.51331">
        <ele>150.02676392</ele>
        <time>2018-05-27T06:35:05Z</time>
      </trkpt>
      <trkpt lat="43.49863" lon="1.51332">
        <ele>151.23512268</ele>
        <time>2018-05-27T06:35:10Z</time>
      </trkpt>
      <trkpt lat="43.49852" lon="1.51332">
        <ele>153.44569397</ele>
        <time>2018-05-27T06:35:13Z</time>
      </trkpt>
      <trkpt lat="43.49843" lon="1.51332">
        <ele>155.92547607</ele>
        <time>2018-05-27T06:35:17Z</time>
      </trkpt>
      <trkpt lat="43.49832" lon="1.51331">
        <ele>157.09735107</ele>
        <time>2018-05-27T06:35:22Z</time>
      </trkpt>
      <trkpt lat="43.49821" lon="1.51328">
        <ele>159.80401611</ele>
        <time>2018-05-27T06:35:27Z</time>
      </trkpt>
      <trkpt lat="43.49813" lon="1.51317">
        <ele>161.84301758</ele>
        <time>2018-05-27T06:35:32Z</time>
      </trkpt>
      <trkpt lat="43.49807" lon="1.51305">
        <ele>164.54258728</ele>
        <time>2018-05-27T06:35:36Z</time>
      </trkpt>
      <trkpt lat="43.49801" lon="1.51293">
        <ele>165.7633667</ele>
        <time>2018-05-27T06:35:40Z</time>
      </trkpt>
      <trkpt lat="43.49796" lon="1.51282">
        <ele>166.92481995</ele>
        <time>2018-05-27T06:35:43Z</time>
      </trkpt>
      <trkpt lat="43.4979" lon="1.51272">
        <ele>168.16738892</ele>
        <time>2018-05-27T06:35:47Z</time>
      </trkpt>
      <trkpt lat="43.49785" lon="1.51261">
        <ele>170.69345093</ele>
        <time>2018-05-27T06:35:51Z</time>
      </trkpt>
      <trkpt lat="43.4978" lon="1.51249">
        <ele>172.04344177</ele>
        <time>2018-05-27T06:35:55Z</time>
      </trkpt>
      <trkpt lat="43.49775" lon="1.51237">
        <ele>173.30090332</ele>
        <time>2018-05-27T06:36:00Z</time>
      </trkpt>
      <trkpt lat="43.49768" lon="1.51226">
        <ele>174.25198364</ele>
        <time>2018-05-27T06:36:03Z</time>
      </trkpt>
      <trkpt lat="43.49761" lon="1.51216">
        <ele>174.25198364</ele>
        <time>2018-05-27T06:36:06Z</time>
      </trkpt>
      <trkpt lat="43.49753" lon="1.51205">
        <ele>175.38208008</ele>
        <time>2018-05-27T06:36:09Z</time>
      </trkpt>
      <trkpt lat="43.49743" lon="1.51193">
        <ele>175.38208008</ele>
        <time>2018-05-27T06:36:12Z</time>
      </trkpt>
      <trkpt lat="43.49736" lon="1.51184">
        <ele>176.13375854</ele>
        <time>2018-05-27T06:36:13Z</time>
      </trkpt>
      <trkpt lat="43.49732" lon="1.51177">
        <ele>176.13375854</ele>
        <time>2018-05-27T06:36:16Z</time>
      </trkpt>
      <trkpt lat="43.49725" lon="1.51166">
        <ele>176.92477417</ele>
        <time>2018-05-27T06:36:20Z</time>
      </trkpt>
      <trkpt lat="43.49722" lon="1.51154">
        <ele>176.92477417</ele>
        <time>2018-05-27T06:36:24Z</time>
      </trkpt>
      <trkpt lat="43.49723" lon="1.51141">
        <ele>176.92477417</ele>
        <time>2018-05-27T06:36:26Z</time>
      </trkpt>
      <trkpt lat="43.49727" lon="1.5113">
        <ele>174.74565125</ele>
        <time>2018-05-27T06:36:28Z</time>
      </trkpt>
      <trkpt lat="43.49734" lon="1.51117">
        <ele>171.85650635</ele>
        <time>2018-05-27T06:36:30Z</time>
      </trkpt>
      <trkpt lat="43.49743" lon="1.51102">
        <ele>168.03555298</ele>
        <time>2018-05-27T06:36:32Z</time>
      </trkpt>
      <trkpt lat="43.49753" lon="1.51083">
        <ele>163.36552429</ele>
        <time>2018-05-27T06:36:34Z</time>
      </trkpt>
      <trkpt lat="43.49761" lon="1.51063">
        <ele>161.5534668</ele>
        <time>2018-05-27T06:36:35Z</time>
      </trkpt>
      <trkpt lat="43.49772" lon="1.51048">
        <ele>161.5534668</ele>
        <time>2018-05-27T06:36:36Z</time>
      </trkpt>
      <trkpt lat="43.49781" lon="1.51034">
        <ele>160.55996704</ele>
        <time>2018-05-27T06:36:37Z</time>
      </trkpt>
      <trkpt lat="43.49789" lon="1.51023">
        <ele>160.55996704</ele>
        <time>2018-05-27T06:36:38Z</time>
      </trkpt>
      <trkpt lat="43.49799" lon="1.51012">
        <ele>161.40612793</ele>
        <time>2018-05-27T06:36:40Z</time>
      </trkpt>
      <trkpt lat="43.4981" lon="1.51003">
        <ele>164.89004517</ele>
        <time>2018-05-27T06:36:44Z</time>
      </trkpt>
      <trkpt lat="43.49817" lon="1.50992">
        <ele>167.85467529</ele>
        <time>2018-05-27T06:36:49Z</time>
      </trkpt>
      <trkpt lat="43.49822" lon="1.5098">
        <ele>170.24484253</ele>
        <time>2018-05-27T06:36:54Z</time>
      </trkpt>
      <trkpt lat="43.49826" lon="1.50968">
        <ele>172.92410278</ele>
        <time>2018-05-27T06:36:59Z</time>
      </trkpt>
      <trkpt lat="43.49831" lon="1.50958">
        <ele>175.6918335</ele>
        <time>2018-05-27T06:37:04Z</time>
      </trkpt>
      <trkpt lat="43.49831" lon="1.50947">
        <ele>176.68685913</ele>
        <time>2018-05-27T06:37:08Z</time>
      </trkpt>
      <trkpt lat="43.49827" lon="1.50945">
        <ele>177.32781982</ele>
        <time>2018-05-27T06:37:13Z</time>
      </trkpt>
      <trkpt lat="43.49823" lon="1.50949">
        <ele>177.60040283</ele>
        <time>2018-05-27T06:37:56Z</time>
      </trkpt>
      <trkpt lat="43.49809" lon="1.50964">
        <ele>175.54403687</ele>
        <time>2018-05-27T06:38:01Z</time>
      </trkpt>
      <trkpt lat="43.49797" lon="1.50973">
        <ele>174.50482178</ele>
        <time>2018-05-27T06:38:05Z</time>
      </trkpt>
      <trkpt lat="43.49783" lon="1.50974">
        <ele>173.36309814</ele>
        <time>2018-05-27T06:38:07Z</time>
      </trkpt>
      <trkpt lat="43.49773" lon="1.50976">
        <ele>173.36309814</ele>
        <time>2018-05-27T06:38:09Z</time>
      </trkpt>
      <trkpt lat="43.49762" lon="1.50977">
        <ele>172.17153931</ele>
        <time>2018-05-27T06:38:11Z</time>
      </trkpt>
      <trkpt lat="43.49745" lon="1.50979">
        <ele>171.32206726</ele>
        <time>2018-05-27T06:38:13Z</time>
      </trkpt>
      <trkpt lat="43.49736" lon="1.50981">
        <ele>171.32206726</ele>
        <time>2018-05-27T06:38:15Z</time>
      </trkpt>
      <trkpt lat="43.49722" lon="1.50984">
        <ele>170.42604065</ele>
        <time>2018-05-27T06:38:17Z</time>
      </trkpt>
      <trkpt lat="43.49706" lon="1.50987">
        <ele>170.42604065</ele>
        <time>2018-05-27T06:38:19Z</time>
      </trkpt>
      <trkpt lat="43.49692" lon="1.50989">
        <ele>170.42604065</ele>
        <time>2018-05-27T06:38:21Z</time>
      </trkpt>
      <trkpt lat="43.49678" lon="1.50995">
        <ele>170.42604065</ele>
        <time>2018-05-27T06:38:23Z</time>
      </trkpt>
      <trkpt lat="43.49666" lon="1.51001">
        <ele>170.42604065</ele>
        <time>2018-05-27T06:38:25Z</time>
      </trkpt>
      <trkpt lat="43.49655" lon="1.51005">
        <ele>169.83859253</ele>
        <time>2018-05-27T06:38:27Z</time>
      </trkpt>
      <trkpt lat="43.49645" lon="1.51013">
        <ele>173.60646057</ele>
        <time>2018-05-27T06:38:31Z</time>
      </trkpt>
      <trkpt lat="43.49639" lon="1.51028">
        <ele>175.15652466</ele>
        <time>2018-05-27T06:38:33Z</time>
      </trkpt>
      <trkpt lat="43.49631" lon="1.51038">
        <ele>176.73568726</ele>
        <time>2018-05-27T06:38:35Z</time>
      </trkpt>
      <trkpt lat="43.49624" lon="1.51048">
        <ele>179.94747925</ele>
        <time>2018-05-27T06:38:39Z</time>
      </trkpt>
      <trkpt lat="43.49616" lon="1.5106">
        <ele>182.38137817</ele>
        <time>2018-05-27T06:38:43Z</time>
      </trkpt>
      <trkpt lat="43.49604" lon="1.5107">
        <ele>184.62420654</ele>
        <time>2018-05-27T06:38:47Z</time>
      </trkpt>
      <trkpt lat="43.49595" lon="1.51082">
        <ele>185.78071594</ele>
        <time>2018-05-27T06:38:51Z</time>
      </trkpt>
      <trkpt lat="43.49584" lon="1.51093">
        <ele>188.01940918</ele>
        <time>2018-05-27T06:38:55Z</time>
      </trkpt>
      <trkpt lat="43.49575" lon="1.51106">
        <ele>190.22808838</ele>
        <time>2018-05-27T06:38:58Z</time>
      </trkpt>
      <trkpt lat="43.49566" lon="1.51116">
        <ele>192.58016968</ele>
        <time>2018-05-27T06:39:02Z</time>
      </trkpt>
      <trkpt lat="43.49555" lon="1.51126">
        <ele>194.74397278</ele>
        <time>2018-05-27T06:39:06Z</time>
      </trkpt>
      <trkpt lat="43.49546" lon="1.51137">
        <ele>195.81887817</ele>
        <time>2018-05-27T06:39:09Z</time>
      </trkpt>
      <trkpt lat="43.49537" lon="1.51147">
        <ele>197.89137268</ele>
        <time>2018-05-27T06:39:13Z</time>
      </trkpt>
      <trkpt lat="43.49528" lon="1.51154">
        <ele>198.80978394</ele>
        <time>2018-05-27T06:39:18Z</time>
      </trkpt>
      <trkpt lat="43.49524" lon="1.51149">
        <ele>199.92379761</ele>
        <time>2018-05-27T06:40:03Z</time>
      </trkpt>
      <trkpt lat="43.49506" lon="1.51134">
        <ele>200.66642761</ele>
        <time>2018-05-27T06:40:08Z</time>
      </trkpt>
      <trkpt lat="43.49489" lon="1.51122">
        <ele>203.01448059</ele>
        <time>2018-05-27T06:40:13Z</time>
      </trkpt>
      <trkpt lat="43.49482" lon="1.5112">
        <ele>205.18458557</ele>
        <time>2018-05-27T06:40:18Z</time>
      </trkpt>
      <trkpt lat="43.49474" lon="1.51124">
        <ele>206.29988098</ele>
        <time>2018-05-27T06:40:25Z</time>
      </trkpt>
      <trkpt lat="43.49469" lon="1.51138">
        <ele>206.29988098</ele>
        <time>2018-05-27T06:40:30Z</time>
      </trkpt>
      <trkpt lat="43.49464" lon="1.5115">
        <ele>206.29988098</ele>
        <time>2018-05-27T06:40:35Z</time>
      </trkpt>
      <trkpt lat="43.49458" lon="1.51162">
        <ele>206.29988098</ele>
        <time>2018-05-27T06:40:41Z</time>
      </trkpt>
      <trkpt lat="43.49453" lon="1.51174">
        <ele>206.29988098</ele>
        <time>2018-05-27T06:40:47Z</time>
      </trkpt>
      <trkpt lat="43.49446" lon="1.51187">
        <ele>206.34346008</ele>
        <time>2018-05-27T06:40:51Z</time>
      </trkpt>
      <trkpt lat="43.49439" lon="1.512">
        <ele>206.34346008</ele>
        <time>2018-05-27T06:40:54Z</time>
      </trkpt>
      <trkpt lat="43.49431" lon="1.51213">
        <ele>204.88226318</ele>
        <time>2018-05-27T06:40:57Z</time>
      </trkpt>
      <trkpt lat="43.49421" lon="1.51228">
        <ele>203.30221558</ele>
        <time>2018-05-27T06:40:59Z</time>
      </trkpt>
      <trkpt lat="43.4941" lon="1.51244">
        <ele>200.05885315</ele>
        <time>2018-05-27T06:41:01Z</time>
      </trkpt>
      <trkpt lat="43.49398" lon="1.51264">
        <ele>196.85621643</ele>
        <time>2018-05-27T06:41:03Z</time>
      </trkpt>
      <trkpt lat="43.49389" lon="1.51282">
        <ele>195.09825134</ele>
        <time>2018-05-27T06:41:04Z</time>
      </trkpt>
      <trkpt lat="43.49384" lon="1.51295">
        <ele>193.56288147</ele>
        <time>2018-05-27T06:41:05Z</time>
      </trkpt>
      <trkpt lat="43.49377" lon="1.51306">
        <ele>192.12557983</ele>
        <time>2018-05-27T06:41:06Z</time>
      </trkpt>
      <trkpt lat="43.49364" lon="1.51313">
        <ele>188.80661011</ele>
        <time>2018-05-27T06:41:08Z</time>
      </trkpt>
      <trkpt lat="43.4935" lon="1.51307">
        <ele>185.43699646</ele>
        <time>2018-05-27T06:41:09Z</time>
      </trkpt>
      <trkpt lat="43.49346" lon="1.51296">
        <ele>183.83242798</ele>
        <time>2018-05-27T06:41:10Z</time>
      </trkpt>
      <trkpt lat="43.49342" lon="1.5128">
        <ele>182.5100708</ele>
        <time>2018-05-27T06:41:11Z</time>
      </trkpt>
      <trkpt lat="43.49336" lon="1.51263">
        <ele>181.32603455</ele>
        <time>2018-05-27T06:41:12Z</time>
      </trkpt>
      <trkpt lat="43.49334" lon="1.51249">
        <ele>180.24240112</ele>
        <time>2018-05-27T06:41:13Z</time>
      </trkpt>
      <trkpt lat="43.49327" lon="1.51238">
        <ele>177.37117004</ele>
        <time>2018-05-27T06:41:15Z</time>
      </trkpt>
      <trkpt lat="43.49315" lon="1.51238">
        <ele>173.3809967</ele>
        <time>2018-05-27T06:41:17Z</time>
      </trkpt>
      <trkpt lat="43.49302" lon="1.51252">
        <ele>173.3809967</ele>
        <time>2018-05-27T06:41:18Z</time>
      </trkpt>
      <trkpt lat="43.49289" lon="1.51264">
        <ele>168.60073853</ele>
        <time>2018-05-27T06:41:19Z</time>
      </trkpt>
      <trkpt lat="43.49277" lon="1.51276">
        <ele>165.85533142</ele>
        <time>2018-05-27T06:41:20Z</time>
      </trkpt>
      <trkpt lat="43.49263" lon="1.51286">
        <ele>162.85067749</ele>
        <time>2018-05-27T06:41:21Z</time>
      </trkpt>
      <trkpt lat="43.4925" lon="1.51296">
        <ele>159.59925842</ele>
        <time>2018-05-27T06:41:22Z</time>
      </trkpt>
      <trkpt lat="43.49237" lon="1.51307">
        <ele>156.46421814</ele>
        <time>2018-05-27T06:41:23Z</time>
      </trkpt>
      <trkpt lat="43.49223" lon="1.51317">
        <ele>153.85673523</ele>
        <time>2018-05-27T06:41:24Z</time>
      </trkpt>
      <trkpt lat="43.4921" lon="1.51327">
        <ele>151.86470032</ele>
        <time>2018-05-27T06:41:25Z</time>
      </trkpt>
      <trkpt lat="43.49196" lon="1.51338">
        <ele>151.86470032</ele>
        <time>2018-05-27T06:41:26Z</time>
      </trkpt>
      <trkpt lat="43.49184" lon="1.5135">
        <ele>150.51019287</ele>
        <time>2018-05-27T06:41:27Z</time>
      </trkpt>
      <trkpt lat="43.49173" lon="1.51363">
        <ele>150.51019287</ele>
        <time>2018-05-27T06:41:28Z</time>
      </trkpt>
      <trkpt lat="43.49171" lon="1.51374">
        <ele>150.51019287</ele>
        <time>2018-05-27T06:41:29Z</time>
      </trkpt>
      <trkpt lat="43.4918" lon="1.51385">
        <ele>150.51019287</ele>
        <time>2018-05-27T06:41:31Z</time>
      </trkpt>
      <trkpt lat="43.49183" lon="1.51387">
        <ele>155.45870972</ele>
        <time>2018-05-27T06:41:39Z</time>
      </trkpt>
      <trkpt lat="43.49171" lon="1.5137">
        <ele>155.45870972</ele>
        <time>2018-05-27T06:41:43Z</time>
      </trkpt>
      <trkpt lat="43.49162" lon="1.51358">
        <ele>156.53730774</ele>
        <time>2018-05-27T06:41:46Z</time>
      </trkpt>
      <trkpt lat="43.49157" lon="1.51346">
        <ele>157.64186096</ele>
        <time>2018-05-27T06:41:50Z</time>
      </trkpt>
      <trkpt lat="43.49143" lon="1.51338">
        <ele>158.96347046</ele>
        <time>2018-05-27T06:41:53Z</time>
      </trkpt>
      <trkpt lat="43.4913" lon="1.5133">
        <ele>160.20266724</ele>
        <time>2018-05-27T06:41:55Z</time>
      </trkpt>
      <trkpt lat="43.49121" lon="1.51321">
        <ele>160.20266724</ele>
        <time>2018-05-27T06:41:58Z</time>
      </trkpt>
      <trkpt lat="43.49108" lon="1.51311">
        <ele>160.20266724</ele>
        <time>2018-05-27T06:42:01Z</time>
      </trkpt>
      <trkpt lat="43.49096" lon="1.51302">
        <ele>161.29948425</ele>
        <time>2018-05-27T06:42:04Z</time>
      </trkpt>
      <trkpt lat="43.49084" lon="1.51292">
        <ele>161.29948425</ele>
        <time>2018-05-27T06:42:06Z</time>
      </trkpt>
      <trkpt lat="43.49073" lon="1.51286">
        <ele>162.31462097</ele>
        <time>2018-05-27T06:42:09Z</time>
      </trkpt>
      <trkpt lat="43.49063" lon="1.51282">
        <ele>162.31462097</ele>
        <time>2018-05-27T06:42:12Z</time>
      </trkpt>
      <trkpt lat="43.49056" lon="1.51284">
        <ele>163.82931519</ele>
        <time>2018-05-27T06:42:13Z</time>
      </trkpt>
      <trkpt lat="43.49049" lon="1.51288">
        <ele>163.82931519</ele>
        <time>2018-05-27T06:42:16Z</time>
      </trkpt>
      <trkpt lat="43.49036" lon="1.51294">
        <ele>164.41079712</ele>
        <time>2018-05-27T06:42:19Z</time>
      </trkpt>
      <trkpt lat="43.49023" lon="1.51301">
        <ele>164.41079712</ele>
        <time>2018-05-27T06:42:22Z</time>
      </trkpt>
      <trkpt lat="43.49009" lon="1.51309">
        <ele>165.53868103</ele>
        <time>2018-05-27T06:42:24Z</time>
      </trkpt>
      <trkpt lat="43.49" lon="1.51321">
        <ele>166.71878052</ele>
        <time>2018-05-27T06:42:27Z</time>
      </trkpt>
      <trkpt lat="43.48993" lon="1.51334">
        <ele>166.71878052</ele>
        <time>2018-05-27T06:42:29Z</time>
      </trkpt>
      <trkpt lat="43.48987" lon="1.51345">
        <ele>167.86296082</ele>
        <time>2018-05-27T06:42:32Z</time>
      </trkpt>
      <trkpt lat="43.48982" lon="1.51356">
        <ele>169.06970215</ele>
        <time>2018-05-27T06:42:35Z</time>
      </trkpt>
      <trkpt lat="43.48976" lon="1.51367">
        <ele>170.17636108</ele>
        <time>2018-05-27T06:42:39Z</time>
      </trkpt>
      <trkpt lat="43.48967" lon="1.51376">
        <ele>171.28767395</ele>
        <time>2018-05-27T06:42:43Z</time>
      </trkpt>
      <trkpt lat="43.48957" lon="1.51388">
        <ele>171.28767395</ele>
        <time>2018-05-27T06:42:47Z</time>
      </trkpt>
      <trkpt lat="43.48949" lon="1.514">
        <ele>172.49382019</ele>
        <time>2018-05-27T06:42:51Z</time>
      </trkpt>
      <trkpt lat="43.48942" lon="1.51412">
        <ele>172.49382019</ele>
        <time>2018-05-27T06:42:54Z</time>
      </trkpt>
      <trkpt lat="43.48939" lon="1.51422">
        <ele>173.54826355</ele>
        <time>2018-05-27T06:42:57Z</time>
      </trkpt>
      <trkpt lat="43.48933" lon="1.51433">
        <ele>174.64247131</ele>
        <time>2018-05-27T06:43:00Z</time>
      </trkpt>
      <trkpt lat="43.48924" lon="1.51437">
        <ele>175.79138184</ele>
        <time>2018-05-27T06:43:04Z</time>
      </trkpt>
      <trkpt lat="43.48912" lon="1.51429">
        <ele>175.79138184</ele>
        <time>2018-05-27T06:43:08Z</time>
      </trkpt>
      <trkpt lat="43.48905" lon="1.51416">
        <ele>176.93766785</ele>
        <time>2018-05-27T06:43:11Z</time>
      </trkpt>
      <trkpt lat="43.48901" lon="1.51408">
        <ele>178.45245361</ele>
        <time>2018-05-27T06:43:13Z</time>
      </trkpt>
      <trkpt lat="43.48895" lon="1.51398">
        <ele>179.10197449</ele>
        <time>2018-05-27T06:43:17Z</time>
      </trkpt>
      <trkpt lat="43.48887" lon="1.51386">
        <ele>179.10197449</ele>
        <time>2018-05-27T06:43:20Z</time>
      </trkpt>
      <trkpt lat="43.48881" lon="1.51376">
        <ele>180.23626709</ele>
        <time>2018-05-27T06:43:23Z</time>
      </trkpt>
      <trkpt lat="43.48875" lon="1.51365">
        <ele>181.46405029</ele>
        <time>2018-05-27T06:43:26Z</time>
      </trkpt>
      <trkpt lat="43.48867" lon="1.51353">
        <ele>182.68981934</ele>
        <time>2018-05-27T06:43:30Z</time>
      </trkpt>
      <trkpt lat="43.48859" lon="1.51341">
        <ele>183.80851746</ele>
        <time>2018-05-27T06:43:33Z</time>
      </trkpt>
      <trkpt lat="43.48853" lon="1.51329">
        <ele>184.9360199</ele>
        <time>2018-05-27T06:43:37Z</time>
      </trkpt>
      <trkpt lat="43.48843" lon="1.51317">
        <ele>184.9360199</ele>
        <time>2018-05-27T06:43:40Z</time>
      </trkpt>
      <trkpt lat="43.48836" lon="1.51305">
        <ele>186.1272583</ele>
        <time>2018-05-27T06:43:44Z</time>
      </trkpt>
      <trkpt lat="43.48828" lon="1.51294">
        <ele>187.35255432</ele>
        <time>2018-05-27T06:43:48Z</time>
      </trkpt>
      <trkpt lat="43.48822" lon="1.5128">
        <ele>188.61114502</ele>
        <time>2018-05-27T06:43:51Z</time>
      </trkpt>
      <trkpt lat="43.48813" lon="1.51277">
        <ele>191.43911743</ele>
        <time>2018-05-27T06:46:21Z</time>
      </trkpt>
      <trkpt lat="43.48809" lon="1.51277">
        <ele>191.43911743</ele>
        <time>2018-05-27T06:46:28Z</time>
      </trkpt>
      <trkpt lat="43.48792" lon="1.5128">
        <ele>191.60397339</ele>
        <time>2018-05-27T06:46:34Z</time>
      </trkpt>
      <trkpt lat="43.48784" lon="1.51288">
        <ele>193.22384644</ele>
        <time>2018-05-27T06:46:40Z</time>
      </trkpt>
      <trkpt lat="43.48773" lon="1.51299">
        <ele>194.32536316</ele>
        <time>2018-05-27T06:46:45Z</time>
      </trkpt>
      <trkpt lat="43.48757" lon="1.51297">
        <ele>194.32536316</ele>
        <time>2018-05-27T06:46:48Z</time>
      </trkpt>
      <trkpt lat="43.48747" lon="1.51293">
        <ele>195.43032837</ele>
        <time>2018-05-27T06:46:51Z</time>
      </trkpt>
      <trkpt lat="43.48737" lon="1.51289">
        <ele>195.43032837</ele>
        <time>2018-05-27T06:46:54Z</time>
      </trkpt>
      <trkpt lat="43.48726" lon="1.51286">
        <ele>195.43032837</ele>
        <time>2018-05-27T06:46:58Z</time>
      </trkpt>
      <trkpt lat="43.48715" lon="1.51296">
        <ele>195.43032837</ele>
        <time>2018-05-27T06:47:01Z</time>
      </trkpt>
      <trkpt lat="43.48706" lon="1.51307">
        <ele>195.43032837</ele>
        <time>2018-05-27T06:47:04Z</time>
      </trkpt>
      <trkpt lat="43.48691" lon="1.51318">
        <ele>195.43032837</ele>
        <time>2018-05-27T06:47:06Z</time>
      </trkpt>
      <trkpt lat="43.48677" lon="1.51327">
        <ele>195.99549866</ele>
        <time>2018-05-27T06:47:08Z</time>
      </trkpt>
      <trkpt lat="43.48663" lon="1.5134">
        <ele>193.80929565</ele>
        <time>2018-05-27T06:47:10Z</time>
      </trkpt>
      <trkpt lat="43.48645" lon="1.51358">
        <ele>190.32846069</ele>
        <time>2018-05-27T06:47:12Z</time>
      </trkpt>
      <trkpt lat="43.48635" lon="1.51376">
        <ele>189.23005676</ele>
        <time>2018-05-27T06:47:13Z</time>
      </trkpt>
      <trkpt lat="43.48628" lon="1.51387">
        <ele>188.11027527</ele>
        <time>2018-05-27T06:47:14Z</time>
      </trkpt>
      <trkpt lat="43.48622" lon="1.51399">
        <ele>187.01261902</ele>
        <time>2018-05-27T06:47:15Z</time>
      </trkpt>
      <trkpt lat="43.48617" lon="1.51409">
        <ele>184.6763916</ele>
        <time>2018-05-27T06:47:16Z</time>
      </trkpt>
      <trkpt lat="43.48607" lon="1.51417">
        <ele>182.49676514</ele>
        <time>2018-05-27T06:47:18Z</time>
      </trkpt>
      <trkpt lat="43.48589" lon="1.51416">
        <ele>182.49676514</ele>
        <time>2018-05-27T06:47:19Z</time>
      </trkpt>
      <trkpt lat="43.48577" lon="1.51417">
        <ele>181.46368408</ele>
        <time>2018-05-27T06:47:20Z</time>
      </trkpt>
      <trkpt lat="43.48566" lon="1.51423">
        <ele>181.46368408</ele>
        <time>2018-05-27T06:47:21Z</time>
      </trkpt>
      <trkpt lat="43.48555" lon="1.51435">
        <ele>180.4617157</ele>
        <time>2018-05-27T06:47:23Z</time>
      </trkpt>
      <trkpt lat="43.48541" lon="1.51451">
        <ele>180.4617157</ele>
        <time>2018-05-27T06:47:25Z</time>
      </trkpt>
      <trkpt lat="43.48531" lon="1.51469">
        <ele>180.4617157</ele>
        <time>2018-05-27T06:47:27Z</time>
      </trkpt>
      <trkpt lat="43.48522" lon="1.51484">
        <ele>180.4617157</ele>
        <time>2018-05-27T06:47:29Z</time>
      </trkpt>
      <trkpt lat="43.48513" lon="1.51496">
        <ele>180.33076477</ele>
        <time>2018-05-27T06:47:31Z</time>
      </trkpt>
      <trkpt lat="43.48504" lon="1.51507">
        <ele>180.33076477</ele>
        <time>2018-05-27T06:47:33Z</time>
      </trkpt>
      <trkpt lat="43.48492" lon="1.51519">
        <ele>181.91854858</ele>
        <time>2018-05-27T06:47:36Z</time>
      </trkpt>
      <trkpt lat="43.48479" lon="1.51531">
        <ele>181.91854858</ele>
        <time>2018-05-27T06:47:38Z</time>
      </trkpt>
      <trkpt lat="43.48469" lon="1.51541">
        <ele>181.91854858</ele>
        <time>2018-05-27T06:47:40Z</time>
      </trkpt>
      <trkpt lat="43.48462" lon="1.51552">
        <ele>181.91854858</ele>
        <time>2018-05-27T06:47:42Z</time>
      </trkpt>
      <trkpt lat="43.48456" lon="1.51563">
        <ele>181.91854858</ele>
        <time>2018-05-27T06:47:44Z</time>
      </trkpt>
      <trkpt lat="43.4845" lon="1.51577">
        <ele>181.91854858</ele>
        <time>2018-05-27T06:47:46Z</time>
      </trkpt>
      <trkpt lat="43.48444" lon="1.51591">
        <ele>181.91854858</ele>
        <time>2018-05-27T06:47:47Z</time>
      </trkpt>
      <trkpt lat="43.48439" lon="1.51602">
        <ele>181.91854858</ele>
        <time>2018-05-27T06:47:49Z</time>
      </trkpt>
      <trkpt lat="43.48431" lon="1.51616">
        <ele>181.91854858</ele>
        <time>2018-05-27T06:47:51Z</time>
      </trkpt>
      <trkpt lat="43.48424" lon="1.5163">
        <ele>181.91854858</ele>
        <time>2018-05-27T06:47:53Z</time>
      </trkpt>
      <trkpt lat="43.48416" lon="1.51643">
        <ele>181.91854858</ele>
        <time>2018-05-27T06:47:55Z</time>
      </trkpt>
      <trkpt lat="43.48406" lon="1.51655">
        <ele>181.91854858</ele>
        <time>2018-05-27T06:47:57Z</time>
      </trkpt>
      <trkpt lat="43.48396" lon="1.51661">
        <ele>181.91854858</ele>
        <time>2018-05-27T06:47:59Z</time>
      </trkpt>
      <trkpt lat="43.48384" lon="1.51665">
        <ele>181.91854858</ele>
        <time>2018-05-27T06:48:01Z</time>
      </trkpt>
      <trkpt lat="43.48372" lon="1.5167">
        <ele>181.91854858</ele>
        <time>2018-05-27T06:48:03Z</time>
      </trkpt>
      <trkpt lat="43.4836" lon="1.51674">
        <ele>182.85797119</ele>
        <time>2018-05-27T06:48:05Z</time>
      </trkpt>
      <trkpt lat="43.48349" lon="1.51677">
        <ele>182.85797119</ele>
        <time>2018-05-27T06:48:07Z</time>
      </trkpt>
      <trkpt lat="43.48337" lon="1.51682">
        <ele>182.85797119</ele>
        <time>2018-05-27T06:48:09Z</time>
      </trkpt>
      <trkpt lat="43.48325" lon="1.51689">
        <ele>182.85797119</ele>
        <time>2018-05-27T06:48:12Z</time>
      </trkpt>
      <trkpt lat="43.48317" lon="1.51695">
        <ele>183.81130981</ele>
        <time>2018-05-27T06:48:13Z</time>
      </trkpt>
      <trkpt lat="43.48308" lon="1.517">
        <ele>183.81130981</ele>
        <time>2018-05-27T06:48:16Z</time>
      </trkpt>
      <trkpt lat="43.48295" lon="1.51707">
        <ele>183.81130981</ele>
        <time>2018-05-27T06:48:18Z</time>
      </trkpt>
      <trkpt lat="43.48283" lon="1.51713">
        <ele>184.7723999</ele>
        <time>2018-05-27T06:48:21Z</time>
      </trkpt>
      <trkpt lat="43.48269" lon="1.51722">
        <ele>184.7723999</ele>
        <time>2018-05-27T06:48:24Z</time>
      </trkpt>
      <trkpt lat="43.48257" lon="1.51726">
        <ele>184.7723999</ele>
        <time>2018-05-27T06:48:26Z</time>
      </trkpt>
      <trkpt lat="43.48247" lon="1.51732">
        <ele>184.7723999</ele>
        <time>2018-05-27T06:48:28Z</time>
      </trkpt>
      <trkpt lat="43.48233" lon="1.51734">
        <ele>184.7723999</ele>
        <time>2018-05-27T06:48:30Z</time>
      </trkpt>
      <trkpt lat="43.48219" lon="1.51734">
        <ele>184.7723999</ele>
        <time>2018-05-27T06:48:32Z</time>
      </trkpt>
      <trkpt lat="43.48208" lon="1.5173">
        <ele>184.7723999</ele>
        <time>2018-05-27T06:48:34Z</time>
      </trkpt>
      <trkpt lat="43.48196" lon="1.51727">
        <ele>184.7723999</ele>
        <time>2018-05-27T06:48:36Z</time>
      </trkpt>
      <trkpt lat="43.48186" lon="1.51724">
        <ele>185.20901489</ele>
        <time>2018-05-27T06:48:38Z</time>
      </trkpt>
      <trkpt lat="43.48175" lon="1.51722">
        <ele>183.18437195</ele>
        <time>2018-05-27T06:48:40Z</time>
      </trkpt>
      <trkpt lat="43.48168" lon="1.51714">
        <ele>183.18437195</ele>
        <time>2018-05-27T06:48:43Z</time>
      </trkpt>
      <trkpt lat="43.48167" lon="1.51702">
        <ele>183.18437195</ele>
        <time>2018-05-27T06:48:47Z</time>
      </trkpt>
      <trkpt lat="43.48172" lon="1.51688">
        <ele>183.18437195</ele>
        <time>2018-05-27T06:48:50Z</time>
      </trkpt>
      <trkpt lat="43.48174" lon="1.51675">
        <ele>182.55726624</ele>
        <time>2018-05-27T06:48:53Z</time>
      </trkpt>
      <trkpt lat="43.48175" lon="1.51662">
        <ele>184.40779114</ele>
        <time>2018-05-27T06:48:56Z</time>
      </trkpt>
      <trkpt lat="43.48179" lon="1.5165">
        <ele>184.40779114</ele>
        <time>2018-05-27T06:48:59Z</time>
      </trkpt>
      <trkpt lat="43.48174" lon="1.51639">
        <ele>184.65901184</ele>
        <time>2018-05-27T06:49:03Z</time>
      </trkpt>
      <trkpt lat="43.48161" lon="1.51627">
        <ele>180.98168945</ele>
        <time>2018-05-27T06:49:07Z</time>
      </trkpt>
      <trkpt lat="43.4816" lon="1.51609">
        <ele>179.91072083</ele>
        <time>2018-05-27T06:49:09Z</time>
      </trkpt>
      <trkpt lat="43.48157" lon="1.516">
        <ele>178.41307068</ele>
        <time>2018-05-27T06:49:13Z</time>
      </trkpt>
      <trkpt lat="43.48148" lon="1.5159">
        <ele>176.23016357</ele>
        <time>2018-05-27T06:49:19Z</time>
      </trkpt>
      <trkpt lat="43.4814" lon="1.51578">
        <ele>175.05296326</ele>
        <time>2018-05-27T06:49:22Z</time>
      </trkpt>
      <trkpt lat="43.48132" lon="1.51566">
        <ele>172.4937439</ele>
        <time>2018-05-27T06:49:25Z</time>
      </trkpt>
      <trkpt lat="43.4812" lon="1.51557">
        <ele>170.82217407</ele>
        <time>2018-05-27T06:49:28Z</time>
      </trkpt>
      <trkpt lat="43.48114" lon="1.51547">
        <ele>169.20402527</ele>
        <time>2018-05-27T06:49:31Z</time>
      </trkpt>
      <trkpt lat="43.48111" lon="1.51535">
        <ele>167.90968323</ele>
        <time>2018-05-27T06:49:35Z</time>
      </trkpt>
      <trkpt lat="43.48115" lon="1.51524">
        <ele>167.90968323</ele>
        <time>2018-05-27T06:49:38Z</time>
      </trkpt>
      <trkpt lat="43.48116" lon="1.5151">
        <ele>167.90968323</ele>
        <time>2018-05-27T06:49:40Z</time>
      </trkpt>
      <trkpt lat="43.48116" lon="1.51499">
        <ele>167.90968323</ele>
        <time>2018-05-27T06:49:44Z</time>
      </trkpt>
      <trkpt lat="43.48112" lon="1.51485">
        <ele>167.90968323</ele>
        <time>2018-05-27T06:49:48Z</time>
      </trkpt>
      <trkpt lat="43.48108" lon="1.51471">
        <ele>167.90968323</ele>
        <time>2018-05-27T06:49:51Z</time>
      </trkpt>
      <trkpt lat="43.48109" lon="1.5146">
        <ele>167.90968323</ele>
        <time>2018-05-27T06:49:55Z</time>
      </trkpt>
      <trkpt lat="43.4811" lon="1.5145">
        <ele>167.79847717</ele>
        <time>2018-05-27T06:50:01Z</time>
      </trkpt>
      <trkpt lat="43.48104" lon="1.51435">
        <ele>165.65914917</ele>
        <time>2018-05-27T06:50:03Z</time>
      </trkpt>
      <trkpt lat="43.48094" lon="1.51423">
        <ele>165.65914917</ele>
        <time>2018-05-27T06:50:05Z</time>
      </trkpt>
      <trkpt lat="43.48087" lon="1.51409">
        <ele>165.65914917</ele>
        <time>2018-05-27T06:50:07Z</time>
      </trkpt>
      <trkpt lat="43.48082" lon="1.51396">
        <ele>165.65914917</ele>
        <time>2018-05-27T06:50:10Z</time>
      </trkpt>
      <trkpt lat="43.48088" lon="1.51385">
        <ele>164.80892944</ele>
        <time>2018-05-27T06:50:13Z</time>
      </trkpt>
      <trkpt lat="43.4809" lon="1.51372">
        <ele>164.80892944</ele>
        <time>2018-05-27T06:50:15Z</time>
      </trkpt>
      <trkpt lat="43.48089" lon="1.51357">
        <ele>164.80892944</ele>
        <time>2018-05-27T06:50:17Z</time>
      </trkpt>
      <trkpt lat="43.48087" lon="1.51341">
        <ele>164.80892944</ele>
        <time>2018-05-27T06:50:19Z</time>
      </trkpt>
      <trkpt lat="43.48086" lon="1.51324">
        <ele>164.80892944</ele>
        <time>2018-05-27T06:50:21Z</time>
      </trkpt>
      <trkpt lat="43.4809" lon="1.5131">
        <ele>164.80892944</ele>
        <time>2018-05-27T06:50:23Z</time>
      </trkpt>
      <trkpt lat="43.48087" lon="1.51305">
        <ele>164.80892944</ele>
        <time>2018-05-27T06:50:29Z</time>
      </trkpt>
      <trkpt lat="43.48076" lon="1.51319">
        <ele>165.70567322</ele>
        <time>2018-05-27T06:50:32Z</time>
      </trkpt>
      <trkpt lat="43.48068" lon="1.51331">
        <ele>165.70567322</ele>
        <time>2018-05-27T06:50:35Z</time>
      </trkpt>
      <trkpt lat="43.48061" lon="1.51343">
        <ele>168.34318542</ele>
        <time>2018-05-27T06:50:38Z</time>
      </trkpt>
      <trkpt lat="43.48055" lon="1.51356">
        <ele>168.34318542</ele>
        <time>2018-05-27T06:50:41Z</time>
      </trkpt>
      <trkpt lat="43.48049" lon="1.51368">
        <ele>169.45910645</ele>
        <time>2018-05-27T06:50:44Z</time>
      </trkpt>
      <trkpt lat="43.48044" lon="1.51381">
        <ele>170.74230957</ele>
        <time>2018-05-27T06:50:47Z</time>
      </trkpt>
      <trkpt lat="43.48039" lon="1.51392">
        <ele>170.74230957</ele>
        <time>2018-05-27T06:50:50Z</time>
      </trkpt>
      <trkpt lat="43.4803" lon="1.51403">
        <ele>171.95606995</ele>
        <time>2018-05-27T06:50:53Z</time>
      </trkpt>
      <trkpt lat="43.48024" lon="1.51414">
        <ele>173.2427063</ele>
        <time>2018-05-27T06:50:56Z</time>
      </trkpt>
      <trkpt lat="43.48019" lon="1.51425">
        <ele>173.2427063</ele>
        <time>2018-05-27T06:50:59Z</time>
      </trkpt>
      <trkpt lat="43.48018" lon="1.51436">
        <ele>174.28981018</ele>
        <time>2018-05-27T06:51:03Z</time>
      </trkpt>
      <trkpt lat="43.48012" lon="1.51448">
        <ele>175.92306519</ele>
        <time>2018-05-27T06:51:13Z</time>
      </trkpt>
      <trkpt lat="43.48011" lon="1.51446">
        <ele>176.14399719</ele>
        <time>2018-05-27T06:52:38Z</time>
      </trkpt>
      <trkpt lat="43.48011" lon="1.51448">
        <ele>176.14399719</ele>
        <time>2018-05-27T06:52:49Z</time>
      </trkpt>
      <trkpt lat="43.47997" lon="1.51465">
        <ele>176.14399719</ele>
        <time>2018-05-27T06:52:53Z</time>
      </trkpt>
      <trkpt lat="43.4799" lon="1.51476">
        <ele>176.2923584</ele>
        <time>2018-05-27T06:52:56Z</time>
      </trkpt>
      <trkpt lat="43.47985" lon="1.51486">
        <ele>176.2923584</ele>
        <time>2018-05-27T06:53:00Z</time>
      </trkpt>
      <trkpt lat="43.47979" lon="1.515">
        <ele>177.5884552</ele>
        <time>2018-05-27T06:53:04Z</time>
      </trkpt>
      <trkpt lat="43.47973" lon="1.5151">
        <ele>177.5884552</ele>
        <time>2018-05-27T06:53:07Z</time>
      </trkpt>
      <trkpt lat="43.47966" lon="1.51522">
        <ele>178.65510559</ele>
        <time>2018-05-27T06:53:10Z</time>
      </trkpt>
      <trkpt lat="43.47959" lon="1.51538">
        <ele>179.62823486</ele>
        <time>2018-05-27T06:53:13Z</time>
      </trkpt>
      <trkpt lat="43.47956" lon="1.51548">
        <ele>179.62823486</ele>
        <time>2018-05-27T06:53:16Z</time>
      </trkpt>
      <trkpt lat="43.47952" lon="1.51562">
        <ele>180.54527283</ele>
        <time>2018-05-27T06:53:20Z</time>
      </trkpt>
      <trkpt lat="43.4795" lon="1.51572">
        <ele>181.63449097</ele>
        <time>2018-05-27T06:53:24Z</time>
      </trkpt>
      <trkpt lat="43.4795" lon="1.51583">
        <ele>181.63449097</ele>
        <time>2018-05-27T06:53:28Z</time>
      </trkpt>
      <trkpt lat="43.47953" lon="1.51596">
        <ele>181.63449097</ele>
        <time>2018-05-27T06:53:32Z</time>
      </trkpt>
      <trkpt lat="43.47954" lon="1.51609">
        <ele>181.63449097</ele>
        <time>2018-05-27T06:53:35Z</time>
      </trkpt>
      <trkpt lat="43.47957" lon="1.5162">
        <ele>181.63449097</ele>
        <time>2018-05-27T06:53:38Z</time>
      </trkpt>
      <trkpt lat="43.47962" lon="1.51632">
        <ele>181.63449097</ele>
        <time>2018-05-27T06:53:40Z</time>
      </trkpt>
      <trkpt lat="43.47969" lon="1.51644">
        <ele>182.07937622</ele>
        <time>2018-05-27T06:53:42Z</time>
      </trkpt>
      <trkpt lat="43.47976" lon="1.51657">
        <ele>182.07937622</ele>
        <time>2018-05-27T06:53:44Z</time>
      </trkpt>
      <trkpt lat="43.47979" lon="1.51671">
        <ele>182.07937622</ele>
        <time>2018-05-27T06:53:46Z</time>
      </trkpt>
      <trkpt lat="43.47984" lon="1.51686">
        <ele>180.42976379</ele>
        <time>2018-05-27T06:53:48Z</time>
      </trkpt>
      <trkpt lat="43.47992" lon="1.517">
        <ele>180.42976379</ele>
        <time>2018-05-27T06:53:50Z</time>
      </trkpt>
      <trkpt lat="43.47997" lon="1.51713">
        <ele>179.18681335</ele>
        <time>2018-05-27T06:53:52Z</time>
      </trkpt>
      <trkpt lat="43.47999" lon="1.51729">
        <ele>179.18681335</ele>
        <time>2018-05-27T06:53:54Z</time>
      </trkpt>
      <trkpt lat="43.48001" lon="1.51744">
        <ele>177.99620056</ele>
        <time>2018-05-27T06:53:55Z</time>
      </trkpt>
      <trkpt lat="43.48" lon="1.51757">
        <ele>177.99620056</ele>
        <time>2018-05-27T06:53:57Z</time>
      </trkpt>
      <trkpt lat="43.47994" lon="1.51772">
        <ele>177.99620056</ele>
        <time>2018-05-27T06:53:59Z</time>
      </trkpt>
      <trkpt lat="43.47982" lon="1.51783">
        <ele>175.70205688</ele>
        <time>2018-05-27T06:54:02Z</time>
      </trkpt>
      <trkpt lat="43.47968" lon="1.51795">
        <ele>175.70205688</ele>
        <time>2018-05-27T06:54:04Z</time>
      </trkpt>
      <trkpt lat="43.47956" lon="1.51804">
        <ele>175.70205688</ele>
        <time>2018-05-27T06:54:07Z</time>
      </trkpt>
      <trkpt lat="43.47945" lon="1.51814">
        <ele>174.59481812</ele>
        <time>2018-05-27T06:54:12Z</time>
      </trkpt>
      <trkpt lat="43.47941" lon="1.51818">
        <ele>173.8704834</ele>
        <time>2018-05-27T06:54:13Z</time>
      </trkpt>
      <trkpt lat="43.47937" lon="1.51823">
        <ele>173.06651306</ele>
        <time>2018-05-27T06:54:22Z</time>
      </trkpt>
      <trkpt lat="43.47925" lon="1.51834">
        <ele>170.60331726</ele>
        <time>2018-05-27T06:54:29Z</time>
      </trkpt>
      <trkpt lat="43.47911" lon="1.51848">
        <ele>169.20803833</ele>
        <time>2018-05-27T06:54:32Z</time>
      </trkpt>
      <trkpt lat="43.47899" lon="1.51859">
        <ele>167.74862671</ele>
        <time>2018-05-27T06:54:34Z</time>
      </trkpt>
      <trkpt lat="43.47887" lon="1.51872">
        <ele>166.18742371</ele>
        <time>2018-05-27T06:54:36Z</time>
      </trkpt>
      <trkpt lat="43.47875" lon="1.51888">
        <ele>164.57818604</ele>
        <time>2018-05-27T06:54:38Z</time>
      </trkpt>
      <trkpt lat="43.47862" lon="1.51906">
        <ele>164.57818604</ele>
        <time>2018-05-27T06:54:40Z</time>
      </trkpt>
      <trkpt lat="43.4785" lon="1.51923">
        <ele>163.17909241</ele>
        <time>2018-05-27T06:54:42Z</time>
      </trkpt>
      <trkpt lat="43.47842" lon="1.51937">
        <ele>162.15148926</ele>
        <time>2018-05-27T06:54:44Z</time>
      </trkpt>
      <trkpt lat="43.47833" lon="1.51949">
        <ele>162.15148926</ele>
        <time>2018-05-27T06:54:46Z</time>
      </trkpt>
      <trkpt lat="43.47827" lon="1.51962">
        <ele>162.15148926</ele>
        <time>2018-05-27T06:54:49Z</time>
      </trkpt>
      <trkpt lat="43.47823" lon="1.51976">
        <ele>162.16981506</ele>
        <time>2018-05-27T06:54:52Z</time>
      </trkpt>
      <trkpt lat="43.47821" lon="1.51988">
        <ele>162.16981506</ele>
        <time>2018-05-27T06:54:55Z</time>
      </trkpt>
      <trkpt lat="43.47825" lon="1.52">
        <ele>165.21537781</ele>
        <time>2018-05-27T06:54:59Z</time>
      </trkpt>
      <trkpt lat="43.47833" lon="1.52008">
        <ele>166.56840515</ele>
        <time>2018-05-27T06:55:03Z</time>
      </trkpt>
      <trkpt lat="43.47847" lon="1.52009">
        <ele>167.80560303</ele>
        <time>2018-05-27T06:55:06Z</time>
      </trkpt>
      <trkpt lat="43.47861" lon="1.52007">
        <ele>168.99577332</ele>
        <time>2018-05-27T06:55:09Z</time>
      </trkpt>
      <trkpt lat="43.47871" lon="1.52006">
        <ele>170.01931763</ele>
        <time>2018-05-27T06:55:12Z</time>
      </trkpt>
      <trkpt lat="43.47879" lon="1.52005">
        <ele>170.62052917</ele>
        <time>2018-05-27T06:55:13Z</time>
      </trkpt>
      <trkpt lat="43.47887" lon="1.52004">
        <ele>171.32194519</ele>
        <time>2018-05-27T06:55:16Z</time>
      </trkpt>
      <trkpt lat="43.479" lon="1.52004">
        <ele>171.32194519</ele>
        <time>2018-05-27T06:55:19Z</time>
      </trkpt>
      <trkpt lat="43.47915" lon="1.52005">
        <ele>172.46362305</ele>
        <time>2018-05-27T06:55:22Z</time>
      </trkpt>
      <trkpt lat="43.47926" lon="1.52005">
        <ele>172.46362305</ele>
        <time>2018-05-27T06:55:25Z</time>
      </trkpt>
      <trkpt lat="43.47937" lon="1.52008">
        <ele>173.73091125</ele>
        <time>2018-05-27T06:55:28Z</time>
      </trkpt>
      <trkpt lat="43.47945" lon="1.52019">
        <ele>174.89099121</ele>
        <time>2018-05-27T06:55:31Z</time>
      </trkpt>
      <trkpt lat="43.47948" lon="1.52032">
        <ele>174.89099121</ele>
        <time>2018-05-27T06:55:33Z</time>
      </trkpt>
      <trkpt lat="43.47949" lon="1.52045">
        <ele>175.96755981</ele>
        <time>2018-05-27T06:55:36Z</time>
      </trkpt>
      <trkpt lat="43.4795" lon="1.52058">
        <ele>177.15982056</ele>
        <time>2018-05-27T06:55:38Z</time>
      </trkpt>
      <trkpt lat="43.47951" lon="1.52068">
        <ele>177.15982056</ele>
        <time>2018-05-27T06:55:40Z</time>
      </trkpt>
      <trkpt lat="43.47952" lon="1.5208">
        <ele>177.15982056</ele>
        <time>2018-05-27T06:55:42Z</time>
      </trkpt>
      <trkpt lat="43.47952" lon="1.52091">
        <ele>177.15982056</ele>
        <time>2018-05-27T06:55:44Z</time>
      </trkpt>
      <trkpt lat="43.47954" lon="1.52102">
        <ele>178.29600525</ele>
        <time>2018-05-27T06:55:46Z</time>
      </trkpt>
      <trkpt lat="43.47954" lon="1.52113">
        <ele>178.29600525</ele>
        <time>2018-05-27T06:55:48Z</time>
      </trkpt>
      <trkpt lat="43.47954" lon="1.52126">
        <ele>178.29600525</ele>
        <time>2018-05-27T06:55:50Z</time>
      </trkpt>
      <trkpt lat="43.47955" lon="1.52138">
        <ele>178.29600525</ele>
        <time>2018-05-27T06:55:52Z</time>
      </trkpt>
      <trkpt lat="43.47955" lon="1.52151">
        <ele>178.29600525</ele>
        <time>2018-05-27T06:55:55Z</time>
      </trkpt>
      <trkpt lat="43.47955" lon="1.52165">
        <ele>178.29600525</ele>
        <time>2018-05-27T06:55:57Z</time>
      </trkpt>
      <trkpt lat="43.47956" lon="1.52178">
        <ele>178.29600525</ele>
        <time>2018-05-27T06:55:59Z</time>
      </trkpt>
      <trkpt lat="43.47955" lon="1.52189">
        <ele>179.13861084</ele>
        <time>2018-05-27T06:56:01Z</time>
      </trkpt>
      <trkpt lat="43.47954" lon="1.522">
        <ele>179.13861084</ele>
        <time>2018-05-27T06:56:03Z</time>
      </trkpt>
      <trkpt lat="43.47954" lon="1.52211">
        <ele>179.13861084</ele>
        <time>2018-05-27T06:56:05Z</time>
      </trkpt>
      <trkpt lat="43.47955" lon="1.52224">
        <ele>179.13861084</ele>
        <time>2018-05-27T06:56:08Z</time>
      </trkpt>
      <trkpt lat="43.47957" lon="1.52238">
        <ele>179.13861084</ele>
        <time>2018-05-27T06:56:11Z</time>
      </trkpt>
      <trkpt lat="43.47959" lon="1.52254">
        <ele>180.25202942</ele>
        <time>2018-05-27T06:56:13Z</time>
      </trkpt>
      <trkpt lat="43.4796" lon="1.52264">
        <ele>180.25202942</ele>
        <time>2018-05-27T06:56:16Z</time>
      </trkpt>
      <trkpt lat="43.47962" lon="1.52279">
        <ele>180.25202942</ele>
        <time>2018-05-27T06:56:19Z</time>
      </trkpt>
      <trkpt lat="43.47965" lon="1.52294">
        <ele>181.32154846</ele>
        <time>2018-05-27T06:56:21Z</time>
      </trkpt>
      <trkpt lat="43.47965" lon="1.52307">
        <ele>181.32154846</ele>
        <time>2018-05-27T06:56:24Z</time>
      </trkpt>
      <trkpt lat="43.47967" lon="1.52321">
        <ele>182.53730774</ele>
        <time>2018-05-27T06:56:27Z</time>
      </trkpt>
      <trkpt lat="43.47967" lon="1.52334">
        <ele>182.53730774</ele>
        <time>2018-05-27T06:56:29Z</time>
      </trkpt>
      <trkpt lat="43.47968" lon="1.52346">
        <ele>183.68719482</ele>
        <time>2018-05-27T06:56:32Z</time>
      </trkpt>
      <trkpt lat="43.47967" lon="1.52361">
        <ele>183.68719482</ele>
        <time>2018-05-27T06:56:35Z</time>
      </trkpt>
      <trkpt lat="43.4796" lon="1.5237">
        <ele>184.63934326</ele>
        <time>2018-05-27T06:56:39Z</time>
      </trkpt>
      <trkpt lat="43.47947" lon="1.52369">
        <ele>185.72271729</ele>
        <time>2018-05-27T06:56:42Z</time>
      </trkpt>
      <trkpt lat="43.47934" lon="1.52366">
        <ele>186.80926514</ele>
        <time>2018-05-27T06:56:46Z</time>
      </trkpt>
      <trkpt lat="43.47923" lon="1.52364">
        <ele>187.96363831</ele>
        <time>2018-05-27T06:56:50Z</time>
      </trkpt>
      <trkpt lat="43.47915" lon="1.52356">
        <ele>187.96363831</ele>
        <time>2018-05-27T06:56:54Z</time>
      </trkpt>
      <trkpt lat="43.47907" lon="1.52343">
        <ele>188.97608948</ele>
        <time>2018-05-27T06:56:58Z</time>
      </trkpt>
      <trkpt lat="43.47899" lon="1.52331">
        <ele>190.07211304</ele>
        <time>2018-05-27T06:57:01Z</time>
      </trkpt>
      <trkpt lat="43.47894" lon="1.5232">
        <ele>190.07211304</ele>
        <time>2018-05-27T06:57:04Z</time>
      </trkpt>
      <trkpt lat="43.47889" lon="1.52308">
        <ele>191.11712646</ele>
        <time>2018-05-27T06:57:07Z</time>
      </trkpt>
      <trkpt lat="43.47883" lon="1.52297">
        <ele>192.1865387</ele>
        <time>2018-05-27T06:57:10Z</time>
      </trkpt>
      <trkpt lat="43.47878" lon="1.52283">
        <ele>192.1865387</ele>
        <time>2018-05-27T06:57:12Z</time>
      </trkpt>
      <trkpt lat="43.47876" lon="1.52276">
        <ele>192.8449707</ele>
        <time>2018-05-27T06:57:13Z</time>
      </trkpt>
      <trkpt lat="43.47875" lon="1.52268">
        <ele>192.8449707</ele>
        <time>2018-05-27T06:57:16Z</time>
      </trkpt>
      <trkpt lat="43.47869" lon="1.52255">
        <ele>192.8449707</ele>
        <time>2018-05-27T06:57:19Z</time>
      </trkpt>
      <trkpt lat="43.47857" lon="1.52253">
        <ele>193.57859802</ele>
        <time>2018-05-27T06:57:22Z</time>
      </trkpt>
      <trkpt lat="43.47849" lon="1.52264">
        <ele>193.57859802</ele>
        <time>2018-05-27T06:57:25Z</time>
      </trkpt>
      <trkpt lat="43.47845" lon="1.52277">
        <ele>194.56286621</ele>
        <time>2018-05-27T06:57:28Z</time>
      </trkpt>
      <trkpt lat="43.47843" lon="1.5229">
        <ele>194.56286621</ele>
        <time>2018-05-27T06:57:31Z</time>
      </trkpt>
      <trkpt lat="43.47839" lon="1.52302">
        <ele>195.76533508</ele>
        <time>2018-05-27T06:57:34Z</time>
      </trkpt>
      <trkpt lat="43.47836" lon="1.52315">
        <ele>196.83932495</ele>
        <time>2018-05-27T06:57:37Z</time>
      </trkpt>
      <trkpt lat="43.47831" lon="1.52328">
        <ele>196.83932495</ele>
        <time>2018-05-27T06:57:40Z</time>
      </trkpt>
      <trkpt lat="43.47826" lon="1.52339">
        <ele>198.01487732</ele>
        <time>2018-05-27T06:57:43Z</time>
      </trkpt>
      <trkpt lat="43.47822" lon="1.52351">
        <ele>199.17367554</ele>
        <time>2018-05-27T06:57:46Z</time>
      </trkpt>
      <trkpt lat="43.47817" lon="1.52361">
        <ele>199.17367554</ele>
        <time>2018-05-27T06:57:49Z</time>
      </trkpt>
      <trkpt lat="43.47813" lon="1.52373">
        <ele>200.34815979</ele>
        <time>2018-05-27T06:57:52Z</time>
      </trkpt>
      <trkpt lat="43.47807" lon="1.52384">
        <ele>200.34815979</ele>
        <time>2018-05-27T06:57:55Z</time>
      </trkpt>
      <trkpt lat="43.47801" lon="1.52395">
        <ele>201.4289856</ele>
        <time>2018-05-27T06:57:58Z</time>
      </trkpt>
      <trkpt lat="43.47797" lon="1.52405">
        <ele>201.4289856</ele>
        <time>2018-05-27T06:58:01Z</time>
      </trkpt>
      <trkpt lat="43.4779" lon="1.52417">
        <ele>202.53996277</ele>
        <time>2018-05-27T06:58:04Z</time>
      </trkpt>
      <trkpt lat="43.47783" lon="1.52429">
        <ele>202.53996277</ele>
        <time>2018-05-27T06:58:07Z</time>
      </trkpt>
      <trkpt lat="43.47776" lon="1.52441">
        <ele>202.53996277</ele>
        <time>2018-05-27T06:58:10Z</time>
      </trkpt>
      <trkpt lat="43.47767" lon="1.52458">
        <ele>204.31210327</ele>
        <time>2018-05-27T06:58:13Z</time>
      </trkpt>
      <trkpt lat="43.47763" lon="1.52466">
        <ele>204.31210327</ele>
        <time>2018-05-27T06:58:16Z</time>
      </trkpt>
      <trkpt lat="43.47757" lon="1.52478">
        <ele>204.31210327</ele>
        <time>2018-05-27T06:58:19Z</time>
      </trkpt>
      <trkpt lat="43.47751" lon="1.52489">
        <ele>205.06019592</ele>
        <time>2018-05-27T06:58:23Z</time>
      </trkpt>
      <trkpt lat="43.47747" lon="1.52502">
        <ele>205.06019592</ele>
        <time>2018-05-27T06:58:26Z</time>
      </trkpt>
      <trkpt lat="43.47738" lon="1.52509">
        <ele>205.06019592</ele>
        <time>2018-05-27T06:58:30Z</time>
      </trkpt>
      <trkpt lat="43.47723" lon="1.52506">
        <ele>205.06019592</ele>
        <time>2018-05-27T06:58:32Z</time>
      </trkpt>
      <trkpt lat="43.47713" lon="1.52504">
        <ele>205.15376282</ele>
        <time>2018-05-27T06:58:34Z</time>
      </trkpt>
      <trkpt lat="43.47703" lon="1.52503">
        <ele>205.15376282</ele>
        <time>2018-05-27T06:58:36Z</time>
      </trkpt>
      <trkpt lat="43.47692" lon="1.52502">
        <ele>205.15376282</ele>
        <time>2018-05-27T06:58:38Z</time>
      </trkpt>
      <trkpt lat="43.4768" lon="1.52502">
        <ele>205.15376282</ele>
        <time>2018-05-27T06:58:41Z</time>
      </trkpt>
      <trkpt lat="43.47665" lon="1.52504">
        <ele>205.15376282</ele>
        <time>2018-05-27T06:58:44Z</time>
      </trkpt>
      <trkpt lat="43.47653" lon="1.52506">
        <ele>203.54216003</ele>
        <time>2018-05-27T06:58:47Z</time>
      </trkpt>
      <trkpt lat="43.47646" lon="1.52516">
        <ele>203.54216003</ele>
        <time>2018-05-27T06:58:49Z</time>
      </trkpt>
      <trkpt lat="43.47643" lon="1.52528">
        <ele>203.54216003</ele>
        <time>2018-05-27T06:58:51Z</time>
      </trkpt>
      <trkpt lat="43.47638" lon="1.52542">
        <ele>203.54216003</ele>
        <time>2018-05-27T06:58:53Z</time>
      </trkpt>
      <trkpt lat="43.47635" lon="1.52558">
        <ele>202.79508972</ele>
        <time>2018-05-27T06:58:55Z</time>
      </trkpt>
      <trkpt lat="43.47633" lon="1.52577">
        <ele>202.79508972</ele>
        <time>2018-05-27T06:58:57Z</time>
      </trkpt>
      <trkpt lat="43.4763" lon="1.52593">
        <ele>201.3419342</ele>
        <time>2018-05-27T06:58:59Z</time>
      </trkpt>
      <trkpt lat="43.47623" lon="1.52602">
        <ele>201.3419342</ele>
        <time>2018-05-27T06:59:02Z</time>
      </trkpt>
      <trkpt lat="43.47607" lon="1.52598">
        <ele>200.16496277</ele>
        <time>2018-05-27T06:59:04Z</time>
      </trkpt>
      <trkpt lat="43.47598" lon="1.52597">
        <ele>200.46047974</ele>
        <time>2018-05-27T06:59:13Z</time>
      </trkpt>
      <trkpt lat="43.47604" lon="1.52595">
        <ele>200.46047974</ele>
        <time>2018-05-27T06:59:21Z</time>
      </trkpt>
      <trkpt lat="43.47599" lon="1.52612">
        <ele>200.33992004</ele>
        <time>2018-05-27T06:59:24Z</time>
      </trkpt>
      <trkpt lat="43.47594" lon="1.52624">
        <ele>198.84501648</ele>
        <time>2018-05-27T06:59:26Z</time>
      </trkpt>
      <trkpt lat="43.47588" lon="1.52636">
        <ele>197.51367188</ele>
        <time>2018-05-27T06:59:28Z</time>
      </trkpt>
      <trkpt lat="43.47583" lon="1.52651">
        <ele>196.34432983</ele>
        <time>2018-05-27T06:59:30Z</time>
      </trkpt>
      <trkpt lat="43.47577" lon="1.52669">
        <ele>195.26425171</ele>
        <time>2018-05-27T06:59:32Z</time>
      </trkpt>
      <trkpt lat="43.47571" lon="1.52688">
        <ele>194.24676514</ele>
        <time>2018-05-27T06:59:34Z</time>
      </trkpt>
      <trkpt lat="43.47564" lon="1.52707">
        <ele>192.9909668</ele>
        <time>2018-05-27T06:59:36Z</time>
      </trkpt>
      <trkpt lat="43.47556" lon="1.52726">
        <ele>191.50201416</ele>
        <time>2018-05-27T06:59:38Z</time>
      </trkpt>
      <trkpt lat="43.47549" lon="1.52745">
        <ele>190.00073242</ele>
        <time>2018-05-27T06:59:40Z</time>
      </trkpt>
      <trkpt lat="43.47544" lon="1.52761">
        <ele>190.00073242</ele>
        <time>2018-05-27T06:59:41Z</time>
      </trkpt>
      <trkpt lat="43.4754" lon="1.52772">
        <ele>188.54983521</ele>
        <time>2018-05-27T06:59:42Z</time>
      </trkpt>
      <trkpt lat="43.47535" lon="1.52788">
        <ele>188.54983521</ele>
        <time>2018-05-27T06:59:44Z</time>
      </trkpt>
      <trkpt lat="43.4753" lon="1.52804">
        <ele>187.12345886</ele>
        <time>2018-05-27T06:59:45Z</time>
      </trkpt>
      <trkpt lat="43.47527" lon="1.52816">
        <ele>185.84521484</ele>
        <time>2018-05-27T06:59:46Z</time>
      </trkpt>
      <trkpt lat="43.47526" lon="1.52829">
        <ele>185.84521484</ele>
        <time>2018-05-27T06:59:47Z</time>
      </trkpt>
      <trkpt lat="43.47522" lon="1.52841">
        <ele>184.69406128</ele>
        <time>2018-05-27T06:59:48Z</time>
      </trkpt>
      <trkpt lat="43.47519" lon="1.52851">
        <ele>184.69406128</ele>
        <time>2018-05-27T06:59:49Z</time>
      </trkpt>
      <trkpt lat="43.47517" lon="1.52863">
        <ele>183.37031555</ele>
        <time>2018-05-27T06:59:50Z</time>
      </trkpt>
      <trkpt lat="43.47513" lon="1.52874">
        <ele>183.37031555</ele>
        <time>2018-05-27T06:59:51Z</time>
      </trkpt>
      <trkpt lat="43.47505" lon="1.52889">
        <ele>182.24935913</ele>
        <time>2018-05-27T06:59:53Z</time>
      </trkpt>
      <trkpt lat="43.47496" lon="1.52908">
        <ele>182.24935913</ele>
        <time>2018-05-27T06:59:55Z</time>
      </trkpt>
      <trkpt lat="43.47485" lon="1.52926">
        <ele>182.24935913</ele>
        <time>2018-05-27T06:59:57Z</time>
      </trkpt>
      <trkpt lat="43.47475" lon="1.52941">
        <ele>182.24935913</ele>
        <time>2018-05-27T06:59:59Z</time>
      </trkpt>
      <trkpt lat="43.47466" lon="1.52954">
        <ele>181.31439209</ele>
        <time>2018-05-27T07:00:01Z</time>
      </trkpt>
      <trkpt lat="43.47456" lon="1.52965">
        <ele>181.31439209</ele>
        <time>2018-05-27T07:00:03Z</time>
      </trkpt>
      <trkpt lat="43.47445" lon="1.52976">
        <ele>181.31439209</ele>
        <time>2018-05-27T07:00:05Z</time>
      </trkpt>
      <trkpt lat="43.47436" lon="1.52987">
        <ele>181.31439209</ele>
        <time>2018-05-27T07:00:08Z</time>
      </trkpt>
      <trkpt lat="43.47426" lon="1.52999">
        <ele>181.31439209</ele>
        <time>2018-05-27T07:00:11Z</time>
      </trkpt>
      <trkpt lat="43.47417" lon="1.53015">
        <ele>180.62266541</ele>
        <time>2018-05-27T07:00:13Z</time>
      </trkpt>
      <trkpt lat="43.4741" lon="1.53024">
        <ele>180.62266541</ele>
        <time>2018-05-27T07:00:16Z</time>
      </trkpt>
      <trkpt lat="43.474" lon="1.53037">
        <ele>180.62266541</ele>
        <time>2018-05-27T07:00:19Z</time>
      </trkpt>
      <trkpt lat="43.47392" lon="1.53055">
        <ele>180.62266541</ele>
        <time>2018-05-27T07:00:21Z</time>
      </trkpt>
      <trkpt lat="43.47386" lon="1.5307">
        <ele>180.62266541</ele>
        <time>2018-05-27T07:00:23Z</time>
      </trkpt>
      <trkpt lat="43.47379" lon="1.53084">
        <ele>180.94534302</ele>
        <time>2018-05-27T07:00:25Z</time>
      </trkpt>
      <trkpt lat="43.47371" lon="1.53096">
        <ele>180.94534302</ele>
        <time>2018-05-27T07:00:27Z</time>
      </trkpt>
      <trkpt lat="43.47362" lon="1.53107">
        <ele>180.94534302</ele>
        <time>2018-05-27T07:00:29Z</time>
      </trkpt>
      <trkpt lat="43.47352" lon="1.53118">
        <ele>179.15504456</ele>
        <time>2018-05-27T07:00:31Z</time>
      </trkpt>
      <trkpt lat="43.47341" lon="1.53129">
        <ele>179.15504456</ele>
        <time>2018-05-27T07:00:34Z</time>
      </trkpt>
      <trkpt lat="43.47328" lon="1.53142">
        <ele>178.06893921</ele>
        <time>2018-05-27T07:00:37Z</time>
      </trkpt>
      <trkpt lat="43.47324" lon="1.5316">
        <ele>173.50369263</ele>
        <time>2018-05-27T07:00:39Z</time>
      </trkpt>
      <trkpt lat="43.47327" lon="1.53175">
        <ele>171.75018311</ele>
        <time>2018-05-27T07:00:40Z</time>
      </trkpt>
      <trkpt lat="43.47333" lon="1.53185">
        <ele>170.1247406</ele>
        <time>2018-05-27T07:00:41Z</time>
      </trkpt>
      <trkpt lat="43.47339" lon="1.53197">
        <ele>167.54704285</ele>
        <time>2018-05-27T07:00:43Z</time>
      </trkpt>
      <trkpt lat="43.47342" lon="1.53209">
        <ele>166.53330994</ele>
        <time>2018-05-27T07:00:46Z</time>
      </trkpt>
      <trkpt lat="43.47334" lon="1.53216">
        <ele>164.01730347</ele>
        <time>2018-05-27T07:00:50Z</time>
      </trkpt>
      <trkpt lat="43.47332" lon="1.53224">
        <ele>160.41215515</ele>
        <time>2018-05-27T07:00:59Z</time>
      </trkpt>
      <trkpt lat="43.47329" lon="1.53237">
        <ele>159.01942444</ele>
        <time>2018-05-27T07:01:03Z</time>
      </trkpt>
      <trkpt lat="43.47324" lon="1.53251">
        <ele>156.37208557</ele>
        <time>2018-05-27T07:01:06Z</time>
      </trkpt>
      <trkpt lat="43.47318" lon="1.53261">
        <ele>155.19970703</ele>
        <time>2018-05-27T07:01:10Z</time>
      </trkpt>
      <trkpt lat="43.47309" lon="1.53263">
        <ele>153.76948547</ele>
        <time>2018-05-27T07:01:13Z</time>
      </trkpt>
      <trkpt lat="43.47297" lon="1.53263">
        <ele>153.13226318</ele>
        <time>2018-05-27T07:01:30Z</time>
      </trkpt>
      <trkpt lat="43.47291" lon="1.53257">
        <ele>153.13226318</ele>
        <time>2018-05-27T07:01:37Z</time>
      </trkpt>
      <trkpt lat="43.4729" lon="1.53244">
        <ele>152.41377258</ele>
        <time>2018-05-27T07:01:42Z</time>
      </trkpt>
      <trkpt lat="43.47283" lon="1.53246">
        <ele>153.90281677</ele>
        <time>2018-05-27T07:01:49Z</time>
      </trkpt>
      <trkpt lat="43.47271" lon="1.53249">
        <ele>151.65534973</ele>
        <time>2018-05-27T07:01:52Z</time>
      </trkpt>
      <trkpt lat="43.47259" lon="1.53242">
        <ele>151.65534973</ele>
        <time>2018-05-27T07:01:57Z</time>
      </trkpt>
      <trkpt lat="43.47253" lon="1.53227">
        <ele>151.65534973</ele>
        <time>2018-05-27T07:02:00Z</time>
      </trkpt>
      <trkpt lat="43.47242" lon="1.53214">
        <ele>151.65534973</ele>
        <time>2018-05-27T07:02:02Z</time>
      </trkpt>
      <trkpt lat="43.47231" lon="1.53206">
        <ele>151.65534973</ele>
        <time>2018-05-27T07:02:04Z</time>
      </trkpt>
      <trkpt lat="43.4722" lon="1.53199">
        <ele>151.65534973</ele>
        <time>2018-05-27T07:02:06Z</time>
      </trkpt>
      <trkpt lat="43.4721" lon="1.53193">
        <ele>151.65534973</ele>
        <time>2018-05-27T07:02:08Z</time>
      </trkpt>
      <trkpt lat="43.47198" lon="1.53185">
        <ele>151.65534973</ele>
        <time>2018-05-27T07:02:11Z</time>
      </trkpt>
      <trkpt lat="43.47189" lon="1.5318">
        <ele>150.20002747</ele>
        <time>2018-05-27T07:02:13Z</time>
      </trkpt>
      <trkpt lat="43.47179" lon="1.53171">
        <ele>150.20002747</ele>
        <time>2018-05-27T07:02:17Z</time>
      </trkpt>
      <trkpt lat="43.47168" lon="1.53163">
        <ele>150.77314758</ele>
        <time>2018-05-27T07:02:21Z</time>
      </trkpt>
      <trkpt lat="43.47158" lon="1.53156">
        <ele>151.96022034</ele>
        <time>2018-05-27T07:02:26Z</time>
      </trkpt>
      <trkpt lat="43.47152" lon="1.53144">
        <ele>153.15446472</ele>
        <time>2018-05-27T07:02:30Z</time>
      </trkpt>
      <trkpt lat="43.47146" lon="1.53133">
        <ele>153.15446472</ele>
        <time>2018-05-27T07:02:33Z</time>
      </trkpt>
      <trkpt lat="43.47141" lon="1.53123">
        <ele>154.23423767</ele>
        <time>2018-05-27T07:02:37Z</time>
      </trkpt>
      <trkpt lat="43.47135" lon="1.53112">
        <ele>154.23423767</ele>
        <time>2018-05-27T07:02:41Z</time>
      </trkpt>
      <trkpt lat="43.47128" lon="1.531">
        <ele>154.23423767</ele>
        <time>2018-05-27T07:02:44Z</time>
      </trkpt>
      <trkpt lat="43.47121" lon="1.53089">
        <ele>154.23423767</ele>
        <time>2018-05-27T07:02:47Z</time>
      </trkpt>
      <trkpt lat="43.47112" lon="1.53078">
        <ele>154.23423767</ele>
        <time>2018-05-27T07:02:50Z</time>
      </trkpt>
      <trkpt lat="43.47103" lon="1.53066">
        <ele>154.23423767</ele>
        <time>2018-05-27T07:02:53Z</time>
      </trkpt>
      <trkpt lat="43.47096" lon="1.53054">
        <ele>154.23423767</ele>
        <time>2018-05-27T07:02:56Z</time>
      </trkpt>
      <trkpt lat="43.47091" lon="1.53043">
        <ele>154.23423767</ele>
        <time>2018-05-27T07:03:00Z</time>
      </trkpt>
      <trkpt lat="43.47082" lon="1.53035">
        <ele>154.23423767</ele>
        <time>2018-05-27T07:03:06Z</time>
      </trkpt>
      <trkpt lat="43.47078" lon="1.53022">
        <ele>154.23423767</ele>
        <time>2018-05-27T07:03:09Z</time>
      </trkpt>
      <trkpt lat="43.47083" lon="1.53005">
        <ele>154.48782349</ele>
        <time>2018-05-27T07:03:13Z</time>
      </trkpt>
      <trkpt lat="43.47086" lon="1.52997">
        <ele>156.37013245</ele>
        <time>2018-05-27T07:03:18Z</time>
      </trkpt>
      <trkpt lat="43.47089" lon="1.52985">
        <ele>158.73374939</ele>
        <time>2018-05-27T07:03:24Z</time>
      </trkpt>
      <trkpt lat="43.47091" lon="1.52972">
        <ele>159.74694824</ele>
        <time>2018-05-27T07:03:28Z</time>
      </trkpt>
      <trkpt lat="43.47093" lon="1.5296">
        <ele>160.84657288</ele>
        <time>2018-05-27T07:03:33Z</time>
      </trkpt>
      <trkpt lat="43.47096" lon="1.52949">
        <ele>161.94894409</ele>
        <time>2018-05-27T07:03:37Z</time>
      </trkpt>
      <trkpt lat="43.47097" lon="1.52938">
        <ele>161.94894409</ele>
        <time>2018-05-27T07:03:41Z</time>
      </trkpt>
      <trkpt lat="43.47099" lon="1.52926">
        <ele>163.08369446</ele>
        <time>2018-05-27T07:03:45Z</time>
      </trkpt>
      <trkpt lat="43.471" lon="1.52914">
        <ele>165.36833191</ele>
        <time>2018-05-27T07:03:50Z</time>
      </trkpt>
      <trkpt lat="43.47107" lon="1.5291">
        <ele>167.75756836</ele>
        <time>2018-05-27T07:03:58Z</time>
      </trkpt>
      <trkpt lat="43.47117" lon="1.52924">
        <ele>170.63842773</ele>
        <time>2018-05-27T07:04:03Z</time>
      </trkpt>
      <trkpt lat="43.47121" lon="1.52929">
        <ele>173.41830444</ele>
        <time>2018-05-27T07:04:30Z</time>
      </trkpt>
      <trkpt lat="43.47126" lon="1.52932">
        <ele>176.80142212</ele>
        <time>2018-05-27T07:04:50Z</time>
      </trkpt>
      <trkpt lat="43.4714" lon="1.52943">
        <ele>181.32220459</ele>
        <time>2018-05-27T07:05:07Z</time>
      </trkpt>
      <trkpt lat="43.47147" lon="1.52945">
        <ele>182.23590088</ele>
        <time>2018-05-27T07:05:53Z</time>
      </trkpt>
      <trkpt lat="43.47149" lon="1.52943">
        <ele>183.0302124</ele>
        <time>2018-05-27T07:06:13Z</time>
      </trkpt>
      <trkpt lat="43.47151" lon="1.52929">
        <ele>183.60879517</ele>
        <time>2018-05-27T07:06:17Z</time>
      </trkpt>
      <trkpt lat="43.47155" lon="1.52918">
        <ele>183.60879517</ele>
        <time>2018-05-27T07:06:21Z</time>
      </trkpt>
      <trkpt lat="43.47158" lon="1.52908">
        <ele>184.89567566</ele>
        <time>2018-05-27T07:06:26Z</time>
      </trkpt>
      <trkpt lat="43.47166" lon="1.52896">
        <ele>185.9931488</ele>
        <time>2018-05-27T07:06:30Z</time>
      </trkpt>
      <trkpt lat="43.47176" lon="1.52894">
        <ele>189.6522522</ele>
        <time>2018-05-27T07:06:35Z</time>
      </trkpt>
      <trkpt lat="43.47186" lon="1.52905">
        <ele>191.92300415</ele>
        <time>2018-05-27T07:06:40Z</time>
      </trkpt>
      <trkpt lat="43.47191" lon="1.52918">
        <ele>193.02310181</ele>
        <time>2018-05-27T07:06:44Z</time>
      </trkpt>
      <trkpt lat="43.47189" lon="1.52929">
        <ele>193.02310181</ele>
        <time>2018-05-27T07:06:47Z</time>
      </trkpt>
      <trkpt lat="43.47185" lon="1.52943">
        <ele>192.9025116</ele>
        <time>2018-05-27T07:06:49Z</time>
      </trkpt>
      <trkpt lat="43.47182" lon="1.52958">
        <ele>191.35954285</ele>
        <time>2018-05-27T07:06:51Z</time>
      </trkpt>
      <trkpt lat="43.47186" lon="1.52971">
        <ele>191.35954285</ele>
        <time>2018-05-27T07:06:54Z</time>
      </trkpt>
      <trkpt lat="43.47196" lon="1.52976">
        <ele>193.19987488</ele>
        <time>2018-05-27T07:06:59Z</time>
      </trkpt>
      <trkpt lat="43.4721" lon="1.52977">
        <ele>194.29455566</ele>
        <time>2018-05-27T07:07:03Z</time>
      </trkpt>
      <trkpt lat="43.47221" lon="1.52977">
        <ele>195.55718994</ele>
        <time>2018-05-27T07:07:07Z</time>
      </trkpt>
      <trkpt lat="43.47231" lon="1.52975">
        <ele>196.71057129</ele>
        <time>2018-05-27T07:07:12Z</time>
      </trkpt>
      <trkpt lat="43.47239" lon="1.52973">
        <ele>197.76454163</ele>
        <time>2018-05-27T07:07:13Z</time>
      </trkpt>
      <trkpt lat="43.47245" lon="1.52973">
        <ele>198.73776245</ele>
        <time>2018-05-27T07:07:18Z</time>
      </trkpt>
      <trkpt lat="43.47257" lon="1.52973">
        <ele>200.90362549</ele>
        <time>2018-05-27T07:07:22Z</time>
      </trkpt>
      <trkpt lat="43.47267" lon="1.52974">
        <ele>201.96516418</ele>
        <time>2018-05-27T07:07:26Z</time>
      </trkpt>
      <trkpt lat="43.47279" lon="1.52975">
        <ele>202.97085571</ele>
        <time>2018-05-27T07:07:30Z</time>
      </trkpt>
      <trkpt lat="43.47292" lon="1.52975">
        <ele>203.95507812</ele>
        <time>2018-05-27T07:07:34Z</time>
      </trkpt>
      <trkpt lat="43.47301" lon="1.52966">
        <ele>205.14697266</ele>
        <time>2018-05-27T07:07:38Z</time>
      </trkpt>
      <trkpt lat="43.47306" lon="1.52954">
        <ele>205.14697266</ele>
        <time>2018-05-27T07:07:41Z</time>
      </trkpt>
      <trkpt lat="43.47311" lon="1.52943">
        <ele>206.22244263</ele>
        <time>2018-05-27T07:07:45Z</time>
      </trkpt>
      <trkpt lat="43.47318" lon="1.5293">
        <ele>207.18534851</ele>
        <time>2018-05-27T07:07:49Z</time>
      </trkpt>
      <trkpt lat="43.47326" lon="1.52919">
        <ele>207.18534851</ele>
        <time>2018-05-27T07:07:53Z</time>
      </trkpt>
      <trkpt lat="43.47334" lon="1.52907">
        <ele>208.11734009</ele>
        <time>2018-05-27T07:07:57Z</time>
      </trkpt>
      <trkpt lat="43.47343" lon="1.52896">
        <ele>208.11734009</ele>
        <time>2018-05-27T07:08:01Z</time>
      </trkpt>
      <trkpt lat="43.47351" lon="1.52885">
        <ele>209.32000732</ele>
        <time>2018-05-27T07:08:05Z</time>
      </trkpt>
      <trkpt lat="43.4736" lon="1.52874">
        <ele>209.32000732</ele>
        <time>2018-05-27T07:08:09Z</time>
      </trkpt>
      <trkpt lat="43.47374" lon="1.52858">
        <ele>210.01678467</ele>
        <time>2018-05-27T07:08:13Z</time>
      </trkpt>
      <trkpt lat="43.4738" lon="1.52852">
        <ele>210.01678467</ele>
        <time>2018-05-27T07:08:17Z</time>
      </trkpt>
      <trkpt lat="43.47389" lon="1.52841">
        <ele>210.01678467</ele>
        <time>2018-05-27T07:08:21Z</time>
      </trkpt>
      <trkpt lat="43.47399" lon="1.52829">
        <ele>210.01678467</ele>
        <time>2018-05-27T07:08:25Z</time>
      </trkpt>
      <trkpt lat="43.47411" lon="1.52817">
        <ele>210.01678467</ele>
        <time>2018-05-27T07:08:29Z</time>
      </trkpt>
      <trkpt lat="43.47422" lon="1.52806">
        <ele>210.01678467</ele>
        <time>2018-05-27T07:08:33Z</time>
      </trkpt>
      <trkpt lat="43.47433" lon="1.52798">
        <ele>210.01678467</ele>
        <time>2018-05-27T07:08:37Z</time>
      </trkpt>
      <trkpt lat="43.47445" lon="1.52788">
        <ele>210.01678467</ele>
        <time>2018-05-27T07:08:41Z</time>
      </trkpt>
      <trkpt lat="43.47456" lon="1.52777">
        <ele>210.01678467</ele>
        <time>2018-05-27T07:08:45Z</time>
      </trkpt>
      <trkpt lat="43.47466" lon="1.52765">
        <ele>210.01678467</ele>
        <time>2018-05-27T07:08:48Z</time>
      </trkpt>
      <trkpt lat="43.47474" lon="1.52752">
        <ele>210.41889954</ele>
        <time>2018-05-27T07:08:51Z</time>
      </trkpt>
      <trkpt lat="43.47485" lon="1.5274">
        <ele>208.45877075</ele>
        <time>2018-05-27T07:08:54Z</time>
      </trkpt>
      <trkpt lat="43.47494" lon="1.52727">
        <ele>208.45877075</ele>
        <time>2018-05-27T07:08:56Z</time>
      </trkpt>
      <trkpt lat="43.47502" lon="1.52716">
        <ele>207.17094421</ele>
        <time>2018-05-27T07:08:58Z</time>
      </trkpt>
      <trkpt lat="43.4751" lon="1.52704">
        <ele>207.17094421</ele>
        <time>2018-05-27T07:09:00Z</time>
      </trkpt>
      <trkpt lat="43.47519" lon="1.52692">
        <ele>207.17094421</ele>
        <time>2018-05-27T07:09:02Z</time>
      </trkpt>
      <trkpt lat="43.47527" lon="1.5268">
        <ele>206.03564453</ele>
        <time>2018-05-27T07:09:04Z</time>
      </trkpt>
      <trkpt lat="43.47535" lon="1.52669">
        <ele>206.03564453</ele>
        <time>2018-05-27T07:09:06Z</time>
      </trkpt>
      <trkpt lat="43.47545" lon="1.52656">
        <ele>204.76902771</ele>
        <time>2018-05-27T07:09:08Z</time>
      </trkpt>
      <trkpt lat="43.47554" lon="1.52643">
        <ele>203.58004761</ele>
        <time>2018-05-27T07:09:10Z</time>
      </trkpt>
      <trkpt lat="43.47566" lon="1.5263">
        <ele>203.58004761</ele>
        <time>2018-05-27T07:09:12Z</time>
      </trkpt>
      <trkpt lat="43.47575" lon="1.52622">
        <ele>202.75384521</ele>
        <time>2018-05-27T07:09:13Z</time>
      </trkpt>
      <trkpt lat="43.47582" lon="1.52613">
        <ele>202.75384521</ele>
        <time>2018-05-27T07:09:15Z</time>
      </trkpt>
      <trkpt lat="43.47591" lon="1.52603">
        <ele>201.89393616</ele>
        <time>2018-05-27T07:09:18Z</time>
      </trkpt>
      <trkpt lat="43.47603" lon="1.52592">
        <ele>200.83613586</ele>
        <time>2018-05-27T07:09:22Z</time>
      </trkpt>
      <trkpt lat="43.47606" lon="1.52597">
        <ele>200.83613586</ele>
        <time>2018-05-27T07:09:25Z</time>
      </trkpt>
      <trkpt lat="43.476" lon="1.52609">
        <ele>200.83613586</ele>
        <time>2018-05-27T07:09:28Z</time>
      </trkpt>
      <trkpt lat="43.47593" lon="1.52621">
        <ele>198.69804382</ele>
        <time>2018-05-27T07:09:31Z</time>
      </trkpt>
      <trkpt lat="43.47588" lon="1.52636">
        <ele>197.46218872</ele>
        <time>2018-05-27T07:09:33Z</time>
      </trkpt>
      <trkpt lat="43.47582" lon="1.52652">
        <ele>196.19317627</ele>
        <time>2018-05-27T07:09:35Z</time>
      </trkpt>
      <trkpt lat="43.47576" lon="1.5267">
        <ele>195.0249939</ele>
        <time>2018-05-27T07:09:37Z</time>
      </trkpt>
      <trkpt lat="43.47569" lon="1.52687">
        <ele>193.90994263</ele>
        <time>2018-05-27T07:09:39Z</time>
      </trkpt>
      <trkpt lat="43.47561" lon="1.52705">
        <ele>192.55609131</ele>
        <time>2018-05-27T07:09:41Z</time>
      </trkpt>
      <trkpt lat="43.47554" lon="1.52723">
        <ele>191.32403564</ele>
        <time>2018-05-27T07:09:43Z</time>
      </trkpt>
      <trkpt lat="43.47547" lon="1.52741">
        <ele>189.98945618</ele>
        <time>2018-05-27T07:09:45Z</time>
      </trkpt>
      <trkpt lat="43.47539" lon="1.52761">
        <ele>188.88366699</ele>
        <time>2018-05-27T07:09:47Z</time>
      </trkpt>
      <trkpt lat="43.47531" lon="1.52779">
        <ele>188.88366699</ele>
        <time>2018-05-27T07:09:49Z</time>
      </trkpt>
      <trkpt lat="43.47527" lon="1.52795">
        <ele>187.80239868</ele>
        <time>2018-05-27T07:09:51Z</time>
      </trkpt>
      <trkpt lat="43.47524" lon="1.52811">
        <ele>187.80239868</ele>
        <time>2018-05-27T07:09:52Z</time>
      </trkpt>
      <trkpt lat="43.47524" lon="1.52821">
        <ele>186.46110535</ele>
        <time>2018-05-27T07:09:53Z</time>
      </trkpt>
      <trkpt lat="43.47522" lon="1.52835">
        <ele>186.46110535</ele>
        <time>2018-05-27T07:09:55Z</time>
      </trkpt>
      <trkpt lat="43.47519" lon="1.52853">
        <ele>185.11538696</ele>
        <time>2018-05-27T07:09:57Z</time>
      </trkpt>
      <trkpt lat="43.47513" lon="1.5287">
        <ele>183.76693726</ele>
        <time>2018-05-27T07:09:59Z</time>
      </trkpt>
      <trkpt lat="43.47507" lon="1.52889">
        <ele>182.78930664</ele>
        <time>2018-05-27T07:10:01Z</time>
      </trkpt>
      <trkpt lat="43.475" lon="1.52908">
        <ele>182.78930664</ele>
        <time>2018-05-27T07:10:03Z</time>
      </trkpt>
      <trkpt lat="43.47491" lon="1.52923">
        <ele>182.78930664</ele>
        <time>2018-05-27T07:10:05Z</time>
      </trkpt>
      <trkpt lat="43.47482" lon="1.52935">
        <ele>182.78930664</ele>
        <time>2018-05-27T07:10:08Z</time>
      </trkpt>
      <trkpt lat="43.47471" lon="1.52947">
        <ele>181.81692505</ele>
        <time>2018-05-27T07:10:11Z</time>
      </trkpt>
      <trkpt lat="43.4746" lon="1.52962">
        <ele>180.9776001</ele>
        <time>2018-05-27T07:10:13Z</time>
      </trkpt>
      <trkpt lat="43.47451" lon="1.52971">
        <ele>180.9776001</ele>
        <time>2018-05-27T07:10:16Z</time>
      </trkpt>
      <trkpt lat="43.47438" lon="1.52982">
        <ele>180.9776001</ele>
        <time>2018-05-27T07:10:19Z</time>
      </trkpt>
      <trkpt lat="43.47427" lon="1.52992">
        <ele>180.9776001</ele>
        <time>2018-05-27T07:10:22Z</time>
      </trkpt>
      <trkpt lat="43.47415" lon="1.53006">
        <ele>180.9776001</ele>
        <time>2018-05-27T07:10:25Z</time>
      </trkpt>
      <trkpt lat="43.47405" lon="1.53018">
        <ele>180.9776001</ele>
        <time>2018-05-27T07:10:28Z</time>
      </trkpt>
      <trkpt lat="43.47395" lon="1.53031">
        <ele>180.9776001</ele>
        <time>2018-05-27T07:10:31Z</time>
      </trkpt>
      <trkpt lat="43.47388" lon="1.53043">
        <ele>180.9776001</ele>
        <time>2018-05-27T07:10:33Z</time>
      </trkpt>
      <trkpt lat="43.47382" lon="1.53056">
        <ele>180.9776001</ele>
        <time>2018-05-27T07:10:35Z</time>
      </trkpt>
      <trkpt lat="43.47376" lon="1.53072">
        <ele>180.9776001</ele>
        <time>2018-05-27T07:10:37Z</time>
      </trkpt>
      <trkpt lat="43.47368" lon="1.53086">
        <ele>180.89686584</ele>
        <time>2018-05-27T07:10:39Z</time>
      </trkpt>
      <trkpt lat="43.47361" lon="1.53099">
        <ele>180.89686584</ele>
        <time>2018-05-27T07:10:41Z</time>
      </trkpt>
      <trkpt lat="43.47353" lon="1.5311">
        <ele>180.89686584</ele>
        <time>2018-05-27T07:10:43Z</time>
      </trkpt>
      <trkpt lat="43.47343" lon="1.53121">
        <ele>179.23141479</ele>
        <time>2018-05-27T07:10:45Z</time>
      </trkpt>
      <trkpt lat="43.47331" lon="1.53129">
        <ele>179.23141479</ele>
        <time>2018-05-27T07:10:47Z</time>
      </trkpt>
      <trkpt lat="43.4732" lon="1.5314">
        <ele>176.44699097</ele>
        <time>2018-05-27T07:10:50Z</time>
      </trkpt>
      <trkpt lat="43.47316" lon="1.53158">
        <ele>173.15705872</ele>
        <time>2018-05-27T07:10:52Z</time>
      </trkpt>
      <trkpt lat="43.47323" lon="1.53179">
        <ele>169.59115601</ele>
        <time>2018-05-27T07:10:54Z</time>
      </trkpt>
      <trkpt lat="43.47332" lon="1.53198">
        <ele>166.84957886</ele>
        <time>2018-05-27T07:10:56Z</time>
      </trkpt>
      <trkpt lat="43.47336" lon="1.53212">
        <ele>165.67601013</ele>
        <time>2018-05-27T07:10:58Z</time>
      </trkpt>
      <trkpt lat="43.47332" lon="1.53221">
        <ele>162.6174469</ele>
        <time>2018-05-27T07:11:12Z</time>
      </trkpt>
      <trkpt lat="43.47334" lon="1.53225">
        <ele>161.81442261</ele>
        <time>2018-05-27T07:11:13Z</time>
      </trkpt>
      <trkpt lat="43.47335" lon="1.5323">
        <ele>159.65594482</ele>
        <time>2018-05-27T07:11:18Z</time>
      </trkpt>
      <trkpt lat="43.47326" lon="1.53246">
        <ele>158.4493103</ele>
        <time>2018-05-27T07:11:21Z</time>
      </trkpt>
      <trkpt lat="43.47319" lon="1.53258">
        <ele>155.94996643</ele>
        <time>2018-05-27T07:11:25Z</time>
      </trkpt>
      <trkpt lat="43.47309" lon="1.53262">
        <ele>153.74992371</ele>
        <time>2018-05-27T07:11:30Z</time>
      </trkpt>
      <trkpt lat="43.47298" lon="1.53263">
        <ele>153.74992371</ele>
        <time>2018-05-27T07:11:34Z</time>
      </trkpt>
      <trkpt lat="43.47292" lon="1.53253">
        <ele>152.97674561</ele>
        <time>2018-05-27T07:11:42Z</time>
      </trkpt>
      <trkpt lat="43.47287" lon="1.53248">
        <ele>154.64820862</ele>
        <time>2018-05-27T07:11:52Z</time>
      </trkpt>
      <trkpt lat="43.47274" lon="1.5325">
        <ele>151.31402588</ele>
        <time>2018-05-27T07:11:57Z</time>
      </trkpt>
      <trkpt lat="43.47265" lon="1.53242">
        <ele>151.31402588</ele>
        <time>2018-05-27T07:12:01Z</time>
      </trkpt>
      <trkpt lat="43.47258" lon="1.5323">
        <ele>151.31402588</ele>
        <time>2018-05-27T07:12:05Z</time>
      </trkpt>
      <trkpt lat="43.47247" lon="1.53216">
        <ele>151.31402588</ele>
        <time>2018-05-27T07:12:08Z</time>
      </trkpt>
      <trkpt lat="43.47232" lon="1.53206">
        <ele>151.31402588</ele>
        <time>2018-05-27T07:12:11Z</time>
      </trkpt>
      <trkpt lat="43.47214" lon="1.53195">
        <ele>151.04837036</ele>
        <time>2018-05-27T07:12:13Z</time>
      </trkpt>
      <trkpt lat="43.47206" lon="1.5319">
        <ele>151.04837036</ele>
        <time>2018-05-27T07:12:15Z</time>
      </trkpt>
      <trkpt lat="43.47195" lon="1.53184">
        <ele>151.04837036</ele>
        <time>2018-05-27T07:12:18Z</time>
      </trkpt>
      <trkpt lat="43.47184" lon="1.53175">
        <ele>151.04837036</ele>
        <time>2018-05-27T07:12:21Z</time>
      </trkpt>
      <trkpt lat="43.47172" lon="1.53166">
        <ele>151.04837036</ele>
        <time>2018-05-27T07:12:24Z</time>
      </trkpt>
      <trkpt lat="43.47159" lon="1.53157">
        <ele>151.04837036</ele>
        <time>2018-05-27T07:12:28Z</time>
      </trkpt>
      <trkpt lat="43.47152" lon="1.53146">
        <ele>150.76370239</ele>
        <time>2018-05-27T07:12:31Z</time>
      </trkpt>
      <trkpt lat="43.47146" lon="1.53134">
        <ele>152.61660767</ele>
        <time>2018-05-27T07:12:35Z</time>
      </trkpt>
      <trkpt lat="43.4714" lon="1.5312">
        <ele>153.74021912</ele>
        <time>2018-05-27T07:12:38Z</time>
      </trkpt>
      <trkpt lat="43.47133" lon="1.53107">
        <ele>153.74021912</ele>
        <time>2018-05-27T07:12:41Z</time>
      </trkpt>
      <trkpt lat="43.47126" lon="1.53095">
        <ele>153.74021912</ele>
        <time>2018-05-27T07:12:44Z</time>
      </trkpt>
      <trkpt lat="43.47118" lon="1.53084">
        <ele>153.74021912</ele>
        <time>2018-05-27T07:12:47Z</time>
      </trkpt>
      <trkpt lat="43.47109" lon="1.53072">
        <ele>153.74021912</ele>
        <time>2018-05-27T07:12:50Z</time>
      </trkpt>
      <trkpt lat="43.471" lon="1.53059">
        <ele>153.74021912</ele>
        <time>2018-05-27T07:12:53Z</time>
      </trkpt>
      <trkpt lat="43.47091" lon="1.53047">
        <ele>153.74021912</ele>
        <time>2018-05-27T07:12:56Z</time>
      </trkpt>
      <trkpt lat="43.47082" lon="1.53036">
        <ele>153.74021912</ele>
        <time>2018-05-27T07:13:00Z</time>
      </trkpt>
      <trkpt lat="43.47075" lon="1.53035">
        <ele>154.12866211</ele>
        <time>2018-05-27T07:13:52Z</time>
      </trkpt>
      <trkpt lat="43.47075" lon="1.53037">
        <ele>153.40145874</ele>
        <time>2018-05-27T07:13:56Z</time>
      </trkpt>
      <trkpt lat="43.47069" lon="1.53058">
        <ele>153.40145874</ele>
        <time>2018-05-27T07:13:58Z</time>
      </trkpt>
      <trkpt lat="43.47062" lon="1.53071">
        <ele>151.51611328</ele>
        <time>2018-05-27T07:14:00Z</time>
      </trkpt>
      <trkpt lat="43.47055" lon="1.53084">
        <ele>151.51611328</ele>
        <time>2018-05-27T07:14:03Z</time>
      </trkpt>
      <trkpt lat="43.47049" lon="1.53095">
        <ele>151.67858887</ele>
        <time>2018-05-27T07:14:06Z</time>
      </trkpt>
      <trkpt lat="43.47044" lon="1.53107">
        <ele>152.98280334</ele>
        <time>2018-05-27T07:14:09Z</time>
      </trkpt>
      <trkpt lat="43.47038" lon="1.53118">
        <ele>155.21170044</ele>
        <time>2018-05-27T07:14:12Z</time>
      </trkpt>
      <trkpt lat="43.47034" lon="1.53126">
        <ele>155.46891785</ele>
        <time>2018-05-27T07:14:13Z</time>
      </trkpt>
      <trkpt lat="43.4703" lon="1.53135">
        <ele>157.46572876</ele>
        <time>2018-05-27T07:14:16Z</time>
      </trkpt>
      <trkpt lat="43.47025" lon="1.53146">
        <ele>158.55976868</ele>
        <time>2018-05-27T07:14:19Z</time>
      </trkpt>
      <trkpt lat="43.4702" lon="1.53156">
        <ele>158.55976868</ele>
        <time>2018-05-27T07:14:22Z</time>
      </trkpt>
      <trkpt lat="43.47013" lon="1.53168">
        <ele>159.77810669</ele>
        <time>2018-05-27T07:14:25Z</time>
      </trkpt>
      <trkpt lat="43.47007" lon="1.53179">
        <ele>160.96862793</ele>
        <time>2018-05-27T07:14:28Z</time>
      </trkpt>
      <trkpt lat="43.47002" lon="1.53189">
        <ele>162.00402832</ele>
        <time>2018-05-27T07:14:31Z</time>
      </trkpt>
      <trkpt lat="43.46995" lon="1.532">
        <ele>162.00402832</ele>
        <time>2018-05-27T07:14:35Z</time>
      </trkpt>
      <trkpt lat="43.46985" lon="1.53212">
        <ele>163.09014893</ele>
        <time>2018-05-27T07:14:39Z</time>
      </trkpt>
      <trkpt lat="43.46972" lon="1.53216">
        <ele>163.09014893</ele>
        <time>2018-05-27T07:14:43Z</time>
      </trkpt>
      <trkpt lat="43.46961" lon="1.53219">
        <ele>163.09014893</ele>
        <time>2018-05-27T07:14:47Z</time>
      </trkpt>
      <trkpt lat="43.46953" lon="1.5323">
        <ele>164.18501282</ele>
        <time>2018-05-27T07:14:50Z</time>
      </trkpt>
      <trkpt lat="43.46944" lon="1.53241">
        <ele>164.18501282</ele>
        <time>2018-05-27T07:14:54Z</time>
      </trkpt>
      <trkpt lat="43.46935" lon="1.53254">
        <ele>165.0852356</ele>
        <time>2018-05-27T07:14:58Z</time>
      </trkpt>
      <trkpt lat="43.46933" lon="1.53267">
        <ele>166.19947815</ele>
        <time>2018-05-27T07:15:00Z</time>
      </trkpt>
      <trkpt lat="43.46936" lon="1.53278">
        <ele>166.19947815</ele>
        <time>2018-05-27T07:15:03Z</time>
      </trkpt>
      <trkpt lat="43.46941" lon="1.5329">
        <ele>166.19947815</ele>
        <time>2018-05-27T07:15:06Z</time>
      </trkpt>
      <trkpt lat="43.46944" lon="1.53303">
        <ele>166.19947815</ele>
        <time>2018-05-27T07:15:08Z</time>
      </trkpt>
      <trkpt lat="43.46946" lon="1.53315">
        <ele>166.19947815</ele>
        <time>2018-05-27T07:15:10Z</time>
      </trkpt>
      <trkpt lat="43.46944" lon="1.53325">
        <ele>166.19947815</ele>
        <time>2018-05-27T07:15:12Z</time>
      </trkpt>
      <trkpt lat="43.46943" lon="1.53331">
        <ele>166.75901794</ele>
        <time>2018-05-27T07:15:13Z</time>
      </trkpt>
      <trkpt lat="43.46939" lon="1.53341">
        <ele>166.75901794</ele>
        <time>2018-05-27T07:15:16Z</time>
      </trkpt>
      <trkpt lat="43.46934" lon="1.53352">
        <ele>166.75901794</ele>
        <time>2018-05-27T07:15:18Z</time>
      </trkpt>
      <trkpt lat="43.46929" lon="1.53363">
        <ele>166.75901794</ele>
        <time>2018-05-27T07:15:20Z</time>
      </trkpt>
      <trkpt lat="43.46925" lon="1.53374">
        <ele>166.75901794</ele>
        <time>2018-05-27T07:15:22Z</time>
      </trkpt>
      <trkpt lat="43.46921" lon="1.53385">
        <ele>166.75901794</ele>
        <time>2018-05-27T07:15:24Z</time>
      </trkpt>
      <trkpt lat="43.46916" lon="1.53396">
        <ele>166.75901794</ele>
        <time>2018-05-27T07:15:26Z</time>
      </trkpt>
      <trkpt lat="43.46911" lon="1.53407">
        <ele>166.75901794</ele>
        <time>2018-05-27T07:15:28Z</time>
      </trkpt>
      <trkpt lat="43.46907" lon="1.53417">
        <ele>166.75901794</ele>
        <time>2018-05-27T07:15:30Z</time>
      </trkpt>
      <trkpt lat="43.46902" lon="1.53428">
        <ele>166.75901794</ele>
        <time>2018-05-27T07:15:32Z</time>
      </trkpt>
      <trkpt lat="43.46899" lon="1.5344">
        <ele>166.75901794</ele>
        <time>2018-05-27T07:15:34Z</time>
      </trkpt>
      <trkpt lat="43.46895" lon="1.53451">
        <ele>166.9876709</ele>
        <time>2018-05-27T07:15:36Z</time>
      </trkpt>
      <trkpt lat="43.46892" lon="1.53462">
        <ele>166.9876709</ele>
        <time>2018-05-27T07:15:38Z</time>
      </trkpt>
      <trkpt lat="43.46888" lon="1.53473">
        <ele>166.9876709</ele>
        <time>2018-05-27T07:15:40Z</time>
      </trkpt>
      <trkpt lat="43.46884" lon="1.53485">
        <ele>166.9876709</ele>
        <time>2018-05-27T07:15:42Z</time>
      </trkpt>
      <trkpt lat="43.46879" lon="1.53497">
        <ele>166.9876709</ele>
        <time>2018-05-27T07:15:45Z</time>
      </trkpt>
      <trkpt lat="43.46875" lon="1.53509">
        <ele>166.9876709</ele>
        <time>2018-05-27T07:15:48Z</time>
      </trkpt>
      <trkpt lat="43.46872" lon="1.53521">
        <ele>166.9876709</ele>
        <time>2018-05-27T07:15:50Z</time>
      </trkpt>
      <trkpt lat="43.46868" lon="1.53532">
        <ele>166.9876709</ele>
        <time>2018-05-27T07:15:52Z</time>
      </trkpt>
      <trkpt lat="43.46864" lon="1.53544">
        <ele>166.9876709</ele>
        <time>2018-05-27T07:15:54Z</time>
      </trkpt>
      <trkpt lat="43.4686" lon="1.53556">
        <ele>166.9876709</ele>
        <time>2018-05-27T07:15:56Z</time>
      </trkpt>
      <trkpt lat="43.46857" lon="1.53569">
        <ele>166.9876709</ele>
        <time>2018-05-27T07:15:58Z</time>
      </trkpt>
      <trkpt lat="43.46854" lon="1.5358">
        <ele>166.9876709</ele>
        <time>2018-05-27T07:16:00Z</time>
      </trkpt>
      <trkpt lat="43.46851" lon="1.53592">
        <ele>166.9876709</ele>
        <time>2018-05-27T07:16:03Z</time>
      </trkpt>
      <trkpt lat="43.46843" lon="1.53601">
        <ele>166.9876709</ele>
        <time>2018-05-27T07:16:07Z</time>
      </trkpt>
      <trkpt lat="43.4683" lon="1.53595">
        <ele>168.23435974</ele>
        <time>2018-05-27T07:16:11Z</time>
      </trkpt>
      <trkpt lat="43.46821" lon="1.53587">
        <ele>169.52357483</ele>
        <time>2018-05-27T07:16:13Z</time>
      </trkpt>
      <trkpt lat="43.46813" lon="1.53581">
        <ele>170.64454651</ele>
        <time>2018-05-27T07:16:17Z</time>
      </trkpt>
      <trkpt lat="43.46801" lon="1.53571">
        <ele>173.34538269</ele>
        <time>2018-05-27T07:16:22Z</time>
      </trkpt>
      <trkpt lat="43.46788" lon="1.53563">
        <ele>174.50601196</ele>
        <time>2018-05-27T07:16:26Z</time>
      </trkpt>
      <trkpt lat="43.46777" lon="1.53554">
        <ele>175.70854187</ele>
        <time>2018-05-27T07:16:30Z</time>
      </trkpt>
      <trkpt lat="43.46766" lon="1.53543">
        <ele>178.51878357</ele>
        <time>2018-05-27T07:16:34Z</time>
      </trkpt>
      <trkpt lat="43.46755" lon="1.53533">
        <ele>179.8747406</ele>
        <time>2018-05-27T07:16:38Z</time>
      </trkpt>
      <trkpt lat="43.46744" lon="1.53523">
        <ele>181.26907349</ele>
        <time>2018-05-27T07:16:42Z</time>
      </trkpt>
      <trkpt lat="43.46733" lon="1.53513">
        <ele>183.52401733</ele>
        <time>2018-05-27T07:16:46Z</time>
      </trkpt>
      <trkpt lat="43.46723" lon="1.53502">
        <ele>184.67831421</ele>
        <time>2018-05-27T07:16:50Z</time>
      </trkpt>
      <trkpt lat="43.46713" lon="1.53491">
        <ele>184.67831421</ele>
        <time>2018-05-27T07:16:54Z</time>
      </trkpt>
      <trkpt lat="43.46705" lon="1.5348">
        <ele>184.67831421</ele>
        <time>2018-05-27T07:16:57Z</time>
      </trkpt>
      <trkpt lat="43.46698" lon="1.53469">
        <ele>184.67831421</ele>
        <time>2018-05-27T07:17:00Z</time>
      </trkpt>
      <trkpt lat="43.46692" lon="1.53455">
        <ele>184.67831421</ele>
        <time>2018-05-27T07:17:03Z</time>
      </trkpt>
      <trkpt lat="43.46682" lon="1.5344">
        <ele>182.65541077</ele>
        <time>2018-05-27T07:17:05Z</time>
      </trkpt>
      <trkpt lat="43.46669" lon="1.53422">
        <ele>179.2509613</ele>
        <time>2018-05-27T07:17:07Z</time>
      </trkpt>
      <trkpt lat="43.46657" lon="1.53404">
        <ele>177.20750427</ele>
        <time>2018-05-27T07:17:08Z</time>
      </trkpt>
      <trkpt lat="43.46648" lon="1.53391">
        <ele>175.02636719</ele>
        <time>2018-05-27T07:17:09Z</time>
      </trkpt>
      <trkpt lat="43.46639" lon="1.53376">
        <ele>172.7281189</ele>
        <time>2018-05-27T07:17:10Z</time>
      </trkpt>
      <trkpt lat="43.46628" lon="1.53362">
        <ele>170.50552368</ele>
        <time>2018-05-27T07:17:11Z</time>
      </trkpt>
      <trkpt lat="43.46616" lon="1.53347">
        <ele>168.66716003</ele>
        <time>2018-05-27T07:17:12Z</time>
      </trkpt>
      <trkpt lat="43.46605" lon="1.53333">
        <ele>167.42951965</ele>
        <time>2018-05-27T07:17:13Z</time>
      </trkpt>
      <trkpt lat="43.46594" lon="1.5332">
        <ele>167.42951965</ele>
        <time>2018-05-27T07:17:14Z</time>
      </trkpt>
      <trkpt lat="43.46584" lon="1.53308">
        <ele>167.42951965</ele>
        <time>2018-05-27T07:17:15Z</time>
      </trkpt>
      <trkpt lat="43.4657" lon="1.53295">
        <ele>167.42951965</ele>
        <time>2018-05-27T07:17:17Z</time>
      </trkpt>
      <trkpt lat="43.46557" lon="1.53283">
        <ele>167.3210144</ele>
        <time>2018-05-27T07:17:19Z</time>
      </trkpt>
      <trkpt lat="43.46545" lon="1.53274">
        <ele>171.92347717</ele>
        <time>2018-05-27T07:17:22Z</time>
      </trkpt>
      <trkpt lat="43.46535" lon="1.53265">
        <ele>174.74053955</ele>
        <time>2018-05-27T07:17:26Z</time>
      </trkpt>
      <trkpt lat="43.46523" lon="1.53255">
        <ele>177.04562378</ele>
        <time>2018-05-27T07:17:30Z</time>
      </trkpt>
      <trkpt lat="43.46511" lon="1.53244">
        <ele>178.17300415</ele>
        <time>2018-05-27T07:17:34Z</time>
      </trkpt>
      <trkpt lat="43.46499" lon="1.53233">
        <ele>180.44909668</ele>
        <time>2018-05-27T07:17:40Z</time>
      </trkpt>
      <trkpt lat="43.46499" lon="1.53222">
        <ele>180.44909668</ele>
        <time>2018-05-27T07:17:43Z</time>
      </trkpt>
      <trkpt lat="43.46503" lon="1.53208">
        <ele>180.44909668</ele>
        <time>2018-05-27T07:17:46Z</time>
      </trkpt>
      <trkpt lat="43.46508" lon="1.53192">
        <ele>180.73100281</ele>
        <time>2018-05-27T07:17:48Z</time>
      </trkpt>
      <trkpt lat="43.46512" lon="1.53176">
        <ele>180.73100281</ele>
        <time>2018-05-27T07:17:50Z</time>
      </trkpt>
      <trkpt lat="43.46518" lon="1.5316">
        <ele>178.96791077</ele>
        <time>2018-05-27T07:17:52Z</time>
      </trkpt>
      <trkpt lat="43.46523" lon="1.53142">
        <ele>177.74685669</ele>
        <time>2018-05-27T07:17:54Z</time>
      </trkpt>
      <trkpt lat="43.46527" lon="1.53126">
        <ele>176.646698</ele>
        <time>2018-05-27T07:17:55Z</time>
      </trkpt>
      <trkpt lat="43.46529" lon="1.53115">
        <ele>176.646698</ele>
        <time>2018-05-27T07:17:56Z</time>
      </trkpt>
      <trkpt lat="43.46531" lon="1.53103">
        <ele>175.40682983</ele>
        <time>2018-05-27T07:17:57Z</time>
      </trkpt>
      <trkpt lat="43.46531" lon="1.53091">
        <ele>175.40682983</ele>
        <time>2018-05-27T07:17:58Z</time>
      </trkpt>
      <trkpt lat="43.4653" lon="1.53079">
        <ele>174.01293945</ele>
        <time>2018-05-27T07:17:59Z</time>
      </trkpt>
      <trkpt lat="43.46528" lon="1.53067">
        <ele>174.01293945</ele>
        <time>2018-05-27T07:18:00Z</time>
      </trkpt>
      <trkpt lat="43.46523" lon="1.53056">
        <ele>172.36004639</ele>
        <time>2018-05-27T07:18:01Z</time>
      </trkpt>
      <trkpt lat="43.46511" lon="1.53042">
        <ele>170.82472229</ele>
        <time>2018-05-27T07:18:03Z</time>
      </trkpt>
      <trkpt lat="43.46492" lon="1.5303">
        <ele>169.46313477</ele>
        <time>2018-05-27T07:18:05Z</time>
      </trkpt>
      <trkpt lat="43.46476" lon="1.53028">
        <ele>169.46313477</ele>
        <time>2018-05-27T07:18:06Z</time>
      </trkpt>
      <trkpt lat="43.46466" lon="1.53027">
        <ele>168.08128357</ele>
        <time>2018-05-27T07:18:07Z</time>
      </trkpt>
      <trkpt lat="43.46455" lon="1.53025">
        <ele>168.08128357</ele>
        <time>2018-05-27T07:18:08Z</time>
      </trkpt>
      <trkpt lat="43.46445" lon="1.53023">
        <ele>166.67102051</ele>
        <time>2018-05-27T07:18:09Z</time>
      </trkpt>
      <trkpt lat="43.4643" lon="1.53021">
        <ele>165.27523804</ele>
        <time>2018-05-27T07:18:11Z</time>
      </trkpt>
      <trkpt lat="43.46404" lon="1.53022">
        <ele>164.37486267</ele>
        <time>2018-05-27T07:18:13Z</time>
      </trkpt>
      <trkpt lat="43.46394" lon="1.53024">
        <ele>164.37486267</ele>
        <time>2018-05-27T07:18:14Z</time>
      </trkpt>
      <trkpt lat="43.4638" lon="1.53029">
        <ele>163.46768188</ele>
        <time>2018-05-27T07:18:16Z</time>
      </trkpt>
      <trkpt lat="43.46363" lon="1.53036">
        <ele>162.31678772</ele>
        <time>2018-05-27T07:18:18Z</time>
      </trkpt>
      <trkpt lat="43.46347" lon="1.53045">
        <ele>162.31678772</ele>
        <time>2018-05-27T07:18:20Z</time>
      </trkpt>
      <trkpt lat="43.46332" lon="1.53053">
        <ele>162.31678772</ele>
        <time>2018-05-27T07:18:22Z</time>
      </trkpt>
      <trkpt lat="43.46318" lon="1.5306">
        <ele>161.33430481</ele>
        <time>2018-05-27T07:18:24Z</time>
      </trkpt>
      <trkpt lat="43.46304" lon="1.53066">
        <ele>161.33430481</ele>
        <time>2018-05-27T07:18:26Z</time>
      </trkpt>
      <trkpt lat="43.46289" lon="1.53073">
        <ele>161.33430481</ele>
        <time>2018-05-27T07:18:28Z</time>
      </trkpt>
      <trkpt lat="43.46277" lon="1.53079">
        <ele>161.33430481</ele>
        <time>2018-05-27T07:18:30Z</time>
      </trkpt>
      <trkpt lat="43.46264" lon="1.53084">
        <ele>161.33430481</ele>
        <time>2018-05-27T07:18:32Z</time>
      </trkpt>
      <trkpt lat="43.46251" lon="1.5309">
        <ele>161.33430481</ele>
        <time>2018-05-27T07:18:34Z</time>
      </trkpt>
      <trkpt lat="43.46238" lon="1.53096">
        <ele>161.33430481</ele>
        <time>2018-05-27T07:18:36Z</time>
      </trkpt>
      <trkpt lat="43.46227" lon="1.53102">
        <ele>161.4122467</ele>
        <time>2018-05-27T07:18:38Z</time>
      </trkpt>
      <trkpt lat="43.46215" lon="1.53107">
        <ele>161.4122467</ele>
        <time>2018-05-27T07:18:40Z</time>
      </trkpt>
      <trkpt lat="43.46203" lon="1.53113">
        <ele>161.4122467</ele>
        <time>2018-05-27T07:18:43Z</time>
      </trkpt>
      <trkpt lat="43.4619" lon="1.53117">
        <ele>161.4122467</ele>
        <time>2018-05-27T07:18:45Z</time>
      </trkpt>
      <trkpt lat="43.46177" lon="1.53122">
        <ele>161.4122467</ele>
        <time>2018-05-27T07:18:48Z</time>
      </trkpt>
      <trkpt lat="43.46165" lon="1.53126">
        <ele>161.4122467</ele>
        <time>2018-05-27T07:18:50Z</time>
      </trkpt>
      <trkpt lat="43.46153" lon="1.5313">
        <ele>162.38128662</ele>
        <time>2018-05-27T07:18:53Z</time>
      </trkpt>
      <trkpt lat="43.46143" lon="1.53138">
        <ele>162.38128662</ele>
        <time>2018-05-27T07:18:56Z</time>
      </trkpt>
      <trkpt lat="43.4613" lon="1.53147">
        <ele>162.38128662</ele>
        <time>2018-05-27T07:18:59Z</time>
      </trkpt>
      <trkpt lat="43.46118" lon="1.53153">
        <ele>162.38128662</ele>
        <time>2018-05-27T07:19:02Z</time>
      </trkpt>
      <trkpt lat="43.46105" lon="1.53162">
        <ele>163.5305481</ele>
        <time>2018-05-27T07:19:05Z</time>
      </trkpt>
      <trkpt lat="43.46091" lon="1.53169">
        <ele>163.5305481</ele>
        <time>2018-05-27T07:19:07Z</time>
      </trkpt>
      <trkpt lat="43.4608" lon="1.53172">
        <ele>163.5305481</ele>
        <time>2018-05-27T07:19:09Z</time>
      </trkpt>
      <trkpt lat="43.46068" lon="1.53176">
        <ele>163.5305481</ele>
        <time>2018-05-27T07:19:12Z</time>
      </trkpt>
      <trkpt lat="43.46059" lon="1.53177">
        <ele>164.29188538</ele>
        <time>2018-05-27T07:19:13Z</time>
      </trkpt>
      <trkpt lat="43.4605" lon="1.53179">
        <ele>164.29188538</ele>
        <time>2018-05-27T07:19:15Z</time>
      </trkpt>
      <trkpt lat="43.4604" lon="1.53181">
        <ele>164.29188538</ele>
        <time>2018-05-27T07:19:17Z</time>
      </trkpt>
      <trkpt lat="43.46028" lon="1.53184">
        <ele>164.29188538</ele>
        <time>2018-05-27T07:19:20Z</time>
      </trkpt>
      <trkpt lat="43.46015" lon="1.53188">
        <ele>164.98770142</ele>
        <time>2018-05-27T07:19:23Z</time>
      </trkpt>
      <trkpt lat="43.45999" lon="1.53188">
        <ele>164.98770142</ele>
        <time>2018-05-27T07:19:25Z</time>
      </trkpt>
      <trkpt lat="43.45989" lon="1.53188">
        <ele>164.98770142</ele>
        <time>2018-05-27T07:19:28Z</time>
      </trkpt>
      <trkpt lat="43.45975" lon="1.53189">
        <ele>166.08103943</ele>
        <time>2018-05-27T07:19:31Z</time>
      </trkpt>
      <trkpt lat="43.45963" lon="1.53189">
        <ele>166.08103943</ele>
        <time>2018-05-27T07:19:33Z</time>
      </trkpt>
      <trkpt lat="43.4595" lon="1.53188">
        <ele>167.41049194</ele>
        <time>2018-05-27T07:19:35Z</time>
      </trkpt>
      <trkpt lat="43.45939" lon="1.53191">
        <ele>168.54571533</ele>
        <time>2018-05-27T07:19:37Z</time>
      </trkpt>
      <trkpt lat="43.45927" lon="1.53193">
        <ele>169.60154724</ele>
        <time>2018-05-27T07:19:40Z</time>
      </trkpt>
      <trkpt lat="43.45914" lon="1.53195">
        <ele>170.76568604</ele>
        <time>2018-05-27T07:19:43Z</time>
      </trkpt>
      <trkpt lat="43.45901" lon="1.53198">
        <ele>172.07325745</ele>
        <time>2018-05-27T07:19:46Z</time>
      </trkpt>
      <trkpt lat="43.45888" lon="1.53201">
        <ele>173.47302246</ele>
        <time>2018-05-27T07:19:49Z</time>
      </trkpt>
      <trkpt lat="43.45876" lon="1.53206">
        <ele>174.73065186</ele>
        <time>2018-05-27T07:19:52Z</time>
      </trkpt>
      <trkpt lat="43.45863" lon="1.53211">
        <ele>174.73065186</ele>
        <time>2018-05-27T07:19:55Z</time>
      </trkpt>
      <trkpt lat="43.45852" lon="1.53213">
        <ele>175.82475281</ele>
        <time>2018-05-27T07:19:58Z</time>
      </trkpt>
      <trkpt lat="43.45839" lon="1.53213">
        <ele>176.98988342</ele>
        <time>2018-05-27T07:20:01Z</time>
      </trkpt>
      <trkpt lat="43.45827" lon="1.53211">
        <ele>178.18429565</ele>
        <time>2018-05-27T07:20:04Z</time>
      </trkpt>
      <trkpt lat="43.45815" lon="1.5321">
        <ele>178.18429565</ele>
        <time>2018-05-27T07:20:08Z</time>
      </trkpt>
      <trkpt lat="43.45808" lon="1.53221">
        <ele>178.18429565</ele>
        <time>2018-05-27T07:20:11Z</time>
      </trkpt>
      <trkpt lat="43.45802" lon="1.53227">
        <ele>179.82391357</ele>
        <time>2018-05-27T07:20:13Z</time>
      </trkpt>
      <trkpt lat="43.45796" lon="1.5322">
        <ele>180.50656128</ele>
        <time>2018-05-27T07:20:17Z</time>
      </trkpt>
      <trkpt lat="43.45786" lon="1.5322">
        <ele>181.55334473</ele>
        <time>2018-05-27T07:20:22Z</time>
      </trkpt>
      <trkpt lat="43.45773" lon="1.53223">
        <ele>182.61488342</ele>
        <time>2018-05-27T07:20:26Z</time>
      </trkpt>
      <trkpt lat="43.4576" lon="1.53223">
        <ele>183.79930115</ele>
        <time>2018-05-27T07:20:29Z</time>
      </trkpt>
      <trkpt lat="43.45751" lon="1.53222">
        <ele>184.88087463</ele>
        <time>2018-05-27T07:20:33Z</time>
      </trkpt>
      <trkpt lat="43.45741" lon="1.5322">
        <ele>185.99507141</ele>
        <time>2018-05-27T07:20:38Z</time>
      </trkpt>
      <trkpt lat="43.45729" lon="1.53223">
        <ele>185.99507141</ele>
        <time>2018-05-27T07:20:43Z</time>
      </trkpt>
      <trkpt lat="43.45717" lon="1.53232">
        <ele>185.99507141</ele>
        <time>2018-05-27T07:20:46Z</time>
      </trkpt>
      <trkpt lat="43.45704" lon="1.53241">
        <ele>185.99507141</ele>
        <time>2018-05-27T07:20:49Z</time>
      </trkpt>
      <trkpt lat="43.45691" lon="1.53253">
        <ele>185.99507141</ele>
        <time>2018-05-27T07:20:52Z</time>
      </trkpt>
      <trkpt lat="43.45678" lon="1.53262">
        <ele>186.56225586</ele>
        <time>2018-05-27T07:20:54Z</time>
      </trkpt>
      <trkpt lat="43.45667" lon="1.53264">
        <ele>186.56225586</ele>
        <time>2018-05-27T07:20:56Z</time>
      </trkpt>
      <trkpt lat="43.45651" lon="1.53258">
        <ele>186.56225586</ele>
        <time>2018-05-27T07:20:58Z</time>
      </trkpt>
      <trkpt lat="43.45639" lon="1.53251">
        <ele>185.89154053</ele>
        <time>2018-05-27T07:21:01Z</time>
      </trkpt>
      <trkpt lat="43.45626" lon="1.53247">
        <ele>187.43856812</ele>
        <time>2018-05-27T07:21:04Z</time>
      </trkpt>
      <trkpt lat="43.45614" lon="1.53246">
        <ele>187.43856812</ele>
        <time>2018-05-27T07:21:07Z</time>
      </trkpt>
      <trkpt lat="43.45601" lon="1.53247">
        <ele>187.43856812</ele>
        <time>2018-05-27T07:21:10Z</time>
      </trkpt>
      <trkpt lat="43.45581" lon="1.53252">
        <ele>187.88960266</ele>
        <time>2018-05-27T07:21:13Z</time>
      </trkpt>
      <trkpt lat="43.45573" lon="1.53254">
        <ele>187.88960266</ele>
        <time>2018-05-27T07:21:15Z</time>
      </trkpt>
      <trkpt lat="43.4556" lon="1.53259">
        <ele>187.43690491</ele>
        <time>2018-05-27T07:21:17Z</time>
      </trkpt>
      <trkpt lat="43.45547" lon="1.53267">
        <ele>187.43690491</ele>
        <time>2018-05-27T07:21:19Z</time>
      </trkpt>
      <trkpt lat="43.45535" lon="1.53275">
        <ele>186.30065918</ele>
        <time>2018-05-27T07:21:21Z</time>
      </trkpt>
      <trkpt lat="43.45522" lon="1.53285">
        <ele>185.14216614</ele>
        <time>2018-05-27T07:21:23Z</time>
      </trkpt>
      <trkpt lat="43.45509" lon="1.53295">
        <ele>184.02359009</ele>
        <time>2018-05-27T07:21:25Z</time>
      </trkpt>
      <trkpt lat="43.45501" lon="1.53304">
        <ele>182.92407227</ele>
        <time>2018-05-27T07:21:28Z</time>
      </trkpt>
      <trkpt lat="43.45504" lon="1.53316">
        <ele>182.92407227</ele>
        <time>2018-05-27T07:21:30Z</time>
      </trkpt>
      <trkpt lat="43.45508" lon="1.53331">
        <ele>182.92407227</ele>
        <time>2018-05-27T07:21:32Z</time>
      </trkpt>
      <trkpt lat="43.45512" lon="1.53342">
        <ele>182.92407227</ele>
        <time>2018-05-27T07:22:11Z</time>
      </trkpt>
      <trkpt lat="43.45526" lon="1.53343">
        <ele>181.69384766</ele>
        <time>2018-05-27T07:22:13Z</time>
      </trkpt>
      <trkpt lat="43.45536" lon="1.53343">
        <ele>181.69384766</ele>
        <time>2018-05-27T07:22:17Z</time>
      </trkpt>
      <trkpt lat="43.45549" lon="1.53342">
        <ele>181.69384766</ele>
        <time>2018-05-27T07:22:19Z</time>
      </trkpt>
      <trkpt lat="43.45561" lon="1.53341">
        <ele>181.69384766</ele>
        <time>2018-05-27T07:22:22Z</time>
      </trkpt>
      <trkpt lat="43.45575" lon="1.53341">
        <ele>181.69384766</ele>
        <time>2018-05-27T07:22:25Z</time>
      </trkpt>
      <trkpt lat="43.4559" lon="1.53343">
        <ele>181.69384766</ele>
        <time>2018-05-27T07:22:28Z</time>
      </trkpt>
      <trkpt lat="43.45603" lon="1.53346">
        <ele>181.69384766</ele>
        <time>2018-05-27T07:22:31Z</time>
      </trkpt>
      <trkpt lat="43.45617" lon="1.53348">
        <ele>181.69384766</ele>
        <time>2018-05-27T07:22:34Z</time>
      </trkpt>
      <trkpt lat="43.45629" lon="1.53349">
        <ele>181.69384766</ele>
        <time>2018-05-27T07:22:36Z</time>
      </trkpt>
      <trkpt lat="43.45639" lon="1.53353">
        <ele>181.69384766</ele>
        <time>2018-05-27T07:22:39Z</time>
      </trkpt>
      <trkpt lat="43.45652" lon="1.53357">
        <ele>181.69384766</ele>
        <time>2018-05-27T07:22:42Z</time>
      </trkpt>
      <trkpt lat="43.45662" lon="1.53367">
        <ele>181.69384766</ele>
        <time>2018-05-27T07:22:45Z</time>
      </trkpt>
      <trkpt lat="43.45668" lon="1.53379">
        <ele>181.69384766</ele>
        <time>2018-05-27T07:22:47Z</time>
      </trkpt>
      <trkpt lat="43.45672" lon="1.53389">
        <ele>181.69384766</ele>
        <time>2018-05-27T07:22:49Z</time>
      </trkpt>
      <trkpt lat="43.45675" lon="1.53401">
        <ele>181.69384766</ele>
        <time>2018-05-27T07:22:51Z</time>
      </trkpt>
      <trkpt lat="43.45677" lon="1.53412">
        <ele>181.69384766</ele>
        <time>2018-05-27T07:22:53Z</time>
      </trkpt>
      <trkpt lat="43.45677" lon="1.53423">
        <ele>181.69384766</ele>
        <time>2018-05-27T07:22:55Z</time>
      </trkpt>
      <trkpt lat="43.45675" lon="1.53434">
        <ele>181.69384766</ele>
        <time>2018-05-27T07:22:57Z</time>
      </trkpt>
      <trkpt lat="43.45673" lon="1.53444">
        <ele>181.69384766</ele>
        <time>2018-05-27T07:22:59Z</time>
      </trkpt>
      <trkpt lat="43.45671" lon="1.53456">
        <ele>181.69384766</ele>
        <time>2018-05-27T07:23:01Z</time>
      </trkpt>
      <trkpt lat="43.4567" lon="1.53469">
        <ele>181.69384766</ele>
        <time>2018-05-27T07:23:03Z</time>
      </trkpt>
      <trkpt lat="43.45667" lon="1.53481">
        <ele>181.69384766</ele>
        <time>2018-05-27T07:23:05Z</time>
      </trkpt>
      <trkpt lat="43.45663" lon="1.53495">
        <ele>181.69384766</ele>
        <time>2018-05-27T07:23:07Z</time>
      </trkpt>
      <trkpt lat="43.45659" lon="1.53507">
        <ele>181.69384766</ele>
        <time>2018-05-27T07:23:09Z</time>
      </trkpt>
      <trkpt lat="43.45655" lon="1.53518">
        <ele>181.69384766</ele>
        <time>2018-05-27T07:23:11Z</time>
      </trkpt>
      <trkpt lat="43.45654" lon="1.53532">
        <ele>181.70506287</ele>
        <time>2018-05-27T07:23:13Z</time>
      </trkpt>
      <trkpt lat="43.45655" lon="1.53542">
        <ele>181.70506287</ele>
        <time>2018-05-27T07:23:15Z</time>
      </trkpt>
      <trkpt lat="43.45659" lon="1.53553">
        <ele>181.70506287</ele>
        <time>2018-05-27T07:23:18Z</time>
      </trkpt>
      <trkpt lat="43.45658" lon="1.53566">
        <ele>181.26100159</ele>
        <time>2018-05-27T07:23:21Z</time>
      </trkpt>
      <trkpt lat="43.45651" lon="1.5358">
        <ele>181.26100159</ele>
        <time>2018-05-27T07:23:24Z</time>
      </trkpt>
      <trkpt lat="43.45645" lon="1.53594">
        <ele>181.26100159</ele>
        <time>2018-05-27T07:23:27Z</time>
      </trkpt>
      <trkpt lat="43.4564" lon="1.53608">
        <ele>182.3744812</ele>
        <time>2018-05-27T07:23:30Z</time>
      </trkpt>
      <trkpt lat="43.45636" lon="1.53622">
        <ele>182.3744812</ele>
        <time>2018-05-27T07:23:33Z</time>
      </trkpt>
      <trkpt lat="43.45633" lon="1.53635">
        <ele>183.56077576</ele>
        <time>2018-05-27T07:23:36Z</time>
      </trkpt>
      <trkpt lat="43.45629" lon="1.53647">
        <ele>183.56077576</ele>
        <time>2018-05-27T07:23:39Z</time>
      </trkpt>
      <trkpt lat="43.45625" lon="1.53659">
        <ele>184.69099426</ele>
        <time>2018-05-27T07:23:42Z</time>
      </trkpt>
      <trkpt lat="43.45621" lon="1.53671">
        <ele>184.69099426</ele>
        <time>2018-05-27T07:23:45Z</time>
      </trkpt>
      <trkpt lat="43.45617" lon="1.53684">
        <ele>185.89562988</ele>
        <time>2018-05-27T07:23:48Z</time>
      </trkpt>
      <trkpt lat="43.45612" lon="1.53697">
        <ele>185.89562988</ele>
        <time>2018-05-27T07:23:51Z</time>
      </trkpt>
      <trkpt lat="43.45608" lon="1.53711">
        <ele>186.97805786</ele>
        <time>2018-05-27T07:23:54Z</time>
      </trkpt>
      <trkpt lat="43.45604" lon="1.53725">
        <ele>186.97805786</ele>
        <time>2018-05-27T07:23:57Z</time>
      </trkpt>
      <trkpt lat="43.456" lon="1.53738">
        <ele>187.95915222</ele>
        <time>2018-05-27T07:24:00Z</time>
      </trkpt>
      <trkpt lat="43.45596" lon="1.53751">
        <ele>189.14515686</ele>
        <time>2018-05-27T07:24:03Z</time>
      </trkpt>
      <trkpt lat="43.45592" lon="1.53765">
        <ele>189.14515686</ele>
        <time>2018-05-27T07:24:06Z</time>
      </trkpt>
      <trkpt lat="43.45588" lon="1.53778">
        <ele>190.15042114</ele>
        <time>2018-05-27T07:24:09Z</time>
      </trkpt>
      <trkpt lat="43.45583" lon="1.53791">
        <ele>190.15042114</ele>
        <time>2018-05-27T07:24:12Z</time>
      </trkpt>
      <trkpt lat="43.45581" lon="1.53799">
        <ele>190.95597839</ele>
        <time>2018-05-27T07:24:13Z</time>
      </trkpt>
      <trkpt lat="43.45577" lon="1.53807">
        <ele>190.95597839</ele>
        <time>2018-05-27T07:24:16Z</time>
      </trkpt>
      <trkpt lat="43.45573" lon="1.5382">
        <ele>191.90974426</ele>
        <time>2018-05-27T07:24:19Z</time>
      </trkpt>
      <trkpt lat="43.45569" lon="1.53832">
        <ele>191.90974426</ele>
        <time>2018-05-27T07:24:22Z</time>
      </trkpt>
      <trkpt lat="43.45565" lon="1.53843">
        <ele>193.17849731</ele>
        <time>2018-05-27T07:24:25Z</time>
      </trkpt>
      <trkpt lat="43.45561" lon="1.53856">
        <ele>194.29014587</ele>
        <time>2018-05-27T07:24:28Z</time>
      </trkpt>
      <trkpt lat="43.45557" lon="1.53868">
        <ele>194.29014587</ele>
        <time>2018-05-27T07:24:31Z</time>
      </trkpt>
      <trkpt lat="43.45554" lon="1.5388">
        <ele>194.29014587</ele>
        <time>2018-05-27T07:24:33Z</time>
      </trkpt>
      <trkpt lat="43.45551" lon="1.53892">
        <ele>195.35223389</ele>
        <time>2018-05-27T07:24:36Z</time>
      </trkpt>
      <trkpt lat="43.45546" lon="1.53906">
        <ele>195.35223389</ele>
        <time>2018-05-27T07:24:39Z</time>
      </trkpt>
      <trkpt lat="43.45541" lon="1.5392">
        <ele>196.44741821</ele>
        <time>2018-05-27T07:24:42Z</time>
      </trkpt>
      <trkpt lat="43.45537" lon="1.53934">
        <ele>196.44741821</ele>
        <time>2018-05-27T07:24:45Z</time>
      </trkpt>
      <trkpt lat="43.45534" lon="1.53947">
        <ele>197.44563293</ele>
        <time>2018-05-27T07:24:48Z</time>
      </trkpt>
      <trkpt lat="43.4553" lon="1.53961">
        <ele>197.44563293</ele>
        <time>2018-05-27T07:24:51Z</time>
      </trkpt>
      <trkpt lat="43.45526" lon="1.53974">
        <ele>198.63511658</ele>
        <time>2018-05-27T07:24:54Z</time>
      </trkpt>
      <trkpt lat="43.45521" lon="1.53988">
        <ele>199.72080994</ele>
        <time>2018-05-27T07:24:57Z</time>
      </trkpt>
      <trkpt lat="43.45517" lon="1.54002">
        <ele>199.72080994</ele>
        <time>2018-05-27T07:25:00Z</time>
      </trkpt>
      <trkpt lat="43.45514" lon="1.54015">
        <ele>200.77033997</ele>
        <time>2018-05-27T07:25:03Z</time>
      </trkpt>
      <trkpt lat="43.4551" lon="1.54028">
        <ele>200.77033997</ele>
        <time>2018-05-27T07:25:06Z</time>
      </trkpt>
      <trkpt lat="43.45506" lon="1.5404">
        <ele>201.87356567</ele>
        <time>2018-05-27T07:25:09Z</time>
      </trkpt>
      <trkpt lat="43.45503" lon="1.54051">
        <ele>202.84890747</ele>
        <time>2018-05-27T07:25:12Z</time>
      </trkpt>
      <trkpt lat="43.45499" lon="1.5406">
        <ele>203.29580688</ele>
        <time>2018-05-27T07:25:13Z</time>
      </trkpt>
      <trkpt lat="43.45497" lon="1.54068">
        <ele>203.92253113</ele>
        <time>2018-05-27T07:25:16Z</time>
      </trkpt>
      <trkpt lat="43.4549" lon="1.54079">
        <ele>203.92253113</ele>
        <time>2018-05-27T07:25:19Z</time>
      </trkpt>
      <trkpt lat="43.45482" lon="1.5409">
        <ele>204.87150574</ele>
        <time>2018-05-27T07:25:23Z</time>
      </trkpt>
      <trkpt lat="43.45478" lon="1.54103">
        <ele>204.87150574</ele>
        <time>2018-05-27T07:25:26Z</time>
      </trkpt>
      <trkpt lat="43.45474" lon="1.54116">
        <ele>205.93966675</ele>
        <time>2018-05-27T07:25:29Z</time>
      </trkpt>
      <trkpt lat="43.45471" lon="1.54128">
        <ele>205.93966675</ele>
        <time>2018-05-27T07:25:32Z</time>
      </trkpt>
      <trkpt lat="43.45467" lon="1.5414">
        <ele>207.04411316</ele>
        <time>2018-05-27T07:25:35Z</time>
      </trkpt>
      <trkpt lat="43.45462" lon="1.54153">
        <ele>207.04411316</ele>
        <time>2018-05-27T07:25:38Z</time>
      </trkpt>
      <trkpt lat="43.45459" lon="1.54165">
        <ele>208.15817261</ele>
        <time>2018-05-27T07:25:41Z</time>
      </trkpt>
      <trkpt lat="43.45455" lon="1.54178">
        <ele>208.15817261</ele>
        <time>2018-05-27T07:25:44Z</time>
      </trkpt>
      <trkpt lat="43.45451" lon="1.5419">
        <ele>209.35058594</ele>
        <time>2018-05-27T07:25:47Z</time>
      </trkpt>
      <trkpt lat="43.45448" lon="1.54204">
        <ele>209.35058594</ele>
        <time>2018-05-27T07:25:50Z</time>
      </trkpt>
      <trkpt lat="43.45444" lon="1.54217">
        <ele>210.51332092</ele>
        <time>2018-05-27T07:25:53Z</time>
      </trkpt>
      <trkpt lat="43.4544" lon="1.54229">
        <ele>210.51332092</ele>
        <time>2018-05-27T07:25:56Z</time>
      </trkpt>
      <trkpt lat="43.45436" lon="1.54242">
        <ele>211.71716309</ele>
        <time>2018-05-27T07:25:59Z</time>
      </trkpt>
      <trkpt lat="43.45432" lon="1.54255">
        <ele>211.71716309</ele>
        <time>2018-05-27T07:26:02Z</time>
      </trkpt>
      <trkpt lat="43.45429" lon="1.54268">
        <ele>212.5526886</ele>
        <time>2018-05-27T07:26:05Z</time>
      </trkpt>
      <trkpt lat="43.45424" lon="1.54281">
        <ele>212.5526886</ele>
        <time>2018-05-27T07:26:09Z</time>
      </trkpt>
      <trkpt lat="43.45419" lon="1.54291">
        <ele>214.35847473</ele>
        <time>2018-05-27T07:26:13Z</time>
      </trkpt>
      <trkpt lat="43.45409" lon="1.54287">
        <ele>214.35847473</ele>
        <time>2018-05-27T07:26:17Z</time>
      </trkpt>
      <trkpt lat="43.45396" lon="1.54279">
        <ele>214.35847473</ele>
        <time>2018-05-27T07:26:21Z</time>
      </trkpt>
      <trkpt lat="43.45384" lon="1.54275">
        <ele>214.35847473</ele>
        <time>2018-05-27T07:26:25Z</time>
      </trkpt>
      <trkpt lat="43.45373" lon="1.5427">
        <ele>214.35847473</ele>
        <time>2018-05-27T07:26:28Z</time>
      </trkpt>
      <trkpt lat="43.45362" lon="1.54265">
        <ele>215.02093506</ele>
        <time>2018-05-27T07:26:31Z</time>
      </trkpt>
      <trkpt lat="43.45351" lon="1.54261">
        <ele>215.02093506</ele>
        <time>2018-05-27T07:26:34Z</time>
      </trkpt>
      <trkpt lat="43.4534" lon="1.54256">
        <ele>215.02093506</ele>
        <time>2018-05-27T07:26:37Z</time>
      </trkpt>
      <trkpt lat="43.45329" lon="1.54252">
        <ele>216.00895691</ele>
        <time>2018-05-27T07:26:40Z</time>
      </trkpt>
      <trkpt lat="43.45318" lon="1.54247">
        <ele>216.00895691</ele>
        <time>2018-05-27T07:26:43Z</time>
      </trkpt>
      <trkpt lat="43.45307" lon="1.54243">
        <ele>216.00895691</ele>
        <time>2018-05-27T07:26:46Z</time>
      </trkpt>
      <trkpt lat="43.45297" lon="1.54237">
        <ele>217.2633667</ele>
        <time>2018-05-27T07:26:49Z</time>
      </trkpt>
      <trkpt lat="43.45285" lon="1.54231">
        <ele>218.45739746</ele>
        <time>2018-05-27T07:26:53Z</time>
      </trkpt>
      <trkpt lat="43.45272" lon="1.54227">
        <ele>219.54772949</ele>
        <time>2018-05-27T07:26:57Z</time>
      </trkpt>
      <trkpt lat="43.45259" lon="1.54222">
        <ele>220.61924744</ele>
        <time>2018-05-27T07:27:01Z</time>
      </trkpt>
      <trkpt lat="43.45247" lon="1.54215">
        <ele>222.81443787</ele>
        <time>2018-05-27T07:27:05Z</time>
      </trkpt>
      <trkpt lat="43.45235" lon="1.54209">
        <ele>223.98388672</ele>
        <time>2018-05-27T07:27:09Z</time>
      </trkpt>
      <trkpt lat="43.45219" lon="1.54202">
        <ele>226.24485779</ele>
        <time>2018-05-27T07:27:13Z</time>
      </trkpt>
      <trkpt lat="43.45212" lon="1.54199">
        <ele>227.16166687</ele>
        <time>2018-05-27T07:27:17Z</time>
      </trkpt>
      <trkpt lat="43.452" lon="1.54192">
        <ele>229.63977051</ele>
        <time>2018-05-27T07:27:21Z</time>
      </trkpt>
      <trkpt lat="43.45188" lon="1.54187">
        <ele>230.69206238</ele>
        <time>2018-05-27T07:27:24Z</time>
      </trkpt>
      <trkpt lat="43.45177" lon="1.54182">
        <ele>231.77705383</ele>
        <time>2018-05-27T07:27:28Z</time>
      </trkpt>
      <trkpt lat="43.45167" lon="1.54178">
        <ele>231.77705383</ele>
        <time>2018-05-27T07:27:32Z</time>
      </trkpt>
      <trkpt lat="43.45155" lon="1.5417">
        <ele>231.77705383</ele>
        <time>2018-05-27T07:27:35Z</time>
      </trkpt>
      <trkpt lat="43.45141" lon="1.54161">
        <ele>232.26527405</ele>
        <time>2018-05-27T07:27:38Z</time>
      </trkpt>
      <trkpt lat="43.45124" lon="1.5415">
        <ele>229.47998047</ele>
        <time>2018-05-27T07:27:40Z</time>
      </trkpt>
      <trkpt lat="43.45109" lon="1.54141">
        <ele>228.10040283</ele>
        <time>2018-05-27T07:27:42Z</time>
      </trkpt>
      <trkpt lat="43.45094" lon="1.54131">
        <ele>226.64646912</ele>
        <time>2018-05-27T07:27:44Z</time>
      </trkpt>
      <trkpt lat="43.45081" lon="1.54116">
        <ele>226.64646912</ele>
        <time>2018-05-27T07:27:46Z</time>
      </trkpt>
      <trkpt lat="43.4507" lon="1.54099">
        <ele>225.48983765</ele>
        <time>2018-05-27T07:27:48Z</time>
      </trkpt>
      <trkpt lat="43.45062" lon="1.54081">
        <ele>225.48983765</ele>
        <time>2018-05-27T07:27:50Z</time>
      </trkpt>
      <trkpt lat="43.45053" lon="1.54064">
        <ele>224.2978363</ele>
        <time>2018-05-27T07:27:52Z</time>
      </trkpt>
      <trkpt lat="43.45046" lon="1.54047">
        <ele>224.2978363</ele>
        <time>2018-05-27T07:27:54Z</time>
      </trkpt>
      <trkpt lat="43.45036" lon="1.54031">
        <ele>224.2978363</ele>
        <time>2018-05-27T07:27:56Z</time>
      </trkpt>
      <trkpt lat="43.45028" lon="1.54015">
        <ele>223.38595581</ele>
        <time>2018-05-27T07:27:58Z</time>
      </trkpt>
      <trkpt lat="43.45019" lon="1.54002">
        <ele>223.38595581</ele>
        <time>2018-05-27T07:28:00Z</time>
      </trkpt>
      <trkpt lat="43.45012" lon="1.53989">
        <ele>223.38595581</ele>
        <time>2018-05-27T07:28:02Z</time>
      </trkpt>
      <trkpt lat="43.45005" lon="1.53977">
        <ele>223.38595581</ele>
        <time>2018-05-27T07:28:04Z</time>
      </trkpt>
      <trkpt lat="43.44997" lon="1.53964">
        <ele>223.38595581</ele>
        <time>2018-05-27T07:28:06Z</time>
      </trkpt>
      <trkpt lat="43.44988" lon="1.5395">
        <ele>223.38595581</ele>
        <time>2018-05-27T07:28:08Z</time>
      </trkpt>
      <trkpt lat="43.44981" lon="1.53938">
        <ele>223.38595581</ele>
        <time>2018-05-27T07:28:10Z</time>
      </trkpt>
      <trkpt lat="43.44973" lon="1.53926">
        <ele>223.38595581</ele>
        <time>2018-05-27T07:28:12Z</time>
      </trkpt>
      <trkpt lat="43.44968" lon="1.53917">
        <ele>222.73344421</ele>
        <time>2018-05-27T07:28:13Z</time>
      </trkpt>
      <trkpt lat="43.44963" lon="1.53909">
        <ele>222.73344421</ele>
        <time>2018-05-27T07:28:15Z</time>
      </trkpt>
      <trkpt lat="43.44956" lon="1.53897">
        <ele>222.73344421</ele>
        <time>2018-05-27T07:28:18Z</time>
      </trkpt>
      <trkpt lat="43.44947" lon="1.53883">
        <ele>223.4445343</ele>
        <time>2018-05-27T07:28:21Z</time>
      </trkpt>
      <trkpt lat="43.44939" lon="1.53871">
        <ele>223.4445343</ele>
        <time>2018-05-27T07:28:24Z</time>
      </trkpt>
      <trkpt lat="43.44931" lon="1.53859">
        <ele>224.59664917</ele>
        <time>2018-05-27T07:28:28Z</time>
      </trkpt>
      <trkpt lat="43.44921" lon="1.53847">
        <ele>225.78417969</ele>
        <time>2018-05-27T07:28:32Z</time>
      </trkpt>
      <trkpt lat="43.44914" lon="1.53834">
        <ele>227.00299072</ele>
        <time>2018-05-27T07:28:35Z</time>
      </trkpt>
      <trkpt lat="43.44905" lon="1.53823">
        <ele>229.22990417</ele>
        <time>2018-05-27T07:28:40Z</time>
      </trkpt>
      <trkpt lat="43.44894" lon="1.53812">
        <ele>231.82426453</ele>
        <time>2018-05-27T07:28:45Z</time>
      </trkpt>
      <trkpt lat="43.44882" lon="1.53808">
        <ele>233.07090759</ele>
        <time>2018-05-27T07:28:49Z</time>
      </trkpt>
      <trkpt lat="43.44872" lon="1.53803">
        <ele>235.51509094</ele>
        <time>2018-05-27T07:28:54Z</time>
      </trkpt>
      <trkpt lat="43.4486" lon="1.53799">
        <ele>237.8591156</ele>
        <time>2018-05-27T07:28:58Z</time>
      </trkpt>
      <trkpt lat="43.4485" lon="1.53795">
        <ele>240.06903076</ele>
        <time>2018-05-27T07:29:02Z</time>
      </trkpt>
      <trkpt lat="43.44839" lon="1.5379">
        <ele>242.35668945</ele>
        <time>2018-05-27T07:29:06Z</time>
      </trkpt>
      <trkpt lat="43.44828" lon="1.53784">
        <ele>243.58323669</ele>
        <time>2018-05-27T07:29:11Z</time>
      </trkpt>
      <trkpt lat="43.44819" lon="1.5378">
        <ele>245.37879944</ele>
        <time>2018-05-27T07:29:13Z</time>
      </trkpt>
      <trkpt lat="43.4481" lon="1.53776">
        <ele>246.15278625</ele>
        <time>2018-05-27T07:29:18Z</time>
      </trkpt>
      <trkpt lat="43.44799" lon="1.5377">
        <ele>247.25489807</ele>
        <time>2018-05-27T07:29:24Z</time>
      </trkpt>
      <trkpt lat="43.44787" lon="1.53777">
        <ele>247.02348328</ele>
        <time>2018-05-27T07:29:28Z</time>
      </trkpt>
      <trkpt lat="43.44782" lon="1.53791">
        <ele>247.02348328</ele>
        <time>2018-05-27T07:29:30Z</time>
      </trkpt>
      <trkpt lat="43.44778" lon="1.53801">
        <ele>247.02348328</ele>
        <time>2018-05-27T07:29:32Z</time>
      </trkpt>
      <trkpt lat="43.44775" lon="1.53813">
        <ele>247.02348328</ele>
        <time>2018-05-27T07:29:34Z</time>
      </trkpt>
      <trkpt lat="43.4477" lon="1.53823">
        <ele>247.02348328</ele>
        <time>2018-05-27T07:29:36Z</time>
      </trkpt>
      <trkpt lat="43.44765" lon="1.53834">
        <ele>247.02348328</ele>
        <time>2018-05-27T07:29:38Z</time>
      </trkpt>
      <trkpt lat="43.44758" lon="1.53846">
        <ele>247.02348328</ele>
        <time>2018-05-27T07:29:41Z</time>
      </trkpt>
      <trkpt lat="43.44751" lon="1.53861">
        <ele>247.02348328</ele>
        <time>2018-05-27T07:29:44Z</time>
      </trkpt>
      <trkpt lat="43.44745" lon="1.53875">
        <ele>247.02348328</ele>
        <time>2018-05-27T07:29:47Z</time>
      </trkpt>
      <trkpt lat="43.44741" lon="1.53889">
        <ele>247.02348328</ele>
        <time>2018-05-27T07:29:50Z</time>
      </trkpt>
      <trkpt lat="43.44737" lon="1.53901">
        <ele>247.02348328</ele>
        <time>2018-05-27T07:29:53Z</time>
      </trkpt>
      <trkpt lat="43.44731" lon="1.53914">
        <ele>247.02348328</ele>
        <time>2018-05-27T07:29:56Z</time>
      </trkpt>
      <trkpt lat="43.44725" lon="1.53925">
        <ele>247.02348328</ele>
        <time>2018-05-27T07:29:59Z</time>
      </trkpt>
      <trkpt lat="43.44721" lon="1.53939">
        <ele>247.02348328</ele>
        <time>2018-05-27T07:30:02Z</time>
      </trkpt>
      <trkpt lat="43.44715" lon="1.53952">
        <ele>247.02348328</ele>
        <time>2018-05-27T07:30:05Z</time>
      </trkpt>
      <trkpt lat="43.44709" lon="1.53964">
        <ele>247.02348328</ele>
        <time>2018-05-27T07:30:08Z</time>
      </trkpt>
      <trkpt lat="43.44702" lon="1.53977">
        <ele>247.02348328</ele>
        <time>2018-05-27T07:30:11Z</time>
      </trkpt>
      <trkpt lat="43.44696" lon="1.53988">
        <ele>245.89630127</ele>
        <time>2018-05-27T07:30:13Z</time>
      </trkpt>
      <trkpt lat="43.44691" lon="1.53999">
        <ele>245.89630127</ele>
        <time>2018-05-27T07:30:16Z</time>
      </trkpt>
      <trkpt lat="43.44685" lon="1.54011">
        <ele>245.89630127</ele>
        <time>2018-05-27T07:30:19Z</time>
      </trkpt>
      <trkpt lat="43.4468" lon="1.54024">
        <ele>245.89630127</ele>
        <time>2018-05-27T07:30:22Z</time>
      </trkpt>
      <trkpt lat="43.44674" lon="1.54038">
        <ele>245.89630127</ele>
        <time>2018-05-27T07:30:25Z</time>
      </trkpt>
      <trkpt lat="43.44669" lon="1.5405">
        <ele>245.89630127</ele>
        <time>2018-05-27T07:30:28Z</time>
      </trkpt>
      <trkpt lat="43.44663" lon="1.54064">
        <ele>245.89630127</ele>
        <time>2018-05-27T07:30:31Z</time>
      </trkpt>
      <trkpt lat="43.44658" lon="1.54076">
        <ele>245.89630127</ele>
        <time>2018-05-27T07:30:33Z</time>
      </trkpt>
      <trkpt lat="43.44655" lon="1.54086">
        <ele>245.89630127</ele>
        <time>2018-05-27T07:30:35Z</time>
      </trkpt>
      <trkpt lat="43.44648" lon="1.54098">
        <ele>245.89630127</ele>
        <time>2018-05-27T07:30:38Z</time>
      </trkpt>
      <trkpt lat="43.44642" lon="1.54111">
        <ele>245.89630127</ele>
        <time>2018-05-27T07:30:41Z</time>
      </trkpt>
      <trkpt lat="43.44636" lon="1.54125">
        <ele>245.89630127</ele>
        <time>2018-05-27T07:30:44Z</time>
      </trkpt>
      <trkpt lat="43.44631" lon="1.54138">
        <ele>245.89630127</ele>
        <time>2018-05-27T07:30:47Z</time>
      </trkpt>
      <trkpt lat="43.44625" lon="1.54152">
        <ele>245.89630127</ele>
        <time>2018-05-27T07:30:50Z</time>
      </trkpt>
      <trkpt lat="43.44618" lon="1.54164">
        <ele>245.89630127</ele>
        <time>2018-05-27T07:30:53Z</time>
      </trkpt>
      <trkpt lat="43.44611" lon="1.54176">
        <ele>245.89630127</ele>
        <time>2018-05-27T07:30:56Z</time>
      </trkpt>
      <trkpt lat="43.44604" lon="1.54189">
        <ele>245.89630127</ele>
        <time>2018-05-27T07:30:59Z</time>
      </trkpt>
      <trkpt lat="43.44598" lon="1.542">
        <ele>245.89630127</ele>
        <time>2018-05-27T07:31:02Z</time>
      </trkpt>
      <trkpt lat="43.44593" lon="1.54212">
        <ele>245.89630127</ele>
        <time>2018-05-27T07:31:05Z</time>
      </trkpt>
      <trkpt lat="43.44587" lon="1.54225">
        <ele>245.89630127</ele>
        <time>2018-05-27T07:31:08Z</time>
      </trkpt>
      <trkpt lat="43.44581" lon="1.54238">
        <ele>245.89630127</ele>
        <time>2018-05-27T07:31:11Z</time>
      </trkpt>
      <trkpt lat="43.44576" lon="1.54249">
        <ele>245.29740906</ele>
        <time>2018-05-27T07:31:13Z</time>
      </trkpt>
      <trkpt lat="43.44571" lon="1.5426">
        <ele>245.29740906</ele>
        <time>2018-05-27T07:31:16Z</time>
      </trkpt>
      <trkpt lat="43.44566" lon="1.54272">
        <ele>245.29740906</ele>
        <time>2018-05-27T07:31:18Z</time>
      </trkpt>
      <trkpt lat="43.44561" lon="1.54282">
        <ele>245.29740906</ele>
        <time>2018-05-27T07:31:20Z</time>
      </trkpt>
      <trkpt lat="43.44555" lon="1.54294">
        <ele>245.29740906</ele>
        <time>2018-05-27T07:31:23Z</time>
      </trkpt>
      <trkpt lat="43.44549" lon="1.54306">
        <ele>245.29740906</ele>
        <time>2018-05-27T07:31:26Z</time>
      </trkpt>
      <trkpt lat="43.4454" lon="1.54319">
        <ele>245.29740906</ele>
        <time>2018-05-27T07:31:29Z</time>
      </trkpt>
      <trkpt lat="43.44531" lon="1.54333">
        <ele>245.29740906</ele>
        <time>2018-05-27T07:31:32Z</time>
      </trkpt>
      <trkpt lat="43.44523" lon="1.54346">
        <ele>244.27696228</ele>
        <time>2018-05-27T07:31:34Z</time>
      </trkpt>
      <trkpt lat="43.44516" lon="1.54358">
        <ele>244.27696228</ele>
        <time>2018-05-27T07:31:36Z</time>
      </trkpt>
      <trkpt lat="43.44507" lon="1.54371">
        <ele>243.01548767</ele>
        <time>2018-05-27T07:31:39Z</time>
      </trkpt>
      <trkpt lat="43.44495" lon="1.54386">
        <ele>243.01548767</ele>
        <time>2018-05-27T07:31:42Z</time>
      </trkpt>
      <trkpt lat="43.44482" lon="1.544">
        <ele>243.01548767</ele>
        <time>2018-05-27T07:31:45Z</time>
      </trkpt>
      <trkpt lat="43.4447" lon="1.54412">
        <ele>243.01548767</ele>
        <time>2018-05-27T07:31:47Z</time>
      </trkpt>
      <trkpt lat="43.44459" lon="1.54421">
        <ele>243.01548767</ele>
        <time>2018-05-27T07:31:50Z</time>
      </trkpt>
      <trkpt lat="43.44451" lon="1.54435">
        <ele>243.01548767</ele>
        <time>2018-05-27T07:31:53Z</time>
      </trkpt>
      <trkpt lat="43.44448" lon="1.54448">
        <ele>241.71572876</ele>
        <time>2018-05-27T07:31:55Z</time>
      </trkpt>
      <trkpt lat="43.44446" lon="1.5446">
        <ele>240.727005</ele>
        <time>2018-05-27T07:31:57Z</time>
      </trkpt>
      <trkpt lat="43.44444" lon="1.54475">
        <ele>240.727005</ele>
        <time>2018-05-27T07:31:59Z</time>
      </trkpt>
      <trkpt lat="43.44442" lon="1.5449">
        <ele>239.65330505</ele>
        <time>2018-05-27T07:32:01Z</time>
      </trkpt>
      <trkpt lat="43.4444" lon="1.54504">
        <ele>239.65330505</ele>
        <time>2018-05-27T07:32:03Z</time>
      </trkpt>
      <trkpt lat="43.44439" lon="1.54518">
        <ele>238.62889099</ele>
        <time>2018-05-27T07:32:05Z</time>
      </trkpt>
      <trkpt lat="43.44437" lon="1.54534">
        <ele>238.62889099</ele>
        <time>2018-05-27T07:32:07Z</time>
      </trkpt>
      <trkpt lat="43.44435" lon="1.54552">
        <ele>237.48880005</ele>
        <time>2018-05-27T07:32:09Z</time>
      </trkpt>
      <trkpt lat="43.44434" lon="1.54566">
        <ele>236.1967926</ele>
        <time>2018-05-27T07:32:10Z</time>
      </trkpt>
      <trkpt lat="43.44435" lon="1.54577">
        <ele>236.1967926</ele>
        <time>2018-05-27T07:32:11Z</time>
      </trkpt>
      <trkpt lat="43.44436" lon="1.54588">
        <ele>234.86233521</ele>
        <time>2018-05-27T07:32:12Z</time>
      </trkpt>
      <trkpt lat="43.44437" lon="1.546">
        <ele>234.49023438</ele>
        <time>2018-05-27T07:32:13Z</time>
      </trkpt>
      <trkpt lat="43.44437" lon="1.5461">
        <ele>233.24754333</ele>
        <time>2018-05-27T07:32:14Z</time>
      </trkpt>
      <trkpt lat="43.44436" lon="1.54622">
        <ele>233.24754333</ele>
        <time>2018-05-27T07:32:15Z</time>
      </trkpt>
      <trkpt lat="43.44436" lon="1.54632">
        <ele>231.68389893</ele>
        <time>2018-05-27T07:32:16Z</time>
      </trkpt>
      <trkpt lat="43.44434" lon="1.54647">
        <ele>230.08398438</ele>
        <time>2018-05-27T07:32:18Z</time>
      </trkpt>
      <trkpt lat="43.44432" lon="1.54662">
        <ele>230.08398438</ele>
        <time>2018-05-27T07:32:19Z</time>
      </trkpt>
      <trkpt lat="43.44431" lon="1.54674">
        <ele>228.41854858</ele>
        <time>2018-05-27T07:32:20Z</time>
      </trkpt>
      <trkpt lat="43.44431" lon="1.54685">
        <ele>228.41854858</ele>
        <time>2018-05-27T07:32:21Z</time>
      </trkpt>
      <trkpt lat="43.44429" lon="1.54698">
        <ele>226.50772095</ele>
        <time>2018-05-27T07:32:22Z</time>
      </trkpt>
      <trkpt lat="43.44428" lon="1.54711">
        <ele>226.50772095</ele>
        <time>2018-05-27T07:32:23Z</time>
      </trkpt>
      <trkpt lat="43.44427" lon="1.54724">
        <ele>224.6008606</ele>
        <time>2018-05-27T07:32:24Z</time>
      </trkpt>
      <trkpt lat="43.44426" lon="1.54737">
        <ele>224.6008606</ele>
        <time>2018-05-27T07:32:25Z</time>
      </trkpt>
      <trkpt lat="43.44425" lon="1.54749">
        <ele>223.04956055</ele>
        <time>2018-05-27T07:32:26Z</time>
      </trkpt>
      <trkpt lat="43.44423" lon="1.54761">
        <ele>223.04956055</ele>
        <time>2018-05-27T07:32:27Z</time>
      </trkpt>
      <trkpt lat="43.44422" lon="1.54771">
        <ele>223.04956055</ele>
        <time>2018-05-27T07:32:28Z</time>
      </trkpt>
      <trkpt lat="43.44418" lon="1.54784">
        <ele>221.88346863</ele>
        <time>2018-05-27T07:32:30Z</time>
      </trkpt>
      <trkpt lat="43.44413" lon="1.548">
        <ele>221.88346863</ele>
        <time>2018-05-27T07:32:32Z</time>
      </trkpt>
      <trkpt lat="43.44421" lon="1.54815">
        <ele>220.50764465</ele>
        <time>2018-05-27T07:32:34Z</time>
      </trkpt>
      <trkpt lat="43.44438" lon="1.54823">
        <ele>218.71081543</ele>
        <time>2018-05-27T07:32:36Z</time>
      </trkpt>
      <trkpt lat="43.44455" lon="1.54831">
        <ele>215.23008728</ele>
        <time>2018-05-27T07:32:38Z</time>
      </trkpt>
      <trkpt lat="43.44473" lon="1.54844">
        <ele>214.11877441</ele>
        <time>2018-05-27T07:32:40Z</time>
      </trkpt>
      <trkpt lat="43.44489" lon="1.54856">
        <ele>212.83798218</ele>
        <time>2018-05-27T07:32:42Z</time>
      </trkpt>
      <trkpt lat="43.44503" lon="1.54868">
        <ele>211.64352417</ele>
        <time>2018-05-27T07:32:44Z</time>
      </trkpt>
      <trkpt lat="43.44515" lon="1.54878">
        <ele>211.64352417</ele>
        <time>2018-05-27T07:32:46Z</time>
      </trkpt>
      <trkpt lat="43.44526" lon="1.54887">
        <ele>211.64352417</ele>
        <time>2018-05-27T07:32:48Z</time>
      </trkpt>
      <trkpt lat="43.44538" lon="1.54897">
        <ele>211.64352417</ele>
        <time>2018-05-27T07:32:51Z</time>
      </trkpt>
      <trkpt lat="43.44552" lon="1.54903">
        <ele>210.91986084</ele>
        <time>2018-05-27T07:32:53Z</time>
      </trkpt>
      <trkpt lat="43.44562" lon="1.54891">
        <ele>210.91986084</ele>
        <time>2018-05-27T07:32:55Z</time>
      </trkpt>
      <trkpt lat="43.44571" lon="1.54873">
        <ele>209.31817627</ele>
        <time>2018-05-27T07:32:57Z</time>
      </trkpt>
      <trkpt lat="43.44581" lon="1.54854">
        <ele>207.81021118</ele>
        <time>2018-05-27T07:32:59Z</time>
      </trkpt>
      <trkpt lat="43.44594" lon="1.54841">
        <ele>206.13449097</ele>
        <time>2018-05-27T07:33:01Z</time>
      </trkpt>
      <trkpt lat="43.44609" lon="1.54838">
        <ele>204.52825928</ele>
        <time>2018-05-27T07:33:03Z</time>
      </trkpt>
      <trkpt lat="43.44625" lon="1.54843">
        <ele>202.85974121</ele>
        <time>2018-05-27T07:33:05Z</time>
      </trkpt>
      <trkpt lat="43.4464" lon="1.54849">
        <ele>201.35577393</ele>
        <time>2018-05-27T07:33:07Z</time>
      </trkpt>
      <trkpt lat="43.44656" lon="1.54854">
        <ele>199.89407349</ele>
        <time>2018-05-27T07:33:09Z</time>
      </trkpt>
      <trkpt lat="43.44673" lon="1.54858">
        <ele>198.68702698</ele>
        <time>2018-05-27T07:33:11Z</time>
      </trkpt>
      <trkpt lat="43.44688" lon="1.54863">
        <ele>197.2518158</ele>
        <time>2018-05-27T07:33:13Z</time>
      </trkpt>
      <trkpt lat="43.44695" lon="1.54867">
        <ele>196.42118835</ele>
        <time>2018-05-27T07:33:17Z</time>
      </trkpt>
      <trkpt lat="43.44705" lon="1.54872">
        <ele>194.39996338</ele>
        <time>2018-05-27T07:33:21Z</time>
      </trkpt>
      <trkpt lat="43.44713" lon="1.54879">
        <ele>192.09228516</ele>
        <time>2018-05-27T07:33:26Z</time>
      </trkpt>
      <trkpt lat="43.44723" lon="1.54892">
        <ele>188.74925232</ele>
        <time>2018-05-27T07:33:29Z</time>
      </trkpt>
      <trkpt lat="43.44733" lon="1.54902">
        <ele>186.23605347</ele>
        <time>2018-05-27T07:33:32Z</time>
      </trkpt>
      <trkpt lat="43.44742" lon="1.54912">
        <ele>184.41665649</ele>
        <time>2018-05-27T07:33:35Z</time>
      </trkpt>
      <trkpt lat="43.4475" lon="1.54922">
        <ele>181.71047974</ele>
        <time>2018-05-27T07:33:41Z</time>
      </trkpt>
      <trkpt lat="43.44759" lon="1.54934">
        <ele>178.93687439</ele>
        <time>2018-05-27T07:33:44Z</time>
      </trkpt>
      <trkpt lat="43.44766" lon="1.54946">
        <ele>177.6693573</ele>
        <time>2018-05-27T07:33:47Z</time>
      </trkpt>
      <trkpt lat="43.44774" lon="1.54956">
        <ele>176.49336243</ele>
        <time>2018-05-27T07:33:51Z</time>
      </trkpt>
      <trkpt lat="43.44782" lon="1.54963">
        <ele>174.26841736</ele>
        <time>2018-05-27T07:33:55Z</time>
      </trkpt>
      <trkpt lat="43.44794" lon="1.54974">
        <ele>174.26841736</ele>
        <time>2018-05-27T07:33:59Z</time>
      </trkpt>
      <trkpt lat="43.44805" lon="1.54977">
        <ele>174.26841736</ele>
        <time>2018-05-27T07:34:03Z</time>
      </trkpt>
      <trkpt lat="43.44816" lon="1.54977">
        <ele>174.05053711</ele>
        <time>2018-05-27T07:34:08Z</time>
      </trkpt>
      <trkpt lat="43.44828" lon="1.54977">
        <ele>175.74757385</ele>
        <time>2018-05-27T07:34:12Z</time>
      </trkpt>
      <trkpt lat="43.44835" lon="1.54978">
        <ele>176.70092773</ele>
        <time>2018-05-27T07:34:13Z</time>
      </trkpt>
      <trkpt lat="43.44842" lon="1.54978">
        <ele>177.63832092</ele>
        <time>2018-05-27T07:34:17Z</time>
      </trkpt>
      <trkpt lat="43.44854" lon="1.5498">
        <ele>179.96017456</ele>
        <time>2018-05-27T07:34:21Z</time>
      </trkpt>
      <trkpt lat="43.44864" lon="1.54979">
        <ele>181.17356873</ele>
        <time>2018-05-27T07:34:25Z</time>
      </trkpt>
      <trkpt lat="43.44875" lon="1.54978">
        <ele>182.29550171</ele>
        <time>2018-05-27T07:34:29Z</time>
      </trkpt>
      <trkpt lat="43.44886" lon="1.54974">
        <ele>182.29550171</ele>
        <time>2018-05-27T07:34:33Z</time>
      </trkpt>
      <trkpt lat="43.44898" lon="1.54979">
        <ele>182.29550171</ele>
        <time>2018-05-27T07:34:36Z</time>
      </trkpt>
      <trkpt lat="43.44902" lon="1.54991">
        <ele>182.29550171</ele>
        <time>2018-05-27T07:34:38Z</time>
      </trkpt>
      <trkpt lat="43.44898" lon="1.55004">
        <ele>183.28956604</ele>
        <time>2018-05-27T07:34:41Z</time>
      </trkpt>
      <trkpt lat="43.44891" lon="1.55017">
        <ele>183.28956604</ele>
        <time>2018-05-27T07:34:44Z</time>
      </trkpt>
      <trkpt lat="43.44885" lon="1.55028">
        <ele>184.3182373</ele>
        <time>2018-05-27T07:34:47Z</time>
      </trkpt>
      <trkpt lat="43.4488" lon="1.5504">
        <ele>184.3182373</ele>
        <time>2018-05-27T07:34:50Z</time>
      </trkpt>
      <trkpt lat="43.44877" lon="1.55046">
        <ele>186.62059021</ele>
        <time>2018-05-27T07:36:25Z</time>
      </trkpt>
      <trkpt lat="43.44876" lon="1.55046">
        <ele>186.62059021</ele>
        <time>2018-05-27T07:36:28Z</time>
      </trkpt>
      <trkpt lat="43.44868" lon="1.55064">
        <ele>186.83360291</ele>
        <time>2018-05-27T07:36:31Z</time>
      </trkpt>
      <trkpt lat="43.44861" lon="1.55078">
        <ele>188.3086853</ele>
        <time>2018-05-27T07:36:34Z</time>
      </trkpt>
      <trkpt lat="43.44852" lon="1.55092">
        <ele>189.38214111</ele>
        <time>2018-05-27T07:36:37Z</time>
      </trkpt>
      <trkpt lat="43.44843" lon="1.55106">
        <ele>190.61422729</ele>
        <time>2018-05-27T07:36:40Z</time>
      </trkpt>
      <trkpt lat="43.44835" lon="1.55118">
        <ele>191.81750488</ele>
        <time>2018-05-27T07:36:43Z</time>
      </trkpt>
      <trkpt lat="43.44826" lon="1.5513">
        <ele>192.98797607</ele>
        <time>2018-05-27T07:36:46Z</time>
      </trkpt>
      <trkpt lat="43.44819" lon="1.55142">
        <ele>194.38374329</ele>
        <time>2018-05-27T07:36:48Z</time>
      </trkpt>
      <trkpt lat="43.44811" lon="1.55155">
        <ele>196.8336792</ele>
        <time>2018-05-27T07:36:51Z</time>
      </trkpt>
      <trkpt lat="43.44804" lon="1.55169">
        <ele>198.00634766</ele>
        <time>2018-05-27T07:36:54Z</time>
      </trkpt>
      <trkpt lat="43.44795" lon="1.55184">
        <ele>199.23704529</ele>
        <time>2018-05-27T07:36:57Z</time>
      </trkpt>
      <trkpt lat="43.44788" lon="1.55199">
        <ele>200.29943848</ele>
        <time>2018-05-27T07:37:00Z</time>
      </trkpt>
      <trkpt lat="43.44781" lon="1.55212">
        <ele>201.34091187</ele>
        <time>2018-05-27T07:37:03Z</time>
      </trkpt>
      <trkpt lat="43.44774" lon="1.55225">
        <ele>202.39871216</ele>
        <time>2018-05-27T07:37:06Z</time>
      </trkpt>
      <trkpt lat="43.44766" lon="1.55239">
        <ele>203.40348816</ele>
        <time>2018-05-27T07:37:09Z</time>
      </trkpt>
      <trkpt lat="43.44757" lon="1.55252">
        <ele>203.40348816</ele>
        <time>2018-05-27T07:37:12Z</time>
      </trkpt>
      <trkpt lat="43.44752" lon="1.55262">
        <ele>204.40083313</ele>
        <time>2018-05-27T07:37:13Z</time>
      </trkpt>
      <trkpt lat="43.44748" lon="1.5527">
        <ele>205.50738525</ele>
        <time>2018-05-27T07:37:16Z</time>
      </trkpt>
      <trkpt lat="43.4474" lon="1.55283">
        <ele>205.50738525</ele>
        <time>2018-05-27T07:37:19Z</time>
      </trkpt>
      <trkpt lat="43.44732" lon="1.55295">
        <ele>206.64776611</ele>
        <time>2018-05-27T07:37:22Z</time>
      </trkpt>
      <trkpt lat="43.44724" lon="1.55308">
        <ele>207.7731781</ele>
        <time>2018-05-27T07:37:25Z</time>
      </trkpt>
      <trkpt lat="43.44716" lon="1.55322">
        <ele>208.91390991</ele>
        <time>2018-05-27T07:37:28Z</time>
      </trkpt>
      <trkpt lat="43.4471" lon="1.55336">
        <ele>210.07579041</ele>
        <time>2018-05-27T07:37:31Z</time>
      </trkpt>
      <trkpt lat="43.44704" lon="1.55349">
        <ele>211.25097656</ele>
        <time>2018-05-27T07:37:34Z</time>
      </trkpt>
      <trkpt lat="43.44699" lon="1.5536">
        <ele>211.25097656</ele>
        <time>2018-05-27T07:37:37Z</time>
      </trkpt>
      <trkpt lat="43.44694" lon="1.55371">
        <ele>212.31643677</ele>
        <time>2018-05-27T07:37:40Z</time>
      </trkpt>
      <trkpt lat="43.44689" lon="1.55383">
        <ele>212.31643677</ele>
        <time>2018-05-27T07:37:43Z</time>
      </trkpt>
      <trkpt lat="43.44684" lon="1.55395">
        <ele>213.41868591</ele>
        <time>2018-05-27T07:37:46Z</time>
      </trkpt>
      <trkpt lat="43.44679" lon="1.55407">
        <ele>213.41868591</ele>
        <time>2018-05-27T07:37:49Z</time>
      </trkpt>
      <trkpt lat="43.44673" lon="1.55418">
        <ele>214.39630127</ele>
        <time>2018-05-27T07:37:52Z</time>
      </trkpt>
      <trkpt lat="43.44667" lon="1.5543">
        <ele>215.61483765</ele>
        <time>2018-05-27T07:37:55Z</time>
      </trkpt>
      <trkpt lat="43.44661" lon="1.55442">
        <ele>215.61483765</ele>
        <time>2018-05-27T07:37:58Z</time>
      </trkpt>
      <trkpt lat="43.44656" lon="1.55454">
        <ele>216.60076904</ele>
        <time>2018-05-27T07:38:01Z</time>
      </trkpt>
      <trkpt lat="43.44652" lon="1.55465">
        <ele>217.65606689</ele>
        <time>2018-05-27T07:38:04Z</time>
      </trkpt>
      <trkpt lat="43.44646" lon="1.55477">
        <ele>217.65606689</ele>
        <time>2018-05-27T07:38:07Z</time>
      </trkpt>
      <trkpt lat="43.44641" lon="1.55488">
        <ele>217.65606689</ele>
        <time>2018-05-27T07:38:10Z</time>
      </trkpt>
      <trkpt lat="43.44635" lon="1.55504">
        <ele>219.35038757</ele>
        <time>2018-05-27T07:38:13Z</time>
      </trkpt>
      <trkpt lat="43.44632" lon="1.55512">
        <ele>219.35038757</ele>
        <time>2018-05-27T07:38:16Z</time>
      </trkpt>
      <trkpt lat="43.44626" lon="1.55523">
        <ele>219.35038757</ele>
        <time>2018-05-27T07:38:19Z</time>
      </trkpt>
      <trkpt lat="43.4462" lon="1.55535">
        <ele>219.92974854</ele>
        <time>2018-05-27T07:38:22Z</time>
      </trkpt>
      <trkpt lat="43.44614" lon="1.55546">
        <ele>219.92974854</ele>
        <time>2018-05-27T07:38:25Z</time>
      </trkpt>
      <trkpt lat="43.44608" lon="1.55557">
        <ele>220.99339294</ele>
        <time>2018-05-27T07:38:29Z</time>
      </trkpt>
      <trkpt lat="43.44601" lon="1.55571">
        <ele>220.99339294</ele>
        <time>2018-05-27T07:38:32Z</time>
      </trkpt>
      <trkpt lat="43.44598" lon="1.55582">
        <ele>220.99339294</ele>
        <time>2018-05-27T07:38:36Z</time>
      </trkpt>
      <trkpt lat="43.44604" lon="1.55586">
        <ele>220.99339294</ele>
        <time>2018-05-27T07:38:39Z</time>
      </trkpt>
      <trkpt lat="43.44618" lon="1.55575">
        <ele>221.41516113</ele>
        <time>2018-05-27T07:38:42Z</time>
      </trkpt>
      <trkpt lat="43.44634" lon="1.55566">
        <ele>216.87442017</ele>
        <time>2018-05-27T07:38:44Z</time>
      </trkpt>
      <trkpt lat="43.44651" lon="1.5556">
        <ele>214.26864624</ele>
        <time>2018-05-27T07:38:46Z</time>
      </trkpt>
      <trkpt lat="43.44667" lon="1.55556">
        <ele>212.74687195</ele>
        <time>2018-05-27T07:38:47Z</time>
      </trkpt>
      <trkpt lat="43.44679" lon="1.55554">
        <ele>210.97799683</ele>
        <time>2018-05-27T07:38:48Z</time>
      </trkpt>
      <trkpt lat="43.44691" lon="1.55551">
        <ele>209.04780579</ele>
        <time>2018-05-27T07:38:49Z</time>
      </trkpt>
      <trkpt lat="43.44704" lon="1.55548">
        <ele>207.02667236</ele>
        <time>2018-05-27T07:38:50Z</time>
      </trkpt>
      <trkpt lat="43.44717" lon="1.55546">
        <ele>205.09158325</ele>
        <time>2018-05-27T07:38:51Z</time>
      </trkpt>
      <trkpt lat="43.4473" lon="1.55544">
        <ele>203.31427002</ele>
        <time>2018-05-27T07:38:52Z</time>
      </trkpt>
      <trkpt lat="43.44744" lon="1.55542">
        <ele>201.64541626</ele>
        <time>2018-05-27T07:38:53Z</time>
      </trkpt>
      <trkpt lat="43.44757" lon="1.55542">
        <ele>200.09370422</ele>
        <time>2018-05-27T07:38:54Z</time>
      </trkpt>
      <trkpt lat="43.44771" lon="1.5554">
        <ele>198.77798462</ele>
        <time>2018-05-27T07:38:55Z</time>
      </trkpt>
      <trkpt lat="43.44785" lon="1.55539">
        <ele>197.67408752</ele>
        <time>2018-05-27T07:38:56Z</time>
      </trkpt>
      <trkpt lat="43.44798" lon="1.55536">
        <ele>197.67408752</ele>
        <time>2018-05-27T07:38:57Z</time>
      </trkpt>
      <trkpt lat="43.4481" lon="1.55534">
        <ele>196.65869141</ele>
        <time>2018-05-27T07:38:58Z</time>
      </trkpt>
      <trkpt lat="43.44822" lon="1.55532">
        <ele>196.65869141</ele>
        <time>2018-05-27T07:38:59Z</time>
      </trkpt>
      <trkpt lat="43.44833" lon="1.55531">
        <ele>196.65869141</ele>
        <time>2018-05-27T07:39:00Z</time>
      </trkpt>
      <trkpt lat="43.44844" lon="1.5553">
        <ele>196.65869141</ele>
        <time>2018-05-27T07:39:01Z</time>
      </trkpt>
      <trkpt lat="43.44858" lon="1.5553">
        <ele>196.78971863</ele>
        <time>2018-05-27T07:39:03Z</time>
      </trkpt>
      <trkpt lat="43.44875" lon="1.55532">
        <ele>196.78971863</ele>
        <time>2018-05-27T07:39:05Z</time>
      </trkpt>
      <trkpt lat="43.44888" lon="1.55534">
        <ele>198.59674072</ele>
        <time>2018-05-27T07:39:07Z</time>
      </trkpt>
      <trkpt lat="43.449" lon="1.55536">
        <ele>199.94113159</ele>
        <time>2018-05-27T07:39:09Z</time>
      </trkpt>
      <trkpt lat="43.4491" lon="1.55538">
        <ele>199.94113159</ele>
        <time>2018-05-27T07:39:11Z</time>
      </trkpt>
      <trkpt lat="43.4492" lon="1.55539">
        <ele>200.88038635</ele>
        <time>2018-05-27T07:39:13Z</time>
      </trkpt>
      <trkpt lat="43.44929" lon="1.5553">
        <ele>200.88038635</ele>
        <time>2018-05-27T07:39:16Z</time>
      </trkpt>
      <trkpt lat="43.44938" lon="1.55516">
        <ele>200.88038635</ele>
        <time>2018-05-27T07:39:18Z</time>
      </trkpt>
      <trkpt lat="43.44946" lon="1.55504">
        <ele>200.80593872</ele>
        <time>2018-05-27T07:39:20Z</time>
      </trkpt>
      <trkpt lat="43.44954" lon="1.55493">
        <ele>199.2102356</ele>
        <time>2018-05-27T07:39:22Z</time>
      </trkpt>
      <trkpt lat="43.44965" lon="1.55482">
        <ele>199.2102356</ele>
        <time>2018-05-27T07:39:25Z</time>
      </trkpt>
      <trkpt lat="43.44969" lon="1.55475">
        <ele>198.23638916</ele>
        <time>2018-05-27T07:40:41Z</time>
      </trkpt>
      <trkpt lat="43.4497" lon="1.55476">
        <ele>197.9994812</ele>
        <time>2018-05-27T07:40:45Z</time>
      </trkpt>
      <trkpt lat="43.4499" lon="1.55485">
        <ele>196.2722168</ele>
        <time>2018-05-27T07:40:48Z</time>
      </trkpt>
      <trkpt lat="43.45002" lon="1.55497">
        <ele>196.2722168</ele>
        <time>2018-05-27T07:40:51Z</time>
      </trkpt>
      <trkpt lat="43.45014" lon="1.5551">
        <ele>195.13897705</ele>
        <time>2018-05-27T07:40:53Z</time>
      </trkpt>
      <trkpt lat="43.45024" lon="1.55521">
        <ele>193.69377136</ele>
        <time>2018-05-27T07:40:55Z</time>
      </trkpt>
      <trkpt lat="43.45034" lon="1.55534">
        <ele>192.46261597</ele>
        <time>2018-05-27T07:40:57Z</time>
      </trkpt>
      <trkpt lat="43.45048" lon="1.55547">
        <ele>190.97065735</ele>
        <time>2018-05-27T07:40:59Z</time>
      </trkpt>
      <trkpt lat="43.45063" lon="1.55559">
        <ele>189.56265259</ele>
        <time>2018-05-27T07:41:01Z</time>
      </trkpt>
      <trkpt lat="43.45079" lon="1.5557">
        <ele>188.3130188</ele>
        <time>2018-05-27T07:41:03Z</time>
      </trkpt>
      <trkpt lat="43.45095" lon="1.5558">
        <ele>187.12524414</ele>
        <time>2018-05-27T07:41:05Z</time>
      </trkpt>
      <trkpt lat="43.45111" lon="1.55589">
        <ele>187.12524414</ele>
        <time>2018-05-27T07:41:07Z</time>
      </trkpt>
      <trkpt lat="43.45126" lon="1.55597">
        <ele>187.12524414</ele>
        <time>2018-05-27T07:41:09Z</time>
      </trkpt>
      <trkpt lat="43.45141" lon="1.55604">
        <ele>187.12524414</ele>
        <time>2018-05-27T07:41:11Z</time>
      </trkpt>
      <trkpt lat="43.45156" lon="1.55612">
        <ele>186.41395569</ele>
        <time>2018-05-27T07:41:13Z</time>
      </trkpt>
      <trkpt lat="43.45164" lon="1.55618">
        <ele>186.41395569</ele>
        <time>2018-05-27T07:41:15Z</time>
      </trkpt>
      <trkpt lat="43.45176" lon="1.55625">
        <ele>186.41395569</ele>
        <time>2018-05-27T07:41:17Z</time>
      </trkpt>
      <trkpt lat="43.45187" lon="1.55634">
        <ele>186.41395569</ele>
        <time>2018-05-27T07:41:19Z</time>
      </trkpt>
      <trkpt lat="43.45202" lon="1.55644">
        <ele>186.70036316</ele>
        <time>2018-05-27T07:41:21Z</time>
      </trkpt>
      <trkpt lat="43.45219" lon="1.55656">
        <ele>182.20407104</ele>
        <time>2018-05-27T07:41:23Z</time>
      </trkpt>
      <trkpt lat="43.45238" lon="1.5567">
        <ele>179.94567871</ele>
        <time>2018-05-27T07:41:25Z</time>
      </trkpt>
      <trkpt lat="43.45258" lon="1.55684">
        <ele>178.8734436</ele>
        <time>2018-05-27T07:41:27Z</time>
      </trkpt>
      <trkpt lat="43.45277" lon="1.55699">
        <ele>177.50747681</ele>
        <time>2018-05-27T07:41:29Z</time>
      </trkpt>
      <trkpt lat="43.45293" lon="1.55709">
        <ele>175.9072113</ele>
        <time>2018-05-27T07:41:30Z</time>
      </trkpt>
      <trkpt lat="43.45303" lon="1.55715">
        <ele>175.9072113</ele>
        <time>2018-05-27T07:41:31Z</time>
      </trkpt>
      <trkpt lat="43.45313" lon="1.55718">
        <ele>175.9072113</ele>
        <time>2018-05-27T07:41:32Z</time>
      </trkpt>
      <trkpt lat="43.45324" lon="1.5572">
        <ele>174.6607666</ele>
        <time>2018-05-27T07:41:33Z</time>
      </trkpt>
      <trkpt lat="43.45337" lon="1.55717">
        <ele>174.6607666</ele>
        <time>2018-05-27T07:41:35Z</time>
      </trkpt>
      <trkpt lat="43.45351" lon="1.5571">
        <ele>174.6607666</ele>
        <time>2018-05-27T07:41:37Z</time>
      </trkpt>
      <trkpt lat="43.45363" lon="1.55703">
        <ele>174.89691162</ele>
        <time>2018-05-27T07:41:39Z</time>
      </trkpt>
      <trkpt lat="43.45375" lon="1.55699">
        <ele>176.44033813</ele>
        <time>2018-05-27T07:41:41Z</time>
      </trkpt>
      <trkpt lat="43.45387" lon="1.55696">
        <ele>177.48658752</ele>
        <time>2018-05-27T07:41:44Z</time>
      </trkpt>
      <trkpt lat="43.45401" lon="1.55694">
        <ele>177.48658752</ele>
        <time>2018-05-27T07:41:46Z</time>
      </trkpt>
      <trkpt lat="43.45414" lon="1.55691">
        <ele>177.48658752</ele>
        <time>2018-05-27T07:41:48Z</time>
      </trkpt>
      <trkpt lat="43.45429" lon="1.55692">
        <ele>177.56604004</ele>
        <time>2018-05-27T07:41:50Z</time>
      </trkpt>
      <trkpt lat="43.45442" lon="1.55699">
        <ele>175.59577942</ele>
        <time>2018-05-27T07:41:52Z</time>
      </trkpt>
      <trkpt lat="43.45457" lon="1.55709">
        <ele>174.2230835</ele>
        <time>2018-05-27T07:41:54Z</time>
      </trkpt>
      <trkpt lat="43.45474" lon="1.55723">
        <ele>172.81069946</ele>
        <time>2018-05-27T07:41:56Z</time>
      </trkpt>
      <trkpt lat="43.4549" lon="1.55738">
        <ele>172.81069946</ele>
        <time>2018-05-27T07:41:58Z</time>
      </trkpt>
      <trkpt lat="43.45506" lon="1.55751">
        <ele>171.62136841</ele>
        <time>2018-05-27T07:42:00Z</time>
      </trkpt>
      <trkpt lat="43.4552" lon="1.55763">
        <ele>171.62136841</ele>
        <time>2018-05-27T07:42:02Z</time>
      </trkpt>
      <trkpt lat="43.45534" lon="1.55774">
        <ele>171.62136841</ele>
        <time>2018-05-27T07:42:04Z</time>
      </trkpt>
      <trkpt lat="43.45548" lon="1.55784">
        <ele>170.5083313</ele>
        <time>2018-05-27T07:42:06Z</time>
      </trkpt>
      <trkpt lat="43.4556" lon="1.5579">
        <ele>170.5083313</ele>
        <time>2018-05-27T07:42:08Z</time>
      </trkpt>
      <trkpt lat="43.45573" lon="1.55791">
        <ele>169.41752625</ele>
        <time>2018-05-27T07:42:11Z</time>
      </trkpt>
      <trkpt lat="43.45585" lon="1.55786">
        <ele>168.57246399</ele>
        <time>2018-05-27T07:42:13Z</time>
      </trkpt>
      <trkpt lat="43.45595" lon="1.55786">
        <ele>168.57246399</ele>
        <time>2018-05-27T07:42:15Z</time>
      </trkpt>
      <trkpt lat="43.45606" lon="1.55783">
        <ele>167.74938965</ele>
        <time>2018-05-27T07:42:17Z</time>
      </trkpt>
      <trkpt lat="43.45619" lon="1.55781">
        <ele>166.49116516</ele>
        <time>2018-05-27T07:42:19Z</time>
      </trkpt>
      <trkpt lat="43.45633" lon="1.55778">
        <ele>163.2587738</ele>
        <time>2018-05-27T07:42:21Z</time>
      </trkpt>
      <trkpt lat="43.45651" lon="1.55776">
        <ele>162.2615509</ele>
        <time>2018-05-27T07:42:23Z</time>
      </trkpt>
      <trkpt lat="43.4567" lon="1.55774">
        <ele>162.2615509</ele>
        <time>2018-05-27T07:42:25Z</time>
      </trkpt>
      <trkpt lat="43.45686" lon="1.55773">
        <ele>161.01487732</ele>
        <time>2018-05-27T07:42:27Z</time>
      </trkpt>
      <trkpt lat="43.45697" lon="1.55775">
        <ele>161.01487732</ele>
        <time>2018-05-27T07:42:30Z</time>
      </trkpt>
      <trkpt lat="43.45708" lon="1.55784">
        <ele>160.29725647</ele>
        <time>2018-05-27T07:42:33Z</time>
      </trkpt>
      <trkpt lat="43.45721" lon="1.55789">
        <ele>160.29725647</ele>
        <time>2018-05-27T07:42:36Z</time>
      </trkpt>
      <trkpt lat="43.45735" lon="1.55791">
        <ele>159.00099182</ele>
        <time>2018-05-27T07:42:38Z</time>
      </trkpt>
      <trkpt lat="43.45747" lon="1.55794">
        <ele>159.00099182</ele>
        <time>2018-05-27T07:42:40Z</time>
      </trkpt>
      <trkpt lat="43.45757" lon="1.55797">
        <ele>158.04127502</ele>
        <time>2018-05-27T07:42:42Z</time>
      </trkpt>
      <trkpt lat="43.45769" lon="1.55799">
        <ele>158.04127502</ele>
        <time>2018-05-27T07:42:44Z</time>
      </trkpt>
      <trkpt lat="43.45781" lon="1.55799">
        <ele>156.77789307</ele>
        <time>2018-05-27T07:42:46Z</time>
      </trkpt>
      <trkpt lat="43.45795" lon="1.558">
        <ele>156.77789307</ele>
        <time>2018-05-27T07:42:48Z</time>
      </trkpt>
      <trkpt lat="43.45809" lon="1.55801">
        <ele>155.4901886</ele>
        <time>2018-05-27T07:42:50Z</time>
      </trkpt>
      <trkpt lat="43.45824" lon="1.55802">
        <ele>154.259552</ele>
        <time>2018-05-27T07:42:52Z</time>
      </trkpt>
      <trkpt lat="43.45838" lon="1.55803">
        <ele>154.259552</ele>
        <time>2018-05-27T07:42:54Z</time>
      </trkpt>
      <trkpt lat="43.45854" lon="1.55803">
        <ele>153.13621521</ele>
        <time>2018-05-27T07:42:56Z</time>
      </trkpt>
      <trkpt lat="43.4587" lon="1.55802">
        <ele>151.81726074</ele>
        <time>2018-05-27T07:42:58Z</time>
      </trkpt>
      <trkpt lat="43.45888" lon="1.55802">
        <ele>150.24186707</ele>
        <time>2018-05-27T07:43:00Z</time>
      </trkpt>
      <trkpt lat="43.45906" lon="1.55801">
        <ele>148.66467285</ele>
        <time>2018-05-27T07:43:02Z</time>
      </trkpt>
      <trkpt lat="43.45922" lon="1.55801">
        <ele>147.10784912</ele>
        <time>2018-05-27T07:43:03Z</time>
      </trkpt>
      <trkpt lat="43.45937" lon="1.55802">
        <ele>145.91229248</ele>
        <time>2018-05-27T07:43:05Z</time>
      </trkpt>
      <trkpt lat="43.45956" lon="1.55802">
        <ele>145.91229248</ele>
        <time>2018-05-27T07:43:07Z</time>
      </trkpt>
      <trkpt lat="43.45975" lon="1.558">
        <ele>144.9094696</ele>
        <time>2018-05-27T07:43:09Z</time>
      </trkpt>
      <trkpt lat="43.45989" lon="1.55797">
        <ele>144.9094696</ele>
        <time>2018-05-27T07:43:11Z</time>
      </trkpt>
      <trkpt lat="43.45998" lon="1.5579">
        <ele>144.47001648</ele>
        <time>2018-05-27T07:43:13Z</time>
      </trkpt>
      <trkpt lat="43.46" lon="1.5578">
        <ele>144.47001648</ele>
        <time>2018-05-27T07:43:16Z</time>
      </trkpt>
      <trkpt lat="43.45999" lon="1.55766">
        <ele>144.47001648</ele>
        <time>2018-05-27T07:43:18Z</time>
      </trkpt>
      <trkpt lat="43.45996" lon="1.55752">
        <ele>144.47001648</ele>
        <time>2018-05-27T07:43:20Z</time>
      </trkpt>
      <trkpt lat="43.45994" lon="1.55738">
        <ele>144.47001648</ele>
        <time>2018-05-27T07:43:22Z</time>
      </trkpt>
      <trkpt lat="43.45991" lon="1.55723">
        <ele>144.47001648</ele>
        <time>2018-05-27T07:43:24Z</time>
      </trkpt>
      <trkpt lat="43.45987" lon="1.55709">
        <ele>144.47001648</ele>
        <time>2018-05-27T07:43:26Z</time>
      </trkpt>
      <trkpt lat="43.45984" lon="1.55695">
        <ele>144.47001648</ele>
        <time>2018-05-27T07:43:28Z</time>
      </trkpt>
      <trkpt lat="43.45981" lon="1.55681">
        <ele>144.47001648</ele>
        <time>2018-05-27T07:43:30Z</time>
      </trkpt>
      <trkpt lat="43.45979" lon="1.55667">
        <ele>144.60551453</ele>
        <time>2018-05-27T07:43:32Z</time>
      </trkpt>
      <trkpt lat="43.45975" lon="1.55654">
        <ele>144.60551453</ele>
        <time>2018-05-27T07:43:34Z</time>
      </trkpt>
      <trkpt lat="43.45971" lon="1.55641">
        <ele>144.60551453</ele>
        <time>2018-05-27T07:43:36Z</time>
      </trkpt>
      <trkpt lat="43.45968" lon="1.55627">
        <ele>146.09616089</ele>
        <time>2018-05-27T07:43:38Z</time>
      </trkpt>
      <trkpt lat="43.45963" lon="1.55614">
        <ele>146.09616089</ele>
        <time>2018-05-27T07:43:40Z</time>
      </trkpt>
      <trkpt lat="43.45958" lon="1.55602">
        <ele>146.09616089</ele>
        <time>2018-05-27T07:43:42Z</time>
      </trkpt>
      <trkpt lat="43.45953" lon="1.55591">
        <ele>146.09616089</ele>
        <time>2018-05-27T07:43:44Z</time>
      </trkpt>
      <trkpt lat="43.45949" lon="1.5558">
        <ele>147.20639038</ele>
        <time>2018-05-27T07:43:46Z</time>
      </trkpt>
      <trkpt lat="43.45945" lon="1.55569">
        <ele>147.20639038</ele>
        <time>2018-05-27T07:43:48Z</time>
      </trkpt>
      <trkpt lat="43.4594" lon="1.55558">
        <ele>147.20639038</ele>
        <time>2018-05-27T07:43:50Z</time>
      </trkpt>
      <trkpt lat="43.45935" lon="1.55546">
        <ele>147.20639038</ele>
        <time>2018-05-27T07:43:52Z</time>
      </trkpt>
      <trkpt lat="43.45932" lon="1.55532">
        <ele>147.20639038</ele>
        <time>2018-05-27T07:43:54Z</time>
      </trkpt>
      <trkpt lat="43.45927" lon="1.55517">
        <ele>147.20639038</ele>
        <time>2018-05-27T07:43:56Z</time>
      </trkpt>
      <trkpt lat="43.45922" lon="1.55503">
        <ele>147.20639038</ele>
        <time>2018-05-27T07:43:58Z</time>
      </trkpt>
      <trkpt lat="43.45918" lon="1.55489">
        <ele>147.20639038</ele>
        <time>2018-05-27T07:44:00Z</time>
      </trkpt>
      <trkpt lat="43.45915" lon="1.55474">
        <ele>147.56425476</ele>
        <time>2018-05-27T07:44:02Z</time>
      </trkpt>
      <trkpt lat="43.45911" lon="1.55459">
        <ele>147.56425476</ele>
        <time>2018-05-27T07:44:04Z</time>
      </trkpt>
      <trkpt lat="43.45908" lon="1.55443">
        <ele>147.56425476</ele>
        <time>2018-05-27T07:44:06Z</time>
      </trkpt>
      <trkpt lat="43.45907" lon="1.55427">
        <ele>147.56425476</ele>
        <time>2018-05-27T07:44:08Z</time>
      </trkpt>
      <trkpt lat="43.4591" lon="1.55411">
        <ele>147.56425476</ele>
        <time>2018-05-27T07:44:10Z</time>
      </trkpt>
      <trkpt lat="43.45921" lon="1.55392">
        <ele>146.26016235</ele>
        <time>2018-05-27T07:44:13Z</time>
      </trkpt>
      <trkpt lat="43.45924" lon="1.55385">
        <ele>146.26016235</ele>
        <time>2018-05-27T07:44:15Z</time>
      </trkpt>
      <trkpt lat="43.45929" lon="1.55374">
        <ele>146.26016235</ele>
        <time>2018-05-27T07:44:17Z</time>
      </trkpt>
      <trkpt lat="43.45935" lon="1.55362">
        <ele>147.28234863</ele>
        <time>2018-05-27T07:44:20Z</time>
      </trkpt>
      <trkpt lat="43.45939" lon="1.55349">
        <ele>147.28234863</ele>
        <time>2018-05-27T07:44:22Z</time>
      </trkpt>
      <trkpt lat="43.4594" lon="1.55338">
        <ele>147.28234863</ele>
        <time>2018-05-27T07:44:24Z</time>
      </trkpt>
      <trkpt lat="43.4594" lon="1.55326">
        <ele>148.32629395</ele>
        <time>2018-05-27T07:44:27Z</time>
      </trkpt>
      <trkpt lat="43.45938" lon="1.55313">
        <ele>148.32629395</ele>
        <time>2018-05-27T07:44:29Z</time>
      </trkpt>
      <trkpt lat="43.45934" lon="1.55301">
        <ele>148.32629395</ele>
        <time>2018-05-27T07:44:31Z</time>
      </trkpt>
      <trkpt lat="43.4593" lon="1.55291">
        <ele>149.27783203</ele>
        <time>2018-05-27T07:44:34Z</time>
      </trkpt>
      <trkpt lat="43.45922" lon="1.55279">
        <ele>149.27783203</ele>
        <time>2018-05-27T07:44:37Z</time>
      </trkpt>
      <trkpt lat="43.45915" lon="1.55267">
        <ele>150.50131226</ele>
        <time>2018-05-27T07:44:40Z</time>
      </trkpt>
      <trkpt lat="43.45908" lon="1.55255">
        <ele>151.60899353</ele>
        <time>2018-05-27T07:44:43Z</time>
      </trkpt>
      <trkpt lat="43.45901" lon="1.55243">
        <ele>151.60899353</ele>
        <time>2018-05-27T07:44:45Z</time>
      </trkpt>
      <trkpt lat="43.45894" lon="1.55234">
        <ele>152.81077576</ele>
        <time>2018-05-27T07:44:48Z</time>
      </trkpt>
      <trkpt lat="43.45886" lon="1.55222">
        <ele>152.81077576</ele>
        <time>2018-05-27T07:44:51Z</time>
      </trkpt>
      <trkpt lat="43.45876" lon="1.5521">
        <ele>152.81077576</ele>
        <time>2018-05-27T07:44:53Z</time>
      </trkpt>
      <trkpt lat="43.45866" lon="1.55197">
        <ele>152.81077576</ele>
        <time>2018-05-27T07:44:56Z</time>
      </trkpt>
      <trkpt lat="43.45856" lon="1.55183">
        <ele>152.81077576</ele>
        <time>2018-05-27T07:44:58Z</time>
      </trkpt>
      <trkpt lat="43.45849" lon="1.55171">
        <ele>152.81077576</ele>
        <time>2018-05-27T07:45:00Z</time>
      </trkpt>
      <trkpt lat="43.45842" lon="1.55157">
        <ele>152.81077576</ele>
        <time>2018-05-27T07:45:02Z</time>
      </trkpt>
      <trkpt lat="43.45835" lon="1.55143">
        <ele>153.7792511</ele>
        <time>2018-05-27T07:45:04Z</time>
      </trkpt>
      <trkpt lat="43.45829" lon="1.5513">
        <ele>153.7792511</ele>
        <time>2018-05-27T07:45:06Z</time>
      </trkpt>
      <trkpt lat="43.45824" lon="1.55116">
        <ele>154.98857117</ele>
        <time>2018-05-27T07:45:08Z</time>
      </trkpt>
      <trkpt lat="43.45818" lon="1.55104">
        <ele>154.98857117</ele>
        <time>2018-05-27T07:45:10Z</time>
      </trkpt>
      <trkpt lat="43.45814" lon="1.55092">
        <ele>156.30203247</ele>
        <time>2018-05-27T07:45:12Z</time>
      </trkpt>
      <trkpt lat="43.45812" lon="1.55083">
        <ele>156.787323</ele>
        <time>2018-05-27T07:45:13Z</time>
      </trkpt>
      <trkpt lat="43.45808" lon="1.55073">
        <ele>156.787323</ele>
        <time>2018-05-27T07:45:15Z</time>
      </trkpt>
      <trkpt lat="43.45803" lon="1.55062">
        <ele>157.61735535</ele>
        <time>2018-05-27T07:45:17Z</time>
      </trkpt>
      <trkpt lat="43.458" lon="1.5505">
        <ele>158.90879822</ele>
        <time>2018-05-27T07:45:20Z</time>
      </trkpt>
      <trkpt lat="43.45797" lon="1.55037">
        <ele>158.90879822</ele>
        <time>2018-05-27T07:45:23Z</time>
      </trkpt>
      <trkpt lat="43.45794" lon="1.55024">
        <ele>159.9954834</ele>
        <time>2018-05-27T07:45:25Z</time>
      </trkpt>
      <trkpt lat="43.45793" lon="1.55013">
        <ele>159.9954834</ele>
        <time>2018-05-27T07:45:27Z</time>
      </trkpt>
      <trkpt lat="43.45792" lon="1.55003">
        <ele>161.03871155</ele>
        <time>2018-05-27T07:45:29Z</time>
      </trkpt>
      <trkpt lat="43.45792" lon="1.54992">
        <ele>161.03871155</ele>
        <time>2018-05-27T07:45:31Z</time>
      </trkpt>
      <trkpt lat="43.45792" lon="1.54982">
        <ele>161.03871155</ele>
        <time>2018-05-27T07:45:33Z</time>
      </trkpt>
      <trkpt lat="43.45792" lon="1.5497">
        <ele>162.09562683</ele>
        <time>2018-05-27T07:45:35Z</time>
      </trkpt>
      <trkpt lat="43.45792" lon="1.54959">
        <ele>163.18663025</ele>
        <time>2018-05-27T07:45:38Z</time>
      </trkpt>
      <trkpt lat="43.45792" lon="1.54948">
        <ele>163.18663025</ele>
        <time>2018-05-27T07:45:41Z</time>
      </trkpt>
      <trkpt lat="43.45793" lon="1.54938">
        <ele>164.3278656</ele>
        <time>2018-05-27T07:45:45Z</time>
      </trkpt>
      <trkpt lat="43.45795" lon="1.54925">
        <ele>165.38633728</ele>
        <time>2018-05-27T07:45:48Z</time>
      </trkpt>
      <trkpt lat="43.45798" lon="1.54914">
        <ele>166.64814758</ele>
        <time>2018-05-27T07:45:52Z</time>
      </trkpt>
      <trkpt lat="43.45802" lon="1.54902">
        <ele>168.02891541</ele>
        <time>2018-05-27T07:45:56Z</time>
      </trkpt>
      <trkpt lat="43.45805" lon="1.54889">
        <ele>169.14845276</ele>
        <time>2018-05-27T07:46:00Z</time>
      </trkpt>
      <trkpt lat="43.45807" lon="1.54877">
        <ele>170.3510437</ele>
        <time>2018-05-27T07:46:04Z</time>
      </trkpt>
      <trkpt lat="43.45809" lon="1.54865">
        <ele>171.47293091</ele>
        <time>2018-05-27T07:46:08Z</time>
      </trkpt>
      <trkpt lat="43.45813" lon="1.54852">
        <ele>172.6050415</ele>
        <time>2018-05-27T07:46:12Z</time>
      </trkpt>
      <trkpt lat="43.45816" lon="1.54844">
        <ele>173.423172</ele>
        <time>2018-05-27T07:46:13Z</time>
      </trkpt>
      <trkpt lat="43.45816" lon="1.54835">
        <ele>174.20347595</ele>
        <time>2018-05-27T07:46:16Z</time>
      </trkpt>
      <trkpt lat="43.45819" lon="1.54822">
        <ele>175.38415527</ele>
        <time>2018-05-27T07:46:20Z</time>
      </trkpt>
      <trkpt lat="43.45822" lon="1.5481">
        <ele>176.53871155</ele>
        <time>2018-05-27T07:46:23Z</time>
      </trkpt>
      <trkpt lat="43.45825" lon="1.548">
        <ele>177.76615906</ele>
        <time>2018-05-27T07:46:26Z</time>
      </trkpt>
      <trkpt lat="43.45826" lon="1.54789">
        <ele>178.90464783</ele>
        <time>2018-05-27T07:46:29Z</time>
      </trkpt>
      <trkpt lat="43.45826" lon="1.54777">
        <ele>180.06079102</ele>
        <time>2018-05-27T07:46:33Z</time>
      </trkpt>
      <trkpt lat="43.45826" lon="1.54764">
        <ele>181.24635315</ele>
        <time>2018-05-27T07:46:37Z</time>
      </trkpt>
      <trkpt lat="43.45825" lon="1.54751">
        <ele>182.49421692</ele>
        <time>2018-05-27T07:46:40Z</time>
      </trkpt>
      <trkpt lat="43.45825" lon="1.5474">
        <ele>182.49421692</ele>
        <time>2018-05-27T07:46:43Z</time>
      </trkpt>
      <trkpt lat="43.45824" lon="1.54728">
        <ele>183.59344482</ele>
        <time>2018-05-27T07:46:46Z</time>
      </trkpt>
      <trkpt lat="43.45824" lon="1.54717">
        <ele>184.6693573</ele>
        <time>2018-05-27T07:46:51Z</time>
      </trkpt>
      <trkpt lat="43.45824" lon="1.54706">
        <ele>185.84790039</ele>
        <time>2018-05-27T07:46:54Z</time>
      </trkpt>
      <trkpt lat="43.45825" lon="1.54694">
        <ele>187.01864624</ele>
        <time>2018-05-27T07:46:58Z</time>
      </trkpt>
      <trkpt lat="43.45824" lon="1.54682">
        <ele>188.32479858</ele>
        <time>2018-05-27T07:47:01Z</time>
      </trkpt>
      <trkpt lat="43.45825" lon="1.54671">
        <ele>189.55282593</ele>
        <time>2018-05-27T07:47:04Z</time>
      </trkpt>
      <trkpt lat="43.45824" lon="1.54658">
        <ele>190.74958801</ele>
        <time>2018-05-27T07:47:07Z</time>
      </trkpt>
      <trkpt lat="43.45824" lon="1.54647">
        <ele>191.99002075</ele>
        <time>2018-05-27T07:47:11Z</time>
      </trkpt>
      <trkpt lat="43.45824" lon="1.54637">
        <ele>193.63511658</ele>
        <time>2018-05-27T07:47:13Z</time>
      </trkpt>
      <trkpt lat="43.45824" lon="1.54627">
        <ele>194.35520935</ele>
        <time>2018-05-27T07:47:17Z</time>
      </trkpt>
      <trkpt lat="43.45822" lon="1.54614">
        <ele>195.51107788</ele>
        <time>2018-05-27T07:47:20Z</time>
      </trkpt>
      <trkpt lat="43.45821" lon="1.54603">
        <ele>196.56697083</ele>
        <time>2018-05-27T07:47:23Z</time>
      </trkpt>
      <trkpt lat="43.4582" lon="1.54593">
        <ele>196.56697083</ele>
        <time>2018-05-27T07:47:26Z</time>
      </trkpt>
      <trkpt lat="43.45819" lon="1.54581">
        <ele>197.65092468</ele>
        <time>2018-05-27T07:47:29Z</time>
      </trkpt>
      <trkpt lat="43.45818" lon="1.54568">
        <ele>197.65092468</ele>
        <time>2018-05-27T07:47:32Z</time>
      </trkpt>
      <trkpt lat="43.45818" lon="1.54558">
        <ele>198.71659851</ele>
        <time>2018-05-27T07:47:36Z</time>
      </trkpt>
      <trkpt lat="43.45817" lon="1.54545">
        <ele>199.84275818</ele>
        <time>2018-05-27T07:47:40Z</time>
      </trkpt>
      <trkpt lat="43.45816" lon="1.54533">
        <ele>199.84275818</ele>
        <time>2018-05-27T07:47:43Z</time>
      </trkpt>
      <trkpt lat="43.45816" lon="1.54522">
        <ele>200.9566803</ele>
        <time>2018-05-27T07:47:46Z</time>
      </trkpt>
      <trkpt lat="43.45815" lon="1.54511">
        <ele>200.9566803</ele>
        <time>2018-05-27T07:47:49Z</time>
      </trkpt>
      <trkpt lat="43.45812" lon="1.54501">
        <ele>202.07872009</ele>
        <time>2018-05-27T07:47:52Z</time>
      </trkpt>
      <trkpt lat="43.4581" lon="1.5449">
        <ele>203.2976532</ele>
        <time>2018-05-27T07:47:55Z</time>
      </trkpt>
      <trkpt lat="43.45808" lon="1.54479">
        <ele>203.2976532</ele>
        <time>2018-05-27T07:47:58Z</time>
      </trkpt>
      <trkpt lat="43.45807" lon="1.54469">
        <ele>204.40313721</ele>
        <time>2018-05-27T07:48:01Z</time>
      </trkpt>
      <trkpt lat="43.45805" lon="1.54458">
        <ele>204.40313721</ele>
        <time>2018-05-27T07:48:04Z</time>
      </trkpt>
      <trkpt lat="43.45804" lon="1.54448">
        <ele>205.42817688</ele>
        <time>2018-05-27T07:48:07Z</time>
      </trkpt>
      <trkpt lat="43.45804" lon="1.54437">
        <ele>205.42817688</ele>
        <time>2018-05-27T07:48:10Z</time>
      </trkpt>
      <trkpt lat="43.45802" lon="1.54422">
        <ele>207.10514832</ele>
        <time>2018-05-27T07:48:13Z</time>
      </trkpt>
      <trkpt lat="43.45801" lon="1.54414">
        <ele>207.10514832</ele>
        <time>2018-05-27T07:48:17Z</time>
      </trkpt>
      <trkpt lat="43.45797" lon="1.54403">
        <ele>207.751297</ele>
        <time>2018-05-27T07:48:20Z</time>
      </trkpt>
      <trkpt lat="43.45796" lon="1.54392">
        <ele>208.7875061</ele>
        <time>2018-05-27T07:48:23Z</time>
      </trkpt>
      <trkpt lat="43.45795" lon="1.5438">
        <ele>208.7875061</ele>
        <time>2018-05-27T07:48:27Z</time>
      </trkpt>
      <trkpt lat="43.45797" lon="1.54369">
        <ele>210.04846191</ele>
        <time>2018-05-27T07:48:30Z</time>
      </trkpt>
      <trkpt lat="43.45799" lon="1.54358">
        <ele>210.04846191</ele>
        <time>2018-05-27T07:48:33Z</time>
      </trkpt>
      <trkpt lat="43.45802" lon="1.54348">
        <ele>211.23625183</ele>
        <time>2018-05-27T07:48:36Z</time>
      </trkpt>
      <trkpt lat="43.45804" lon="1.54337">
        <ele>211.23625183</ele>
        <time>2018-05-27T07:48:39Z</time>
      </trkpt>
      <trkpt lat="43.45806" lon="1.54326">
        <ele>211.23625183</ele>
        <time>2018-05-27T07:48:42Z</time>
      </trkpt>
      <trkpt lat="43.45807" lon="1.54314">
        <ele>211.23625183</ele>
        <time>2018-05-27T07:48:45Z</time>
      </trkpt>
      <trkpt lat="43.45808" lon="1.54303">
        <ele>211.23625183</ele>
        <time>2018-05-27T07:48:48Z</time>
      </trkpt>
      <trkpt lat="43.4581" lon="1.54293">
        <ele>211.23625183</ele>
        <time>2018-05-27T07:48:51Z</time>
      </trkpt>
      <trkpt lat="43.4581" lon="1.54281">
        <ele>212.52607727</ele>
        <time>2018-05-27T07:48:55Z</time>
      </trkpt>
      <trkpt lat="43.45812" lon="1.54269">
        <ele>212.52607727</ele>
        <time>2018-05-27T07:48:58Z</time>
      </trkpt>
      <trkpt lat="43.45813" lon="1.54257">
        <ele>212.52607727</ele>
        <time>2018-05-27T07:49:01Z</time>
      </trkpt>
      <trkpt lat="43.45814" lon="1.54245">
        <ele>212.52607727</ele>
        <time>2018-05-27T07:49:03Z</time>
      </trkpt>
      <trkpt lat="43.45816" lon="1.54235">
        <ele>212.52607727</ele>
        <time>2018-05-27T07:49:05Z</time>
      </trkpt>
      <trkpt lat="43.4582" lon="1.54224">
        <ele>212.28895569</ele>
        <time>2018-05-27T07:49:07Z</time>
      </trkpt>
      <trkpt lat="43.45825" lon="1.54213">
        <ele>212.28895569</ele>
        <time>2018-05-27T07:49:09Z</time>
      </trkpt>
      <trkpt lat="43.45831" lon="1.54201">
        <ele>211.02865601</ele>
        <time>2018-05-27T07:49:11Z</time>
      </trkpt>
      <trkpt lat="43.4584" lon="1.54183">
        <ele>210.03158569</ele>
        <time>2018-05-27T07:49:13Z</time>
      </trkpt>
      <trkpt lat="43.45845" lon="1.54171">
        <ele>208.8475647</ele>
        <time>2018-05-27T07:49:15Z</time>
      </trkpt>
      <trkpt lat="43.45853" lon="1.54153">
        <ele>207.35316467</ele>
        <time>2018-05-27T07:49:17Z</time>
      </trkpt>
      <trkpt lat="43.45863" lon="1.54132">
        <ele>206.08294678</ele>
        <time>2018-05-27T07:49:19Z</time>
      </trkpt>
      <trkpt lat="43.4587" lon="1.54117">
        <ele>206.08294678</ele>
        <time>2018-05-27T07:49:20Z</time>
      </trkpt>
      <trkpt lat="43.45875" lon="1.54105">
        <ele>204.80389404</ele>
        <time>2018-05-27T07:49:21Z</time>
      </trkpt>
      <trkpt lat="43.45879" lon="1.54094">
        <ele>204.80389404</ele>
        <time>2018-05-27T07:49:22Z</time>
      </trkpt>
      <trkpt lat="43.45883" lon="1.54083">
        <ele>203.73114014</ele>
        <time>2018-05-27T07:49:23Z</time>
      </trkpt>
      <trkpt lat="43.45887" lon="1.54073">
        <ele>203.73114014</ele>
        <time>2018-05-27T07:49:24Z</time>
      </trkpt>
      <trkpt lat="43.4589" lon="1.54063">
        <ele>202.67053223</ele>
        <time>2018-05-27T07:49:25Z</time>
      </trkpt>
      <trkpt lat="43.45893" lon="1.54053">
        <ele>202.67053223</ele>
        <time>2018-05-27T07:49:26Z</time>
      </trkpt>
      <trkpt lat="43.45896" lon="1.54041">
        <ele>201.43856812</ele>
        <time>2018-05-27T07:49:27Z</time>
      </trkpt>
      <trkpt lat="43.45898" lon="1.54029">
        <ele>201.43856812</ele>
        <time>2018-05-27T07:49:28Z</time>
      </trkpt>
      <trkpt lat="43.45901" lon="1.54017">
        <ele>200.06578064</ele>
        <time>2018-05-27T07:49:29Z</time>
      </trkpt>
      <trkpt lat="43.45904" lon="1.54004">
        <ele>200.06578064</ele>
        <time>2018-05-27T07:49:30Z</time>
      </trkpt>
      <trkpt lat="43.45908" lon="1.53992">
        <ele>198.69804382</ele>
        <time>2018-05-27T07:49:31Z</time>
      </trkpt>
      <trkpt lat="43.45911" lon="1.5398">
        <ele>198.69804382</ele>
        <time>2018-05-27T07:49:32Z</time>
      </trkpt>
      <trkpt lat="43.45914" lon="1.53968">
        <ele>197.49472046</ele>
        <time>2018-05-27T07:49:33Z</time>
      </trkpt>
      <trkpt lat="43.45917" lon="1.53956">
        <ele>197.49472046</ele>
        <time>2018-05-27T07:49:34Z</time>
      </trkpt>
      <trkpt lat="43.45919" lon="1.53945">
        <ele>197.49472046</ele>
        <time>2018-05-27T07:49:35Z</time>
      </trkpt>
      <trkpt lat="43.45924" lon="1.53934">
        <ele>196.24424744</ele>
        <time>2018-05-27T07:49:36Z</time>
      </trkpt>
      <trkpt lat="43.45928" lon="1.53923">
        <ele>196.24424744</ele>
        <time>2018-05-27T07:49:37Z</time>
      </trkpt>
      <trkpt lat="43.45932" lon="1.53913">
        <ele>194.88357544</ele>
        <time>2018-05-27T07:49:38Z</time>
      </trkpt>
      <trkpt lat="43.45936" lon="1.53902">
        <ele>194.88357544</ele>
        <time>2018-05-27T07:49:39Z</time>
      </trkpt>
      <trkpt lat="43.45939" lon="1.53891">
        <ele>193.65380859</ele>
        <time>2018-05-27T07:49:40Z</time>
      </trkpt>
      <trkpt lat="43.45945" lon="1.53878">
        <ele>193.65380859</ele>
        <time>2018-05-27T07:49:42Z</time>
      </trkpt>
      <trkpt lat="43.45952" lon="1.53861">
        <ele>192.60620117</ele>
        <time>2018-05-27T07:49:44Z</time>
      </trkpt>
      <trkpt lat="43.45956" lon="1.53847">
        <ele>192.60620117</ele>
        <time>2018-05-27T07:49:46Z</time>
      </trkpt>
      <trkpt lat="43.45961" lon="1.53834">
        <ele>192.60620117</ele>
        <time>2018-05-27T07:49:48Z</time>
      </trkpt>
      <trkpt lat="43.45966" lon="1.5382">
        <ele>191.69287109</ele>
        <time>2018-05-27T07:49:50Z</time>
      </trkpt>
      <trkpt lat="43.4597" lon="1.53808">
        <ele>191.69287109</ele>
        <time>2018-05-27T07:49:52Z</time>
      </trkpt>
      <trkpt lat="43.45974" lon="1.53795">
        <ele>190.46775818</ele>
        <time>2018-05-27T07:49:54Z</time>
      </trkpt>
      <trkpt lat="43.45979" lon="1.53779">
        <ele>190.46775818</ele>
        <time>2018-05-27T07:49:56Z</time>
      </trkpt>
      <trkpt lat="43.4598" lon="1.53763">
        <ele>189.25387573</ele>
        <time>2018-05-27T07:49:58Z</time>
      </trkpt>
      <trkpt lat="43.45981" lon="1.53747">
        <ele>189.25387573</ele>
        <time>2018-05-27T07:50:00Z</time>
      </trkpt>
      <trkpt lat="43.45984" lon="1.53732">
        <ele>189.25387573</ele>
        <time>2018-05-27T07:50:02Z</time>
      </trkpt>
      <trkpt lat="43.45986" lon="1.53716">
        <ele>188.31329346</ele>
        <time>2018-05-27T07:50:04Z</time>
      </trkpt>
      <trkpt lat="43.45987" lon="1.537">
        <ele>187.08924866</ele>
        <time>2018-05-27T07:50:06Z</time>
      </trkpt>
      <trkpt lat="43.45992" lon="1.53684">
        <ele>187.08924866</ele>
        <time>2018-05-27T07:50:08Z</time>
      </trkpt>
      <trkpt lat="43.45995" lon="1.53667">
        <ele>185.7898407</ele>
        <time>2018-05-27T07:50:10Z</time>
      </trkpt>
      <trkpt lat="43.46" lon="1.53653">
        <ele>184.42749023</ele>
        <time>2018-05-27T07:50:12Z</time>
      </trkpt>
      <trkpt lat="43.46005" lon="1.53641">
        <ele>183.94708252</ele>
        <time>2018-05-27T07:50:13Z</time>
      </trkpt>
      <trkpt lat="43.46009" lon="1.53627">
        <ele>183.0721283</ele>
        <time>2018-05-27T07:50:15Z</time>
      </trkpt>
      <trkpt lat="43.46014" lon="1.53609">
        <ele>183.0721283</ele>
        <time>2018-05-27T07:50:17Z</time>
      </trkpt>
      <trkpt lat="43.46018" lon="1.53589">
        <ele>181.85971069</ele>
        <time>2018-05-27T07:50:19Z</time>
      </trkpt>
      <trkpt lat="43.46022" lon="1.53573">
        <ele>181.85971069</ele>
        <time>2018-05-27T07:50:20Z</time>
      </trkpt>
      <trkpt lat="43.46025" lon="1.5356">
        <ele>181.85971069</ele>
        <time>2018-05-27T07:50:22Z</time>
      </trkpt>
      <trkpt lat="43.4603" lon="1.53547">
        <ele>181.85971069</ele>
        <time>2018-05-27T07:50:25Z</time>
      </trkpt>
      <trkpt lat="43.46035" lon="1.53537">
        <ele>180.90527344</ele>
        <time>2018-05-27T07:50:27Z</time>
      </trkpt>
      <trkpt lat="43.46038" lon="1.53524">
        <ele>179.78146362</ele>
        <time>2018-05-27T07:50:30Z</time>
      </trkpt>
      <trkpt lat="43.46041" lon="1.53507">
        <ele>179.78146362</ele>
        <time>2018-05-27T07:50:31Z</time>
      </trkpt>
      <trkpt lat="43.46045" lon="1.53495">
        <ele>179.78146362</ele>
        <time>2018-05-27T07:50:33Z</time>
      </trkpt>
      <trkpt lat="43.4605" lon="1.53483">
        <ele>178.62770081</ele>
        <time>2018-05-27T07:50:35Z</time>
      </trkpt>
      <trkpt lat="43.46055" lon="1.53471">
        <ele>178.62770081</ele>
        <time>2018-05-27T07:50:37Z</time>
      </trkpt>
      <trkpt lat="43.46059" lon="1.5346">
        <ele>178.62770081</ele>
        <time>2018-05-27T07:50:40Z</time>
      </trkpt>
      <trkpt lat="43.46066" lon="1.53446">
        <ele>177.25285339</ele>
        <time>2018-05-27T07:50:43Z</time>
      </trkpt>
      <trkpt lat="43.46072" lon="1.53426">
        <ele>175.96179199</ele>
        <time>2018-05-27T07:50:45Z</time>
      </trkpt>
      <trkpt lat="43.46078" lon="1.53412">
        <ele>175.96179199</ele>
        <time>2018-05-27T07:50:47Z</time>
      </trkpt>
      <trkpt lat="43.46085" lon="1.53398">
        <ele>174.63145447</ele>
        <time>2018-05-27T07:50:49Z</time>
      </trkpt>
      <trkpt lat="43.46096" lon="1.53386">
        <ele>173.58178711</ele>
        <time>2018-05-27T07:50:53Z</time>
      </trkpt>
      <trkpt lat="43.46104" lon="1.53372">
        <ele>173.58178711</ele>
        <time>2018-05-27T07:50:55Z</time>
      </trkpt>
      <trkpt lat="43.46107" lon="1.53361">
        <ele>172.3263092</ele>
        <time>2018-05-27T07:50:57Z</time>
      </trkpt>
      <trkpt lat="43.46109" lon="1.5335">
        <ele>172.3263092</ele>
        <time>2018-05-27T07:50:59Z</time>
      </trkpt>
      <trkpt lat="43.46114" lon="1.53336">
        <ele>171.04579163</ele>
        <time>2018-05-27T07:51:01Z</time>
      </trkpt>
      <trkpt lat="43.46117" lon="1.53322">
        <ele>171.04579163</ele>
        <time>2018-05-27T07:51:03Z</time>
      </trkpt>
      <trkpt lat="43.46122" lon="1.53311">
        <ele>171.04579163</ele>
        <time>2018-05-27T07:51:07Z</time>
      </trkpt>
      <trkpt lat="43.46127" lon="1.53298">
        <ele>170.09274292</ele>
        <time>2018-05-27T07:51:10Z</time>
      </trkpt>
      <trkpt lat="43.46133" lon="1.53282">
        <ele>169.32667542</ele>
        <time>2018-05-27T07:51:13Z</time>
      </trkpt>
      <trkpt lat="43.46134" lon="1.53272">
        <ele>169.32667542</ele>
        <time>2018-05-27T07:51:15Z</time>
      </trkpt>
      <trkpt lat="43.46137" lon="1.5326">
        <ele>169.32667542</ele>
        <time>2018-05-27T07:51:17Z</time>
      </trkpt>
      <trkpt lat="43.46141" lon="1.5325">
        <ele>169.32667542</ele>
        <time>2018-05-27T07:51:26Z</time>
      </trkpt>
      <trkpt lat="43.46146" lon="1.53239">
        <ele>168.60925293</ele>
        <time>2018-05-27T07:51:29Z</time>
      </trkpt>
      <trkpt lat="43.4615" lon="1.53226">
        <ele>168.60925293</ele>
        <time>2018-05-27T07:51:33Z</time>
      </trkpt>
      <trkpt lat="43.46154" lon="1.53215">
        <ele>167.53286743</ele>
        <time>2018-05-27T07:51:37Z</time>
      </trkpt>
      <trkpt lat="43.46159" lon="1.53203">
        <ele>167.53286743</ele>
        <time>2018-05-27T07:51:40Z</time>
      </trkpt>
      <trkpt lat="43.46164" lon="1.53189">
        <ele>166.52194214</ele>
        <time>2018-05-27T07:51:43Z</time>
      </trkpt>
      <trkpt lat="43.46167" lon="1.53176">
        <ele>166.52194214</ele>
        <time>2018-05-27T07:51:45Z</time>
      </trkpt>
      <trkpt lat="43.46166" lon="1.53163">
        <ele>166.52194214</ele>
        <time>2018-05-27T07:51:48Z</time>
      </trkpt>
      <trkpt lat="43.46163" lon="1.53149">
        <ele>166.52194214</ele>
        <time>2018-05-27T07:51:51Z</time>
      </trkpt>
      <trkpt lat="43.46161" lon="1.53135">
        <ele>166.52194214</ele>
        <time>2018-05-27T07:51:54Z</time>
      </trkpt>
      <trkpt lat="43.46166" lon="1.53125">
        <ele>164.90460205</ele>
        <time>2018-05-27T07:52:13Z</time>
      </trkpt>
      <trkpt lat="43.4618" lon="1.53123">
        <ele>164.90460205</ele>
        <time>2018-05-27T07:52:17Z</time>
      </trkpt>
      <trkpt lat="43.46193" lon="1.5312">
        <ele>164.90460205</ele>
        <time>2018-05-27T07:52:20Z</time>
      </trkpt>
      <trkpt lat="43.46206" lon="1.53116">
        <ele>164.47317505</ele>
        <time>2018-05-27T07:52:23Z</time>
      </trkpt>
      <trkpt lat="43.4622" lon="1.53108">
        <ele>164.47317505</ele>
        <time>2018-05-27T07:52:26Z</time>
      </trkpt>
      <trkpt lat="43.46233" lon="1.53101">
        <ele>164.47317505</ele>
        <time>2018-05-27T07:52:28Z</time>
      </trkpt>
      <trkpt lat="43.46245" lon="1.53096">
        <ele>164.47317505</ele>
        <time>2018-05-27T07:52:30Z</time>
      </trkpt>
      <trkpt lat="43.46257" lon="1.53091">
        <ele>164.47317505</ele>
        <time>2018-05-27T07:52:33Z</time>
      </trkpt>
      <trkpt lat="43.46271" lon="1.53084">
        <ele>164.47317505</ele>
        <time>2018-05-27T07:52:36Z</time>
      </trkpt>
      <trkpt lat="43.46284" lon="1.53079">
        <ele>164.47317505</ele>
        <time>2018-05-27T07:52:38Z</time>
      </trkpt>
      <trkpt lat="43.46294" lon="1.53074">
        <ele>164.47317505</ele>
        <time>2018-05-27T07:52:40Z</time>
      </trkpt>
      <trkpt lat="43.46306" lon="1.53068">
        <ele>164.47317505</ele>
        <time>2018-05-27T07:52:43Z</time>
      </trkpt>
      <trkpt lat="43.4632" lon="1.53061">
        <ele>164.47317505</ele>
        <time>2018-05-27T07:52:46Z</time>
      </trkpt>
      <trkpt lat="43.46331" lon="1.53055">
        <ele>164.47317505</ele>
        <time>2018-05-27T07:52:50Z</time>
      </trkpt>
      <trkpt lat="43.46344" lon="1.53048">
        <ele>164.47317505</ele>
        <time>2018-05-27T07:52:54Z</time>
      </trkpt>
      <trkpt lat="43.46353" lon="1.5304">
        <ele>164.47317505</ele>
        <time>2018-05-27T07:53:01Z</time>
      </trkpt>
      <trkpt lat="43.46363" lon="1.53037">
        <ele>163.51470947</ele>
        <time>2018-05-27T07:53:13Z</time>
      </trkpt>
      <trkpt lat="43.46355" lon="1.53047">
        <ele>163.51470947</ele>
        <time>2018-05-27T07:53:20Z</time>
      </trkpt>
      <trkpt lat="43.46351" lon="1.53041">
        <ele>163.51470947</ele>
        <time>2018-05-27T07:53:56Z</time>
      </trkpt>
      <trkpt lat="43.46356" lon="1.53031">
        <ele>163.57194519</ele>
        <time>2018-05-27T07:54:01Z</time>
      </trkpt>
      <trkpt lat="43.46349" lon="1.53021">
        <ele>163.57194519</ele>
        <time>2018-05-27T07:54:06Z</time>
      </trkpt>
      <trkpt lat="43.46341" lon="1.53009">
        <ele>163.57194519</ele>
        <time>2018-05-27T07:54:10Z</time>
      </trkpt>
      <trkpt lat="43.46342" lon="1.52994">
        <ele>163.57194519</ele>
        <time>2018-05-27T07:54:12Z</time>
      </trkpt>
      <trkpt lat="43.46346" lon="1.52986">
        <ele>162.72084045</ele>
        <time>2018-05-27T07:54:13Z</time>
      </trkpt>
      <trkpt lat="43.46348" lon="1.52977">
        <ele>162.72084045</ele>
        <time>2018-05-27T07:54:16Z</time>
      </trkpt>
      <trkpt lat="43.46351" lon="1.52965">
        <ele>162.72084045</ele>
        <time>2018-05-27T07:54:18Z</time>
      </trkpt>
      <trkpt lat="43.46349" lon="1.52953">
        <ele>162.72084045</ele>
        <time>2018-05-27T07:54:20Z</time>
      </trkpt>
      <trkpt lat="43.46346" lon="1.52938">
        <ele>162.72084045</ele>
        <time>2018-05-27T07:54:22Z</time>
      </trkpt>
      <trkpt lat="43.46341" lon="1.52923">
        <ele>162.72084045</ele>
        <time>2018-05-27T07:54:24Z</time>
      </trkpt>
      <trkpt lat="43.46332" lon="1.52911">
        <ele>162.72084045</ele>
        <time>2018-05-27T07:54:26Z</time>
      </trkpt>
      <trkpt lat="43.46326" lon="1.52898">
        <ele>162.72084045</ele>
        <time>2018-05-27T07:54:28Z</time>
      </trkpt>
      <trkpt lat="43.46325" lon="1.52885">
        <ele>162.72084045</ele>
        <time>2018-05-27T07:54:30Z</time>
      </trkpt>
      <trkpt lat="43.46323" lon="1.52872">
        <ele>162.72084045</ele>
        <time>2018-05-27T07:54:32Z</time>
      </trkpt>
      <trkpt lat="43.46319" lon="1.52856">
        <ele>162.66229248</ele>
        <time>2018-05-27T07:54:34Z</time>
      </trkpt>
      <trkpt lat="43.46316" lon="1.52842">
        <ele>162.66229248</ele>
        <time>2018-05-27T07:54:36Z</time>
      </trkpt>
      <trkpt lat="43.46312" lon="1.52829">
        <ele>164.42912292</ele>
        <time>2018-05-27T07:54:38Z</time>
      </trkpt>
      <trkpt lat="43.46308" lon="1.52817">
        <ele>164.42912292</ele>
        <time>2018-05-27T07:54:40Z</time>
      </trkpt>
      <trkpt lat="43.46304" lon="1.52803">
        <ele>165.67881775</ele>
        <time>2018-05-27T07:54:42Z</time>
      </trkpt>
      <trkpt lat="43.46299" lon="1.52789">
        <ele>165.67881775</ele>
        <time>2018-05-27T07:54:44Z</time>
      </trkpt>
      <trkpt lat="43.46295" lon="1.52777">
        <ele>165.67881775</ele>
        <time>2018-05-27T07:54:46Z</time>
      </trkpt>
      <trkpt lat="43.46294" lon="1.52767">
        <ele>165.67881775</ele>
        <time>2018-05-27T07:54:48Z</time>
      </trkpt>
      <trkpt lat="43.46291" lon="1.52756">
        <ele>166.59590149</ele>
        <time>2018-05-27T07:54:50Z</time>
      </trkpt>
      <trkpt lat="43.46286" lon="1.52744">
        <ele>166.59590149</ele>
        <time>2018-05-27T07:54:52Z</time>
      </trkpt>
      <trkpt lat="43.4628" lon="1.52733">
        <ele>168.11050415</ele>
        <time>2018-05-27T07:54:54Z</time>
      </trkpt>
      <trkpt lat="43.46275" lon="1.52723">
        <ele>169.51330566</ele>
        <time>2018-05-27T07:54:57Z</time>
      </trkpt>
      <trkpt lat="43.46265" lon="1.52713">
        <ele>172.22662354</ele>
        <time>2018-05-27T07:55:02Z</time>
      </trkpt>
      <trkpt lat="43.46252" lon="1.5271">
        <ele>173.38696289</ele>
        <time>2018-05-27T07:55:07Z</time>
      </trkpt>
      <trkpt lat="43.4624" lon="1.52705">
        <ele>175.69779968</ele>
        <time>2018-05-27T07:55:11Z</time>
      </trkpt>
      <trkpt lat="43.46233" lon="1.52696">
        <ele>176.42602539</ele>
        <time>2018-05-27T07:55:13Z</time>
      </trkpt>
      <trkpt lat="43.46225" lon="1.52692">
        <ele>177.15533447</ele>
        <time>2018-05-27T07:55:16Z</time>
      </trkpt>
      <trkpt lat="43.46214" lon="1.5269">
        <ele>178.21647644</ele>
        <time>2018-05-27T07:55:19Z</time>
      </trkpt>
      <trkpt lat="43.46203" lon="1.52687">
        <ele>179.38720703</ele>
        <time>2018-05-27T07:55:23Z</time>
      </trkpt>
      <trkpt lat="43.46192" lon="1.52683">
        <ele>181.61752319</ele>
        <time>2018-05-27T07:55:28Z</time>
      </trkpt>
      <trkpt lat="43.4618" lon="1.52676">
        <ele>182.77886963</ele>
        <time>2018-05-27T07:55:32Z</time>
      </trkpt>
      <trkpt lat="43.46169" lon="1.52672">
        <ele>183.91934204</ele>
        <time>2018-05-27T07:55:36Z</time>
      </trkpt>
      <trkpt lat="43.46158" lon="1.52669">
        <ele>185.0010376</ele>
        <time>2018-05-27T07:55:40Z</time>
      </trkpt>
      <trkpt lat="43.46146" lon="1.52675">
        <ele>187.35520935</ele>
        <time>2018-05-27T07:56:28Z</time>
      </trkpt>
      <trkpt lat="43.46142" lon="1.52675">
        <ele>187.35520935</ele>
        <time>2018-05-27T07:56:34Z</time>
      </trkpt>
      <trkpt lat="43.46126" lon="1.52669">
        <ele>187.3240509</ele>
        <time>2018-05-27T07:56:39Z</time>
      </trkpt>
      <trkpt lat="43.46114" lon="1.52663">
        <ele>189.21060181</ele>
        <time>2018-05-27T07:56:44Z</time>
      </trkpt>
      <trkpt lat="43.46103" lon="1.52657">
        <ele>191.47171021</ele>
        <time>2018-05-27T07:56:50Z</time>
      </trkpt>
      <trkpt lat="43.46093" lon="1.52653">
        <ele>193.82618713</ele>
        <time>2018-05-27T07:56:55Z</time>
      </trkpt>
      <trkpt lat="43.46082" lon="1.52648">
        <ele>196.58653259</ele>
        <time>2018-05-27T07:57:00Z</time>
      </trkpt>
      <trkpt lat="43.46071" lon="1.52644">
        <ele>199.45283508</ele>
        <time>2018-05-27T07:57:06Z</time>
      </trkpt>
      <trkpt lat="43.46058" lon="1.52642">
        <ele>200.76197815</ele>
        <time>2018-05-27T07:57:10Z</time>
      </trkpt>
      <trkpt lat="43.46049" lon="1.52638">
        <ele>202.85331726</ele>
        <time>2018-05-27T07:57:13Z</time>
      </trkpt>
      <trkpt lat="43.4604" lon="1.52633">
        <ele>205.98498535</ele>
        <time>2018-05-27T07:57:19Z</time>
      </trkpt>
      <trkpt lat="43.46028" lon="1.52626">
        <ele>207.31443787</ele>
        <time>2018-05-27T07:57:25Z</time>
      </trkpt>
      <trkpt lat="43.46016" lon="1.52621">
        <ele>208.44778442</ele>
        <time>2018-05-27T07:57:32Z</time>
      </trkpt>
      <trkpt lat="43.46005" lon="1.52616">
        <ele>210.4050293</ele>
        <time>2018-05-27T07:57:39Z</time>
      </trkpt>
      <trkpt lat="43.45999" lon="1.52616">
        <ele>211.77246094</ele>
        <time>2018-05-27T07:59:28Z</time>
      </trkpt>
      <trkpt lat="43.45996" lon="1.52614">
        <ele>211.77246094</ele>
        <time>2018-05-27T07:59:36Z</time>
      </trkpt>
      <trkpt lat="43.45979" lon="1.52607">
        <ele>211.77246094</ele>
        <time>2018-05-27T07:59:41Z</time>
      </trkpt>
      <trkpt lat="43.45968" lon="1.52598">
        <ele>211.77246094</ele>
        <time>2018-05-27T07:59:45Z</time>
      </trkpt>
      <trkpt lat="43.45961" lon="1.52584">
        <ele>211.77246094</ele>
        <time>2018-05-27T07:59:48Z</time>
      </trkpt>
      <trkpt lat="43.45953" lon="1.52576">
        <ele>211.77246094</ele>
        <time>2018-05-27T07:59:54Z</time>
      </trkpt>
      <trkpt lat="43.45944" lon="1.52572">
        <ele>211.77246094</ele>
        <time>2018-05-27T08:00:00Z</time>
      </trkpt>
      <trkpt lat="43.45932" lon="1.52559">
        <ele>211.77246094</ele>
        <time>2018-05-27T08:00:05Z</time>
      </trkpt>
      <trkpt lat="43.45922" lon="1.52549">
        <ele>211.3757019</ele>
        <time>2018-05-27T08:00:09Z</time>
      </trkpt>
      <trkpt lat="43.45916" lon="1.52536">
        <ele>213.19522095</ele>
        <time>2018-05-27T08:00:12Z</time>
      </trkpt>
      <trkpt lat="43.45912" lon="1.5253">
        <ele>213.60858154</ele>
        <time>2018-05-27T08:00:13Z</time>
      </trkpt>
      <trkpt lat="43.45905" lon="1.52523">
        <ele>214.32327271</ele>
        <time>2018-05-27T08:00:18Z</time>
      </trkpt>
      <trkpt lat="43.45895" lon="1.5251">
        <ele>215.74942017</ele>
        <time>2018-05-27T08:00:22Z</time>
      </trkpt>
      <trkpt lat="43.45887" lon="1.52498">
        <ele>218.09761047</ele>
        <time>2018-05-27T08:00:27Z</time>
      </trkpt>
      <trkpt lat="43.45877" lon="1.52487">
        <ele>220.37940979</ele>
        <time>2018-05-27T08:00:32Z</time>
      </trkpt>
      <trkpt lat="43.45868" lon="1.52475">
        <ele>221.46125793</ele>
        <time>2018-05-27T08:00:37Z</time>
      </trkpt>
      <trkpt lat="43.45859" lon="1.52464">
        <ele>222.54110718</ele>
        <time>2018-05-27T08:00:42Z</time>
      </trkpt>
      <trkpt lat="43.4585" lon="1.52453">
        <ele>223.60604858</ele>
        <time>2018-05-27T08:00:48Z</time>
      </trkpt>
      <trkpt lat="43.45839" lon="1.5244">
        <ele>225.86152649</ele>
        <time>2018-05-27T08:00:53Z</time>
      </trkpt>
      <trkpt lat="43.4583" lon="1.5243">
        <ele>227.01455688</ele>
        <time>2018-05-27T08:00:59Z</time>
      </trkpt>
      <trkpt lat="43.45821" lon="1.52419">
        <ele>229.3782959</ele>
        <time>2018-05-27T08:01:05Z</time>
      </trkpt>
      <trkpt lat="43.45813" lon="1.52408">
        <ele>231.47146606</ele>
        <time>2018-05-27T08:01:10Z</time>
      </trkpt>
      <trkpt lat="43.45807" lon="1.524">
        <ele>232.42687988</ele>
        <time>2018-05-27T08:01:13Z</time>
      </trkpt>
      <trkpt lat="43.458" lon="1.52392">
        <ele>234.41722107</ele>
        <time>2018-05-27T08:01:20Z</time>
      </trkpt>
      <trkpt lat="43.45791" lon="1.52382">
        <ele>235.55757141</ele>
        <time>2018-05-27T08:01:25Z</time>
      </trkpt>
      <trkpt lat="43.45782" lon="1.52371">
        <ele>238.04496765</ele>
        <time>2018-05-27T08:01:31Z</time>
      </trkpt>
      <trkpt lat="43.45773" lon="1.52359">
        <ele>239.20103455</ele>
        <time>2018-05-27T08:01:37Z</time>
      </trkpt>
      <trkpt lat="43.45765" lon="1.52348">
        <ele>241.86964417</ele>
        <time>2018-05-27T08:01:43Z</time>
      </trkpt>
      <trkpt lat="43.45758" lon="1.52335">
        <ele>244.07701111</ele>
        <time>2018-05-27T08:01:48Z</time>
      </trkpt>
      <trkpt lat="43.45754" lon="1.52323">
        <ele>245.18586731</ele>
        <time>2018-05-27T08:01:52Z</time>
      </trkpt>
      <trkpt lat="43.45752" lon="1.52313">
        <ele>245.18586731</ele>
        <time>2018-05-27T08:01:55Z</time>
      </trkpt>
      <trkpt lat="43.4575" lon="1.52302">
        <ele>246.32058716</ele>
        <time>2018-05-27T08:01:59Z</time>
      </trkpt>
      <trkpt lat="43.45746" lon="1.52289">
        <ele>248.81756592</ele>
        <time>2018-05-27T08:02:03Z</time>
      </trkpt>
      <trkpt lat="43.45739" lon="1.52278">
        <ele>249.94903564</ele>
        <time>2018-05-27T08:02:07Z</time>
      </trkpt>
      <trkpt lat="43.45734" lon="1.52267">
        <ele>249.94903564</ele>
        <time>2018-05-27T08:02:11Z</time>
      </trkpt>
      <trkpt lat="43.45732" lon="1.52258">
        <ele>251.40351868</ele>
        <time>2018-05-27T08:02:13Z</time>
      </trkpt>
      <trkpt lat="43.45724" lon="1.52249">
        <ele>251.40351868</ele>
        <time>2018-05-27T08:02:18Z</time>
      </trkpt>
      <trkpt lat="43.45714" lon="1.52242">
        <ele>251.40351868</ele>
        <time>2018-05-27T08:02:22Z</time>
      </trkpt>
      <trkpt lat="43.45701" lon="1.52234">
        <ele>251.40351868</ele>
        <time>2018-05-27T08:02:25Z</time>
      </trkpt>
      <trkpt lat="43.45689" lon="1.52227">
        <ele>251.35816956</ele>
        <time>2018-05-27T08:02:28Z</time>
      </trkpt>
      <trkpt lat="43.45678" lon="1.52221">
        <ele>251.35816956</ele>
        <time>2018-05-27T08:02:31Z</time>
      </trkpt>
      <trkpt lat="43.45665" lon="1.52217">
        <ele>249.62919617</ele>
        <time>2018-05-27T08:02:34Z</time>
      </trkpt>
      <trkpt lat="43.4565" lon="1.52209">
        <ele>248.47029114</ele>
        <time>2018-05-27T08:02:37Z</time>
      </trkpt>
      <trkpt lat="43.45635" lon="1.522">
        <ele>247.18273926</ele>
        <time>2018-05-27T08:02:40Z</time>
      </trkpt>
      <trkpt lat="43.45621" lon="1.52192">
        <ele>247.18273926</ele>
        <time>2018-05-27T08:02:42Z</time>
      </trkpt>
      <trkpt lat="43.45614" lon="1.52183">
        <ele>247.18273926</ele>
        <time>2018-05-27T08:02:44Z</time>
      </trkpt>
      <trkpt lat="43.45615" lon="1.52171">
        <ele>247.18273926</ele>
        <time>2018-05-27T08:02:46Z</time>
      </trkpt>
      <trkpt lat="43.45618" lon="1.52159">
        <ele>247.18273926</ele>
        <time>2018-05-27T08:02:49Z</time>
      </trkpt>
      <trkpt lat="43.45608" lon="1.52149">
        <ele>246.40219116</ele>
        <time>2018-05-27T08:02:52Z</time>
      </trkpt>
      <trkpt lat="43.45593" lon="1.52144">
        <ele>244.5242157</ele>
        <time>2018-05-27T08:02:54Z</time>
      </trkpt>
      <trkpt lat="43.45578" lon="1.52141">
        <ele>243.30166626</ele>
        <time>2018-05-27T08:02:56Z</time>
      </trkpt>
      <trkpt lat="43.45563" lon="1.52135">
        <ele>241.90481567</ele>
        <time>2018-05-27T08:02:58Z</time>
      </trkpt>
      <trkpt lat="43.45548" lon="1.52129">
        <ele>240.49551392</ele>
        <time>2018-05-27T08:03:00Z</time>
      </trkpt>
      <trkpt lat="43.45532" lon="1.52121">
        <ele>239.25801086</ele>
        <time>2018-05-27T08:03:02Z</time>
      </trkpt>
      <trkpt lat="43.45514" lon="1.52113">
        <ele>237.89590454</ele>
        <time>2018-05-27T08:03:04Z</time>
      </trkpt>
      <trkpt lat="43.45499" lon="1.52105">
        <ele>236.501297</ele>
        <time>2018-05-27T08:03:06Z</time>
      </trkpt>
      <trkpt lat="43.45482" lon="1.52098">
        <ele>235.34013367</ele>
        <time>2018-05-27T08:03:08Z</time>
      </trkpt>
      <trkpt lat="43.45463" lon="1.52091">
        <ele>234.27749634</ele>
        <time>2018-05-27T08:03:10Z</time>
      </trkpt>
      <trkpt lat="43.45444" lon="1.52085">
        <ele>234.27749634</ele>
        <time>2018-05-27T08:03:12Z</time>
      </trkpt>
      <trkpt lat="43.4543" lon="1.5208">
        <ele>233.38122559</ele>
        <time>2018-05-27T08:03:13Z</time>
      </trkpt>
      <trkpt lat="43.45416" lon="1.52075">
        <ele>233.38122559</ele>
        <time>2018-05-27T08:03:15Z</time>
      </trkpt>
      <trkpt lat="43.45398" lon="1.52068">
        <ele>232.41595459</ele>
        <time>2018-05-27T08:03:17Z</time>
      </trkpt>
      <trkpt lat="43.4538" lon="1.52062">
        <ele>232.41595459</ele>
        <time>2018-05-27T08:03:19Z</time>
      </trkpt>
      <trkpt lat="43.45364" lon="1.52056">
        <ele>231.11808777</ele>
        <time>2018-05-27T08:03:21Z</time>
      </trkpt>
      <trkpt lat="43.45348" lon="1.52049">
        <ele>230.06333923</ele>
        <time>2018-05-27T08:03:23Z</time>
      </trkpt>
      <trkpt lat="43.45331" lon="1.52043">
        <ele>230.06333923</ele>
        <time>2018-05-27T08:03:25Z</time>
      </trkpt>
      <trkpt lat="43.45314" lon="1.52034">
        <ele>228.84979248</ele>
        <time>2018-05-27T08:03:27Z</time>
      </trkpt>
      <trkpt lat="43.453" lon="1.52023">
        <ele>228.84979248</ele>
        <time>2018-05-27T08:03:29Z</time>
      </trkpt>
      <trkpt lat="43.45285" lon="1.52013">
        <ele>228.84979248</ele>
        <time>2018-05-27T08:03:31Z</time>
      </trkpt>
      <trkpt lat="43.45272" lon="1.52004">
        <ele>228.84979248</ele>
        <time>2018-05-27T08:03:33Z</time>
      </trkpt>
      <trkpt lat="43.4526" lon="1.51994">
        <ele>227.85652161</ele>
        <time>2018-05-27T08:03:35Z</time>
      </trkpt>
      <trkpt lat="43.45247" lon="1.51984">
        <ele>227.85652161</ele>
        <time>2018-05-27T08:03:37Z</time>
      </trkpt>
      <trkpt lat="43.45234" lon="1.51973">
        <ele>227.85652161</ele>
        <time>2018-05-27T08:03:39Z</time>
      </trkpt>
      <trkpt lat="43.45224" lon="1.51964">
        <ele>227.85652161</ele>
        <time>2018-05-27T08:03:41Z</time>
      </trkpt>
      <trkpt lat="43.45212" lon="1.51954">
        <ele>227.85652161</ele>
        <time>2018-05-27T08:03:43Z</time>
      </trkpt>
      <trkpt lat="43.452" lon="1.51944">
        <ele>227.85652161</ele>
        <time>2018-05-27T08:03:45Z</time>
      </trkpt>
      <trkpt lat="43.45191" lon="1.51932">
        <ele>227.85652161</ele>
        <time>2018-05-27T08:03:48Z</time>
      </trkpt>
      <trkpt lat="43.45178" lon="1.51919">
        <ele>227.85652161</ele>
        <time>2018-05-27T08:03:50Z</time>
      </trkpt>
      <trkpt lat="43.45167" lon="1.51907">
        <ele>227.85652161</ele>
        <time>2018-05-27T08:03:52Z</time>
      </trkpt>
      <trkpt lat="43.4516" lon="1.51896">
        <ele>227.85652161</ele>
        <time>2018-05-27T08:03:54Z</time>
      </trkpt>
      <trkpt lat="43.4515" lon="1.51885">
        <ele>227.85652161</ele>
        <time>2018-05-27T08:03:57Z</time>
      </trkpt>
      <trkpt lat="43.45136" lon="1.51877">
        <ele>227.85652161</ele>
        <time>2018-05-27T08:03:59Z</time>
      </trkpt>
      <trkpt lat="43.45125" lon="1.51871">
        <ele>227.85652161</ele>
        <time>2018-05-27T08:04:02Z</time>
      </trkpt>
      <trkpt lat="43.45112" lon="1.51865">
        <ele>227.85652161</ele>
        <time>2018-05-27T08:04:05Z</time>
      </trkpt>
      <trkpt lat="43.45099" lon="1.51857">
        <ele>227.259552</ele>
        <time>2018-05-27T08:04:08Z</time>
      </trkpt>
      <trkpt lat="43.45086" lon="1.51852">
        <ele>227.259552</ele>
        <time>2018-05-27T08:04:11Z</time>
      </trkpt>
      <trkpt lat="43.45074" lon="1.51848">
        <ele>229.06747437</ele>
        <time>2018-05-27T08:04:13Z</time>
      </trkpt>
      <trkpt lat="43.45063" lon="1.51842">
        <ele>229.06747437</ele>
        <time>2018-05-27T08:04:16Z</time>
      </trkpt>
      <trkpt lat="43.4505" lon="1.51837">
        <ele>229.06747437</ele>
        <time>2018-05-27T08:04:18Z</time>
      </trkpt>
      <trkpt lat="43.45039" lon="1.51832">
        <ele>228.79171753</ele>
        <time>2018-05-27T08:04:20Z</time>
      </trkpt>
      <trkpt lat="43.45028" lon="1.51826">
        <ele>228.79171753</ele>
        <time>2018-05-27T08:04:22Z</time>
      </trkpt>
      <trkpt lat="43.45015" lon="1.51817">
        <ele>228.79171753</ele>
        <time>2018-05-27T08:04:25Z</time>
      </trkpt>
      <trkpt lat="43.45001" lon="1.51808">
        <ele>227.51431274</ele>
        <time>2018-05-27T08:04:27Z</time>
      </trkpt>
      <trkpt lat="43.44988" lon="1.51803">
        <ele>227.51431274</ele>
        <time>2018-05-27T08:04:29Z</time>
      </trkpt>
      <trkpt lat="43.44976" lon="1.51794">
        <ele>226.20666504</ele>
        <time>2018-05-27T08:04:32Z</time>
      </trkpt>
      <trkpt lat="43.4496" lon="1.51789">
        <ele>226.20666504</ele>
        <time>2018-05-27T08:04:34Z</time>
      </trkpt>
      <trkpt lat="43.44949" lon="1.51787">
        <ele>226.20666504</ele>
        <time>2018-05-27T08:04:36Z</time>
      </trkpt>
      <trkpt lat="43.44935" lon="1.51787">
        <ele>226.20666504</ele>
        <time>2018-05-27T08:04:38Z</time>
      </trkpt>
      <trkpt lat="43.44952" lon="1.51772">
        <ele>226.20666504</ele>
        <time>2018-05-27T08:04:40Z</time>
      </trkpt>
      <trkpt lat="43.44957" lon="1.51763">
        <ele>226.20666504</ele>
        <time>2018-05-27T08:04:42Z</time>
      </trkpt>
      <trkpt lat="43.44896" lon="1.5178">
        <ele>226.24827576</ele>
        <time>2018-05-27T08:04:43Z</time>
      </trkpt>
      <trkpt lat="43.44875" lon="1.51787">
        <ele>226.24827576</ele>
        <time>2018-05-27T08:04:44Z</time>
      </trkpt>
      <trkpt lat="43.44873" lon="1.51782">
        <ele>226.24827576</ele>
        <time>2018-05-27T08:04:51Z</time>
      </trkpt>
      <trkpt lat="43.44857" lon="1.51771">
        <ele>226.24827576</ele>
        <time>2018-05-27T08:04:54Z</time>
      </trkpt>
      <trkpt lat="43.44846" lon="1.51767">
        <ele>226.24827576</ele>
        <time>2018-05-27T08:04:58Z</time>
      </trkpt>
      <trkpt lat="43.44832" lon="1.51762">
        <ele>226.24827576</ele>
        <time>2018-05-27T08:05:00Z</time>
      </trkpt>
      <trkpt lat="43.4482" lon="1.51757">
        <ele>227.10844421</ele>
        <time>2018-05-27T08:05:03Z</time>
      </trkpt>
      <trkpt lat="43.44805" lon="1.51757">
        <ele>227.10844421</ele>
        <time>2018-05-27T08:05:05Z</time>
      </trkpt>
      <trkpt lat="43.44792" lon="1.51758">
        <ele>225.10679626</ele>
        <time>2018-05-27T08:05:07Z</time>
      </trkpt>
      <trkpt lat="43.4478" lon="1.51755">
        <ele>225.10679626</ele>
        <time>2018-05-27T08:05:10Z</time>
      </trkpt>
      <trkpt lat="43.44761" lon="1.51745">
        <ele>224.51148987</ele>
        <time>2018-05-27T08:05:13Z</time>
      </trkpt>
      <trkpt lat="43.44753" lon="1.51738">
        <ele>224.51148987</ele>
        <time>2018-05-27T08:05:16Z</time>
      </trkpt>
      <trkpt lat="43.4474" lon="1.51729">
        <ele>224.51148987</ele>
        <time>2018-05-27T08:05:19Z</time>
      </trkpt>
      <trkpt lat="43.44726" lon="1.51719">
        <ele>224.51148987</ele>
        <time>2018-05-27T08:05:21Z</time>
      </trkpt>
      <trkpt lat="43.44714" lon="1.51709">
        <ele>224.51148987</ele>
        <time>2018-05-27T08:05:23Z</time>
      </trkpt>
      <trkpt lat="43.447" lon="1.51701">
        <ele>224.51148987</ele>
        <time>2018-05-27T08:05:25Z</time>
      </trkpt>
      <trkpt lat="43.44689" lon="1.51691">
        <ele>224.51148987</ele>
        <time>2018-05-27T08:05:28Z</time>
      </trkpt>
      <trkpt lat="43.44677" lon="1.5168">
        <ele>223.88781738</ele>
        <time>2018-05-27T08:05:32Z</time>
      </trkpt>
      <trkpt lat="43.44664" lon="1.51673">
        <ele>222.48429871</ele>
        <time>2018-05-27T08:05:34Z</time>
      </trkpt>
      <trkpt lat="43.44651" lon="1.51666">
        <ele>221.13381958</ele>
        <time>2018-05-27T08:05:36Z</time>
      </trkpt>
      <trkpt lat="43.4464" lon="1.51659">
        <ele>219.64697266</ele>
        <time>2018-05-27T08:05:38Z</time>
      </trkpt>
      <trkpt lat="43.44624" lon="1.51649">
        <ele>218.15625</ele>
        <time>2018-05-27T08:05:40Z</time>
      </trkpt>
      <trkpt lat="43.44604" lon="1.51641">
        <ele>218.15625</ele>
        <time>2018-05-27T08:05:41Z</time>
      </trkpt>
      <trkpt lat="43.44603" lon="1.51628">
        <ele>216.61309814</ele>
        <time>2018-05-27T08:05:42Z</time>
      </trkpt>
      <trkpt lat="43.44591" lon="1.51623">
        <ele>215.144104</ele>
        <time>2018-05-27T08:05:44Z</time>
      </trkpt>
      <trkpt lat="43.44572" lon="1.51621">
        <ele>213.98352051</ele>
        <time>2018-05-27T08:05:46Z</time>
      </trkpt>
      <trkpt lat="43.44555" lon="1.51618">
        <ele>213.98352051</ele>
        <time>2018-05-27T08:05:48Z</time>
      </trkpt>
      <trkpt lat="43.44539" lon="1.51617">
        <ele>213.98352051</ele>
        <time>2018-05-27T08:05:49Z</time>
      </trkpt>
      <trkpt lat="43.44529" lon="1.51616">
        <ele>213.98352051</ele>
        <time>2018-05-27T08:05:50Z</time>
      </trkpt>
      <trkpt lat="43.44519" lon="1.51613">
        <ele>213.98352051</ele>
        <time>2018-05-27T08:05:51Z</time>
      </trkpt>
      <trkpt lat="43.44505" lon="1.51612">
        <ele>213.98352051</ele>
        <time>2018-05-27T08:05:53Z</time>
      </trkpt>
      <trkpt lat="43.44492" lon="1.51609">
        <ele>213.98352051</ele>
        <time>2018-05-27T08:05:55Z</time>
      </trkpt>
      <trkpt lat="43.44478" lon="1.51605">
        <ele>213.98352051</ele>
        <time>2018-05-27T08:05:57Z</time>
      </trkpt>
      <trkpt lat="43.44465" lon="1.51597">
        <ele>213.98352051</ele>
        <time>2018-05-27T08:06:00Z</time>
      </trkpt>
      <trkpt lat="43.44452" lon="1.5159">
        <ele>213.98352051</ele>
        <time>2018-05-27T08:06:04Z</time>
      </trkpt>
      <trkpt lat="43.44436" lon="1.51588">
        <ele>213.98352051</ele>
        <time>2018-05-27T08:06:06Z</time>
      </trkpt>
      <trkpt lat="43.44423" lon="1.51589">
        <ele>213.98352051</ele>
        <time>2018-05-27T08:06:08Z</time>
      </trkpt>
      <trkpt lat="43.44411" lon="1.51583">
        <ele>213.98352051</ele>
        <time>2018-05-27T08:06:10Z</time>
      </trkpt>
      <trkpt lat="43.44407" lon="1.51568">
        <ele>213.98352051</ele>
        <time>2018-05-27T08:06:11Z</time>
      </trkpt>
      <trkpt lat="43.44407" lon="1.51554">
        <ele>213.61384583</ele>
        <time>2018-05-27T08:06:13Z</time>
      </trkpt>
      <trkpt lat="43.44409" lon="1.51543">
        <ele>213.61384583</ele>
        <time>2018-05-27T08:06:15Z</time>
      </trkpt>
      <trkpt lat="43.44415" lon="1.51528">
        <ele>213.61384583</ele>
        <time>2018-05-27T08:06:17Z</time>
      </trkpt>
      <trkpt lat="43.44421" lon="1.51512">
        <ele>214.13439941</ele>
        <time>2018-05-27T08:06:19Z</time>
      </trkpt>
      <trkpt lat="43.44423" lon="1.51495">
        <ele>214.13439941</ele>
        <time>2018-05-27T08:06:21Z</time>
      </trkpt>
      <trkpt lat="43.44417" lon="1.51478">
        <ele>214.13439941</ele>
        <time>2018-05-27T08:06:23Z</time>
      </trkpt>
      <trkpt lat="43.44413" lon="1.51461">
        <ele>212.98542786</ele>
        <time>2018-05-27T08:06:24Z</time>
      </trkpt>
      <trkpt lat="43.44416" lon="1.51448">
        <ele>212.98542786</ele>
        <time>2018-05-27T08:06:25Z</time>
      </trkpt>
      <trkpt lat="43.4441" lon="1.51429">
        <ele>212.98542786</ele>
        <time>2018-05-27T08:06:26Z</time>
      </trkpt>
      <trkpt lat="43.44408" lon="1.51416">
        <ele>212.98542786</ele>
        <time>2018-05-27T08:06:27Z</time>
      </trkpt>
      <trkpt lat="43.44406" lon="1.51404">
        <ele>211.88664246</ele>
        <time>2018-05-27T08:06:28Z</time>
      </trkpt>
      <trkpt lat="43.44404" lon="1.51393">
        <ele>211.88664246</ele>
        <time>2018-05-27T08:06:29Z</time>
      </trkpt>
      <trkpt lat="43.44401" lon="1.5138">
        <ele>211.88664246</ele>
        <time>2018-05-27T08:06:31Z</time>
      </trkpt>
      <trkpt lat="43.44397" lon="1.51361">
        <ele>210.83700562</ele>
        <time>2018-05-27T08:06:33Z</time>
      </trkpt>
      <trkpt lat="43.44391" lon="1.51344">
        <ele>209.80711365</ele>
        <time>2018-05-27T08:06:35Z</time>
      </trkpt>
      <trkpt lat="43.44388" lon="1.51327">
        <ele>209.80711365</ele>
        <time>2018-05-27T08:06:36Z</time>
      </trkpt>
      <trkpt lat="43.44386" lon="1.51317">
        <ele>208.66098022</ele>
        <time>2018-05-27T08:06:37Z</time>
      </trkpt>
      <trkpt lat="43.44384" lon="1.51304">
        <ele>207.55578613</ele>
        <time>2018-05-27T08:06:39Z</time>
      </trkpt>
      <trkpt lat="43.44382" lon="1.51289">
        <ele>207.55578613</ele>
        <time>2018-05-27T08:06:40Z</time>
      </trkpt>
      <trkpt lat="43.44381" lon="1.51276">
        <ele>206.42041016</ele>
        <time>2018-05-27T08:06:41Z</time>
      </trkpt>
      <trkpt lat="43.44378" lon="1.51263">
        <ele>206.42041016</ele>
        <time>2018-05-27T08:06:42Z</time>
      </trkpt>
      <trkpt lat="43.44375" lon="1.5125">
        <ele>206.42041016</ele>
        <time>2018-05-27T08:06:43Z</time>
      </trkpt>
      <trkpt lat="43.44371" lon="1.51237">
        <ele>205.21107483</ele>
        <time>2018-05-27T08:06:44Z</time>
      </trkpt>
      <trkpt lat="43.44368" lon="1.51225">
        <ele>205.21107483</ele>
        <time>2018-05-27T08:06:45Z</time>
      </trkpt>
      <trkpt lat="43.44366" lon="1.51214">
        <ele>205.21107483</ele>
        <time>2018-05-27T08:06:46Z</time>
      </trkpt>
      <trkpt lat="43.44363" lon="1.512">
        <ele>205.21107483</ele>
        <time>2018-05-27T08:06:48Z</time>
      </trkpt>
      <trkpt lat="43.44363" lon="1.51181">
        <ele>205.21107483</ele>
        <time>2018-05-27T08:06:49Z</time>
      </trkpt>
      <trkpt lat="43.44362" lon="1.5117">
        <ele>205.21107483</ele>
        <time>2018-05-27T08:06:50Z</time>
      </trkpt>
      <trkpt lat="43.44361" lon="1.51157">
        <ele>205.21107483</ele>
        <time>2018-05-27T08:06:52Z</time>
      </trkpt>
      <trkpt lat="43.44358" lon="1.51138">
        <ele>205.21107483</ele>
        <time>2018-05-27T08:06:54Z</time>
      </trkpt>
      <trkpt lat="43.44357" lon="1.5112">
        <ele>205.21107483</ele>
        <time>2018-05-27T08:06:56Z</time>
      </trkpt>
      <trkpt lat="43.44356" lon="1.51103">
        <ele>204.74224854</ele>
        <time>2018-05-27T08:06:58Z</time>
      </trkpt>
      <trkpt lat="43.44355" lon="1.51087">
        <ele>204.74224854</ele>
        <time>2018-05-27T08:07:00Z</time>
      </trkpt>
      <trkpt lat="43.44358" lon="1.51074">
        <ele>206.55773926</ele>
        <time>2018-05-27T08:07:02Z</time>
      </trkpt>
      <trkpt lat="43.44362" lon="1.51063">
        <ele>206.55773926</ele>
        <time>2018-05-27T08:07:04Z</time>
      </trkpt>
      <trkpt lat="43.44366" lon="1.51052">
        <ele>206.55773926</ele>
        <time>2018-05-27T08:07:06Z</time>
      </trkpt>
      <trkpt lat="43.44367" lon="1.51039">
        <ele>207.6660614</ele>
        <time>2018-05-27T08:07:08Z</time>
      </trkpt>
      <trkpt lat="43.44369" lon="1.51027">
        <ele>207.6660614</ele>
        <time>2018-05-27T08:07:10Z</time>
      </trkpt>
      <trkpt lat="43.44371" lon="1.51011">
        <ele>208.12554932</ele>
        <time>2018-05-27T08:07:13Z</time>
      </trkpt>
      <trkpt lat="43.44372" lon="1.51003">
        <ele>207.30589294</ele>
        <time>2018-05-27T08:07:15Z</time>
      </trkpt>
      <trkpt lat="43.44372" lon="1.50991">
        <ele>207.30589294</ele>
        <time>2018-05-27T08:07:17Z</time>
      </trkpt>
      <trkpt lat="43.44373" lon="1.50978">
        <ele>205.98703003</ele>
        <time>2018-05-27T08:07:19Z</time>
      </trkpt>
      <trkpt lat="43.44378" lon="1.50959">
        <ele>204.647995</ele>
        <time>2018-05-27T08:07:21Z</time>
      </trkpt>
      <trkpt lat="43.44386" lon="1.50942">
        <ele>203.38143921</ele>
        <time>2018-05-27T08:07:22Z</time>
      </trkpt>
      <trkpt lat="43.44392" lon="1.50929">
        <ele>203.38143921</ele>
        <time>2018-05-27T08:07:23Z</time>
      </trkpt>
      <trkpt lat="43.44395" lon="1.50918">
        <ele>202.11912537</ele>
        <time>2018-05-27T08:07:24Z</time>
      </trkpt>
      <trkpt lat="43.44402" lon="1.50902">
        <ele>202.11912537</ele>
        <time>2018-05-27T08:07:25Z</time>
      </trkpt>
      <trkpt lat="43.44405" lon="1.50887">
        <ele>202.11912537</ele>
        <time>2018-05-27T08:07:26Z</time>
      </trkpt>
      <trkpt lat="43.44409" lon="1.50875">
        <ele>202.11912537</ele>
        <time>2018-05-27T08:07:28Z</time>
      </trkpt>
      <trkpt lat="43.44414" lon="1.50861">
        <ele>200.99632263</ele>
        <time>2018-05-27T08:07:30Z</time>
      </trkpt>
      <trkpt lat="43.44418" lon="1.50848">
        <ele>200.99632263</ele>
        <time>2018-05-27T08:07:32Z</time>
      </trkpt>
      <trkpt lat="43.44424" lon="1.50833">
        <ele>199.95788574</ele>
        <time>2018-05-27T08:07:34Z</time>
      </trkpt>
      <trkpt lat="43.44431" lon="1.50816">
        <ele>198.71905518</ele>
        <time>2018-05-27T08:07:36Z</time>
      </trkpt>
      <trkpt lat="43.44439" lon="1.50798">
        <ele>197.36560059</ele>
        <time>2018-05-27T08:07:38Z</time>
      </trkpt>
      <trkpt lat="43.44445" lon="1.50782">
        <ele>195.76074219</ele>
        <time>2018-05-27T08:07:39Z</time>
      </trkpt>
      <trkpt lat="43.44449" lon="1.50772">
        <ele>195.76074219</ele>
        <time>2018-05-27T08:07:40Z</time>
      </trkpt>
      <trkpt lat="43.44453" lon="1.50761">
        <ele>193.91278076</ele>
        <time>2018-05-27T08:07:41Z</time>
      </trkpt>
      <trkpt lat="43.44458" lon="1.50749">
        <ele>192.42623901</ele>
        <time>2018-05-27T08:07:42Z</time>
      </trkpt>
      <trkpt lat="43.44462" lon="1.50738">
        <ele>191.34144592</ele>
        <time>2018-05-27T08:07:43Z</time>
      </trkpt>
      <trkpt lat="43.44468" lon="1.50724">
        <ele>190.23423767</ele>
        <time>2018-05-27T08:07:44Z</time>
      </trkpt>
      <trkpt lat="43.44471" lon="1.50712">
        <ele>189.08770752</ele>
        <time>2018-05-27T08:07:45Z</time>
      </trkpt>
      <trkpt lat="43.44476" lon="1.50698">
        <ele>187.83430481</ele>
        <time>2018-05-27T08:07:46Z</time>
      </trkpt>
      <trkpt lat="43.4448" lon="1.50684">
        <ele>186.37579346</ele>
        <time>2018-05-27T08:07:47Z</time>
      </trkpt>
      <trkpt lat="43.44484" lon="1.50669">
        <ele>184.86116028</ele>
        <time>2018-05-27T08:07:48Z</time>
      </trkpt>
      <trkpt lat="43.44487" lon="1.50652">
        <ele>183.38771057</ele>
        <time>2018-05-27T08:07:49Z</time>
      </trkpt>
      <trkpt lat="43.44491" lon="1.50637">
        <ele>182.19537354</ele>
        <time>2018-05-27T08:07:50Z</time>
      </trkpt>
      <trkpt lat="43.44494" lon="1.50625">
        <ele>181.10653687</ele>
        <time>2018-05-27T08:07:51Z</time>
      </trkpt>
      <trkpt lat="43.44497" lon="1.50615">
        <ele>180.06385803</ele>
        <time>2018-05-27T08:07:52Z</time>
      </trkpt>
      <trkpt lat="43.44502" lon="1.506">
        <ele>178.7736969</ele>
        <time>2018-05-27T08:07:54Z</time>
      </trkpt>
      <trkpt lat="43.44505" lon="1.50583">
        <ele>177.545578</ele>
        <time>2018-05-27T08:07:56Z</time>
      </trkpt>
      <trkpt lat="43.44504" lon="1.50569">
        <ele>176.3966217</ele>
        <time>2018-05-27T08:07:58Z</time>
      </trkpt>
      <trkpt lat="43.4449" lon="1.50565">
        <ele>176.3966217</ele>
        <time>2018-05-27T08:08:00Z</time>
      </trkpt>
      <trkpt lat="43.44471" lon="1.50573">
        <ele>175.41807556</ele>
        <time>2018-05-27T08:08:02Z</time>
      </trkpt>
      <trkpt lat="43.4446" lon="1.50582">
        <ele>175.41807556</ele>
        <time>2018-05-27T08:08:04Z</time>
      </trkpt>
      <trkpt lat="43.44449" lon="1.50594">
        <ele>175.41807556</ele>
        <time>2018-05-27T08:08:06Z</time>
      </trkpt>
      <trkpt lat="43.44437" lon="1.50606">
        <ele>175.41807556</ele>
        <time>2018-05-27T08:08:08Z</time>
      </trkpt>
      <trkpt lat="43.44424" lon="1.50618">
        <ele>175.41807556</ele>
        <time>2018-05-27T08:08:10Z</time>
      </trkpt>
      <trkpt lat="43.44411" lon="1.50631">
        <ele>175.41807556</ele>
        <time>2018-05-27T08:08:12Z</time>
      </trkpt>
      <trkpt lat="43.44402" lon="1.5064">
        <ele>174.75811768</ele>
        <time>2018-05-27T08:08:13Z</time>
      </trkpt>
      <trkpt lat="43.44393" lon="1.50648">
        <ele>174.75811768</ele>
        <time>2018-05-27T08:08:15Z</time>
      </trkpt>
      <trkpt lat="43.44381" lon="1.50658">
        <ele>174.75811768</ele>
        <time>2018-05-27T08:08:17Z</time>
      </trkpt>
      <trkpt lat="43.44368" lon="1.50667">
        <ele>174.75811768</ele>
        <time>2018-05-27T08:08:20Z</time>
      </trkpt>
      <trkpt lat="43.44357" lon="1.50673">
        <ele>174.75811768</ele>
        <time>2018-05-27T08:08:23Z</time>
      </trkpt>
      <trkpt lat="43.44346" lon="1.50673">
        <ele>174.75811768</ele>
        <time>2018-05-27T08:08:26Z</time>
      </trkpt>
      <trkpt lat="43.44334" lon="1.50674">
        <ele>174.75811768</ele>
        <time>2018-05-27T08:08:29Z</time>
      </trkpt>
      <trkpt lat="43.44322" lon="1.50675">
        <ele>174.75811768</ele>
        <time>2018-05-27T08:08:32Z</time>
      </trkpt>
      <trkpt lat="43.44312" lon="1.50669">
        <ele>174.75811768</ele>
        <time>2018-05-27T08:08:35Z</time>
      </trkpt>
      <trkpt lat="43.44301" lon="1.50657">
        <ele>174.75811768</ele>
        <time>2018-05-27T08:08:38Z</time>
      </trkpt>
      <trkpt lat="43.4429" lon="1.50645">
        <ele>174.75811768</ele>
        <time>2018-05-27T08:08:41Z</time>
      </trkpt>
      <trkpt lat="43.44278" lon="1.50639">
        <ele>174.75811768</ele>
        <time>2018-05-27T08:08:45Z</time>
      </trkpt>
      <trkpt lat="43.4427" lon="1.50632">
        <ele>174.75811768</ele>
        <time>2018-05-27T08:08:52Z</time>
      </trkpt>
      <trkpt lat="43.44261" lon="1.50621">
        <ele>174.75811768</ele>
        <time>2018-05-27T08:08:58Z</time>
      </trkpt>
      <trkpt lat="43.44257" lon="1.50609">
        <ele>174.75811768</ele>
        <time>2018-05-27T08:09:02Z</time>
      </trkpt>
      <trkpt lat="43.44252" lon="1.50598">
        <ele>174.75811768</ele>
        <time>2018-05-27T08:09:06Z</time>
      </trkpt>
      <trkpt lat="43.44247" lon="1.50587">
        <ele>174.33853149</ele>
        <time>2018-05-27T08:09:09Z</time>
      </trkpt>
      <trkpt lat="43.44244" lon="1.5058">
        <ele>176.70269775</ele>
        <time>2018-05-27T08:09:13Z</time>
      </trkpt>
      <trkpt lat="43.44243" lon="1.50571">
        <ele>179.19750977</ele>
        <time>2018-05-27T08:09:17Z</time>
      </trkpt>
      <trkpt lat="43.44239" lon="1.50559">
        <ele>182.07693481</ele>
        <time>2018-05-27T08:09:21Z</time>
      </trkpt>
      <trkpt lat="43.44238" lon="1.50549">
        <ele>183.39309692</ele>
        <time>2018-05-27T08:09:24Z</time>
      </trkpt>
      <trkpt lat="43.4424" lon="1.50539">
        <ele>184.53837585</ele>
        <time>2018-05-27T08:09:28Z</time>
      </trkpt>
      <trkpt lat="43.4424" lon="1.50527">
        <ele>185.70863342</ele>
        <time>2018-05-27T08:09:31Z</time>
      </trkpt>
      <trkpt lat="43.44243" lon="1.50513">
        <ele>188.33222961</ele>
        <time>2018-05-27T08:09:34Z</time>
      </trkpt>
      <trkpt lat="43.44247" lon="1.505">
        <ele>189.57296753</ele>
        <time>2018-05-27T08:09:37Z</time>
      </trkpt>
      <trkpt lat="43.4425" lon="1.50488">
        <ele>189.57296753</ele>
        <time>2018-05-27T08:09:40Z</time>
      </trkpt>
      <trkpt lat="43.44256" lon="1.50477">
        <ele>190.84403992</ele>
        <time>2018-05-27T08:09:43Z</time>
      </trkpt>
      <trkpt lat="43.44263" lon="1.50466">
        <ele>193.60745239</ele>
        <time>2018-05-27T08:09:47Z</time>
      </trkpt>
      <trkpt lat="43.44273" lon="1.50454">
        <ele>194.99339294</ele>
        <time>2018-05-27T08:09:50Z</time>
      </trkpt>
      <trkpt lat="43.44281" lon="1.50443">
        <ele>196.19470215</ele>
        <time>2018-05-27T08:09:54Z</time>
      </trkpt>
      <trkpt lat="43.44291" lon="1.50433">
        <ele>198.74263</ele>
        <time>2018-05-27T08:10:00Z</time>
      </trkpt>
      <trkpt lat="43.44303" lon="1.50423">
        <ele>202.24499512</ele>
        <time>2018-05-27T08:10:06Z</time>
      </trkpt>
      <trkpt lat="43.44312" lon="1.50413">
        <ele>204.79286194</ele>
        <time>2018-05-27T08:10:10Z</time>
      </trkpt>
      <trkpt lat="43.44316" lon="1.50403">
        <ele>206.39579773</ele>
        <time>2018-05-27T08:10:13Z</time>
      </trkpt>
      <trkpt lat="43.44318" lon="1.50392">
        <ele>208.34420776</ele>
        <time>2018-05-27T08:10:17Z</time>
      </trkpt>
      <trkpt lat="43.44323" lon="1.5038">
        <ele>210.50883484</ele>
        <time>2018-05-27T08:10:23Z</time>
      </trkpt>
      <trkpt lat="43.44328" lon="1.50368">
        <ele>211.65354919</ele>
        <time>2018-05-27T08:10:26Z</time>
      </trkpt>
      <trkpt lat="43.44336" lon="1.50356">
        <ele>212.82043457</ele>
        <time>2018-05-27T08:10:29Z</time>
      </trkpt>
      <trkpt lat="43.44347" lon="1.50342">
        <ele>214.03237915</ele>
        <time>2018-05-27T08:10:32Z</time>
      </trkpt>
      <trkpt lat="43.44363" lon="1.50324">
        <ele>214.03237915</ele>
        <time>2018-05-27T08:10:34Z</time>
      </trkpt>
      <trkpt lat="43.4437" lon="1.50312">
        <ele>214.03237915</ele>
        <time>2018-05-27T08:10:36Z</time>
      </trkpt>
      <trkpt lat="43.44372" lon="1.50302">
        <ele>215.08747864</ele>
        <time>2018-05-27T08:10:39Z</time>
      </trkpt>
      <trkpt lat="43.44375" lon="1.5029">
        <ele>215.08747864</ele>
        <time>2018-05-27T08:10:42Z</time>
      </trkpt>
      <trkpt lat="43.44376" lon="1.50279">
        <ele>216.26809692</ele>
        <time>2018-05-27T08:10:45Z</time>
      </trkpt>
      <trkpt lat="43.44375" lon="1.50267">
        <ele>216.26809692</ele>
        <time>2018-05-27T08:10:48Z</time>
      </trkpt>
      <trkpt lat="43.44378" lon="1.50256">
        <ele>217.20321655</ele>
        <time>2018-05-27T08:10:51Z</time>
      </trkpt>
      <trkpt lat="43.44381" lon="1.50245">
        <ele>217.20321655</ele>
        <time>2018-05-27T08:10:54Z</time>
      </trkpt>
      <trkpt lat="43.44383" lon="1.50235">
        <ele>218.31245422</ele>
        <time>2018-05-27T08:10:57Z</time>
      </trkpt>
      <trkpt lat="43.44383" lon="1.50223">
        <ele>218.31245422</ele>
        <time>2018-05-27T08:11:01Z</time>
      </trkpt>
      <trkpt lat="43.44379" lon="1.50209">
        <ele>219.38494873</ele>
        <time>2018-05-27T08:11:05Z</time>
      </trkpt>
      <trkpt lat="43.44377" lon="1.50197">
        <ele>219.38494873</ele>
        <time>2018-05-27T08:11:08Z</time>
      </trkpt>
      <trkpt lat="43.4438" lon="1.50186">
        <ele>220.43373108</ele>
        <time>2018-05-27T08:11:11Z</time>
      </trkpt>
      <trkpt lat="43.44379" lon="1.50176">
        <ele>221.17205811</ele>
        <time>2018-05-27T08:11:13Z</time>
      </trkpt>
      <trkpt lat="43.44379" lon="1.50165">
        <ele>221.17205811</ele>
        <time>2018-05-27T08:11:16Z</time>
      </trkpt>
      <trkpt lat="43.44381" lon="1.50154">
        <ele>221.96206665</ele>
        <time>2018-05-27T08:11:20Z</time>
      </trkpt>
      <trkpt lat="43.44383" lon="1.50142">
        <ele>223.03599548</ele>
        <time>2018-05-27T08:11:23Z</time>
      </trkpt>
      <trkpt lat="43.44382" lon="1.50133">
        <ele>223.03599548</ele>
        <time>2018-05-27T08:11:26Z</time>
      </trkpt>
      <trkpt lat="43.44381" lon="1.50122">
        <ele>224.08354187</ele>
        <time>2018-05-27T08:11:29Z</time>
      </trkpt>
      <trkpt lat="43.44381" lon="1.50111">
        <ele>224.08354187</ele>
        <time>2018-05-27T08:11:32Z</time>
      </trkpt>
      <trkpt lat="43.44378" lon="1.501">
        <ele>225.17718506</ele>
        <time>2018-05-27T08:11:36Z</time>
      </trkpt>
      <trkpt lat="43.44377" lon="1.50088">
        <ele>226.29814148</ele>
        <time>2018-05-27T08:11:39Z</time>
      </trkpt>
      <trkpt lat="43.44377" lon="1.50077">
        <ele>226.29814148</ele>
        <time>2018-05-27T08:11:43Z</time>
      </trkpt>
      <trkpt lat="43.44377" lon="1.50064">
        <ele>227.34761047</ele>
        <time>2018-05-27T08:11:48Z</time>
      </trkpt>
      <trkpt lat="43.4438" lon="1.50051">
        <ele>228.41601562</ele>
        <time>2018-05-27T08:11:52Z</time>
      </trkpt>
      <trkpt lat="43.44377" lon="1.50039">
        <ele>229.449646</ele>
        <time>2018-05-27T08:11:56Z</time>
      </trkpt>
      <trkpt lat="43.44376" lon="1.50027">
        <ele>230.536026</ele>
        <time>2018-05-27T08:12:00Z</time>
      </trkpt>
      <trkpt lat="43.4438" lon="1.50014">
        <ele>231.60919189</ele>
        <time>2018-05-27T08:12:04Z</time>
      </trkpt>
      <trkpt lat="43.44381" lon="1.50003">
        <ele>231.60919189</ele>
        <time>2018-05-27T08:12:07Z</time>
      </trkpt>
      <trkpt lat="43.44382" lon="1.49992">
        <ele>231.60919189</ele>
        <time>2018-05-27T08:12:10Z</time>
      </trkpt>
      <trkpt lat="43.44387" lon="1.49978">
        <ele>233.20306396</ele>
        <time>2018-05-27T08:12:13Z</time>
      </trkpt>
      <trkpt lat="43.4439" lon="1.4997">
        <ele>233.20306396</ele>
        <time>2018-05-27T08:12:17Z</time>
      </trkpt>
      <trkpt lat="43.44396" lon="1.49955">
        <ele>233.20306396</ele>
        <time>2018-05-27T08:12:20Z</time>
      </trkpt>
      <trkpt lat="43.44402" lon="1.49944">
        <ele>233.20306396</ele>
        <time>2018-05-27T08:12:24Z</time>
      </trkpt>
      <trkpt lat="43.44405" lon="1.4993">
        <ele>233.20306396</ele>
        <time>2018-05-27T08:12:26Z</time>
      </trkpt>
      <trkpt lat="43.44412" lon="1.49918">
        <ele>234.03874207</ele>
        <time>2018-05-27T08:12:29Z</time>
      </trkpt>
      <trkpt lat="43.44419" lon="1.49909">
        <ele>234.03874207</ele>
        <time>2018-05-27T08:12:32Z</time>
      </trkpt>
      <trkpt lat="43.44428" lon="1.49896">
        <ele>234.03874207</ele>
        <time>2018-05-27T08:12:35Z</time>
      </trkpt>
      <trkpt lat="43.44437" lon="1.49884">
        <ele>234.03874207</ele>
        <time>2018-05-27T08:12:38Z</time>
      </trkpt>
      <trkpt lat="43.44443" lon="1.49872">
        <ele>234.03874207</ele>
        <time>2018-05-27T08:12:40Z</time>
      </trkpt>
      <trkpt lat="43.44447" lon="1.4986">
        <ele>233.82687378</ele>
        <time>2018-05-27T08:12:42Z</time>
      </trkpt>
      <trkpt lat="43.44452" lon="1.4985">
        <ele>233.82687378</ele>
        <time>2018-05-27T08:12:44Z</time>
      </trkpt>
      <trkpt lat="43.44459" lon="1.49837">
        <ele>233.82687378</ele>
        <time>2018-05-27T08:12:47Z</time>
      </trkpt>
      <trkpt lat="43.44465" lon="1.4982">
        <ele>233.82687378</ele>
        <time>2018-05-27T08:12:49Z</time>
      </trkpt>
      <trkpt lat="43.44472" lon="1.49807">
        <ele>233.82687378</ele>
        <time>2018-05-27T08:12:51Z</time>
      </trkpt>
      <trkpt lat="43.44478" lon="1.49796">
        <ele>233.82687378</ele>
        <time>2018-05-27T08:12:53Z</time>
      </trkpt>
      <trkpt lat="43.44483" lon="1.49783">
        <ele>233.82687378</ele>
        <time>2018-05-27T08:12:55Z</time>
      </trkpt>
      <trkpt lat="43.44487" lon="1.49771">
        <ele>232.67047119</ele>
        <time>2018-05-27T08:12:57Z</time>
      </trkpt>
      <trkpt lat="43.44495" lon="1.49757">
        <ele>232.67047119</ele>
        <time>2018-05-27T08:12:59Z</time>
      </trkpt>
      <trkpt lat="43.44502" lon="1.49743">
        <ele>232.67047119</ele>
        <time>2018-05-27T08:13:01Z</time>
      </trkpt>
      <trkpt lat="43.44507" lon="1.49725">
        <ele>232.67047119</ele>
        <time>2018-05-27T08:13:03Z</time>
      </trkpt>
      <trkpt lat="43.44513" lon="1.49711">
        <ele>232.67047119</ele>
        <time>2018-05-27T08:13:05Z</time>
      </trkpt>
      <trkpt lat="43.44519" lon="1.497">
        <ele>232.67047119</ele>
        <time>2018-05-27T08:13:07Z</time>
      </trkpt>
      <trkpt lat="43.44523" lon="1.49687">
        <ele>232.67047119</ele>
        <time>2018-05-27T08:13:09Z</time>
      </trkpt>
      <trkpt lat="43.44527" lon="1.49672">
        <ele>232.67047119</ele>
        <time>2018-05-27T08:13:11Z</time>
      </trkpt>
      <trkpt lat="43.44534" lon="1.49653">
        <ele>232.09783936</ele>
        <time>2018-05-27T08:13:13Z</time>
      </trkpt>
      <trkpt lat="43.4454" lon="1.49642">
        <ele>232.09783936</ele>
        <time>2018-05-27T08:13:15Z</time>
      </trkpt>
      <trkpt lat="43.44547" lon="1.49627">
        <ele>232.09783936</ele>
        <time>2018-05-27T08:13:17Z</time>
      </trkpt>
      <trkpt lat="43.44552" lon="1.49612">
        <ele>232.09783936</ele>
        <time>2018-05-27T08:13:19Z</time>
      </trkpt>
      <trkpt lat="43.44557" lon="1.49598">
        <ele>232.09783936</ele>
        <time>2018-05-27T08:13:21Z</time>
      </trkpt>
      <trkpt lat="43.44564" lon="1.49584">
        <ele>232.09783936</ele>
        <time>2018-05-27T08:13:23Z</time>
      </trkpt>
      <trkpt lat="43.44569" lon="1.49569">
        <ele>231.0149231</ele>
        <time>2018-05-27T08:13:25Z</time>
      </trkpt>
      <trkpt lat="43.44576" lon="1.49554">
        <ele>231.0149231</ele>
        <time>2018-05-27T08:13:27Z</time>
      </trkpt>
      <trkpt lat="43.44581" lon="1.49541">
        <ele>231.0149231</ele>
        <time>2018-05-27T08:13:29Z</time>
      </trkpt>
      <trkpt lat="43.44586" lon="1.49526">
        <ele>230.05993652</ele>
        <time>2018-05-27T08:13:31Z</time>
      </trkpt>
      <trkpt lat="43.44593" lon="1.49509">
        <ele>230.05993652</ele>
        <time>2018-05-27T08:13:33Z</time>
      </trkpt>
      <trkpt lat="43.44599" lon="1.49493">
        <ele>230.05993652</ele>
        <time>2018-05-27T08:13:35Z</time>
      </trkpt>
      <trkpt lat="43.44605" lon="1.4948">
        <ele>228.9841156</ele>
        <time>2018-05-27T08:13:37Z</time>
      </trkpt>
      <trkpt lat="43.44611" lon="1.49464">
        <ele>228.9841156</ele>
        <time>2018-05-27T08:13:39Z</time>
      </trkpt>
      <trkpt lat="43.44617" lon="1.49449">
        <ele>228.9841156</ele>
        <time>2018-05-27T08:13:41Z</time>
      </trkpt>
      <trkpt lat="43.44622" lon="1.49437">
        <ele>228.9841156</ele>
        <time>2018-05-27T08:13:43Z</time>
      </trkpt>
      <trkpt lat="43.44624" lon="1.49422">
        <ele>228.9841156</ele>
        <time>2018-05-27T08:13:45Z</time>
      </trkpt>
      <trkpt lat="43.44625" lon="1.49409">
        <ele>228.9841156</ele>
        <time>2018-05-27T08:13:47Z</time>
      </trkpt>
      <trkpt lat="43.44628" lon="1.49397">
        <ele>228.9841156</ele>
        <time>2018-05-27T08:13:49Z</time>
      </trkpt>
      <trkpt lat="43.44631" lon="1.49384">
        <ele>228.9841156</ele>
        <time>2018-05-27T08:13:51Z</time>
      </trkpt>
      <trkpt lat="43.44635" lon="1.4937">
        <ele>228.9841156</ele>
        <time>2018-05-27T08:13:53Z</time>
      </trkpt>
      <trkpt lat="43.44637" lon="1.49356">
        <ele>228.9841156</ele>
        <time>2018-05-27T08:13:55Z</time>
      </trkpt>
      <trkpt lat="43.44639" lon="1.49344">
        <ele>228.9841156</ele>
        <time>2018-05-27T08:13:57Z</time>
      </trkpt>
      <trkpt lat="43.44641" lon="1.49331">
        <ele>228.9841156</ele>
        <time>2018-05-27T08:13:59Z</time>
      </trkpt>
      <trkpt lat="43.44642" lon="1.4932">
        <ele>228.60658264</ele>
        <time>2018-05-27T08:14:01Z</time>
      </trkpt>
      <trkpt lat="43.44644" lon="1.49309">
        <ele>228.60658264</ele>
        <time>2018-05-27T08:14:03Z</time>
      </trkpt>
      <trkpt lat="43.44647" lon="1.49298">
        <ele>228.60658264</ele>
        <time>2018-05-27T08:14:05Z</time>
      </trkpt>
      <trkpt lat="43.4465" lon="1.49286">
        <ele>228.60658264</ele>
        <time>2018-05-27T08:14:08Z</time>
      </trkpt>
      <trkpt lat="43.44654" lon="1.4927">
        <ele>228.60658264</ele>
        <time>2018-05-27T08:14:10Z</time>
      </trkpt>
      <trkpt lat="43.44657" lon="1.49256">
        <ele>228.60658264</ele>
        <time>2018-05-27T08:14:12Z</time>
      </trkpt>
      <trkpt lat="43.44658" lon="1.49246">
        <ele>230.12760925</ele>
        <time>2018-05-27T08:14:13Z</time>
      </trkpt>
      <trkpt lat="43.44659" lon="1.49236">
        <ele>230.12760925</ele>
        <time>2018-05-27T08:14:15Z</time>
      </trkpt>
      <trkpt lat="43.44662" lon="1.49223">
        <ele>230.12760925</ele>
        <time>2018-05-27T08:14:18Z</time>
      </trkpt>
      <trkpt lat="43.44663" lon="1.49206">
        <ele>230.12760925</ele>
        <time>2018-05-27T08:14:20Z</time>
      </trkpt>
      <trkpt lat="43.44665" lon="1.49193">
        <ele>230.12760925</ele>
        <time>2018-05-27T08:14:22Z</time>
      </trkpt>
      <trkpt lat="43.44666" lon="1.4918">
        <ele>230.12760925</ele>
        <time>2018-05-27T08:14:24Z</time>
      </trkpt>
      <trkpt lat="43.44669" lon="1.49168">
        <ele>230.12760925</ele>
        <time>2018-05-27T08:14:26Z</time>
      </trkpt>
      <trkpt lat="43.44673" lon="1.49155">
        <ele>230.12760925</ele>
        <time>2018-05-27T08:14:28Z</time>
      </trkpt>
      <trkpt lat="43.44674" lon="1.49143">
        <ele>230.12760925</ele>
        <time>2018-05-27T08:14:30Z</time>
      </trkpt>
      <trkpt lat="43.44678" lon="1.49131">
        <ele>230.12760925</ele>
        <time>2018-05-27T08:14:32Z</time>
      </trkpt>
      <trkpt lat="43.44681" lon="1.49121">
        <ele>230.12760925</ele>
        <time>2018-05-27T08:14:34Z</time>
      </trkpt>
      <trkpt lat="43.44684" lon="1.49109">
        <ele>230.12760925</ele>
        <time>2018-05-27T08:14:37Z</time>
      </trkpt>
      <trkpt lat="43.44687" lon="1.49096">
        <ele>230.12760925</ele>
        <time>2018-05-27T08:14:39Z</time>
      </trkpt>
      <trkpt lat="43.44687" lon="1.49085">
        <ele>230.12760925</ele>
        <time>2018-05-27T08:14:41Z</time>
      </trkpt>
      <trkpt lat="43.44691" lon="1.49072">
        <ele>230.12760925</ele>
        <time>2018-05-27T08:14:43Z</time>
      </trkpt>
      <trkpt lat="43.44696" lon="1.49058">
        <ele>230.12760925</ele>
        <time>2018-05-27T08:14:45Z</time>
      </trkpt>
      <trkpt lat="43.44701" lon="1.49043">
        <ele>230.12760925</ele>
        <time>2018-05-27T08:14:47Z</time>
      </trkpt>
      <trkpt lat="43.44706" lon="1.49029">
        <ele>230.890625</ele>
        <time>2018-05-27T08:14:49Z</time>
      </trkpt>
      <trkpt lat="43.44718" lon="1.49026">
        <ele>228.19830322</ele>
        <time>2018-05-27T08:14:52Z</time>
      </trkpt>
      <trkpt lat="43.44736" lon="1.49038">
        <ele>226.65393066</ele>
        <time>2018-05-27T08:14:54Z</time>
      </trkpt>
      <trkpt lat="43.4475" lon="1.49048">
        <ele>225.3433075</ele>
        <time>2018-05-27T08:14:56Z</time>
      </trkpt>
      <trkpt lat="43.44766" lon="1.49059">
        <ele>224.15283203</ele>
        <time>2018-05-27T08:14:58Z</time>
      </trkpt>
      <trkpt lat="43.4478" lon="1.49069">
        <ele>223.1053772</ele>
        <time>2018-05-27T08:15:00Z</time>
      </trkpt>
      <trkpt lat="43.44795" lon="1.49076">
        <ele>223.1053772</ele>
        <time>2018-05-27T08:15:02Z</time>
      </trkpt>
      <trkpt lat="43.44808" lon="1.49083">
        <ele>223.1053772</ele>
        <time>2018-05-27T08:15:04Z</time>
      </trkpt>
      <trkpt lat="43.44822" lon="1.49093">
        <ele>221.99617004</ele>
        <time>2018-05-27T08:15:06Z</time>
      </trkpt>
      <trkpt lat="43.44835" lon="1.491">
        <ele>221.99617004</ele>
        <time>2018-05-27T08:15:08Z</time>
      </trkpt>
      <trkpt lat="43.44849" lon="1.49106">
        <ele>221.99617004</ele>
        <time>2018-05-27T08:15:10Z</time>
      </trkpt>
      <trkpt lat="43.44862" lon="1.4911">
        <ele>221.99617004</ele>
        <time>2018-05-27T08:15:12Z</time>
      </trkpt>
      <trkpt lat="43.44872" lon="1.49113">
        <ele>222.04924011</ele>
        <time>2018-05-27T08:15:13Z</time>
      </trkpt>
      <trkpt lat="43.44881" lon="1.49113">
        <ele>222.04924011</ele>
        <time>2018-05-27T08:15:15Z</time>
      </trkpt>
      <trkpt lat="43.44893" lon="1.49113">
        <ele>223.26325989</ele>
        <time>2018-05-27T08:15:17Z</time>
      </trkpt>
      <trkpt lat="43.44904" lon="1.49113">
        <ele>223.26325989</ele>
        <time>2018-05-27T08:15:19Z</time>
      </trkpt>
      <trkpt lat="43.44914" lon="1.49114">
        <ele>224.55897522</ele>
        <time>2018-05-27T08:15:22Z</time>
      </trkpt>
      <trkpt lat="43.44928" lon="1.49113">
        <ele>225.71490479</ele>
        <time>2018-05-27T08:15:24Z</time>
      </trkpt>
      <trkpt lat="43.4494" lon="1.49118">
        <ele>226.74984741</ele>
        <time>2018-05-27T08:15:27Z</time>
      </trkpt>
      <trkpt lat="43.44954" lon="1.49125">
        <ele>227.7660675</ele>
        <time>2018-05-27T08:15:30Z</time>
      </trkpt>
      <trkpt lat="43.44966" lon="1.4912">
        <ele>228.83737183</ele>
        <time>2018-05-27T08:15:33Z</time>
      </trkpt>
      <trkpt lat="43.44975" lon="1.49105">
        <ele>229.93174744</ele>
        <time>2018-05-27T08:15:36Z</time>
      </trkpt>
      <trkpt lat="43.44983" lon="1.49092">
        <ele>229.93174744</ele>
        <time>2018-05-27T08:15:38Z</time>
      </trkpt>
      <trkpt lat="43.44991" lon="1.49082">
        <ele>231.15498352</ele>
        <time>2018-05-27T08:15:41Z</time>
      </trkpt>
      <trkpt lat="43.44999" lon="1.4907">
        <ele>232.34094238</ele>
        <time>2018-05-27T08:15:44Z</time>
      </trkpt>
      <trkpt lat="43.45009" lon="1.49059">
        <ele>232.34094238</ele>
        <time>2018-05-27T08:15:47Z</time>
      </trkpt>
      <trkpt lat="43.45018" lon="1.49047">
        <ele>233.40895081</ele>
        <time>2018-05-27T08:15:50Z</time>
      </trkpt>
      <trkpt lat="43.45028" lon="1.49034">
        <ele>233.40895081</ele>
        <time>2018-05-27T08:15:53Z</time>
      </trkpt>
      <trkpt lat="43.45039" lon="1.49023">
        <ele>234.48245239</ele>
        <time>2018-05-27T08:15:56Z</time>
      </trkpt>
      <trkpt lat="43.4505" lon="1.49012">
        <ele>234.48245239</ele>
        <time>2018-05-27T08:16:00Z</time>
      </trkpt>
      <trkpt lat="43.45062" lon="1.48998">
        <ele>234.48245239</ele>
        <time>2018-05-27T08:16:03Z</time>
      </trkpt>
      <trkpt lat="43.45071" lon="1.48988">
        <ele>235.51138306</ele>
        <time>2018-05-27T08:16:06Z</time>
      </trkpt>
      <trkpt lat="43.45081" lon="1.48977">
        <ele>235.51138306</ele>
        <time>2018-05-27T08:16:09Z</time>
      </trkpt>
      <trkpt lat="43.4509" lon="1.48967">
        <ele>235.51138306</ele>
        <time>2018-05-27T08:16:12Z</time>
      </trkpt>
      <trkpt lat="43.45097" lon="1.48958">
        <ele>236.18244934</ele>
        <time>2018-05-27T08:16:13Z</time>
      </trkpt>
      <trkpt lat="43.45103" lon="1.48949">
        <ele>236.18244934</ele>
        <time>2018-05-27T08:16:16Z</time>
      </trkpt>
      <trkpt lat="43.4511" lon="1.48936">
        <ele>236.18244934</ele>
        <time>2018-05-27T08:16:18Z</time>
      </trkpt>
      <trkpt lat="43.45118" lon="1.48924">
        <ele>236.18244934</ele>
        <time>2018-05-27T08:16:20Z</time>
      </trkpt>
      <trkpt lat="43.45125" lon="1.48913">
        <ele>235.76591492</ele>
        <time>2018-05-27T08:16:22Z</time>
      </trkpt>
      <trkpt lat="43.45132" lon="1.489">
        <ele>235.76591492</ele>
        <time>2018-05-27T08:16:24Z</time>
      </trkpt>
      <trkpt lat="43.45139" lon="1.48888">
        <ele>235.76591492</ele>
        <time>2018-05-27T08:16:26Z</time>
      </trkpt>
      <trkpt lat="43.45144" lon="1.48876">
        <ele>235.76591492</ele>
        <time>2018-05-27T08:16:28Z</time>
      </trkpt>
      <trkpt lat="43.4515" lon="1.48863">
        <ele>234.6678772</ele>
        <time>2018-05-27T08:16:30Z</time>
      </trkpt>
      <trkpt lat="43.45153" lon="1.48848">
        <ele>234.6678772</ele>
        <time>2018-05-27T08:16:32Z</time>
      </trkpt>
      <trkpt lat="43.45158" lon="1.48832">
        <ele>234.6678772</ele>
        <time>2018-05-27T08:16:34Z</time>
      </trkpt>
      <trkpt lat="43.45165" lon="1.48819">
        <ele>234.6678772</ele>
        <time>2018-05-27T08:16:36Z</time>
      </trkpt>
      <trkpt lat="43.45171" lon="1.48805">
        <ele>234.6678772</ele>
        <time>2018-05-27T08:16:38Z</time>
      </trkpt>
      <trkpt lat="43.45179" lon="1.4879">
        <ele>234.6678772</ele>
        <time>2018-05-27T08:16:40Z</time>
      </trkpt>
      <trkpt lat="43.45185" lon="1.48775">
        <ele>234.6678772</ele>
        <time>2018-05-27T08:16:42Z</time>
      </trkpt>
      <trkpt lat="43.45189" lon="1.4876">
        <ele>234.6678772</ele>
        <time>2018-05-27T08:16:44Z</time>
      </trkpt>
      <trkpt lat="43.45191" lon="1.48745">
        <ele>234.6678772</ele>
        <time>2018-05-27T08:16:46Z</time>
      </trkpt>
      <trkpt lat="43.45197" lon="1.4873">
        <ele>234.6678772</ele>
        <time>2018-05-27T08:16:48Z</time>
      </trkpt>
      <trkpt lat="43.45203" lon="1.48718">
        <ele>234.6678772</ele>
        <time>2018-05-27T08:16:50Z</time>
      </trkpt>
      <trkpt lat="43.45209" lon="1.48705">
        <ele>234.19889832</ele>
        <time>2018-05-27T08:16:52Z</time>
      </trkpt>
      <trkpt lat="43.45216" lon="1.48692">
        <ele>234.19889832</ele>
        <time>2018-05-27T08:16:54Z</time>
      </trkpt>
      <trkpt lat="43.45221" lon="1.4868">
        <ele>236.02267456</ele>
        <time>2018-05-27T08:16:56Z</time>
      </trkpt>
      <trkpt lat="43.45226" lon="1.48668">
        <ele>236.02267456</ele>
        <time>2018-05-27T08:16:58Z</time>
      </trkpt>
      <trkpt lat="43.45231" lon="1.48656">
        <ele>237.11061096</ele>
        <time>2018-05-27T08:17:00Z</time>
      </trkpt>
      <trkpt lat="43.45236" lon="1.48644">
        <ele>238.15330505</ele>
        <time>2018-05-27T08:17:02Z</time>
      </trkpt>
      <trkpt lat="43.45238" lon="1.48631">
        <ele>238.15330505</ele>
        <time>2018-05-27T08:17:04Z</time>
      </trkpt>
      <trkpt lat="43.45247" lon="1.48621">
        <ele>239.31576538</ele>
        <time>2018-05-27T08:17:08Z</time>
      </trkpt>
      <trkpt lat="43.45259" lon="1.48615">
        <ele>240.47073364</ele>
        <time>2018-05-27T08:17:11Z</time>
      </trkpt>
      <trkpt lat="43.45267" lon="1.48612">
        <ele>242.30470276</ele>
        <time>2018-05-27T08:17:13Z</time>
      </trkpt>
      <trkpt lat="43.45276" lon="1.48603">
        <ele>243.17282104</ele>
        <time>2018-05-27T08:17:17Z</time>
      </trkpt>
      <trkpt lat="43.45283" lon="1.48591">
        <ele>244.38763428</ele>
        <time>2018-05-27T08:17:21Z</time>
      </trkpt>
      <trkpt lat="43.45292" lon="1.48579">
        <ele>245.47692871</ele>
        <time>2018-05-27T08:17:24Z</time>
      </trkpt>
      <trkpt lat="43.45298" lon="1.48567">
        <ele>246.60429382</ele>
        <time>2018-05-27T08:17:27Z</time>
      </trkpt>
      <trkpt lat="43.45304" lon="1.48553">
        <ele>246.60429382</ele>
        <time>2018-05-27T08:17:30Z</time>
      </trkpt>
      <trkpt lat="43.45309" lon="1.4854">
        <ele>247.6396637</ele>
        <time>2018-05-27T08:17:33Z</time>
      </trkpt>
      <trkpt lat="43.45315" lon="1.48533">
        <ele>248.62646484</ele>
        <time>2018-05-27T08:17:40Z</time>
      </trkpt>
      <trkpt lat="43.4532" lon="1.48539">
        <ele>248.62646484</ele>
        <time>2018-05-27T08:17:44Z</time>
      </trkpt>
      <trkpt lat="43.45312" lon="1.48549">
        <ele>248.62646484</ele>
        <time>2018-05-27T08:17:48Z</time>
      </trkpt>
      <trkpt lat="43.45308" lon="1.48562">
        <ele>248.62646484</ele>
        <time>2018-05-27T08:17:53Z</time>
      </trkpt>
      <trkpt lat="43.45303" lon="1.48573">
        <ele>248.62646484</ele>
        <time>2018-05-27T08:17:59Z</time>
      </trkpt>
      <trkpt lat="43.45301" lon="1.48586">
        <ele>248.62646484</ele>
        <time>2018-05-27T08:18:03Z</time>
      </trkpt>
      <trkpt lat="43.45297" lon="1.48598">
        <ele>248.62646484</ele>
        <time>2018-05-27T08:18:07Z</time>
      </trkpt>
      <trkpt lat="43.45297" lon="1.4861">
        <ele>249.66618347</ele>
        <time>2018-05-27T08:18:11Z</time>
      </trkpt>
      <trkpt lat="43.45306" lon="1.48617">
        <ele>250.51599121</ele>
        <time>2018-05-27T08:18:13Z</time>
      </trkpt>
      <trkpt lat="43.45314" lon="1.48624">
        <ele>251.23199463</ele>
        <time>2018-05-27T08:18:18Z</time>
      </trkpt>
      <trkpt lat="43.45326" lon="1.48634">
        <ele>251.23199463</ele>
        <time>2018-05-27T08:18:22Z</time>
      </trkpt>
      <trkpt lat="43.45339" lon="1.48642">
        <ele>251.23199463</ele>
        <time>2018-05-27T08:18:25Z</time>
      </trkpt>
      <trkpt lat="43.45351" lon="1.4865">
        <ele>251.33319092</ele>
        <time>2018-05-27T08:18:28Z</time>
      </trkpt>
      <trkpt lat="43.45362" lon="1.48662">
        <ele>251.33319092</ele>
        <time>2018-05-27T08:18:30Z</time>
      </trkpt>
      <trkpt lat="43.45377" lon="1.48673">
        <ele>249.65446472</ele>
        <time>2018-05-27T08:18:32Z</time>
      </trkpt>
      <trkpt lat="43.45389" lon="1.48684">
        <ele>248.65516663</ele>
        <time>2018-05-27T08:18:34Z</time>
      </trkpt>
      <trkpt lat="43.45401" lon="1.48696">
        <ele>248.65516663</ele>
        <time>2018-05-27T08:18:36Z</time>
      </trkpt>
      <trkpt lat="43.45413" lon="1.48708">
        <ele>247.40382385</ele>
        <time>2018-05-27T08:18:38Z</time>
      </trkpt>
      <trkpt lat="43.45428" lon="1.48721">
        <ele>242.85696411</ele>
        <time>2018-05-27T08:18:40Z</time>
      </trkpt>
      <trkpt lat="43.45446" lon="1.48738">
        <ele>238.9274292</ele>
        <time>2018-05-27T08:18:42Z</time>
      </trkpt>
      <trkpt lat="43.45462" lon="1.48751">
        <ele>236.84182739</ele>
        <time>2018-05-27T08:18:43Z</time>
      </trkpt>
      <trkpt lat="43.45473" lon="1.4876">
        <ele>234.70675659</ele>
        <time>2018-05-27T08:18:44Z</time>
      </trkpt>
      <trkpt lat="43.45483" lon="1.48769">
        <ele>232.76855469</ele>
        <time>2018-05-27T08:18:45Z</time>
      </trkpt>
      <trkpt lat="43.45497" lon="1.4878">
        <ele>229.66734314</ele>
        <time>2018-05-27T08:18:47Z</time>
      </trkpt>
      <trkpt lat="43.45511" lon="1.48789">
        <ele>228.53598022</ele>
        <time>2018-05-27T08:18:49Z</time>
      </trkpt>
      <trkpt lat="43.45517" lon="1.48798">
        <ele>225.4833374</ele>
        <time>2018-05-27T08:18:52Z</time>
      </trkpt>
      <trkpt lat="43.4552" lon="1.48811">
        <ele>224.14794922</ele>
        <time>2018-05-27T08:18:54Z</time>
      </trkpt>
      <trkpt lat="43.45525" lon="1.48824">
        <ele>222.95759583</ele>
        <time>2018-05-27T08:18:57Z</time>
      </trkpt>
      <trkpt lat="43.45521" lon="1.48837">
        <ele>222.95759583</ele>
        <time>2018-05-27T08:18:59Z</time>
      </trkpt>
      <trkpt lat="43.45517" lon="1.48848">
        <ele>221.91737366</ele>
        <time>2018-05-27T08:19:01Z</time>
      </trkpt>
      <trkpt lat="43.45516" lon="1.48861">
        <ele>220.67677307</ele>
        <time>2018-05-27T08:19:04Z</time>
      </trkpt>
      <trkpt lat="43.45525" lon="1.48868">
        <ele>217.65945435</ele>
        <time>2018-05-27T08:19:06Z</time>
      </trkpt>
      <trkpt lat="43.45536" lon="1.48875">
        <ele>215.53141785</ele>
        <time>2018-05-27T08:19:08Z</time>
      </trkpt>
      <trkpt lat="43.4555" lon="1.48885">
        <ele>214.44213867</ele>
        <time>2018-05-27T08:19:10Z</time>
      </trkpt>
      <trkpt lat="43.45565" lon="1.48899">
        <ele>210.45513916</ele>
        <time>2018-05-27T08:19:13Z</time>
      </trkpt>
      <trkpt lat="43.45572" lon="1.48906">
        <ele>206.70045471</ele>
        <time>2018-05-27T08:19:17Z</time>
      </trkpt>
      <trkpt lat="43.45582" lon="1.48916">
        <ele>203.90112305</ele>
        <time>2018-05-27T08:19:23Z</time>
      </trkpt>
      <trkpt lat="43.45593" lon="1.48921">
        <ele>203.90112305</ele>
        <time>2018-05-27T08:19:28Z</time>
      </trkpt>
      <trkpt lat="43.45602" lon="1.4891">
        <ele>203.90112305</ele>
        <time>2018-05-27T08:19:32Z</time>
      </trkpt>
      <trkpt lat="43.45609" lon="1.48897">
        <ele>202.8686676</ele>
        <time>2018-05-27T08:19:37Z</time>
      </trkpt>
      <trkpt lat="43.45621" lon="1.48885">
        <ele>202.8686676</ele>
        <time>2018-05-27T08:19:41Z</time>
      </trkpt>
      <trkpt lat="43.45633" lon="1.48874">
        <ele>202.8686676</ele>
        <time>2018-05-27T08:19:45Z</time>
      </trkpt>
      <trkpt lat="43.45641" lon="1.48863">
        <ele>202.05752563</ele>
        <time>2018-05-27T08:19:49Z</time>
      </trkpt>
      <trkpt lat="43.45651" lon="1.48852">
        <ele>202.05752563</ele>
        <time>2018-05-27T08:19:52Z</time>
      </trkpt>
      <trkpt lat="43.45659" lon="1.48842">
        <ele>202.05752563</ele>
        <time>2018-05-27T08:19:55Z</time>
      </trkpt>
      <trkpt lat="43.45668" lon="1.48831">
        <ele>200.95535278</ele>
        <time>2018-05-27T08:19:58Z</time>
      </trkpt>
      <trkpt lat="43.45679" lon="1.4882">
        <ele>200.95535278</ele>
        <time>2018-05-27T08:20:01Z</time>
      </trkpt>
      <trkpt lat="43.45689" lon="1.48806">
        <ele>200.95535278</ele>
        <time>2018-05-27T08:20:04Z</time>
      </trkpt>
      <trkpt lat="43.45699" lon="1.48793">
        <ele>200.07870483</ele>
        <time>2018-05-27T08:20:07Z</time>
      </trkpt>
      <trkpt lat="43.4571" lon="1.4878">
        <ele>200.07870483</ele>
        <time>2018-05-27T08:20:09Z</time>
      </trkpt>
      <trkpt lat="43.45718" lon="1.48768">
        <ele>198.56262207</ele>
        <time>2018-05-27T08:20:11Z</time>
      </trkpt>
      <trkpt lat="43.45726" lon="1.48759">
        <ele>198.13121033</ele>
        <time>2018-05-27T08:20:13Z</time>
      </trkpt>
      <trkpt lat="43.45733" lon="1.48752">
        <ele>198.13121033</ele>
        <time>2018-05-27T08:20:17Z</time>
      </trkpt>
      <trkpt lat="43.45745" lon="1.48758">
        <ele>198.13121033</ele>
        <time>2018-05-27T08:20:20Z</time>
      </trkpt>
      <trkpt lat="43.45749" lon="1.48769">
        <ele>198.13121033</ele>
        <time>2018-05-27T08:20:23Z</time>
      </trkpt>
      <trkpt lat="43.45754" lon="1.4878">
        <ele>198.16490173</ele>
        <time>2018-05-27T08:20:27Z</time>
      </trkpt>
      <trkpt lat="43.4576" lon="1.48792">
        <ele>201.73513794</ele>
        <time>2018-05-27T08:20:31Z</time>
      </trkpt>
      <trkpt lat="43.45767" lon="1.48803">
        <ele>205.09030151</ele>
        <time>2018-05-27T08:20:36Z</time>
      </trkpt>
      <trkpt lat="43.45775" lon="1.48814">
        <ele>207.24133301</ele>
        <time>2018-05-27T08:20:40Z</time>
      </trkpt>
      <trkpt lat="43.45781" lon="1.48825">
        <ele>209.3366394</ele>
        <time>2018-05-27T08:20:44Z</time>
      </trkpt>
      <trkpt lat="43.45788" lon="1.48835">
        <ele>210.55879211</ele>
        <time>2018-05-27T08:20:49Z</time>
      </trkpt>
      <trkpt lat="43.45795" lon="1.48847">
        <ele>213.14923096</ele>
        <time>2018-05-27T08:20:53Z</time>
      </trkpt>
      <trkpt lat="43.45802" lon="1.48858">
        <ele>215.30964661</ele>
        <time>2018-05-27T08:20:58Z</time>
      </trkpt>
      <trkpt lat="43.45808" lon="1.48868">
        <ele>216.58605957</ele>
        <time>2018-05-27T08:21:02Z</time>
      </trkpt>
      <trkpt lat="43.45814" lon="1.4888">
        <ele>219.10441589</ele>
        <time>2018-05-27T08:21:07Z</time>
      </trkpt>
      <trkpt lat="43.45823" lon="1.48891">
        <ele>221.28352356</ele>
        <time>2018-05-27T08:21:12Z</time>
      </trkpt>
      <trkpt lat="43.45828" lon="1.48899">
        <ele>221.65693665</ele>
        <time>2018-05-27T08:21:13Z</time>
      </trkpt>
      <trkpt lat="43.45833" lon="1.48906">
        <ele>222.37985229</ele>
        <time>2018-05-27T08:21:18Z</time>
      </trkpt>
      <trkpt lat="43.45842" lon="1.48918">
        <ele>223.48699951</ele>
        <time>2018-05-27T08:21:22Z</time>
      </trkpt>
      <trkpt lat="43.45849" lon="1.48928">
        <ele>226.01396179</ele>
        <time>2018-05-27T08:21:26Z</time>
      </trkpt>
      <trkpt lat="43.45857" lon="1.48938">
        <ele>227.13272095</ele>
        <time>2018-05-27T08:21:31Z</time>
      </trkpt>
      <trkpt lat="43.45865" lon="1.48949">
        <ele>229.79037476</ele>
        <time>2018-05-27T08:21:36Z</time>
      </trkpt>
      <trkpt lat="43.45873" lon="1.48961">
        <ele>231.10353088</ele>
        <time>2018-05-27T08:21:40Z</time>
      </trkpt>
      <trkpt lat="43.45882" lon="1.48972">
        <ele>232.27609253</ele>
        <time>2018-05-27T08:21:46Z</time>
      </trkpt>
      <trkpt lat="43.45889" lon="1.4898">
        <ele>233.43605042</ele>
        <time>2018-05-27T08:22:03Z</time>
      </trkpt>
      <trkpt lat="43.45898" lon="1.48965">
        <ele>233.33226013</ele>
        <time>2018-05-27T08:22:06Z</time>
      </trkpt>
      <trkpt lat="43.45905" lon="1.48953">
        <ele>233.33226013</ele>
        <time>2018-05-27T08:22:09Z</time>
      </trkpt>
      <trkpt lat="43.45914" lon="1.48939">
        <ele>231.77546692</ele>
        <time>2018-05-27T08:22:12Z</time>
      </trkpt>
      <trkpt lat="43.45921" lon="1.48928">
        <ele>231.01527405</ele>
        <time>2018-05-27T08:22:13Z</time>
      </trkpt>
      <trkpt lat="43.45927" lon="1.48918">
        <ele>230.34780884</ele>
        <time>2018-05-27T08:22:15Z</time>
      </trkpt>
      <trkpt lat="43.45934" lon="1.48903">
        <ele>230.34780884</ele>
        <time>2018-05-27T08:22:17Z</time>
      </trkpt>
      <trkpt lat="43.45944" lon="1.48887">
        <ele>229.2590332</ele>
        <time>2018-05-27T08:22:19Z</time>
      </trkpt>
      <trkpt lat="43.45954" lon="1.48871">
        <ele>228.05918884</ele>
        <time>2018-05-27T08:22:21Z</time>
      </trkpt>
      <trkpt lat="43.45963" lon="1.48854">
        <ele>228.05918884</ele>
        <time>2018-05-27T08:22:23Z</time>
      </trkpt>
      <trkpt lat="43.45973" lon="1.48836">
        <ele>226.75550842</ele>
        <time>2018-05-27T08:22:25Z</time>
      </trkpt>
      <trkpt lat="43.45982" lon="1.48818">
        <ele>225.46662903</ele>
        <time>2018-05-27T08:22:27Z</time>
      </trkpt>
      <trkpt lat="43.45993" lon="1.488">
        <ele>224.38401794</ele>
        <time>2018-05-27T08:22:29Z</time>
      </trkpt>
      <trkpt lat="43.46003" lon="1.48782">
        <ele>223.28741455</ele>
        <time>2018-05-27T08:22:31Z</time>
      </trkpt>
      <trkpt lat="43.46013" lon="1.48765">
        <ele>222.05007935</ele>
        <time>2018-05-27T08:22:33Z</time>
      </trkpt>
      <trkpt lat="43.46023" lon="1.48747">
        <ele>222.05007935</ele>
        <time>2018-05-27T08:22:35Z</time>
      </trkpt>
      <trkpt lat="43.46034" lon="1.4873">
        <ele>220.54924011</ele>
        <time>2018-05-27T08:22:37Z</time>
      </trkpt>
      <trkpt lat="43.46044" lon="1.48713">
        <ele>219.21482849</ele>
        <time>2018-05-27T08:22:39Z</time>
      </trkpt>
      <trkpt lat="43.46053" lon="1.48698">
        <ele>219.21482849</ele>
        <time>2018-05-27T08:22:41Z</time>
      </trkpt>
      <trkpt lat="43.46061" lon="1.48683">
        <ele>218.17446899</ele>
        <time>2018-05-27T08:22:43Z</time>
      </trkpt>
      <trkpt lat="43.46067" lon="1.48667">
        <ele>218.17446899</ele>
        <time>2018-05-27T08:22:45Z</time>
      </trkpt>
      <trkpt lat="43.46072" lon="1.48648">
        <ele>217.07841492</ele>
        <time>2018-05-27T08:22:47Z</time>
      </trkpt>
      <trkpt lat="43.46077" lon="1.48633">
        <ele>217.07841492</ele>
        <time>2018-05-27T08:22:48Z</time>
      </trkpt>
      <trkpt lat="43.46084" lon="1.48621">
        <ele>215.82775879</ele>
        <time>2018-05-27T08:22:50Z</time>
      </trkpt>
      <trkpt lat="43.46094" lon="1.48606">
        <ele>215.82775879</ele>
        <time>2018-05-27T08:22:52Z</time>
      </trkpt>
      <trkpt lat="43.46101" lon="1.48588">
        <ele>214.68507385</ele>
        <time>2018-05-27T08:22:54Z</time>
      </trkpt>
      <trkpt lat="43.4611" lon="1.4857">
        <ele>213.23983765</ele>
        <time>2018-05-27T08:22:56Z</time>
      </trkpt>
      <trkpt lat="43.46122" lon="1.48552">
        <ele>211.85366821</ele>
        <time>2018-05-27T08:22:58Z</time>
      </trkpt>
      <trkpt lat="43.46135" lon="1.48534">
        <ele>210.28991699</ele>
        <time>2018-05-27T08:23:00Z</time>
      </trkpt>
      <trkpt lat="43.46145" lon="1.48519">
        <ele>208.7389679</ele>
        <time>2018-05-27T08:23:01Z</time>
      </trkpt>
      <trkpt lat="43.4615" lon="1.48507">
        <ele>207.63964844</ele>
        <time>2018-05-27T08:23:02Z</time>
      </trkpt>
      <trkpt lat="43.46156" lon="1.48496">
        <ele>206.52864075</ele>
        <time>2018-05-27T08:23:03Z</time>
      </trkpt>
      <trkpt lat="43.46163" lon="1.48485">
        <ele>205.35620117</ele>
        <time>2018-05-27T08:23:04Z</time>
      </trkpt>
      <trkpt lat="43.4617" lon="1.48474">
        <ele>204.25724792</ele>
        <time>2018-05-27T08:23:05Z</time>
      </trkpt>
      <trkpt lat="43.46177" lon="1.48463">
        <ele>203.18966675</ele>
        <time>2018-05-27T08:23:06Z</time>
      </trkpt>
      <trkpt lat="43.46184" lon="1.48451">
        <ele>203.18966675</ele>
        <time>2018-05-27T08:23:07Z</time>
      </trkpt>
      <trkpt lat="43.46191" lon="1.48439">
        <ele>201.96737671</ele>
        <time>2018-05-27T08:23:08Z</time>
      </trkpt>
      <trkpt lat="43.46197" lon="1.48428">
        <ele>201.96737671</ele>
        <time>2018-05-27T08:23:09Z</time>
      </trkpt>
      <trkpt lat="43.46203" lon="1.48415">
        <ele>200.33258057</ele>
        <time>2018-05-27T08:23:10Z</time>
      </trkpt>
      <trkpt lat="43.46209" lon="1.48402">
        <ele>200.33258057</ele>
        <time>2018-05-27T08:23:11Z</time>
      </trkpt>
      <trkpt lat="43.46216" lon="1.48391">
        <ele>198.87384033</ele>
        <time>2018-05-27T08:23:12Z</time>
      </trkpt>
      <trkpt lat="43.46221" lon="1.48381">
        <ele>198.55249023</ele>
        <time>2018-05-27T08:23:13Z</time>
      </trkpt>
      <trkpt lat="43.46234" lon="1.48375">
        <ele>197.56851196</ele>
        <time>2018-05-27T08:23:15Z</time>
      </trkpt>
      <trkpt lat="43.46253" lon="1.48377">
        <ele>196.0630188</ele>
        <time>2018-05-27T08:23:17Z</time>
      </trkpt>
      <trkpt lat="43.46272" lon="1.4839">
        <ele>194.52728271</ele>
        <time>2018-05-27T08:23:19Z</time>
      </trkpt>
      <trkpt lat="43.46291" lon="1.48402">
        <ele>193.02963257</ele>
        <time>2018-05-27T08:23:21Z</time>
      </trkpt>
      <trkpt lat="43.46307" lon="1.48407">
        <ele>191.53198242</ele>
        <time>2018-05-27T08:23:22Z</time>
      </trkpt>
      <trkpt lat="43.46317" lon="1.48411">
        <ele>191.53198242</ele>
        <time>2018-05-27T08:23:23Z</time>
      </trkpt>
      <trkpt lat="43.46328" lon="1.48415">
        <ele>189.90036011</ele>
        <time>2018-05-27T08:23:24Z</time>
      </trkpt>
      <trkpt lat="43.46343" lon="1.4842">
        <ele>188.18426514</ele>
        <time>2018-05-27T08:23:26Z</time>
      </trkpt>
      <trkpt lat="43.46358" lon="1.48424">
        <ele>188.18426514</ele>
        <time>2018-05-27T08:23:27Z</time>
      </trkpt>
      <trkpt lat="43.46369" lon="1.48428">
        <ele>186.60333252</ele>
        <time>2018-05-27T08:23:28Z</time>
      </trkpt>
      <trkpt lat="43.4638" lon="1.48433">
        <ele>186.60333252</ele>
        <time>2018-05-27T08:23:29Z</time>
      </trkpt>
      <trkpt lat="43.46392" lon="1.48441">
        <ele>184.73936462</ele>
        <time>2018-05-27T08:23:30Z</time>
      </trkpt>
      <trkpt lat="43.46407" lon="1.48453">
        <ele>183.16867065</ele>
        <time>2018-05-27T08:23:32Z</time>
      </trkpt>
      <trkpt lat="43.46421" lon="1.48469">
        <ele>181.76428223</ele>
        <time>2018-05-27T08:23:33Z</time>
      </trkpt>
      <trkpt lat="43.46431" lon="1.48479">
        <ele>181.76428223</ele>
        <time>2018-05-27T08:23:34Z</time>
      </trkpt>
      <trkpt lat="43.46446" lon="1.48489">
        <ele>179.96589661</ele>
        <time>2018-05-27T08:23:36Z</time>
      </trkpt>
      <trkpt lat="43.46462" lon="1.48492">
        <ele>178.08059692</ele>
        <time>2018-05-27T08:23:37Z</time>
      </trkpt>
      <trkpt lat="43.46473" lon="1.48493">
        <ele>176.54415894</ele>
        <time>2018-05-27T08:23:38Z</time>
      </trkpt>
      <trkpt lat="43.46485" lon="1.48494">
        <ele>176.54415894</ele>
        <time>2018-05-27T08:23:39Z</time>
      </trkpt>
      <trkpt lat="43.46497" lon="1.48494">
        <ele>175.36132812</ele>
        <time>2018-05-27T08:23:40Z</time>
      </trkpt>
      <trkpt lat="43.46507" lon="1.48494">
        <ele>175.36132812</ele>
        <time>2018-05-27T08:23:41Z</time>
      </trkpt>
      <trkpt lat="43.4652" lon="1.4849">
        <ele>174.26074219</ele>
        <time>2018-05-27T08:23:43Z</time>
      </trkpt>
      <trkpt lat="43.46531" lon="1.48473">
        <ele>174.26074219</ele>
        <time>2018-05-27T08:23:45Z</time>
      </trkpt>
      <trkpt lat="43.46537" lon="1.48459">
        <ele>174.26074219</ele>
        <time>2018-05-27T08:23:46Z</time>
      </trkpt>
      <trkpt lat="43.46544" lon="1.48448">
        <ele>174.26074219</ele>
        <time>2018-05-27T08:23:48Z</time>
      </trkpt>
      <trkpt lat="43.46554" lon="1.48435">
        <ele>174.26074219</ele>
        <time>2018-05-27T08:23:50Z</time>
      </trkpt>
      <trkpt lat="43.46564" lon="1.48424">
        <ele>174.26074219</ele>
        <time>2018-05-27T08:23:52Z</time>
      </trkpt>
      <trkpt lat="43.46574" lon="1.48413">
        <ele>174.26074219</ele>
        <time>2018-05-27T08:23:54Z</time>
      </trkpt>
      <trkpt lat="43.46584" lon="1.48402">
        <ele>174.26074219</ele>
        <time>2018-05-27T08:23:56Z</time>
      </trkpt>
      <trkpt lat="43.46594" lon="1.48391">
        <ele>174.26074219</ele>
        <time>2018-05-27T08:23:58Z</time>
      </trkpt>
      <trkpt lat="43.46605" lon="1.48383">
        <ele>174.26074219</ele>
        <time>2018-05-27T08:24:00Z</time>
      </trkpt>
      <trkpt lat="43.46616" lon="1.48376">
        <ele>174.26074219</ele>
        <time>2018-05-27T08:24:02Z</time>
      </trkpt>
      <trkpt lat="43.46629" lon="1.48369">
        <ele>173.69769287</ele>
        <time>2018-05-27T08:24:04Z</time>
      </trkpt>
      <trkpt lat="43.4664" lon="1.48365">
        <ele>173.69769287</ele>
        <time>2018-05-27T08:24:06Z</time>
      </trkpt>
      <trkpt lat="43.46652" lon="1.4836">
        <ele>173.69769287</ele>
        <time>2018-05-27T08:24:08Z</time>
      </trkpt>
      <trkpt lat="43.46663" lon="1.48355">
        <ele>173.69769287</ele>
        <time>2018-05-27T08:24:10Z</time>
      </trkpt>
      <trkpt lat="43.46678" lon="1.48347">
        <ele>172.64479065</ele>
        <time>2018-05-27T08:24:13Z</time>
      </trkpt>
      <trkpt lat="43.46683" lon="1.48345">
        <ele>172.64479065</ele>
        <time>2018-05-27T08:24:48Z</time>
      </trkpt>
      <trkpt lat="43.46694" lon="1.48342">
        <ele>172.64479065</ele>
        <time>2018-05-27T08:24:52Z</time>
      </trkpt>
      <trkpt lat="43.46706" lon="1.48342">
        <ele>172.64479065</ele>
        <time>2018-05-27T08:24:56Z</time>
      </trkpt>
      <trkpt lat="43.46719" lon="1.48337">
        <ele>172.64479065</ele>
        <time>2018-05-27T08:25:00Z</time>
      </trkpt>
      <trkpt lat="43.46731" lon="1.48334">
        <ele>172.64479065</ele>
        <time>2018-05-27T08:25:03Z</time>
      </trkpt>
      <trkpt lat="43.46743" lon="1.48331">
        <ele>172.64479065</ele>
        <time>2018-05-27T08:25:06Z</time>
      </trkpt>
      <trkpt lat="43.46759" lon="1.48324">
        <ele>172.64479065</ele>
        <time>2018-05-27T08:25:08Z</time>
      </trkpt>
      <trkpt lat="43.46772" lon="1.48316">
        <ele>172.64479065</ele>
        <time>2018-05-27T08:25:10Z</time>
      </trkpt>
      <trkpt lat="43.46782" lon="1.48307">
        <ele>172.64479065</ele>
        <time>2018-05-27T08:25:12Z</time>
      </trkpt>
      <trkpt lat="43.46789" lon="1.48299">
        <ele>173.2333374</ele>
        <time>2018-05-27T08:25:13Z</time>
      </trkpt>
      <trkpt lat="43.46798" lon="1.48289">
        <ele>173.2333374</ele>
        <time>2018-05-27T08:25:16Z</time>
      </trkpt>
      <trkpt lat="43.46809" lon="1.48279">
        <ele>173.2333374</ele>
        <time>2018-05-27T08:25:19Z</time>
      </trkpt>
      <trkpt lat="43.4682" lon="1.48269">
        <ele>173.2333374</ele>
        <time>2018-05-27T08:25:22Z</time>
      </trkpt>
      <trkpt lat="43.46832" lon="1.4826">
        <ele>173.2333374</ele>
        <time>2018-05-27T08:25:25Z</time>
      </trkpt>
      <trkpt lat="43.46846" lon="1.48249">
        <ele>173.2333374</ele>
        <time>2018-05-27T08:25:28Z</time>
      </trkpt>
      <trkpt lat="43.46861" lon="1.4824">
        <ele>173.2333374</ele>
        <time>2018-05-27T08:25:31Z</time>
      </trkpt>
      <trkpt lat="43.46874" lon="1.48228">
        <ele>173.2333374</ele>
        <time>2018-05-27T08:25:34Z</time>
      </trkpt>
      <trkpt lat="43.46889" lon="1.48215">
        <ele>173.2333374</ele>
        <time>2018-05-27T08:25:37Z</time>
      </trkpt>
      <trkpt lat="43.46903" lon="1.48204">
        <ele>173.2333374</ele>
        <time>2018-05-27T08:25:40Z</time>
      </trkpt>
      <trkpt lat="43.46915" lon="1.48193">
        <ele>173.2333374</ele>
        <time>2018-05-27T08:25:43Z</time>
      </trkpt>
      <trkpt lat="43.46928" lon="1.48183">
        <ele>173.2333374</ele>
        <time>2018-05-27T08:25:46Z</time>
      </trkpt>
      <trkpt lat="43.46942" lon="1.48173">
        <ele>172.41772461</ele>
        <time>2018-05-27T08:25:49Z</time>
      </trkpt>
      <trkpt lat="43.46956" lon="1.48162">
        <ele>172.41772461</ele>
        <time>2018-05-27T08:25:52Z</time>
      </trkpt>
      <trkpt lat="43.46968" lon="1.48153">
        <ele>171.1086731</ele>
        <time>2018-05-27T08:25:54Z</time>
      </trkpt>
      <trkpt lat="43.46978" lon="1.48146">
        <ele>171.1086731</ele>
        <time>2018-05-27T08:25:56Z</time>
      </trkpt>
      <trkpt lat="43.46989" lon="1.48136">
        <ele>171.1086731</ele>
        <time>2018-05-27T08:25:59Z</time>
      </trkpt>
      <trkpt lat="43.47001" lon="1.48126">
        <ele>171.1086731</ele>
        <time>2018-05-27T08:26:02Z</time>
      </trkpt>
      <trkpt lat="43.47012" lon="1.48117">
        <ele>171.1086731</ele>
        <time>2018-05-27T08:26:05Z</time>
      </trkpt>
      <trkpt lat="43.47025" lon="1.48108">
        <ele>171.1086731</ele>
        <time>2018-05-27T08:26:08Z</time>
      </trkpt>
      <trkpt lat="43.47037" lon="1.48098">
        <ele>171.1086731</ele>
        <time>2018-05-27T08:26:12Z</time>
      </trkpt>
      <trkpt lat="43.47047" lon="1.48093">
        <ele>170.63731384</ele>
        <time>2018-05-27T08:26:13Z</time>
      </trkpt>
      <trkpt lat="43.47056" lon="1.48086">
        <ele>170.63731384</ele>
        <time>2018-05-27T08:26:16Z</time>
      </trkpt>
      <trkpt lat="43.47072" lon="1.48078">
        <ele>169.56115723</ele>
        <time>2018-05-27T08:26:19Z</time>
      </trkpt>
      <trkpt lat="43.47085" lon="1.48074">
        <ele>169.56115723</ele>
        <time>2018-05-27T08:26:21Z</time>
      </trkpt>
      <trkpt lat="43.47096" lon="1.48069">
        <ele>169.56115723</ele>
        <time>2018-05-27T08:26:23Z</time>
      </trkpt>
      <trkpt lat="43.47109" lon="1.48061">
        <ele>168.4074707</ele>
        <time>2018-05-27T08:26:25Z</time>
      </trkpt>
      <trkpt lat="43.4712" lon="1.48052">
        <ele>168.4074707</ele>
        <time>2018-05-27T08:26:27Z</time>
      </trkpt>
      <trkpt lat="43.47131" lon="1.4804">
        <ele>168.4074707</ele>
        <time>2018-05-27T08:26:29Z</time>
      </trkpt>
      <trkpt lat="43.47142" lon="1.48032">
        <ele>168.4074707</ele>
        <time>2018-05-27T08:26:31Z</time>
      </trkpt>
      <trkpt lat="43.47154" lon="1.48024">
        <ele>168.4074707</ele>
        <time>2018-05-27T08:26:33Z</time>
      </trkpt>
      <trkpt lat="43.47166" lon="1.48012">
        <ele>168.4074707</ele>
        <time>2018-05-27T08:26:36Z</time>
      </trkpt>
      <trkpt lat="43.47179" lon="1.47998">
        <ele>168.4074707</ele>
        <time>2018-05-27T08:26:39Z</time>
      </trkpt>
      <trkpt lat="43.47191" lon="1.47986">
        <ele>168.4074707</ele>
        <time>2018-05-27T08:26:41Z</time>
      </trkpt>
      <trkpt lat="43.47202" lon="1.47975">
        <ele>168.4074707</ele>
        <time>2018-05-27T08:26:44Z</time>
      </trkpt>
      <trkpt lat="43.4721" lon="1.47962">
        <ele>168.4074707</ele>
        <time>2018-05-27T08:26:46Z</time>
      </trkpt>
      <trkpt lat="43.47218" lon="1.47952">
        <ele>168.4074707</ele>
        <time>2018-05-27T08:26:49Z</time>
      </trkpt>
      <trkpt lat="43.47226" lon="1.47941">
        <ele>168.4074707</ele>
        <time>2018-05-27T08:26:52Z</time>
      </trkpt>
      <trkpt lat="43.47226" lon="1.47928">
        <ele>168.4074707</ele>
        <time>2018-05-27T08:26:55Z</time>
      </trkpt>
      <trkpt lat="43.47217" lon="1.47921">
        <ele>168.4074707</ele>
        <time>2018-05-27T08:26:58Z</time>
      </trkpt>
      <trkpt lat="43.47205" lon="1.47919">
        <ele>167.38366699</ele>
        <time>2018-05-27T08:27:02Z</time>
      </trkpt>
      <trkpt lat="43.47192" lon="1.47915">
        <ele>169.73731995</ele>
        <time>2018-05-27T08:27:06Z</time>
      </trkpt>
      <trkpt lat="43.47179" lon="1.47911">
        <ele>172.16288757</ele>
        <time>2018-05-27T08:27:10Z</time>
      </trkpt>
      <trkpt lat="43.47169" lon="1.47906">
        <ele>173.03103638</ele>
        <time>2018-05-27T08:27:13Z</time>
      </trkpt>
      <trkpt lat="43.4716" lon="1.47897">
        <ele>173.94595337</ele>
        <time>2018-05-27T08:27:17Z</time>
      </trkpt>
      <trkpt lat="43.47149" lon="1.47888">
        <ele>176.5816803</ele>
        <time>2018-05-27T08:27:21Z</time>
      </trkpt>
      <trkpt lat="43.47137" lon="1.47879">
        <ele>178.00660706</ele>
        <time>2018-05-27T08:27:26Z</time>
      </trkpt>
      <trkpt lat="43.47126" lon="1.4787">
        <ele>180.9296875</ele>
        <time>2018-05-27T08:27:30Z</time>
      </trkpt>
      <trkpt lat="43.47114" lon="1.47861">
        <ele>182.28782654</ele>
        <time>2018-05-27T08:27:34Z</time>
      </trkpt>
      <trkpt lat="43.47104" lon="1.47851">
        <ele>183.52230835</ele>
        <time>2018-05-27T08:27:39Z</time>
      </trkpt>
      <trkpt lat="43.47092" lon="1.47843">
        <ele>184.64108276</ele>
        <time>2018-05-27T08:27:43Z</time>
      </trkpt>
      <trkpt lat="43.47083" lon="1.47835">
        <ele>187.25289917</ele>
        <time>2018-05-27T08:27:48Z</time>
      </trkpt>
      <trkpt lat="43.4707" lon="1.4783">
        <ele>188.46394348</ele>
        <time>2018-05-27T08:27:52Z</time>
      </trkpt>
      <trkpt lat="43.47059" lon="1.47829">
        <ele>189.69075012</ele>
        <time>2018-05-27T08:27:56Z</time>
      </trkpt>
      <trkpt lat="43.47047" lon="1.4783">
        <ele>191.91891479</ele>
        <time>2018-05-27T08:28:00Z</time>
      </trkpt>
      <trkpt lat="43.47036" lon="1.47833">
        <ele>194.0070343</ele>
        <time>2018-05-27T08:28:04Z</time>
      </trkpt>
      <trkpt lat="43.47025" lon="1.47835">
        <ele>195.19696045</ele>
        <time>2018-05-27T08:28:08Z</time>
      </trkpt>
      <trkpt lat="43.47013" lon="1.47838">
        <ele>196.43386841</ele>
        <time>2018-05-27T08:28:12Z</time>
      </trkpt>
      <trkpt lat="43.47006" lon="1.47838">
        <ele>197.20262146</ele>
        <time>2018-05-27T08:28:13Z</time>
      </trkpt>
      <trkpt lat="43.46998" lon="1.47835">
        <ele>197.96157837</ele>
        <time>2018-05-27T08:28:17Z</time>
      </trkpt>
      <trkpt lat="43.46988" lon="1.47827">
        <ele>200.4853363</ele>
        <time>2018-05-27T08:28:21Z</time>
      </trkpt>
      <trkpt lat="43.46981" lon="1.47815">
        <ele>201.63876343</ele>
        <time>2018-05-27T08:28:25Z</time>
      </trkpt>
      <trkpt lat="43.46973" lon="1.47803">
        <ele>202.7565918</ele>
        <time>2018-05-27T08:28:28Z</time>
      </trkpt>
      <trkpt lat="43.46965" lon="1.47792">
        <ele>203.81164551</ele>
        <time>2018-05-27T08:28:32Z</time>
      </trkpt>
      <trkpt lat="43.46958" lon="1.4778">
        <ele>204.94389343</ele>
        <time>2018-05-27T08:28:36Z</time>
      </trkpt>
      <trkpt lat="43.46947" lon="1.47769">
        <ele>207.53517151</ele>
        <time>2018-05-27T08:28:40Z</time>
      </trkpt>
      <trkpt lat="43.46938" lon="1.47759">
        <ele>208.71194458</ele>
        <time>2018-05-27T08:28:44Z</time>
      </trkpt>
      <trkpt lat="43.46929" lon="1.47748">
        <ele>209.76077271</ele>
        <time>2018-05-27T08:28:48Z</time>
      </trkpt>
      <trkpt lat="43.46918" lon="1.47739">
        <ele>210.81944275</ele>
        <time>2018-05-27T08:28:53Z</time>
      </trkpt>
      <trkpt lat="43.46908" lon="1.47733">
        <ele>211.91233826</ele>
        <time>2018-05-27T08:28:57Z</time>
      </trkpt>
      <trkpt lat="43.46898" lon="1.47739">
        <ele>212.98245239</ele>
        <time>2018-05-27T08:29:01Z</time>
      </trkpt>
      <trkpt lat="43.46886" lon="1.47752">
        <ele>212.98245239</ele>
        <time>2018-05-27T08:29:05Z</time>
      </trkpt>
      <trkpt lat="43.46875" lon="1.47764">
        <ele>212.98245239</ele>
        <time>2018-05-27T08:29:09Z</time>
      </trkpt>
      <trkpt lat="43.46863" lon="1.47779">
        <ele>214.73318481</ele>
        <time>2018-05-27T08:29:13Z</time>
      </trkpt>
      <trkpt lat="43.46856" lon="1.47786">
        <ele>214.73318481</ele>
        <time>2018-05-27T08:29:18Z</time>
      </trkpt>
      <trkpt lat="43.46846" lon="1.47796">
        <ele>215.41242981</ele>
        <time>2018-05-27T08:29:24Z</time>
      </trkpt>
      <trkpt lat="43.46836" lon="1.47807">
        <ele>215.41242981</ele>
        <time>2018-05-27T08:29:29Z</time>
      </trkpt>
      <trkpt lat="43.46826" lon="1.47816">
        <ele>215.41242981</ele>
        <time>2018-05-27T08:29:34Z</time>
      </trkpt>
      <trkpt lat="43.46816" lon="1.47828">
        <ele>216.37167358</ele>
        <time>2018-05-27T08:29:38Z</time>
      </trkpt>
      <trkpt lat="43.46805" lon="1.47837">
        <ele>216.37167358</ele>
        <time>2018-05-27T08:29:42Z</time>
      </trkpt>
      <trkpt lat="43.46795" lon="1.47847">
        <ele>216.37167358</ele>
        <time>2018-05-27T08:29:46Z</time>
      </trkpt>
      <trkpt lat="43.46786" lon="1.47859">
        <ele>216.37167358</ele>
        <time>2018-05-27T08:29:50Z</time>
      </trkpt>
      <trkpt lat="43.46776" lon="1.4787">
        <ele>216.37167358</ele>
        <time>2018-05-27T08:29:54Z</time>
      </trkpt>
      <trkpt lat="43.46767" lon="1.47884">
        <ele>216.37167358</ele>
        <time>2018-05-27T08:29:57Z</time>
      </trkpt>
      <trkpt lat="43.46759" lon="1.47895">
        <ele>217.26423645</ele>
        <time>2018-05-27T08:30:01Z</time>
      </trkpt>
      <trkpt lat="43.46755" lon="1.47908">
        <ele>217.26423645</ele>
        <time>2018-05-27T08:30:04Z</time>
      </trkpt>
      <trkpt lat="43.46756" lon="1.47918">
        <ele>217.26423645</ele>
        <time>2018-05-27T08:30:07Z</time>
      </trkpt>
      <trkpt lat="43.46763" lon="1.47929">
        <ele>217.26423645</ele>
        <time>2018-05-27T08:30:10Z</time>
      </trkpt>
      <trkpt lat="43.46777" lon="1.47946">
        <ele>216.73835754</ele>
        <time>2018-05-27T08:30:13Z</time>
      </trkpt>
      <trkpt lat="43.46786" lon="1.47955">
        <ele>215.88478088</ele>
        <time>2018-05-27T08:30:16Z</time>
      </trkpt>
      <trkpt lat="43.46798" lon="1.47973">
        <ele>214.39389038</ele>
        <time>2018-05-27T08:30:18Z</time>
      </trkpt>
      <trkpt lat="43.46807" lon="1.47992">
        <ele>212.77587891</ele>
        <time>2018-05-27T08:30:20Z</time>
      </trkpt>
      <trkpt lat="43.4681" lon="1.48009">
        <ele>210.86152649</ele>
        <time>2018-05-27T08:30:21Z</time>
      </trkpt>
      <trkpt lat="43.46812" lon="1.48024">
        <ele>209.0927124</ele>
        <time>2018-05-27T08:30:23Z</time>
      </trkpt>
      <trkpt lat="43.46814" lon="1.48041">
        <ele>206.22807312</ele>
        <time>2018-05-27T08:30:25Z</time>
      </trkpt>
      <trkpt lat="43.46817" lon="1.48058">
        <ele>203.45936584</ele>
        <time>2018-05-27T08:30:27Z</time>
      </trkpt>
      <trkpt lat="43.46824" lon="1.48071">
        <ele>200.78213501</ele>
        <time>2018-05-27T08:30:29Z</time>
      </trkpt>
      <trkpt lat="43.4684" lon="1.4807">
        <ele>199.38047791</ele>
        <time>2018-05-27T08:30:31Z</time>
      </trkpt>
      <trkpt lat="43.46857" lon="1.48059">
        <ele>197.56263733</ele>
        <time>2018-05-27T08:30:33Z</time>
      </trkpt>
      <trkpt lat="43.46867" lon="1.48047">
        <ele>194.59463501</ele>
        <time>2018-05-27T08:30:35Z</time>
      </trkpt>
      <trkpt lat="43.4688" lon="1.48047">
        <ele>191.92582703</ele>
        <time>2018-05-27T08:30:37Z</time>
      </trkpt>
      <trkpt lat="43.46893" lon="1.48052">
        <ele>189.58030701</ele>
        <time>2018-05-27T08:30:39Z</time>
      </trkpt>
      <trkpt lat="43.46909" lon="1.48057">
        <ele>187.23736572</ele>
        <time>2018-05-27T08:30:41Z</time>
      </trkpt>
      <trkpt lat="43.4692" lon="1.48068">
        <ele>183.59446716</ele>
        <time>2018-05-27T08:30:44Z</time>
      </trkpt>
      <trkpt lat="43.46921" lon="1.48091">
        <ele>182.40670776</ele>
        <time>2018-05-27T08:30:45Z</time>
      </trkpt>
      <trkpt lat="43.46916" lon="1.48106">
        <ele>181.2482605</ele>
        <time>2018-05-27T08:30:46Z</time>
      </trkpt>
      <trkpt lat="43.46914" lon="1.4812">
        <ele>180.03469849</ele>
        <time>2018-05-27T08:30:47Z</time>
      </trkpt>
      <trkpt lat="43.46914" lon="1.48135">
        <ele>178.64170837</ele>
        <time>2018-05-27T08:30:48Z</time>
      </trkpt>
      <trkpt lat="43.46914" lon="1.48152">
        <ele>177.26017761</ele>
        <time>2018-05-27T08:30:49Z</time>
      </trkpt>
      <trkpt lat="43.46918" lon="1.48166">
        <ele>176.05116272</ele>
        <time>2018-05-27T08:30:50Z</time>
      </trkpt>
      <trkpt lat="43.46919" lon="1.48178">
        <ele>176.05116272</ele>
        <time>2018-05-27T08:30:51Z</time>
      </trkpt>
      <trkpt lat="43.46922" lon="1.48188">
        <ele>174.82055664</ele>
        <time>2018-05-27T08:30:53Z</time>
      </trkpt>
      <trkpt lat="43.4693" lon="1.4819">
        <ele>173.6177063</ele>
        <time>2018-05-27T08:30:56Z</time>
      </trkpt>
      <trkpt lat="43.4694" lon="1.4818">
        <ele>172.54493713</ele>
        <time>2018-05-27T08:30:59Z</time>
      </trkpt>
      <trkpt lat="43.46951" lon="1.48168">
        <ele>171.49919128</ele>
        <time>2018-05-27T08:31:02Z</time>
      </trkpt>
      <trkpt lat="43.46961" lon="1.48156">
        <ele>171.49919128</ele>
        <time>2018-05-27T08:31:06Z</time>
      </trkpt>
      <trkpt lat="43.46972" lon="1.48149">
        <ele>171.49919128</ele>
        <time>2018-05-27T08:31:11Z</time>
      </trkpt>
      <trkpt lat="43.46981" lon="1.48142">
        <ele>170.73266602</ele>
        <time>2018-05-27T08:31:13Z</time>
      </trkpt>
      <trkpt lat="43.46989" lon="1.48134">
        <ele>170.73266602</ele>
        <time>2018-05-27T08:31:18Z</time>
      </trkpt>
      <trkpt lat="43.47001" lon="1.48122">
        <ele>170.73266602</ele>
        <time>2018-05-27T08:31:23Z</time>
      </trkpt>
      <trkpt lat="43.47014" lon="1.48113">
        <ele>170.73266602</ele>
        <time>2018-05-27T08:31:27Z</time>
      </trkpt>
      <trkpt lat="43.47027" lon="1.48102">
        <ele>170.73266602</ele>
        <time>2018-05-27T08:31:31Z</time>
      </trkpt>
      <trkpt lat="43.4704" lon="1.48092">
        <ele>170.73266602</ele>
        <time>2018-05-27T08:31:34Z</time>
      </trkpt>
      <trkpt lat="43.47052" lon="1.48083">
        <ele>170.60144043</ele>
        <time>2018-05-27T08:31:38Z</time>
      </trkpt>
      <trkpt lat="43.47063" lon="1.48078">
        <ele>170.60144043</ele>
        <time>2018-05-27T08:31:41Z</time>
      </trkpt>
      <trkpt lat="43.47076" lon="1.48073">
        <ele>168.8659668</ele>
        <time>2018-05-27T08:31:44Z</time>
      </trkpt>
      <trkpt lat="43.47088" lon="1.4807">
        <ele>168.8659668</ele>
        <time>2018-05-27T08:31:47Z</time>
      </trkpt>
      <trkpt lat="43.47099" lon="1.48065">
        <ele>168.8659668</ele>
        <time>2018-05-27T08:31:50Z</time>
      </trkpt>
      <trkpt lat="43.47113" lon="1.48057">
        <ele>167.99537659</ele>
        <time>2018-05-27T08:31:53Z</time>
      </trkpt>
      <trkpt lat="43.47125" lon="1.48045">
        <ele>167.99537659</ele>
        <time>2018-05-27T08:31:55Z</time>
      </trkpt>
      <trkpt lat="43.47135" lon="1.48034">
        <ele>167.99537659</ele>
        <time>2018-05-27T08:31:57Z</time>
      </trkpt>
      <trkpt lat="43.47147" lon="1.48023">
        <ele>167.99537659</ele>
        <time>2018-05-27T08:32:00Z</time>
      </trkpt>
      <trkpt lat="43.47159" lon="1.48014">
        <ele>167.99537659</ele>
        <time>2018-05-27T08:32:02Z</time>
      </trkpt>
      <trkpt lat="43.47169" lon="1.48006">
        <ele>167.99537659</ele>
        <time>2018-05-27T08:32:05Z</time>
      </trkpt>
      <trkpt lat="43.47178" lon="1.47994">
        <ele>167.99537659</ele>
        <time>2018-05-27T08:32:08Z</time>
      </trkpt>
      <trkpt lat="43.47189" lon="1.47983">
        <ele>167.99537659</ele>
        <time>2018-05-27T08:32:12Z</time>
      </trkpt>
      <trkpt lat="43.47196" lon="1.47975">
        <ele>166.83656311</ele>
        <time>2018-05-27T08:32:13Z</time>
      </trkpt>
      <trkpt lat="43.47204" lon="1.47967">
        <ele>166.83656311</ele>
        <time>2018-05-27T08:32:17Z</time>
      </trkpt>
      <trkpt lat="43.47215" lon="1.47954">
        <ele>166.83656311</ele>
        <time>2018-05-27T08:32:21Z</time>
      </trkpt>
      <trkpt lat="43.47224" lon="1.47942">
        <ele>166.83656311</ele>
        <time>2018-05-27T08:32:24Z</time>
      </trkpt>
      <trkpt lat="43.47225" lon="1.47929">
        <ele>166.83656311</ele>
        <time>2018-05-27T08:32:27Z</time>
      </trkpt>
      <trkpt lat="43.47216" lon="1.47921">
        <ele>166.91239929</ele>
        <time>2018-05-27T08:32:30Z</time>
      </trkpt>
      <trkpt lat="43.47204" lon="1.47917">
        <ele>168.80477905</ele>
        <time>2018-05-27T08:32:34Z</time>
      </trkpt>
      <trkpt lat="43.47193" lon="1.47913">
        <ele>170.06494141</ele>
        <time>2018-05-27T08:32:37Z</time>
      </trkpt>
      <trkpt lat="43.4718" lon="1.47909">
        <ele>172.52210999</ele>
        <time>2018-05-27T08:32:41Z</time>
      </trkpt>
      <trkpt lat="43.47168" lon="1.47901">
        <ele>173.599823</ele>
        <time>2018-05-27T08:32:45Z</time>
      </trkpt>
      <trkpt lat="43.47155" lon="1.47892">
        <ele>176.16111755</ele>
        <time>2018-05-27T08:32:49Z</time>
      </trkpt>
      <trkpt lat="43.47141" lon="1.47882">
        <ele>178.39533997</ele>
        <time>2018-05-27T08:32:53Z</time>
      </trkpt>
      <trkpt lat="43.47131" lon="1.47873">
        <ele>179.85957336</ele>
        <time>2018-05-27T08:32:56Z</time>
      </trkpt>
      <trkpt lat="43.4712" lon="1.47864">
        <ele>181.14491272</ele>
        <time>2018-05-27T08:32:59Z</time>
      </trkpt>
      <trkpt lat="43.47109" lon="1.47853">
        <ele>183.37875366</ele>
        <time>2018-05-27T08:33:02Z</time>
      </trkpt>
      <trkpt lat="43.47099" lon="1.47845">
        <ele>184.51261902</ele>
        <time>2018-05-27T08:33:05Z</time>
      </trkpt>
      <trkpt lat="43.47087" lon="1.47837">
        <ele>185.89854431</ele>
        <time>2018-05-27T08:33:09Z</time>
      </trkpt>
      <trkpt lat="43.47075" lon="1.47831">
        <ele>188.3588562</ele>
        <time>2018-05-27T08:33:12Z</time>
      </trkpt>
      <trkpt lat="43.47067" lon="1.47829">
        <ele>188.62637329</ele>
        <time>2018-05-27T08:33:13Z</time>
      </trkpt>
      <trkpt lat="43.4706" lon="1.47826">
        <ele>190.49105835</ele>
        <time>2018-05-27T08:33:16Z</time>
      </trkpt>
      <trkpt lat="43.47049" lon="1.47827">
        <ele>191.64978027</ele>
        <time>2018-05-27T08:33:19Z</time>
      </trkpt>
      <trkpt lat="43.47038" lon="1.4783">
        <ele>192.85546875</ele>
        <time>2018-05-27T08:33:22Z</time>
      </trkpt>
      <trkpt lat="43.47027" lon="1.47833">
        <ele>194.07737732</ele>
        <time>2018-05-27T08:33:25Z</time>
      </trkpt>
      <trkpt lat="43.47016" lon="1.47837">
        <ele>195.48643494</ele>
        <time>2018-05-27T08:33:28Z</time>
      </trkpt>
      <trkpt lat="43.47005" lon="1.47836">
        <ele>198.14830017</ele>
        <time>2018-05-27T08:33:32Z</time>
      </trkpt>
      <trkpt lat="43.46993" lon="1.47829">
        <ele>199.51895142</ele>
        <time>2018-05-27T08:33:36Z</time>
      </trkpt>
      <trkpt lat="43.46985" lon="1.47819">
        <ele>200.80957031</ele>
        <time>2018-05-27T08:33:39Z</time>
      </trkpt>
      <trkpt lat="43.46978" lon="1.47809">
        <ele>201.94926453</ele>
        <time>2018-05-27T08:33:42Z</time>
      </trkpt>
      <trkpt lat="43.46971" lon="1.47799">
        <ele>204.35450745</ele>
        <time>2018-05-27T08:33:46Z</time>
      </trkpt>
      <trkpt lat="43.46965" lon="1.47786">
        <ele>204.35450745</ele>
        <time>2018-05-27T08:33:49Z</time>
      </trkpt>
      <trkpt lat="43.46957" lon="1.47777">
        <ele>206.78286743</ele>
        <time>2018-05-27T08:33:53Z</time>
      </trkpt>
      <trkpt lat="43.46945" lon="1.47768">
        <ele>207.93135071</ele>
        <time>2018-05-27T08:33:57Z</time>
      </trkpt>
      <trkpt lat="43.46935" lon="1.47756">
        <ele>209.03240967</ele>
        <time>2018-05-27T08:34:01Z</time>
      </trkpt>
      <trkpt lat="43.46926" lon="1.47746">
        <ele>211.15875244</ele>
        <time>2018-05-27T08:34:06Z</time>
      </trkpt>
      <trkpt lat="43.46915" lon="1.47736">
        <ele>211.15875244</ele>
        <time>2018-05-27T08:34:10Z</time>
      </trkpt>
      <trkpt lat="43.46906" lon="1.47733">
        <ele>212.84233093</ele>
        <time>2018-05-27T08:34:13Z</time>
      </trkpt>
      <trkpt lat="43.46898" lon="1.47741">
        <ele>213.53448486</ele>
        <time>2018-05-27T08:34:17Z</time>
      </trkpt>
      <trkpt lat="43.46886" lon="1.47753">
        <ele>213.53448486</ele>
        <time>2018-05-27T08:34:20Z</time>
      </trkpt>
      <trkpt lat="43.46875" lon="1.47764">
        <ele>213.53448486</ele>
        <time>2018-05-27T08:34:23Z</time>
      </trkpt>
      <trkpt lat="43.46866" lon="1.47775">
        <ele>214.67474365</ele>
        <time>2018-05-27T08:34:26Z</time>
      </trkpt>
      <trkpt lat="43.46856" lon="1.47787">
        <ele>214.67474365</ele>
        <time>2018-05-27T08:34:29Z</time>
      </trkpt>
      <trkpt lat="43.46845" lon="1.47798">
        <ele>214.67474365</ele>
        <time>2018-05-27T08:34:32Z</time>
      </trkpt>
      <trkpt lat="43.46835" lon="1.4781">
        <ele>215.55297852</ele>
        <time>2018-05-27T08:34:35Z</time>
      </trkpt>
      <trkpt lat="43.46824" lon="1.47822">
        <ele>215.55297852</ele>
        <time>2018-05-27T08:34:38Z</time>
      </trkpt>
      <trkpt lat="43.46814" lon="1.47832">
        <ele>215.55297852</ele>
        <time>2018-05-27T08:34:41Z</time>
      </trkpt>
      <trkpt lat="43.46802" lon="1.47842">
        <ele>216.66323853</ele>
        <time>2018-05-27T08:34:45Z</time>
      </trkpt>
      <trkpt lat="43.46792" lon="1.47853">
        <ele>216.66323853</ele>
        <time>2018-05-27T08:34:48Z</time>
      </trkpt>
      <trkpt lat="43.46783" lon="1.47865">
        <ele>216.66323853</ele>
        <time>2018-05-27T08:34:51Z</time>
      </trkpt>
      <trkpt lat="43.46773" lon="1.47878">
        <ele>216.66323853</ele>
        <time>2018-05-27T08:34:54Z</time>
      </trkpt>
      <trkpt lat="43.46766" lon="1.4789">
        <ele>216.66323853</ele>
        <time>2018-05-27T08:34:57Z</time>
      </trkpt>
      <trkpt lat="43.46757" lon="1.47901">
        <ele>217.89239502</ele>
        <time>2018-05-27T08:35:00Z</time>
      </trkpt>
      <trkpt lat="43.46753" lon="1.47914">
        <ele>217.89239502</ele>
        <time>2018-05-27T08:35:02Z</time>
      </trkpt>
      <trkpt lat="43.46759" lon="1.47926">
        <ele>217.89239502</ele>
        <time>2018-05-27T08:35:05Z</time>
      </trkpt>
      <trkpt lat="43.46769" lon="1.47939">
        <ele>217.89239502</ele>
        <time>2018-05-27T08:35:07Z</time>
      </trkpt>
      <trkpt lat="43.46778" lon="1.47948">
        <ele>217.99214172</ele>
        <time>2018-05-27T08:35:09Z</time>
      </trkpt>
      <trkpt lat="43.46788" lon="1.47957">
        <ele>216.16850281</ele>
        <time>2018-05-27T08:35:11Z</time>
      </trkpt>
      <trkpt lat="43.46801" lon="1.47976">
        <ele>214.47755432</ele>
        <time>2018-05-27T08:35:13Z</time>
      </trkpt>
      <trkpt lat="43.46805" lon="1.47986">
        <ele>213.13204956</ele>
        <time>2018-05-27T08:35:14Z</time>
      </trkpt>
      <trkpt lat="43.46808" lon="1.48">
        <ele>211.64814758</ele>
        <time>2018-05-27T08:35:15Z</time>
      </trkpt>
      <trkpt lat="43.4681" lon="1.48012">
        <ele>211.64814758</ele>
        <time>2018-05-27T08:35:16Z</time>
      </trkpt>
      <trkpt lat="43.46812" lon="1.48026">
        <ele>208.75384521</ele>
        <time>2018-05-27T08:35:18Z</time>
      </trkpt>
      <trkpt lat="43.46815" lon="1.48044">
        <ele>206.37937927</ele>
        <time>2018-05-27T08:35:20Z</time>
      </trkpt>
      <trkpt lat="43.46818" lon="1.48059">
        <ele>203.67216492</ele>
        <time>2018-05-27T08:35:22Z</time>
      </trkpt>
      <trkpt lat="43.46829" lon="1.48066">
        <ele>201.1625061</ele>
        <time>2018-05-27T08:35:24Z</time>
      </trkpt>
      <trkpt lat="43.46843" lon="1.48067">
        <ele>199.73416138</ele>
        <time>2018-05-27T08:35:26Z</time>
      </trkpt>
      <trkpt lat="43.46857" lon="1.48055">
        <ele>197.8316803</ele>
        <time>2018-05-27T08:35:28Z</time>
      </trkpt>
      <trkpt lat="43.46869" lon="1.48042">
        <ele>194.83695984</ele>
        <time>2018-05-27T08:35:30Z</time>
      </trkpt>
      <trkpt lat="43.46882" lon="1.4804">
        <ele>192.2008667</ele>
        <time>2018-05-27T08:35:32Z</time>
      </trkpt>
      <trkpt lat="43.46899" lon="1.48044">
        <ele>189.77079773</ele>
        <time>2018-05-27T08:35:34Z</time>
      </trkpt>
      <trkpt lat="43.46913" lon="1.48053">
        <ele>187.62184143</ele>
        <time>2018-05-27T08:35:36Z</time>
      </trkpt>
      <trkpt lat="43.46917" lon="1.48067">
        <ele>187.62184143</ele>
        <time>2018-05-27T08:35:37Z</time>
      </trkpt>
      <trkpt lat="43.46916" lon="1.48077">
        <ele>186.37298584</ele>
        <time>2018-05-27T08:35:39Z</time>
      </trkpt>
      <trkpt lat="43.46915" lon="1.48093">
        <ele>183.05661011</ele>
        <time>2018-05-27T08:35:41Z</time>
      </trkpt>
      <trkpt lat="43.46909" lon="1.48114">
        <ele>180.80058289</ele>
        <time>2018-05-27T08:35:43Z</time>
      </trkpt>
      <trkpt lat="43.46907" lon="1.48131">
        <ele>179.64282227</ele>
        <time>2018-05-27T08:35:44Z</time>
      </trkpt>
      <trkpt lat="43.46907" lon="1.48143">
        <ele>178.37623596</ele>
        <time>2018-05-27T08:35:45Z</time>
      </trkpt>
      <trkpt lat="43.4691" lon="1.48154">
        <ele>177.23562622</ele>
        <time>2018-05-27T08:35:46Z</time>
      </trkpt>
      <trkpt lat="43.46914" lon="1.48166">
        <ele>176.19026184</ele>
        <time>2018-05-27T08:35:47Z</time>
      </trkpt>
      <trkpt lat="43.46918" lon="1.48177">
        <ele>176.19026184</ele>
        <time>2018-05-27T08:35:48Z</time>
      </trkpt>
      <trkpt lat="43.46922" lon="1.48187">
        <ele>175.02510071</ele>
        <time>2018-05-27T08:35:50Z</time>
      </trkpt>
      <trkpt lat="43.46928" lon="1.48188">
        <ele>172.87020874</ele>
        <time>2018-05-27T08:36:07Z</time>
      </trkpt>
      <trkpt lat="43.4694" lon="1.48176">
        <ele>172.87020874</ele>
        <time>2018-05-27T08:36:12Z</time>
      </trkpt>
      <trkpt lat="43.46948" lon="1.4817">
        <ele>172.11605835</ele>
        <time>2018-05-27T08:36:13Z</time>
      </trkpt>
      <trkpt lat="43.46956" lon="1.48164">
        <ele>172.11605835</ele>
        <time>2018-05-27T08:36:17Z</time>
      </trkpt>
      <trkpt lat="43.46968" lon="1.48154">
        <ele>172.11605835</ele>
        <time>2018-05-27T08:36:21Z</time>
      </trkpt>
      <trkpt lat="43.4698" lon="1.48144">
        <ele>172.11605835</ele>
        <time>2018-05-27T08:36:24Z</time>
      </trkpt>
      <trkpt lat="43.46991" lon="1.48135">
        <ele>172.11605835</ele>
        <time>2018-05-27T08:36:29Z</time>
      </trkpt>
      <trkpt lat="43.47004" lon="1.48123">
        <ele>172.11605835</ele>
        <time>2018-05-27T08:36:32Z</time>
      </trkpt>
      <trkpt lat="43.47016" lon="1.48114">
        <ele>172.11605835</ele>
        <time>2018-05-27T08:36:35Z</time>
      </trkpt>
      <trkpt lat="43.47026" lon="1.48106">
        <ele>172.11605835</ele>
        <time>2018-05-27T08:36:38Z</time>
      </trkpt>
      <trkpt lat="43.47038" lon="1.48096">
        <ele>171.01811218</ele>
        <time>2018-05-27T08:36:41Z</time>
      </trkpt>
      <trkpt lat="43.47051" lon="1.48088">
        <ele>171.01811218</ele>
        <time>2018-05-27T08:36:44Z</time>
      </trkpt>
      <trkpt lat="43.47064" lon="1.48081">
        <ele>171.01811218</ele>
        <time>2018-05-27T08:36:46Z</time>
      </trkpt>
      <trkpt lat="43.47075" lon="1.48077">
        <ele>170.0566864</ele>
        <time>2018-05-27T08:36:48Z</time>
      </trkpt>
      <trkpt lat="43.47087" lon="1.48073">
        <ele>170.0566864</ele>
        <time>2018-05-27T08:36:50Z</time>
      </trkpt>
      <trkpt lat="43.47099" lon="1.48068">
        <ele>170.0566864</ele>
        <time>2018-05-27T08:36:52Z</time>
      </trkpt>
      <trkpt lat="43.47112" lon="1.48062">
        <ele>168.90582275</ele>
        <time>2018-05-27T08:36:54Z</time>
      </trkpt>
      <trkpt lat="43.47124" lon="1.48053">
        <ele>167.82284546</ele>
        <time>2018-05-27T08:36:57Z</time>
      </trkpt>
      <trkpt lat="43.47138" lon="1.48042">
        <ele>167.82284546</ele>
        <time>2018-05-27T08:36:59Z</time>
      </trkpt>
      <trkpt lat="43.47149" lon="1.48032">
        <ele>167.82284546</ele>
        <time>2018-05-27T08:37:01Z</time>
      </trkpt>
      <trkpt lat="43.47159" lon="1.48018">
        <ele>167.82284546</ele>
        <time>2018-05-27T08:37:03Z</time>
      </trkpt>
      <trkpt lat="43.4717" lon="1.48008">
        <ele>167.82284546</ele>
        <time>2018-05-27T08:37:05Z</time>
      </trkpt>
      <trkpt lat="43.47178" lon="1.47998">
        <ele>167.82284546</ele>
        <time>2018-05-27T08:37:07Z</time>
      </trkpt>
      <trkpt lat="43.47187" lon="1.47987">
        <ele>167.82284546</ele>
        <time>2018-05-27T08:37:09Z</time>
      </trkpt>
      <trkpt lat="43.47195" lon="1.47977">
        <ele>167.82284546</ele>
        <time>2018-05-27T08:37:12Z</time>
      </trkpt>
      <trkpt lat="43.47202" lon="1.4797">
        <ele>167.17015076</ele>
        <time>2018-05-27T08:37:13Z</time>
      </trkpt>
      <trkpt lat="43.47208" lon="1.47963">
        <ele>167.17015076</ele>
        <time>2018-05-27T08:37:16Z</time>
      </trkpt>
      <trkpt lat="43.47217" lon="1.47953">
        <ele>167.17015076</ele>
        <time>2018-05-27T08:37:19Z</time>
      </trkpt>
      <trkpt lat="43.47226" lon="1.47942">
        <ele>167.17015076</ele>
        <time>2018-05-27T08:37:24Z</time>
      </trkpt>
      <trkpt lat="43.4724" lon="1.47941">
        <ele>167.17015076</ele>
        <time>2018-05-27T08:37:27Z</time>
      </trkpt>
      <trkpt lat="43.47253" lon="1.47952">
        <ele>167.23951721</ele>
        <time>2018-05-27T08:37:29Z</time>
      </trkpt>
      <trkpt lat="43.47263" lon="1.47962">
        <ele>167.23951721</ele>
        <time>2018-05-27T08:37:31Z</time>
      </trkpt>
      <trkpt lat="43.47274" lon="1.47971">
        <ele>167.23951721</ele>
        <time>2018-05-27T08:37:33Z</time>
      </trkpt>
      <trkpt lat="43.47284" lon="1.47981">
        <ele>167.23951721</ele>
        <time>2018-05-27T08:37:36Z</time>
      </trkpt>
      <trkpt lat="43.47295" lon="1.47992">
        <ele>167.23951721</ele>
        <time>2018-05-27T08:37:39Z</time>
      </trkpt>
      <trkpt lat="43.47305" lon="1.48002">
        <ele>166.09597778</ele>
        <time>2018-05-27T08:37:42Z</time>
      </trkpt>
      <trkpt lat="43.47316" lon="1.48011">
        <ele>168.07962036</ele>
        <time>2018-05-27T08:37:46Z</time>
      </trkpt>
      <trkpt lat="43.47327" lon="1.48019">
        <ele>168.07962036</ele>
        <time>2018-05-27T08:37:49Z</time>
      </trkpt>
      <trkpt lat="43.47341" lon="1.4803">
        <ele>168.13885498</ele>
        <time>2018-05-27T08:37:52Z</time>
      </trkpt>
      <trkpt lat="43.47353" lon="1.48043">
        <ele>168.13885498</ele>
        <time>2018-05-27T08:37:55Z</time>
      </trkpt>
      <trkpt lat="43.47363" lon="1.48047">
        <ele>166.48304749</ele>
        <time>2018-05-27T08:37:59Z</time>
      </trkpt>
      <trkpt lat="43.4737" lon="1.48029">
        <ele>166.48304749</ele>
        <time>2018-05-27T08:38:01Z</time>
      </trkpt>
      <trkpt lat="43.47372" lon="1.48012">
        <ele>166.48304749</ele>
        <time>2018-05-27T08:38:03Z</time>
      </trkpt>
      <trkpt lat="43.47375" lon="1.47995">
        <ele>166.48304749</ele>
        <time>2018-05-27T08:38:05Z</time>
      </trkpt>
      <trkpt lat="43.47377" lon="1.47977">
        <ele>166.48304749</ele>
        <time>2018-05-27T08:38:07Z</time>
      </trkpt>
      <trkpt lat="43.4738" lon="1.47958">
        <ele>166.48304749</ele>
        <time>2018-05-27T08:38:09Z</time>
      </trkpt>
      <trkpt lat="43.47384" lon="1.4794">
        <ele>165.5736084</ele>
        <time>2018-05-27T08:38:11Z</time>
      </trkpt>
      <trkpt lat="43.47387" lon="1.47917">
        <ele>164.94085693</ele>
        <time>2018-05-27T08:38:13Z</time>
      </trkpt>
      <trkpt lat="43.47389" lon="1.47903">
        <ele>164.94085693</ele>
        <time>2018-05-27T08:38:15Z</time>
      </trkpt>
      <trkpt lat="43.47393" lon="1.47885">
        <ele>164.94085693</ele>
        <time>2018-05-27T08:38:17Z</time>
      </trkpt>
      <trkpt lat="43.47398" lon="1.47867">
        <ele>164.94085693</ele>
        <time>2018-05-27T08:38:19Z</time>
      </trkpt>
      <trkpt lat="43.47403" lon="1.47849">
        <ele>164.32499695</ele>
        <time>2018-05-27T08:38:21Z</time>
      </trkpt>
      <trkpt lat="43.47408" lon="1.47832">
        <ele>164.32499695</ele>
        <time>2018-05-27T08:38:23Z</time>
      </trkpt>
      <trkpt lat="43.47412" lon="1.47813">
        <ele>164.32499695</ele>
        <time>2018-05-27T08:38:25Z</time>
      </trkpt>
      <trkpt lat="43.47417" lon="1.47795">
        <ele>164.32499695</ele>
        <time>2018-05-27T08:38:27Z</time>
      </trkpt>
      <trkpt lat="43.47424" lon="1.47777">
        <ele>164.32499695</ele>
        <time>2018-05-27T08:38:29Z</time>
      </trkpt>
      <trkpt lat="43.4743" lon="1.47761">
        <ele>164.32499695</ele>
        <time>2018-05-27T08:38:31Z</time>
      </trkpt>
      <trkpt lat="43.47436" lon="1.47746">
        <ele>164.32499695</ele>
        <time>2018-05-27T08:38:33Z</time>
      </trkpt>
      <trkpt lat="43.47442" lon="1.47732">
        <ele>164.32499695</ele>
        <time>2018-05-27T08:38:35Z</time>
      </trkpt>
      <trkpt lat="43.47449" lon="1.47718">
        <ele>164.32499695</ele>
        <time>2018-05-27T08:38:37Z</time>
      </trkpt>
      <trkpt lat="43.47456" lon="1.47703">
        <ele>164.32499695</ele>
        <time>2018-05-27T08:38:39Z</time>
      </trkpt>
      <trkpt lat="43.47463" lon="1.47686">
        <ele>164.32499695</ele>
        <time>2018-05-27T08:38:41Z</time>
      </trkpt>
      <trkpt lat="43.4747" lon="1.47671">
        <ele>164.32499695</ele>
        <time>2018-05-27T08:38:43Z</time>
      </trkpt>
      <trkpt lat="43.47477" lon="1.47656">
        <ele>164.32499695</ele>
        <time>2018-05-27T08:38:45Z</time>
      </trkpt>
      <trkpt lat="43.47484" lon="1.47641">
        <ele>163.35627747</ele>
        <time>2018-05-27T08:38:47Z</time>
      </trkpt>
      <trkpt lat="43.47491" lon="1.47625">
        <ele>163.35627747</ele>
        <time>2018-05-27T08:38:49Z</time>
      </trkpt>
      <trkpt lat="43.47497" lon="1.47609">
        <ele>163.35627747</ele>
        <time>2018-05-27T08:38:51Z</time>
      </trkpt>
      <trkpt lat="43.47505" lon="1.47592">
        <ele>163.35627747</ele>
        <time>2018-05-27T08:38:53Z</time>
      </trkpt>
      <trkpt lat="43.47512" lon="1.47574">
        <ele>163.35627747</ele>
        <time>2018-05-27T08:38:55Z</time>
      </trkpt>
      <trkpt lat="43.47519" lon="1.47559">
        <ele>163.35627747</ele>
        <time>2018-05-27T08:38:57Z</time>
      </trkpt>
      <trkpt lat="43.47525" lon="1.47546">
        <ele>163.35627747</ele>
        <time>2018-05-27T08:38:59Z</time>
      </trkpt>
      <trkpt lat="43.47532" lon="1.47532">
        <ele>163.35627747</ele>
        <time>2018-05-27T08:39:01Z</time>
      </trkpt>
      <trkpt lat="43.47538" lon="1.47516">
        <ele>163.35627747</ele>
        <time>2018-05-27T08:39:03Z</time>
      </trkpt>
      <trkpt lat="43.47546" lon="1.475">
        <ele>163.35627747</ele>
        <time>2018-05-27T08:39:05Z</time>
      </trkpt>
      <trkpt lat="43.47553" lon="1.47483">
        <ele>163.35627747</ele>
        <time>2018-05-27T08:39:07Z</time>
      </trkpt>
      <trkpt lat="43.4756" lon="1.47467">
        <ele>163.35627747</ele>
        <time>2018-05-27T08:39:09Z</time>
      </trkpt>
      <trkpt lat="43.47567" lon="1.4745">
        <ele>163.35627747</ele>
        <time>2018-05-27T08:39:11Z</time>
      </trkpt>
      <trkpt lat="43.47577" lon="1.47431">
        <ele>162.61538696</ele>
        <time>2018-05-27T08:39:13Z</time>
      </trkpt>
      <trkpt lat="43.47584" lon="1.4742">
        <ele>162.61538696</ele>
        <time>2018-05-27T08:39:15Z</time>
      </trkpt>
      <trkpt lat="43.47593" lon="1.47404">
        <ele>162.61538696</ele>
        <time>2018-05-27T08:39:17Z</time>
      </trkpt>
      <trkpt lat="43.47603" lon="1.47389">
        <ele>162.61538696</ele>
        <time>2018-05-27T08:39:19Z</time>
      </trkpt>
      <trkpt lat="43.47613" lon="1.47373">
        <ele>162.61538696</ele>
        <time>2018-05-27T08:39:21Z</time>
      </trkpt>
      <trkpt lat="43.47623" lon="1.47359">
        <ele>162.61538696</ele>
        <time>2018-05-27T08:39:23Z</time>
      </trkpt>
      <trkpt lat="43.47632" lon="1.47345">
        <ele>162.61538696</ele>
        <time>2018-05-27T08:39:25Z</time>
      </trkpt>
      <trkpt lat="43.4764" lon="1.47332">
        <ele>162.61538696</ele>
        <time>2018-05-27T08:39:27Z</time>
      </trkpt>
      <trkpt lat="43.47649" lon="1.4732">
        <ele>162.61538696</ele>
        <time>2018-05-27T08:39:29Z</time>
      </trkpt>
      <trkpt lat="43.47657" lon="1.47306">
        <ele>162.61538696</ele>
        <time>2018-05-27T08:39:31Z</time>
      </trkpt>
      <trkpt lat="43.47666" lon="1.47292">
        <ele>162.61538696</ele>
        <time>2018-05-27T08:39:33Z</time>
      </trkpt>
      <trkpt lat="43.47673" lon="1.47277">
        <ele>162.61538696</ele>
        <time>2018-05-27T08:39:35Z</time>
      </trkpt>
      <trkpt lat="43.47681" lon="1.47264">
        <ele>162.61538696</ele>
        <time>2018-05-27T08:39:37Z</time>
      </trkpt>
      <trkpt lat="43.47688" lon="1.4725">
        <ele>162.61538696</ele>
        <time>2018-05-27T08:39:39Z</time>
      </trkpt>
      <trkpt lat="43.47696" lon="1.47237">
        <ele>161.55480957</ele>
        <time>2018-05-27T08:39:41Z</time>
      </trkpt>
      <trkpt lat="43.47702" lon="1.47225">
        <ele>161.55480957</ele>
        <time>2018-05-27T08:39:43Z</time>
      </trkpt>
      <trkpt lat="43.47709" lon="1.4721">
        <ele>161.55480957</ele>
        <time>2018-05-27T08:39:45Z</time>
      </trkpt>
      <trkpt lat="43.47716" lon="1.47196">
        <ele>161.55480957</ele>
        <time>2018-05-27T08:39:47Z</time>
      </trkpt>
      <trkpt lat="43.47723" lon="1.47183">
        <ele>161.55480957</ele>
        <time>2018-05-27T08:39:49Z</time>
      </trkpt>
      <trkpt lat="43.4773" lon="1.4717">
        <ele>160.67033386</ele>
        <time>2018-05-27T08:39:51Z</time>
      </trkpt>
      <trkpt lat="43.47742" lon="1.47168">
        <ele>160.67033386</ele>
        <time>2018-05-27T08:39:53Z</time>
      </trkpt>
      <trkpt lat="43.47752" lon="1.47178">
        <ele>160.67033386</ele>
        <time>2018-05-27T08:39:55Z</time>
      </trkpt>
      <trkpt lat="43.47758" lon="1.47191">
        <ele>160.67033386</ele>
        <time>2018-05-27T08:39:57Z</time>
      </trkpt>
      <trkpt lat="43.47767" lon="1.47198">
        <ele>160.67033386</ele>
        <time>2018-05-27T08:40:00Z</time>
      </trkpt>
      <trkpt lat="43.47773" lon="1.4719">
        <ele>160.67033386</ele>
        <time>2018-05-27T08:40:02Z</time>
      </trkpt>
      <trkpt lat="43.47776" lon="1.47178">
        <ele>160.67033386</ele>
        <time>2018-05-27T08:40:04Z</time>
      </trkpt>
      <trkpt lat="43.4778" lon="1.47167">
        <ele>160.67033386</ele>
        <time>2018-05-27T08:40:06Z</time>
      </trkpt>
      <trkpt lat="43.47786" lon="1.47156">
        <ele>160.67033386</ele>
        <time>2018-05-27T08:40:08Z</time>
      </trkpt>
      <trkpt lat="43.47793" lon="1.47144">
        <ele>160.67033386</ele>
        <time>2018-05-27T08:40:10Z</time>
      </trkpt>
      <trkpt lat="43.47799" lon="1.47131">
        <ele>160.67033386</ele>
        <time>2018-05-27T08:40:12Z</time>
      </trkpt>
      <trkpt lat="43.47804" lon="1.47122">
        <ele>160.22018433</ele>
        <time>2018-05-27T08:40:13Z</time>
      </trkpt>
      <trkpt lat="43.47809" lon="1.47113">
        <ele>160.22018433</ele>
        <time>2018-05-27T08:40:15Z</time>
      </trkpt>
      <trkpt lat="43.47815" lon="1.471">
        <ele>160.22018433</ele>
        <time>2018-05-27T08:40:18Z</time>
      </trkpt>
      <trkpt lat="43.47822" lon="1.47087">
        <ele>160.22018433</ele>
        <time>2018-05-27T08:40:20Z</time>
      </trkpt>
      <trkpt lat="43.47827" lon="1.47076">
        <ele>160.22018433</ele>
        <time>2018-05-27T08:40:22Z</time>
      </trkpt>
      <trkpt lat="43.47832" lon="1.47065">
        <ele>160.22018433</ele>
        <time>2018-05-27T08:40:24Z</time>
      </trkpt>
      <trkpt lat="43.47838" lon="1.47054">
        <ele>160.22018433</ele>
        <time>2018-05-27T08:40:26Z</time>
      </trkpt>
      <trkpt lat="43.47844" lon="1.47041">
        <ele>160.22018433</ele>
        <time>2018-05-27T08:40:28Z</time>
      </trkpt>
      <trkpt lat="43.4785" lon="1.47027">
        <ele>160.22018433</ele>
        <time>2018-05-27T08:40:30Z</time>
      </trkpt>
      <trkpt lat="43.47857" lon="1.47015">
        <ele>160.22018433</ele>
        <time>2018-05-27T08:40:32Z</time>
      </trkpt>
      <trkpt lat="43.47864" lon="1.47003">
        <ele>160.22018433</ele>
        <time>2018-05-27T08:40:34Z</time>
      </trkpt>
      <trkpt lat="43.47871" lon="1.4699">
        <ele>160.22018433</ele>
        <time>2018-05-27T08:40:36Z</time>
      </trkpt>
      <trkpt lat="43.47877" lon="1.46978">
        <ele>160.22018433</ele>
        <time>2018-05-27T08:40:38Z</time>
      </trkpt>
      <trkpt lat="43.47887" lon="1.46969">
        <ele>158.92869568</ele>
        <time>2018-05-27T08:40:41Z</time>
      </trkpt>
      <trkpt lat="43.47901" lon="1.46959">
        <ele>158.92869568</ele>
        <time>2018-05-27T08:40:44Z</time>
      </trkpt>
      <trkpt lat="43.47913" lon="1.46946">
        <ele>158.92869568</ele>
        <time>2018-05-27T08:40:46Z</time>
      </trkpt>
      <trkpt lat="43.47925" lon="1.46934">
        <ele>158.92869568</ele>
        <time>2018-05-27T08:40:49Z</time>
      </trkpt>
      <trkpt lat="43.47938" lon="1.46922">
        <ele>158.92869568</ele>
        <time>2018-05-27T08:40:51Z</time>
      </trkpt>
      <trkpt lat="43.47946" lon="1.46912">
        <ele>158.92869568</ele>
        <time>2018-05-27T08:40:53Z</time>
      </trkpt>
      <trkpt lat="43.47956" lon="1.46899">
        <ele>158.92869568</ele>
        <time>2018-05-27T08:40:56Z</time>
      </trkpt>
      <trkpt lat="43.47966" lon="1.46885">
        <ele>158.92869568</ele>
        <time>2018-05-27T08:40:58Z</time>
      </trkpt>
      <trkpt lat="43.47976" lon="1.46874">
        <ele>158.92869568</ele>
        <time>2018-05-27T08:41:00Z</time>
      </trkpt>
      <trkpt lat="43.47988" lon="1.46863">
        <ele>158.92869568</ele>
        <time>2018-05-27T08:41:03Z</time>
      </trkpt>
      <trkpt lat="43.48002" lon="1.46857">
        <ele>158.92869568</ele>
        <time>2018-05-27T08:41:06Z</time>
      </trkpt>
      <trkpt lat="43.48014" lon="1.46852">
        <ele>157.59623718</ele>
        <time>2018-05-27T08:41:08Z</time>
      </trkpt>
      <trkpt lat="43.48025" lon="1.46847">
        <ele>157.59623718</ele>
        <time>2018-05-27T08:41:10Z</time>
      </trkpt>
      <trkpt lat="43.48038" lon="1.46842">
        <ele>157.59623718</ele>
        <time>2018-05-27T08:41:12Z</time>
      </trkpt>
      <trkpt lat="43.48048" lon="1.46837">
        <ele>157.04693604</ele>
        <time>2018-05-27T08:41:13Z</time>
      </trkpt>
      <trkpt lat="43.48058" lon="1.46832">
        <ele>157.04693604</ele>
        <time>2018-05-27T08:41:15Z</time>
      </trkpt>
      <trkpt lat="43.48069" lon="1.46821">
        <ele>157.04693604</ele>
        <time>2018-05-27T08:41:17Z</time>
      </trkpt>
      <trkpt lat="43.48078" lon="1.46806">
        <ele>157.04693604</ele>
        <time>2018-05-27T08:41:19Z</time>
      </trkpt>
      <trkpt lat="43.48084" lon="1.46791">
        <ele>157.04693604</ele>
        <time>2018-05-27T08:41:21Z</time>
      </trkpt>
      <trkpt lat="43.4809" lon="1.46779">
        <ele>157.04693604</ele>
        <time>2018-05-27T08:41:24Z</time>
      </trkpt>
      <trkpt lat="43.48097" lon="1.46767">
        <ele>157.04693604</ele>
        <time>2018-05-27T08:41:28Z</time>
      </trkpt>
      <trkpt lat="43.48102" lon="1.46754">
        <ele>157.04693604</ele>
        <time>2018-05-27T08:41:31Z</time>
      </trkpt>
      <trkpt lat="43.48109" lon="1.46741">
        <ele>157.04693604</ele>
        <time>2018-05-27T08:41:34Z</time>
      </trkpt>
      <trkpt lat="43.48116" lon="1.46729">
        <ele>157.04693604</ele>
        <time>2018-05-27T08:41:38Z</time>
      </trkpt>
      <trkpt lat="43.48128" lon="1.46722">
        <ele>157.50524902</ele>
        <time>2018-05-27T08:43:21Z</time>
      </trkpt>
      <trkpt lat="43.48137" lon="1.46725">
        <ele>157.50524902</ele>
        <time>2018-05-27T08:43:25Z</time>
      </trkpt>
      <trkpt lat="43.4815" lon="1.4673">
        <ele>157.50524902</ele>
        <time>2018-05-27T08:43:29Z</time>
      </trkpt>
      <trkpt lat="43.48163" lon="1.46725">
        <ele>157.50524902</ele>
        <time>2018-05-27T08:43:32Z</time>
      </trkpt>
      <trkpt lat="43.48174" lon="1.46725">
        <ele>157.50524902</ele>
        <time>2018-05-27T08:43:37Z</time>
      </trkpt>
      <trkpt lat="43.48185" lon="1.46722">
        <ele>157.50524902</ele>
        <time>2018-05-27T08:43:41Z</time>
      </trkpt>
      <trkpt lat="43.48197" lon="1.46716">
        <ele>158.00170898</ele>
        <time>2018-05-27T08:43:44Z</time>
      </trkpt>
      <trkpt lat="43.48211" lon="1.46703">
        <ele>158.00170898</ele>
        <time>2018-05-27T08:43:46Z</time>
      </trkpt>
      <trkpt lat="43.48227" lon="1.46692">
        <ele>158.00170898</ele>
        <time>2018-05-27T08:43:48Z</time>
      </trkpt>
      <trkpt lat="43.4824" lon="1.46676">
        <ele>158.00170898</ele>
        <time>2018-05-27T08:43:50Z</time>
      </trkpt>
      <trkpt lat="43.48251" lon="1.46665">
        <ele>158.00170898</ele>
        <time>2018-05-27T08:43:52Z</time>
      </trkpt>
      <trkpt lat="43.48264" lon="1.46656">
        <ele>159.27020264</ele>
        <time>2018-05-27T08:43:55Z</time>
      </trkpt>
      <trkpt lat="43.48278" lon="1.46645">
        <ele>159.27020264</ele>
        <time>2018-05-27T08:43:58Z</time>
      </trkpt>
      <trkpt lat="43.48291" lon="1.46642">
        <ele>160.50508118</ele>
        <time>2018-05-27T08:44:00Z</time>
      </trkpt>
      <trkpt lat="43.48301" lon="1.46638">
        <ele>160.50508118</ele>
        <time>2018-05-27T08:44:02Z</time>
      </trkpt>
      <trkpt lat="43.48311" lon="1.46634">
        <ele>161.58634949</ele>
        <time>2018-05-27T08:44:05Z</time>
      </trkpt>
      <trkpt lat="43.48322" lon="1.46634">
        <ele>161.58634949</ele>
        <time>2018-05-27T08:44:08Z</time>
      </trkpt>
      <trkpt lat="43.48334" lon="1.46634">
        <ele>162.57978821</ele>
        <time>2018-05-27T08:44:11Z</time>
      </trkpt>
      <trkpt lat="43.48343" lon="1.46635">
        <ele>163.58584595</ele>
        <time>2018-05-27T08:44:13Z</time>
      </trkpt>
      <trkpt lat="43.48354" lon="1.46632">
        <ele>164.71456909</ele>
        <time>2018-05-27T08:44:16Z</time>
      </trkpt>
      <trkpt lat="43.48366" lon="1.46634">
        <ele>166.0411377</ele>
        <time>2018-05-27T08:44:20Z</time>
      </trkpt>
      <trkpt lat="43.48378" lon="1.46643">
        <ele>167.4349823</ele>
        <time>2018-05-27T08:44:24Z</time>
      </trkpt>
      <trkpt lat="43.48389" lon="1.46653">
        <ele>170.01571655</ele>
        <time>2018-05-27T08:44:28Z</time>
      </trkpt>
      <trkpt lat="43.48401" lon="1.46666">
        <ele>171.39117432</ele>
        <time>2018-05-27T08:44:31Z</time>
      </trkpt>
      <trkpt lat="43.48409" lon="1.46673">
        <ele>172.59605408</ele>
        <time>2018-05-27T08:44:34Z</time>
      </trkpt>
      <trkpt lat="43.4842" lon="1.46677">
        <ele>173.75814819</ele>
        <time>2018-05-27T08:44:37Z</time>
      </trkpt>
      <trkpt lat="43.4843" lon="1.46683">
        <ele>174.96821594</ele>
        <time>2018-05-27T08:44:41Z</time>
      </trkpt>
      <trkpt lat="43.48442" lon="1.46692">
        <ele>176.08799744</ele>
        <time>2018-05-27T08:44:45Z</time>
      </trkpt>
      <trkpt lat="43.4845" lon="1.46702">
        <ele>177.38838196</ele>
        <time>2018-05-27T08:44:48Z</time>
      </trkpt>
      <trkpt lat="43.48454" lon="1.46713">
        <ele>178.49047852</ele>
        <time>2018-05-27T08:44:51Z</time>
      </trkpt>
      <trkpt lat="43.48457" lon="1.46724">
        <ele>179.55551147</ele>
        <time>2018-05-27T08:44:53Z</time>
      </trkpt>
      <trkpt lat="43.4846" lon="1.46734">
        <ele>179.55551147</ele>
        <time>2018-05-27T08:44:56Z</time>
      </trkpt>
      <trkpt lat="43.48462" lon="1.46745">
        <ele>180.65553284</ele>
        <time>2018-05-27T08:44:58Z</time>
      </trkpt>
      <trkpt lat="43.48462" lon="1.46755">
        <ele>180.65553284</ele>
        <time>2018-05-27T08:45:01Z</time>
      </trkpt>
      <trkpt lat="43.48465" lon="1.46768">
        <ele>180.65553284</ele>
        <time>2018-05-27T08:45:04Z</time>
      </trkpt>
      <trkpt lat="43.4847" lon="1.46782">
        <ele>180.65553284</ele>
        <time>2018-05-27T08:45:06Z</time>
      </trkpt>
      <trkpt lat="43.48475" lon="1.46796">
        <ele>180.65553284</ele>
        <time>2018-05-27T08:45:08Z</time>
      </trkpt>
      <trkpt lat="43.4849" lon="1.468">
        <ele>181.59980774</ele>
        <time>2018-05-27T08:45:13Z</time>
      </trkpt>
      <trkpt lat="43.48498" lon="1.46802">
        <ele>181.59980774</ele>
        <time>2018-05-27T08:45:16Z</time>
      </trkpt>
      <trkpt lat="43.48511" lon="1.46806">
        <ele>181.59980774</ele>
        <time>2018-05-27T08:45:19Z</time>
      </trkpt>
      <trkpt lat="43.48521" lon="1.46811">
        <ele>182.28723145</ele>
        <time>2018-05-27T08:45:22Z</time>
      </trkpt>
      <trkpt lat="43.48531" lon="1.46816">
        <ele>183.61889648</ele>
        <time>2018-05-27T08:45:26Z</time>
      </trkpt>
      <trkpt lat="43.48543" lon="1.46822">
        <ele>184.76994324</ele>
        <time>2018-05-27T08:45:31Z</time>
      </trkpt>
      <trkpt lat="43.48554" lon="1.46831">
        <ele>187.06877136</ele>
        <time>2018-05-27T08:45:36Z</time>
      </trkpt>
      <trkpt lat="43.48565" lon="1.4684">
        <ele>188.11631775</ele>
        <time>2018-05-27T08:45:41Z</time>
      </trkpt>
      <trkpt lat="43.48575" lon="1.46851">
        <ele>188.11631775</ele>
        <time>2018-05-27T08:45:46Z</time>
      </trkpt>
      <trkpt lat="43.48583" lon="1.46867">
        <ele>188.11631775</ele>
        <time>2018-05-27T08:45:49Z</time>
      </trkpt>
      <trkpt lat="43.48591" lon="1.46881">
        <ele>188.76245117</ele>
        <time>2018-05-27T08:45:52Z</time>
      </trkpt>
      <trkpt lat="43.48599" lon="1.46897">
        <ele>186.64404297</ele>
        <time>2018-05-27T08:45:54Z</time>
      </trkpt>
      <trkpt lat="43.48608" lon="1.46914">
        <ele>185.1703186</ele>
        <time>2018-05-27T08:45:56Z</time>
      </trkpt>
      <trkpt lat="43.48618" lon="1.46933">
        <ele>183.48828125</ele>
        <time>2018-05-27T08:45:58Z</time>
      </trkpt>
      <trkpt lat="43.48624" lon="1.46949">
        <ele>183.48828125</ele>
        <time>2018-05-27T08:45:59Z</time>
      </trkpt>
      <trkpt lat="43.48628" lon="1.4696">
        <ele>182.15956116</ele>
        <time>2018-05-27T08:46:00Z</time>
      </trkpt>
      <trkpt lat="43.48636" lon="1.46974">
        <ele>182.15956116</ele>
        <time>2018-05-27T08:46:02Z</time>
      </trkpt>
      <trkpt lat="43.48645" lon="1.46991">
        <ele>182.15956116</ele>
        <time>2018-05-27T08:46:04Z</time>
      </trkpt>
      <trkpt lat="43.48653" lon="1.47003">
        <ele>182.15956116</ele>
        <time>2018-05-27T08:46:06Z</time>
      </trkpt>
      <trkpt lat="43.4866" lon="1.47016">
        <ele>182.14581299</ele>
        <time>2018-05-27T08:46:09Z</time>
      </trkpt>
      <trkpt lat="43.48669" lon="1.47029">
        <ele>182.14581299</ele>
        <time>2018-05-27T08:46:12Z</time>
      </trkpt>
      <trkpt lat="43.48677" lon="1.47037">
        <ele>183.55249023</ele>
        <time>2018-05-27T08:46:13Z</time>
      </trkpt>
      <trkpt lat="43.48684" lon="1.47043">
        <ele>184.56495667</ele>
        <time>2018-05-27T08:46:16Z</time>
      </trkpt>
      <trkpt lat="43.48696" lon="1.47051">
        <ele>185.9839325</ele>
        <time>2018-05-27T08:46:19Z</time>
      </trkpt>
      <trkpt lat="43.48706" lon="1.47061">
        <ele>187.27508545</ele>
        <time>2018-05-27T08:46:22Z</time>
      </trkpt>
      <trkpt lat="43.48718" lon="1.47071">
        <ele>189.78616333</ele>
        <time>2018-05-27T08:46:26Z</time>
      </trkpt>
      <trkpt lat="43.48729" lon="1.4708">
        <ele>190.97201538</ele>
        <time>2018-05-27T08:46:30Z</time>
      </trkpt>
      <trkpt lat="43.48742" lon="1.47091">
        <ele>193.73313904</ele>
        <time>2018-05-27T08:46:34Z</time>
      </trkpt>
      <trkpt lat="43.48754" lon="1.47101">
        <ele>195.15837097</ele>
        <time>2018-05-27T08:46:38Z</time>
      </trkpt>
      <trkpt lat="43.48765" lon="1.47109">
        <ele>196.41145325</ele>
        <time>2018-05-27T08:46:41Z</time>
      </trkpt>
      <trkpt lat="43.48775" lon="1.47117">
        <ele>198.78543091</ele>
        <time>2018-05-27T08:46:45Z</time>
      </trkpt>
      <trkpt lat="43.48784" lon="1.47128">
        <ele>199.90969849</ele>
        <time>2018-05-27T08:46:48Z</time>
      </trkpt>
      <trkpt lat="43.48792" lon="1.47138">
        <ele>201.3321991</ele>
        <time>2018-05-27T08:46:51Z</time>
      </trkpt>
      <trkpt lat="43.48798" lon="1.47149">
        <ele>202.78923035</ele>
        <time>2018-05-27T08:46:54Z</time>
      </trkpt>
      <trkpt lat="43.48806" lon="1.4716">
        <ele>205.09518433</ele>
        <time>2018-05-27T08:46:58Z</time>
      </trkpt>
      <trkpt lat="43.48816" lon="1.4717">
        <ele>206.33340454</ele>
        <time>2018-05-27T08:47:02Z</time>
      </trkpt>
      <trkpt lat="43.48827" lon="1.4718">
        <ele>207.63400269</ele>
        <time>2018-05-27T08:47:06Z</time>
      </trkpt>
      <trkpt lat="43.4884" lon="1.47189">
        <ele>209.86595154</ele>
        <time>2018-05-27T08:47:10Z</time>
      </trkpt>
      <trkpt lat="43.4885" lon="1.47197">
        <ele>210.83560181</ele>
        <time>2018-05-27T08:47:13Z</time>
      </trkpt>
      <trkpt lat="43.4886" lon="1.47208">
        <ele>211.77713013</ele>
        <time>2018-05-27T08:47:17Z</time>
      </trkpt>
      <trkpt lat="43.48868" lon="1.47219">
        <ele>212.98672485</ele>
        <time>2018-05-27T08:47:20Z</time>
      </trkpt>
      <trkpt lat="43.48876" lon="1.47229">
        <ele>215.72102356</ele>
        <time>2018-05-27T08:47:24Z</time>
      </trkpt>
      <trkpt lat="43.48883" lon="1.47243">
        <ele>216.90264893</ele>
        <time>2018-05-27T08:47:27Z</time>
      </trkpt>
      <trkpt lat="43.48887" lon="1.47255">
        <ele>218.15649414</ele>
        <time>2018-05-27T08:47:30Z</time>
      </trkpt>
      <trkpt lat="43.48891" lon="1.47268">
        <ele>219.51028442</ele>
        <time>2018-05-27T08:47:33Z</time>
      </trkpt>
      <trkpt lat="43.48891" lon="1.4728">
        <ele>220.74935913</ele>
        <time>2018-05-27T08:47:37Z</time>
      </trkpt>
      <trkpt lat="43.48898" lon="1.47285">
        <ele>221.82168579</ele>
        <time>2018-05-27T08:47:44Z</time>
      </trkpt>
      <trkpt lat="43.48909" lon="1.47287">
        <ele>221.82168579</ele>
        <time>2018-05-27T08:47:55Z</time>
      </trkpt>
      <trkpt lat="43.48919" lon="1.4729">
        <ele>221.82168579</ele>
        <time>2018-05-27T08:48:05Z</time>
      </trkpt>
      <trkpt lat="43.48928" lon="1.47298">
        <ele>221.82168579</ele>
        <time>2018-05-27T08:48:11Z</time>
      </trkpt>
      <trkpt lat="43.48928" lon="1.47312">
        <ele>222.61721802</ele>
        <time>2018-05-27T08:48:13Z</time>
      </trkpt>
      <trkpt lat="43.48926" lon="1.47323">
        <ele>222.61721802</ele>
        <time>2018-05-27T08:48:15Z</time>
      </trkpt>
      <trkpt lat="43.48918" lon="1.47335">
        <ele>222.61721802</ele>
        <time>2018-05-27T08:48:18Z</time>
      </trkpt>
      <trkpt lat="43.48911" lon="1.47349">
        <ele>222.61721802</ele>
        <time>2018-05-27T08:48:21Z</time>
      </trkpt>
      <trkpt lat="43.48905" lon="1.47361">
        <ele>222.61721802</ele>
        <time>2018-05-27T08:48:23Z</time>
      </trkpt>
      <trkpt lat="43.48903" lon="1.47373">
        <ele>222.61721802</ele>
        <time>2018-05-27T08:48:26Z</time>
      </trkpt>
      <trkpt lat="43.48905" lon="1.47385">
        <ele>222.61721802</ele>
        <time>2018-05-27T08:48:29Z</time>
      </trkpt>
      <trkpt lat="43.48913" lon="1.47391">
        <ele>222.61721802</ele>
        <time>2018-05-27T08:48:37Z</time>
      </trkpt>
      <trkpt lat="43.48921" lon="1.47394">
        <ele>220.24960327</ele>
        <time>2018-05-27T08:51:01Z</time>
      </trkpt>
      <trkpt lat="43.48921" lon="1.47394">
        <ele>219.94065857</ele>
        <time>2018-05-27T08:51:06Z</time>
      </trkpt>
      <trkpt lat="43.48942" lon="1.47397">
        <ele>218.01168823</ele>
        <time>2018-05-27T08:51:09Z</time>
      </trkpt>
      <trkpt lat="43.48957" lon="1.47402">
        <ele>216.42672729</ele>
        <time>2018-05-27T08:51:11Z</time>
      </trkpt>
      <trkpt lat="43.48974" lon="1.47422">
        <ele>214.33384705</ele>
        <time>2018-05-27T08:51:13Z</time>
      </trkpt>
      <trkpt lat="43.4898" lon="1.47435">
        <ele>213.302948</ele>
        <time>2018-05-27T08:51:15Z</time>
      </trkpt>
      <trkpt lat="43.48983" lon="1.47451">
        <ele>213.302948</ele>
        <time>2018-05-27T08:51:17Z</time>
      </trkpt>
      <trkpt lat="43.4898" lon="1.47469">
        <ele>213.302948</ele>
        <time>2018-05-27T08:51:19Z</time>
      </trkpt>
      <trkpt lat="43.48977" lon="1.47484">
        <ele>213.302948</ele>
        <time>2018-05-27T08:51:21Z</time>
      </trkpt>
      <trkpt lat="43.48973" lon="1.47495">
        <ele>213.302948</ele>
        <time>2018-05-27T08:51:23Z</time>
      </trkpt>
      <trkpt lat="43.4897" lon="1.47507">
        <ele>213.302948</ele>
        <time>2018-05-27T08:51:25Z</time>
      </trkpt>
      <trkpt lat="43.48968" lon="1.47518">
        <ele>212.95295715</ele>
        <time>2018-05-27T08:51:28Z</time>
      </trkpt>
      <trkpt lat="43.48965" lon="1.47531">
        <ele>212.95295715</ele>
        <time>2018-05-27T08:51:30Z</time>
      </trkpt>
      <trkpt lat="43.48962" lon="1.47544">
        <ele>214.87127686</ele>
        <time>2018-05-27T08:51:33Z</time>
      </trkpt>
      <trkpt lat="43.48961" lon="1.47559">
        <ele>215.99369812</ele>
        <time>2018-05-27T08:51:35Z</time>
      </trkpt>
      <trkpt lat="43.4896" lon="1.47571">
        <ele>215.99369812</ele>
        <time>2018-05-27T08:51:37Z</time>
      </trkpt>
      <trkpt lat="43.48959" lon="1.47583">
        <ele>217.2489624</ele>
        <time>2018-05-27T08:51:39Z</time>
      </trkpt>
      <trkpt lat="43.48957" lon="1.47596">
        <ele>217.2489624</ele>
        <time>2018-05-27T08:51:41Z</time>
      </trkpt>
      <trkpt lat="43.48953" lon="1.47608">
        <ele>218.46060181</ele>
        <time>2018-05-27T08:51:44Z</time>
      </trkpt>
      <trkpt lat="43.48949" lon="1.4762">
        <ele>219.58799744</ele>
        <time>2018-05-27T08:51:46Z</time>
      </trkpt>
      <trkpt lat="43.48945" lon="1.47633">
        <ele>219.58799744</ele>
        <time>2018-05-27T08:51:49Z</time>
      </trkpt>
      <trkpt lat="43.48941" lon="1.47647">
        <ele>220.7389679</ele>
        <time>2018-05-27T08:51:51Z</time>
      </trkpt>
      <trkpt lat="43.4894" lon="1.47658">
        <ele>220.7389679</ele>
        <time>2018-05-27T08:51:53Z</time>
      </trkpt>
      <trkpt lat="43.48943" lon="1.47668">
        <ele>221.71665955</ele>
        <time>2018-05-27T08:51:56Z</time>
      </trkpt>
      <trkpt lat="43.48954" lon="1.47675">
        <ele>222.90335083</ele>
        <time>2018-05-27T08:51:59Z</time>
      </trkpt>
      <trkpt lat="43.48964" lon="1.47681">
        <ele>222.90335083</ele>
        <time>2018-05-27T08:52:02Z</time>
      </trkpt>
      <trkpt lat="43.48976" lon="1.4769">
        <ele>224.06163025</ele>
        <time>2018-05-27T08:52:06Z</time>
      </trkpt>
      <trkpt lat="43.48987" lon="1.47697">
        <ele>226.53778076</ele>
        <time>2018-05-27T08:52:10Z</time>
      </trkpt>
      <trkpt lat="43.48997" lon="1.47705">
        <ele>227.5329895</ele>
        <time>2018-05-27T08:52:13Z</time>
      </trkpt>
      <trkpt lat="43.49006" lon="1.47714">
        <ele>229.70246887</ele>
        <time>2018-05-27T08:52:18Z</time>
      </trkpt>
      <trkpt lat="43.49019" lon="1.47724">
        <ele>230.81973267</ele>
        <time>2018-05-27T08:52:22Z</time>
      </trkpt>
      <trkpt lat="43.4903" lon="1.47733">
        <ele>232.00534058</ele>
        <time>2018-05-27T08:52:26Z</time>
      </trkpt>
      <trkpt lat="43.49043" lon="1.47742">
        <ele>234.59259033</ele>
        <time>2018-05-27T08:52:31Z</time>
      </trkpt>
      <trkpt lat="43.49054" lon="1.47752">
        <ele>235.69665527</ele>
        <time>2018-05-27T08:52:36Z</time>
      </trkpt>
      <trkpt lat="43.49059" lon="1.47764">
        <ele>235.69665527</ele>
        <time>2018-05-27T08:52:39Z</time>
      </trkpt>
      <trkpt lat="43.49055" lon="1.47776">
        <ele>236.77015686</ele>
        <time>2018-05-27T08:52:42Z</time>
      </trkpt>
      <trkpt lat="43.49051" lon="1.47789">
        <ele>236.77015686</ele>
        <time>2018-05-27T08:52:44Z</time>
      </trkpt>
      <trkpt lat="43.49048" lon="1.478">
        <ele>237.68934631</ele>
        <time>2018-05-27T08:52:46Z</time>
      </trkpt>
      <trkpt lat="43.49045" lon="1.47811">
        <ele>237.68934631</ele>
        <time>2018-05-27T08:52:48Z</time>
      </trkpt>
      <trkpt lat="43.49043" lon="1.47823">
        <ele>237.68934631</ele>
        <time>2018-05-27T08:52:50Z</time>
      </trkpt>
      <trkpt lat="43.4904" lon="1.47834">
        <ele>237.68934631</ele>
        <time>2018-05-27T08:52:52Z</time>
      </trkpt>
      <trkpt lat="43.49038" lon="1.47844">
        <ele>238.82402039</ele>
        <time>2018-05-27T08:52:54Z</time>
      </trkpt>
      <trkpt lat="43.49037" lon="1.47854">
        <ele>238.82402039</ele>
        <time>2018-05-27T08:52:56Z</time>
      </trkpt>
      <trkpt lat="43.49035" lon="1.47865">
        <ele>238.82402039</ele>
        <time>2018-05-27T08:52:58Z</time>
      </trkpt>
      <trkpt lat="43.49033" lon="1.47878">
        <ele>238.82402039</ele>
        <time>2018-05-27T08:53:00Z</time>
      </trkpt>
      <trkpt lat="43.49031" lon="1.47891">
        <ele>239.90681458</ele>
        <time>2018-05-27T08:53:02Z</time>
      </trkpt>
      <trkpt lat="43.49028" lon="1.47904">
        <ele>239.90681458</ele>
        <time>2018-05-27T08:53:04Z</time>
      </trkpt>
      <trkpt lat="43.49025" lon="1.47915">
        <ele>239.90681458</ele>
        <time>2018-05-27T08:53:06Z</time>
      </trkpt>
      <trkpt lat="43.49023" lon="1.47928">
        <ele>239.90681458</ele>
        <time>2018-05-27T08:53:08Z</time>
      </trkpt>
      <trkpt lat="43.4903" lon="1.47934">
        <ele>239.90681458</ele>
        <time>2018-05-27T08:53:10Z</time>
      </trkpt>
      <trkpt lat="43.49044" lon="1.47938">
        <ele>240.69544983</ele>
        <time>2018-05-27T08:53:12Z</time>
      </trkpt>
      <trkpt lat="43.49056" lon="1.47942">
        <ele>237.79917908</ele>
        <time>2018-05-27T08:53:13Z</time>
      </trkpt>
      <trkpt lat="43.49067" lon="1.47945">
        <ele>236.12940979</ele>
        <time>2018-05-27T08:53:14Z</time>
      </trkpt>
      <trkpt lat="43.49078" lon="1.47949">
        <ele>234.08087158</ele>
        <time>2018-05-27T08:53:15Z</time>
      </trkpt>
      <trkpt lat="43.49093" lon="1.47957">
        <ele>229.81950378</ele>
        <time>2018-05-27T08:53:17Z</time>
      </trkpt>
      <trkpt lat="43.4911" lon="1.47964">
        <ele>227.81796265</ele>
        <time>2018-05-27T08:53:18Z</time>
      </trkpt>
      <trkpt lat="43.49123" lon="1.47967">
        <ele>225.96429443</ele>
        <time>2018-05-27T08:53:19Z</time>
      </trkpt>
      <trkpt lat="43.49134" lon="1.47972">
        <ele>224.15513611</ele>
        <time>2018-05-27T08:53:20Z</time>
      </trkpt>
      <trkpt lat="43.49144" lon="1.4798">
        <ele>222.48857117</ele>
        <time>2018-05-27T08:53:21Z</time>
      </trkpt>
      <trkpt lat="43.49159" lon="1.47991">
        <ele>219.04124451</ele>
        <time>2018-05-27T08:53:23Z</time>
      </trkpt>
      <trkpt lat="43.49172" lon="1.48006">
        <ele>217.0561676</ele>
        <time>2018-05-27T08:53:24Z</time>
      </trkpt>
      <trkpt lat="43.49181" lon="1.48018">
        <ele>214.88717651</ele>
        <time>2018-05-27T08:53:25Z</time>
      </trkpt>
      <trkpt lat="43.4919" lon="1.48031">
        <ele>212.77253723</ele>
        <time>2018-05-27T08:53:26Z</time>
      </trkpt>
      <trkpt lat="43.49198" lon="1.48045">
        <ele>210.78608704</ele>
        <time>2018-05-27T08:53:27Z</time>
      </trkpt>
      <trkpt lat="43.49207" lon="1.48059">
        <ele>208.94416809</ele>
        <time>2018-05-27T08:53:28Z</time>
      </trkpt>
      <trkpt lat="43.49215" lon="1.48074">
        <ele>207.23646545</ele>
        <time>2018-05-27T08:53:29Z</time>
      </trkpt>
      <trkpt lat="43.49224" lon="1.48087">
        <ele>205.66751099</ele>
        <time>2018-05-27T08:53:30Z</time>
      </trkpt>
      <trkpt lat="43.49233" lon="1.48099">
        <ele>204.22134399</ele>
        <time>2018-05-27T08:53:31Z</time>
      </trkpt>
      <trkpt lat="43.49243" lon="1.48111">
        <ele>202.82511902</ele>
        <time>2018-05-27T08:53:32Z</time>
      </trkpt>
      <trkpt lat="43.49253" lon="1.48122">
        <ele>201.48854065</ele>
        <time>2018-05-27T08:53:33Z</time>
      </trkpt>
      <trkpt lat="43.49265" lon="1.48132">
        <ele>200.04399109</ele>
        <time>2018-05-27T08:53:34Z</time>
      </trkpt>
      <trkpt lat="43.49276" lon="1.48141">
        <ele>198.49200439</ele>
        <time>2018-05-27T08:53:35Z</time>
      </trkpt>
      <trkpt lat="43.49288" lon="1.48151">
        <ele>196.78448486</ele>
        <time>2018-05-27T08:53:36Z</time>
      </trkpt>
      <trkpt lat="43.49301" lon="1.48161">
        <ele>195.00192261</ele>
        <time>2018-05-27T08:53:37Z</time>
      </trkpt>
      <trkpt lat="43.49313" lon="1.48171">
        <ele>193.43379211</ele>
        <time>2018-05-27T08:53:38Z</time>
      </trkpt>
      <trkpt lat="43.49325" lon="1.48182">
        <ele>192.22853088</ele>
        <time>2018-05-27T08:53:39Z</time>
      </trkpt>
      <trkpt lat="43.49338" lon="1.48195">
        <ele>191.16192627</ele>
        <time>2018-05-27T08:53:41Z</time>
      </trkpt>
      <trkpt lat="43.49347" lon="1.48212">
        <ele>191.16192627</ele>
        <time>2018-05-27T08:53:43Z</time>
      </trkpt>
      <trkpt lat="43.49336" lon="1.48224">
        <ele>191.16192627</ele>
        <time>2018-05-27T08:53:45Z</time>
      </trkpt>
      <trkpt lat="43.4932" lon="1.48236">
        <ele>191.16192627</ele>
        <time>2018-05-27T08:53:47Z</time>
      </trkpt>
      <trkpt lat="43.49311" lon="1.48249">
        <ele>191.16192627</ele>
        <time>2018-05-27T08:53:49Z</time>
      </trkpt>
      <trkpt lat="43.49303" lon="1.48261">
        <ele>191.16192627</ele>
        <time>2018-05-27T08:53:51Z</time>
      </trkpt>
      <trkpt lat="43.49294" lon="1.48273">
        <ele>191.16192627</ele>
        <time>2018-05-27T08:53:54Z</time>
      </trkpt>
      <trkpt lat="43.49285" lon="1.48288">
        <ele>191.16192627</ele>
        <time>2018-05-27T08:53:57Z</time>
      </trkpt>
      <trkpt lat="43.49289" lon="1.48301">
        <ele>191.16192627</ele>
        <time>2018-05-27T08:53:59Z</time>
      </trkpt>
      <trkpt lat="43.49299" lon="1.4831">
        <ele>190.93969727</ele>
        <time>2018-05-27T08:54:03Z</time>
      </trkpt>
      <trkpt lat="43.49311" lon="1.4832">
        <ele>194.31082153</ele>
        <time>2018-05-27T08:54:08Z</time>
      </trkpt>
      <trkpt lat="43.49323" lon="1.4833">
        <ele>197.23620605</ele>
        <time>2018-05-27T08:54:12Z</time>
      </trkpt>
      <trkpt lat="43.49328" lon="1.48335">
        <ele>197.54545593</ele>
        <time>2018-05-27T08:54:13Z</time>
      </trkpt>
      <trkpt lat="43.49334" lon="1.48341">
        <ele>200.61399841</ele>
        <time>2018-05-27T08:54:18Z</time>
      </trkpt>
      <trkpt lat="43.49345" lon="1.48351">
        <ele>202.78282166</ele>
        <time>2018-05-27T08:54:23Z</time>
      </trkpt>
      <trkpt lat="43.49357" lon="1.48361">
        <ele>205.42236328</ele>
        <time>2018-05-27T08:54:28Z</time>
      </trkpt>
      <trkpt lat="43.49366" lon="1.48371">
        <ele>207.66912842</ele>
        <time>2018-05-27T08:54:33Z</time>
      </trkpt>
      <trkpt lat="43.49377" lon="1.4838">
        <ele>209.89639282</ele>
        <time>2018-05-27T08:54:38Z</time>
      </trkpt>
      <trkpt lat="43.49387" lon="1.48389">
        <ele>212.41773987</ele>
        <time>2018-05-27T08:54:43Z</time>
      </trkpt>
      <trkpt lat="43.49398" lon="1.48397">
        <ele>213.66213989</ele>
        <time>2018-05-27T08:54:48Z</time>
      </trkpt>
      <trkpt lat="43.49409" lon="1.48406">
        <ele>216.24345398</ele>
        <time>2018-05-27T08:54:53Z</time>
      </trkpt>
      <trkpt lat="43.49419" lon="1.48415">
        <ele>218.7631073</ele>
        <time>2018-05-27T08:54:58Z</time>
      </trkpt>
      <trkpt lat="43.49431" lon="1.48424">
        <ele>220.11062622</ele>
        <time>2018-05-27T08:55:03Z</time>
      </trkpt>
      <trkpt lat="43.49442" lon="1.48433">
        <ele>222.51049805</ele>
        <time>2018-05-27T08:55:08Z</time>
      </trkpt>
      <trkpt lat="43.49458" lon="1.48447">
        <ele>224.55665588</ele>
        <time>2018-05-27T08:55:13Z</time>
      </trkpt>
      <trkpt lat="43.49464" lon="1.48452">
        <ele>225.41691589</ele>
        <time>2018-05-27T08:55:18Z</time>
      </trkpt>
      <trkpt lat="43.49474" lon="1.4846">
        <ele>225.41691589</ele>
        <time>2018-05-27T08:55:23Z</time>
      </trkpt>
      <trkpt lat="43.49486" lon="1.48468">
        <ele>226.44348145</ele>
        <time>2018-05-27T08:55:29Z</time>
      </trkpt>
      <trkpt lat="43.49498" lon="1.48477">
        <ele>226.44348145</ele>
        <time>2018-05-27T08:55:34Z</time>
      </trkpt>
      <trkpt lat="43.49511" lon="1.48485">
        <ele>226.44348145</ele>
        <time>2018-05-27T08:55:38Z</time>
      </trkpt>
      <trkpt lat="43.49522" lon="1.48491">
        <ele>226.44348145</ele>
        <time>2018-05-27T08:55:41Z</time>
      </trkpt>
      <trkpt lat="43.49533" lon="1.48496">
        <ele>226.44348145</ele>
        <time>2018-05-27T08:55:44Z</time>
      </trkpt>
      <trkpt lat="43.49543" lon="1.48506">
        <ele>226.52336121</ele>
        <time>2018-05-27T08:55:47Z</time>
      </trkpt>
      <trkpt lat="43.49557" lon="1.48515">
        <ele>226.52336121</ele>
        <time>2018-05-27T08:55:50Z</time>
      </trkpt>
      <trkpt lat="43.49571" lon="1.48524">
        <ele>225.01451111</ele>
        <time>2018-05-27T08:55:53Z</time>
      </trkpt>
      <trkpt lat="43.49587" lon="1.48533">
        <ele>223.48468018</ele>
        <time>2018-05-27T08:55:55Z</time>
      </trkpt>
      <trkpt lat="43.49601" lon="1.48543">
        <ele>221.99263</ele>
        <time>2018-05-27T08:55:57Z</time>
      </trkpt>
      <trkpt lat="43.49617" lon="1.48554">
        <ele>220.17980957</ele>
        <time>2018-05-27T08:55:59Z</time>
      </trkpt>
      <trkpt lat="43.49633" lon="1.48567">
        <ele>218.35058594</ele>
        <time>2018-05-27T08:56:01Z</time>
      </trkpt>
      <trkpt lat="43.49647" lon="1.48578">
        <ele>216.91574097</ele>
        <time>2018-05-27T08:56:03Z</time>
      </trkpt>
      <trkpt lat="43.49661" lon="1.48582">
        <ele>216.91574097</ele>
        <time>2018-05-27T08:56:05Z</time>
      </trkpt>
      <trkpt lat="43.49672" lon="1.48581">
        <ele>217.19203186</ele>
        <time>2018-05-27T08:56:07Z</time>
      </trkpt>
      <trkpt lat="43.49682" lon="1.48581">
        <ele>218.85202026</ele>
        <time>2018-05-27T08:56:11Z</time>
      </trkpt>
      <trkpt lat="43.49691" lon="1.48583">
        <ele>220.48178101</ele>
        <time>2018-05-27T08:56:13Z</time>
      </trkpt>
      <trkpt lat="43.49701" lon="1.48585">
        <ele>222.66555786</ele>
        <time>2018-05-27T08:56:17Z</time>
      </trkpt>
      <trkpt lat="43.49713" lon="1.48587">
        <ele>223.86897278</ele>
        <time>2018-05-27T08:56:21Z</time>
      </trkpt>
      <trkpt lat="43.49726" lon="1.4859">
        <ele>225.28515625</ele>
        <time>2018-05-27T08:56:25Z</time>
      </trkpt>
      <trkpt lat="43.49738" lon="1.4859">
        <ele>228.01225281</ele>
        <time>2018-05-27T08:56:29Z</time>
      </trkpt>
      <trkpt lat="43.49749" lon="1.48593">
        <ele>231.91116333</ele>
        <time>2018-05-27T08:56:34Z</time>
      </trkpt>
      <trkpt lat="43.49761" lon="1.48595">
        <ele>233.17958069</ele>
        <time>2018-05-27T08:56:38Z</time>
      </trkpt>
      <trkpt lat="43.49771" lon="1.48597">
        <ele>235.68655396</ele>
        <time>2018-05-27T08:56:42Z</time>
      </trkpt>
      <trkpt lat="43.49782" lon="1.48598">
        <ele>236.98432922</ele>
        <time>2018-05-27T08:56:47Z</time>
      </trkpt>
      <trkpt lat="43.49794" lon="1.48594">
        <ele>238.15672302</ele>
        <time>2018-05-27T08:56:52Z</time>
      </trkpt>
      <trkpt lat="43.49805" lon="1.48584">
        <ele>239.21844482</ele>
        <time>2018-05-27T08:56:55Z</time>
      </trkpt>
      <trkpt lat="43.49815" lon="1.48573">
        <ele>239.21844482</ele>
        <time>2018-05-27T08:56:59Z</time>
      </trkpt>
      <trkpt lat="43.49826" lon="1.48562">
        <ele>240.28840637</ele>
        <time>2018-05-27T08:57:05Z</time>
      </trkpt>
      <trkpt lat="43.49836" lon="1.48557">
        <ele>241.35414124</ele>
        <time>2018-05-27T08:57:10Z</time>
      </trkpt>
      <trkpt lat="43.49845" lon="1.48556">
        <ele>242.21658325</ele>
        <time>2018-05-27T08:57:13Z</time>
      </trkpt>
      <trkpt lat="43.49854" lon="1.48557">
        <ele>242.21658325</ele>
        <time>2018-05-27T08:57:17Z</time>
      </trkpt>
      <trkpt lat="43.49865" lon="1.4856">
        <ele>242.21658325</ele>
        <time>2018-05-27T08:57:20Z</time>
      </trkpt>
      <trkpt lat="43.49875" lon="1.48561">
        <ele>242.21658325</ele>
        <time>2018-05-27T08:57:23Z</time>
      </trkpt>
      <trkpt lat="43.49888" lon="1.48561">
        <ele>242.88197327</ele>
        <time>2018-05-27T08:57:26Z</time>
      </trkpt>
      <trkpt lat="43.49905" lon="1.48557">
        <ele>240.34500122</ele>
        <time>2018-05-27T08:57:28Z</time>
      </trkpt>
      <trkpt lat="43.49918" lon="1.48551">
        <ele>238.91381836</ele>
        <time>2018-05-27T08:57:30Z</time>
      </trkpt>
      <trkpt lat="43.49936" lon="1.48545">
        <ele>237.19807434</ele>
        <time>2018-05-27T08:57:32Z</time>
      </trkpt>
      <trkpt lat="43.49951" lon="1.48539">
        <ele>237.19807434</ele>
        <time>2018-05-27T08:57:33Z</time>
      </trkpt>
      <trkpt lat="43.49962" lon="1.48535">
        <ele>235.35891724</ele>
        <time>2018-05-27T08:57:34Z</time>
      </trkpt>
      <trkpt lat="43.49972" lon="1.4853">
        <ele>233.88545227</ele>
        <time>2018-05-27T08:57:35Z</time>
      </trkpt>
      <trkpt lat="43.49988" lon="1.48524">
        <ele>232.48240662</ele>
        <time>2018-05-27T08:57:37Z</time>
      </trkpt>
      <trkpt lat="43.50004" lon="1.48519">
        <ele>232.48240662</ele>
        <time>2018-05-27T08:57:38Z</time>
      </trkpt>
      <trkpt lat="43.50015" lon="1.48515">
        <ele>230.87800598</ele>
        <time>2018-05-27T08:57:39Z</time>
      </trkpt>
      <trkpt lat="43.50026" lon="1.48511">
        <ele>230.87800598</ele>
        <time>2018-05-27T08:57:40Z</time>
      </trkpt>
      <trkpt lat="43.50037" lon="1.48506">
        <ele>229.61465454</ele>
        <time>2018-05-27T08:57:41Z</time>
      </trkpt>
      <trkpt lat="43.50047" lon="1.48501">
        <ele>229.61465454</ele>
        <time>2018-05-27T08:57:42Z</time>
      </trkpt>
      <trkpt lat="43.50062" lon="1.48496">
        <ele>229.61465454</ele>
        <time>2018-05-27T08:57:44Z</time>
      </trkpt>
      <trkpt lat="43.50082" lon="1.48501">
        <ele>229.61465454</ele>
        <time>2018-05-27T08:57:46Z</time>
      </trkpt>
      <trkpt lat="43.501" lon="1.48507">
        <ele>229.61465454</ele>
        <time>2018-05-27T08:57:48Z</time>
      </trkpt>
      <trkpt lat="43.50116" lon="1.4851">
        <ele>229.61465454</ele>
        <time>2018-05-27T08:57:50Z</time>
      </trkpt>
      <trkpt lat="43.50129" lon="1.48512">
        <ele>229.19430542</ele>
        <time>2018-05-27T08:57:52Z</time>
      </trkpt>
      <trkpt lat="43.50141" lon="1.48514">
        <ele>231.28312683</ele>
        <time>2018-05-27T08:57:54Z</time>
      </trkpt>
      <trkpt lat="43.50154" lon="1.48517">
        <ele>231.28312683</ele>
        <time>2018-05-27T08:57:56Z</time>
      </trkpt>
      <trkpt lat="43.50166" lon="1.48518">
        <ele>232.52148438</ele>
        <time>2018-05-27T08:57:58Z</time>
      </trkpt>
      <trkpt lat="43.50179" lon="1.4852">
        <ele>232.52148438</ele>
        <time>2018-05-27T08:58:00Z</time>
      </trkpt>
      <trkpt lat="43.50192" lon="1.48522">
        <ele>233.87911987</ele>
        <time>2018-05-27T08:58:02Z</time>
      </trkpt>
      <trkpt lat="43.50205" lon="1.48524">
        <ele>235.20753479</ele>
        <time>2018-05-27T08:58:04Z</time>
      </trkpt>
      <trkpt lat="43.50216" lon="1.48527">
        <ele>236.52780151</ele>
        <time>2018-05-27T08:58:06Z</time>
      </trkpt>
      <trkpt lat="43.50229" lon="1.48529">
        <ele>236.52780151</ele>
        <time>2018-05-27T08:58:08Z</time>
      </trkpt>
      <trkpt lat="43.50242" lon="1.4853">
        <ele>237.6914978</ele>
        <time>2018-05-27T08:58:10Z</time>
      </trkpt>
      <trkpt lat="43.50254" lon="1.4853">
        <ele>239.13650513</ele>
        <time>2018-05-27T08:58:12Z</time>
      </trkpt>
      <trkpt lat="43.50263" lon="1.4853">
        <ele>239.72186279</ele>
        <time>2018-05-27T08:58:13Z</time>
      </trkpt>
      <trkpt lat="43.50273" lon="1.48529">
        <ele>241.72184753</ele>
        <time>2018-05-27T08:58:16Z</time>
      </trkpt>
      <trkpt lat="43.50283" lon="1.48526">
        <ele>242.9312439</ele>
        <time>2018-05-27T08:58:19Z</time>
      </trkpt>
      <trkpt lat="43.50293" lon="1.48531">
        <ele>244.00326538</ele>
        <time>2018-05-27T08:58:24Z</time>
      </trkpt>
      <trkpt lat="43.50295" lon="1.48546">
        <ele>245.20959473</ele>
        <time>2018-05-27T08:58:28Z</time>
      </trkpt>
      <trkpt lat="43.50294" lon="1.48557">
        <ele>245.20959473</ele>
        <time>2018-05-27T08:58:32Z</time>
      </trkpt>
      <trkpt lat="43.50295" lon="1.48571">
        <ele>245.20959473</ele>
        <time>2018-05-27T08:58:34Z</time>
      </trkpt>
      <trkpt lat="43.50295" lon="1.48585">
        <ele>245.75357056</ele>
        <time>2018-05-27T08:58:36Z</time>
      </trkpt>
      <trkpt lat="43.50295" lon="1.48602">
        <ele>243.15370178</ele>
        <time>2018-05-27T08:58:38Z</time>
      </trkpt>
      <trkpt lat="43.50295" lon="1.48618">
        <ele>243.15370178</ele>
        <time>2018-05-27T08:58:39Z</time>
      </trkpt>
      <trkpt lat="43.50295" lon="1.48629">
        <ele>241.59370422</ele>
        <time>2018-05-27T08:58:40Z</time>
      </trkpt>
      <trkpt lat="43.50294" lon="1.48643">
        <ele>239.71417236</ele>
        <time>2018-05-27T08:58:42Z</time>
      </trkpt>
      <trkpt lat="43.50294" lon="1.48663">
        <ele>236.95962524</ele>
        <time>2018-05-27T08:58:44Z</time>
      </trkpt>
      <trkpt lat="43.50295" lon="1.48679">
        <ele>236.95962524</ele>
        <time>2018-05-27T08:58:45Z</time>
      </trkpt>
      <trkpt lat="43.50296" lon="1.48692">
        <ele>235.54510498</ele>
        <time>2018-05-27T08:58:46Z</time>
      </trkpt>
      <trkpt lat="43.50296" lon="1.48706">
        <ele>235.54510498</ele>
        <time>2018-05-27T08:58:47Z</time>
      </trkpt>
      <trkpt lat="43.50296" lon="1.48719">
        <ele>234.24801636</ele>
        <time>2018-05-27T08:58:48Z</time>
      </trkpt>
      <trkpt lat="43.50296" lon="1.4873">
        <ele>234.24801636</ele>
        <time>2018-05-27T08:58:49Z</time>
      </trkpt>
      <trkpt lat="43.50301" lon="1.48743">
        <ele>234.24801636</ele>
        <time>2018-05-27T08:58:51Z</time>
      </trkpt>
      <trkpt lat="43.50312" lon="1.48755">
        <ele>233.27493286</ele>
        <time>2018-05-27T08:58:53Z</time>
      </trkpt>
      <trkpt lat="43.50325" lon="1.48764">
        <ele>231.90028381</ele>
        <time>2018-05-27T08:58:55Z</time>
      </trkpt>
      <trkpt lat="43.5034" lon="1.48774">
        <ele>229.81925964</ele>
        <time>2018-05-27T08:58:57Z</time>
      </trkpt>
      <trkpt lat="43.50356" lon="1.48787">
        <ele>227.97653198</ele>
        <time>2018-05-27T08:58:59Z</time>
      </trkpt>
      <trkpt lat="43.50374" lon="1.48798">
        <ele>226.13490295</ele>
        <time>2018-05-27T08:59:01Z</time>
      </trkpt>
      <trkpt lat="43.50388" lon="1.4881">
        <ele>224.38993835</ele>
        <time>2018-05-27T08:59:03Z</time>
      </trkpt>
      <trkpt lat="43.5039" lon="1.48825">
        <ele>222.43130493</ele>
        <time>2018-05-27T08:59:05Z</time>
      </trkpt>
      <trkpt lat="43.50393" lon="1.48839">
        <ele>219.63130188</ele>
        <time>2018-05-27T08:59:07Z</time>
      </trkpt>
      <trkpt lat="43.50403" lon="1.48847">
        <ele>217.24305725</ele>
        <time>2018-05-27T08:59:09Z</time>
      </trkpt>
      <trkpt lat="43.50419" lon="1.48854">
        <ele>215.05606079</ele>
        <time>2018-05-27T08:59:11Z</time>
      </trkpt>
      <trkpt lat="43.50437" lon="1.48861">
        <ele>213.04454041</ele>
        <time>2018-05-27T08:59:13Z</time>
      </trkpt>
      <trkpt lat="43.50448" lon="1.48863">
        <ele>210.51875305</ele>
        <time>2018-05-27T08:59:15Z</time>
      </trkpt>
      <trkpt lat="43.50462" lon="1.48865">
        <ele>207.61296082</ele>
        <time>2018-05-27T08:59:17Z</time>
      </trkpt>
      <trkpt lat="43.50479" lon="1.48864">
        <ele>205.00030518</ele>
        <time>2018-05-27T08:59:19Z</time>
      </trkpt>
      <trkpt lat="43.50495" lon="1.48864">
        <ele>203.92393494</ele>
        <time>2018-05-27T08:59:21Z</time>
      </trkpt>
      <trkpt lat="43.50508" lon="1.48872">
        <ele>200.72729492</ele>
        <time>2018-05-27T08:59:24Z</time>
      </trkpt>
      <trkpt lat="43.50519" lon="1.48893">
        <ele>197.80783081</ele>
        <time>2018-05-27T08:59:26Z</time>
      </trkpt>
      <trkpt lat="43.50525" lon="1.48909">
        <ele>196.7537384</ele>
        <time>2018-05-27T08:59:27Z</time>
      </trkpt>
      <trkpt lat="43.50529" lon="1.48919">
        <ele>196.7537384</ele>
        <time>2018-05-27T08:59:28Z</time>
      </trkpt>
      <trkpt lat="43.50538" lon="1.48933">
        <ele>195.31088257</ele>
        <time>2018-05-27T08:59:30Z</time>
      </trkpt>
      <trkpt lat="43.50549" lon="1.48952">
        <ele>193.55316162</ele>
        <time>2018-05-27T08:59:32Z</time>
      </trkpt>
      <trkpt lat="43.50561" lon="1.48971">
        <ele>191.99215698</ele>
        <time>2018-05-27T08:59:34Z</time>
      </trkpt>
      <trkpt lat="43.50576" lon="1.48979">
        <ele>190.59860229</ele>
        <time>2018-05-27T08:59:36Z</time>
      </trkpt>
      <trkpt lat="43.50591" lon="1.4898">
        <ele>189.49085999</ele>
        <time>2018-05-27T08:59:38Z</time>
      </trkpt>
      <trkpt lat="43.50606" lon="1.48984">
        <ele>189.49085999</ele>
        <time>2018-05-27T08:59:40Z</time>
      </trkpt>
      <trkpt lat="43.50619" lon="1.48994">
        <ele>189.49085999</ele>
        <time>2018-05-27T08:59:42Z</time>
      </trkpt>
      <trkpt lat="43.5063" lon="1.49004">
        <ele>189.49085999</ele>
        <time>2018-05-27T08:59:44Z</time>
      </trkpt>
      <trkpt lat="43.5064" lon="1.49015">
        <ele>189.49085999</ele>
        <time>2018-05-27T08:59:46Z</time>
      </trkpt>
      <trkpt lat="43.50648" lon="1.49029">
        <ele>189.49085999</ele>
        <time>2018-05-27T08:59:48Z</time>
      </trkpt>
      <trkpt lat="43.50656" lon="1.49045">
        <ele>189.49085999</ele>
        <time>2018-05-27T08:59:50Z</time>
      </trkpt>
      <trkpt lat="43.50662" lon="1.4906">
        <ele>189.49085999</ele>
        <time>2018-05-27T08:59:52Z</time>
      </trkpt>
      <trkpt lat="43.5067" lon="1.49075">
        <ele>189.49085999</ele>
        <time>2018-05-27T08:59:54Z</time>
      </trkpt>
      <trkpt lat="43.50675" lon="1.49092">
        <ele>189.49085999</ele>
        <time>2018-05-27T08:59:56Z</time>
      </trkpt>
      <trkpt lat="43.50682" lon="1.49107">
        <ele>189.49085999</ele>
        <time>2018-05-27T08:59:58Z</time>
      </trkpt>
      <trkpt lat="43.50691" lon="1.49124">
        <ele>189.49085999</ele>
        <time>2018-05-27T09:00:00Z</time>
      </trkpt>
      <trkpt lat="43.507" lon="1.4914">
        <ele>189.49085999</ele>
        <time>2018-05-27T09:00:02Z</time>
      </trkpt>
      <trkpt lat="43.50709" lon="1.49157">
        <ele>189.49085999</ele>
        <time>2018-05-27T09:00:04Z</time>
      </trkpt>
      <trkpt lat="43.50718" lon="1.49173">
        <ele>189.49085999</ele>
        <time>2018-05-27T09:00:06Z</time>
      </trkpt>
      <trkpt lat="43.50728" lon="1.49184">
        <ele>189.49085999</ele>
        <time>2018-05-27T09:00:08Z</time>
      </trkpt>
      <trkpt lat="43.50736" lon="1.49195">
        <ele>189.49085999</ele>
        <time>2018-05-27T09:00:10Z</time>
      </trkpt>
      <trkpt lat="43.50742" lon="1.49207">
        <ele>189.49085999</ele>
        <time>2018-05-27T09:00:12Z</time>
      </trkpt>
      <trkpt lat="43.50747" lon="1.49217">
        <ele>188.96347046</ele>
        <time>2018-05-27T09:00:13Z</time>
      </trkpt>
      <trkpt lat="43.50753" lon="1.49227">
        <ele>188.96347046</ele>
        <time>2018-05-27T09:00:15Z</time>
      </trkpt>
      <trkpt lat="43.50761" lon="1.49239">
        <ele>188.96347046</ele>
        <time>2018-05-27T09:00:17Z</time>
      </trkpt>
      <trkpt lat="43.50768" lon="1.4925">
        <ele>188.96347046</ele>
        <time>2018-05-27T09:00:19Z</time>
      </trkpt>
      <trkpt lat="43.50771" lon="1.49262">
        <ele>189.82437134</ele>
        <time>2018-05-27T09:00:22Z</time>
      </trkpt>
      <trkpt lat="43.50772" lon="1.49271">
        <ele>190.52026367</ele>
        <time>2018-05-27T09:00:47Z</time>
      </trkpt>
      <trkpt lat="43.50789" lon="1.49287">
        <ele>187.12371826</ele>
        <time>2018-05-27T09:00:50Z</time>
      </trkpt>
      <trkpt lat="43.50806" lon="1.49294">
        <ele>184.39285278</ele>
        <time>2018-05-27T09:00:52Z</time>
      </trkpt>
      <trkpt lat="43.50822" lon="1.49299">
        <ele>182.06028748</ele>
        <time>2018-05-27T09:00:54Z</time>
      </trkpt>
      <trkpt lat="43.50839" lon="1.49289">
        <ele>180.80262756</ele>
        <time>2018-05-27T09:00:56Z</time>
      </trkpt>
      <trkpt lat="43.5085" lon="1.49274">
        <ele>180.80262756</ele>
        <time>2018-05-27T09:00:58Z</time>
      </trkpt>
      <trkpt lat="43.50858" lon="1.49271">
        <ele>176.82034302</ele>
        <time>2018-05-27T09:01:04Z</time>
      </trkpt>
      <trkpt lat="43.50858" lon="1.49294">
        <ele>173.30583191</ele>
        <time>2018-05-27T09:01:06Z</time>
      </trkpt>
      <trkpt lat="43.50857" lon="1.4931">
        <ele>171.03761292</ele>
        <time>2018-05-27T09:01:08Z</time>
      </trkpt>
      <trkpt lat="43.50854" lon="1.49323">
        <ele>168.59817505</ele>
        <time>2018-05-27T09:01:10Z</time>
      </trkpt>
      <trkpt lat="43.50853" lon="1.49336">
        <ele>166.18281555</ele>
        <time>2018-05-27T09:01:12Z</time>
      </trkpt>
      <trkpt lat="43.50853" lon="1.49342">
        <ele>165.09922791</ele>
        <time>2018-05-27T09:01:13Z</time>
      </trkpt>
      <trkpt lat="43.50855" lon="1.49349">
        <ele>162.64715576</ele>
        <time>2018-05-27T09:01:17Z</time>
      </trkpt>
      <trkpt lat="43.50856" lon="1.4936">
        <ele>159.27914429</ele>
        <time>2018-05-27T09:01:21Z</time>
      </trkpt>
      <trkpt lat="43.50855" lon="1.4937">
        <ele>156.63674927</ele>
        <time>2018-05-27T09:01:23Z</time>
      </trkpt>
      <trkpt lat="43.50849" lon="1.49386">
        <ele>155.34310913</ele>
        <time>2018-05-27T09:01:25Z</time>
      </trkpt>
      <trkpt lat="43.50832" lon="1.49405">
        <ele>155.34310913</ele>
        <time>2018-05-27T09:01:27Z</time>
      </trkpt>
      <trkpt lat="43.50816" lon="1.49419">
        <ele>154.13397217</ele>
        <time>2018-05-27T09:01:29Z</time>
      </trkpt>
      <trkpt lat="43.50813" lon="1.49431">
        <ele>154.13397217</ele>
        <time>2018-05-27T09:01:33Z</time>
      </trkpt>
      <trkpt lat="43.50807" lon="1.49443">
        <ele>154.13397217</ele>
        <time>2018-05-27T09:01:36Z</time>
      </trkpt>
      <trkpt lat="43.50794" lon="1.49446">
        <ele>154.13397217</ele>
        <time>2018-05-27T09:01:39Z</time>
      </trkpt>
      <trkpt lat="43.50782" lon="1.49442">
        <ele>154.13397217</ele>
        <time>2018-05-27T09:01:42Z</time>
      </trkpt>
      <trkpt lat="43.50769" lon="1.49437">
        <ele>154.25268555</ele>
        <time>2018-05-27T09:01:44Z</time>
      </trkpt>
      <trkpt lat="43.50759" lon="1.49434">
        <ele>154.25268555</ele>
        <time>2018-05-27T09:01:47Z</time>
      </trkpt>
      <trkpt lat="43.50746" lon="1.49434">
        <ele>155.78549194</ele>
        <time>2018-05-27T09:01:51Z</time>
      </trkpt>
      <trkpt lat="43.50735" lon="1.49426">
        <ele>156.86529541</ele>
        <time>2018-05-27T09:01:55Z</time>
      </trkpt>
      <trkpt lat="43.50723" lon="1.49417">
        <ele>157.9210968</ele>
        <time>2018-05-27T09:01:59Z</time>
      </trkpt>
      <trkpt lat="43.50713" lon="1.49405">
        <ele>159.00810242</ele>
        <time>2018-05-27T09:02:03Z</time>
      </trkpt>
      <trkpt lat="43.50697" lon="1.49394">
        <ele>159.00810242</ele>
        <time>2018-05-27T09:02:06Z</time>
      </trkpt>
      <trkpt lat="43.50684" lon="1.49385">
        <ele>159.00810242</ele>
        <time>2018-05-27T09:02:08Z</time>
      </trkpt>
      <trkpt lat="43.50673" lon="1.49382">
        <ele>159.00810242</ele>
        <time>2018-05-27T09:02:10Z</time>
      </trkpt>
      <trkpt lat="43.50658" lon="1.49384">
        <ele>159.07354736</ele>
        <time>2018-05-27T09:02:12Z</time>
      </trkpt>
      <trkpt lat="43.50647" lon="1.49385">
        <ele>158.34941101</ele>
        <time>2018-05-27T09:02:13Z</time>
      </trkpt>
      <trkpt lat="43.50638" lon="1.49387">
        <ele>158.34941101</ele>
        <time>2018-05-27T09:02:15Z</time>
      </trkpt>
      <trkpt lat="43.50626" lon="1.49388">
        <ele>158.34941101</ele>
        <time>2018-05-27T09:02:17Z</time>
      </trkpt>
      <trkpt lat="43.50613" lon="1.49388">
        <ele>158.34941101</ele>
        <time>2018-05-27T09:02:19Z</time>
      </trkpt>
      <trkpt lat="43.50603" lon="1.49391">
        <ele>158.34941101</ele>
        <time>2018-05-27T09:02:21Z</time>
      </trkpt>
      <trkpt lat="43.50591" lon="1.49396">
        <ele>158.34941101</ele>
        <time>2018-05-27T09:02:24Z</time>
      </trkpt>
      <trkpt lat="43.5058" lon="1.49401">
        <ele>158.34941101</ele>
        <time>2018-05-27T09:02:28Z</time>
      </trkpt>
      <trkpt lat="43.50575" lon="1.49401">
        <ele>158.34941101</ele>
        <time>2018-05-27T09:02:52Z</time>
      </trkpt>
      <trkpt lat="43.50559" lon="1.49417">
        <ele>158.34941101</ele>
        <time>2018-05-27T09:02:55Z</time>
      </trkpt>
      <trkpt lat="43.50548" lon="1.49428">
        <ele>158.34941101</ele>
        <time>2018-05-27T09:02:59Z</time>
      </trkpt>
      <trkpt lat="43.50538" lon="1.49438">
        <ele>158.34941101</ele>
        <time>2018-05-27T09:03:02Z</time>
      </trkpt>
      <trkpt lat="43.50528" lon="1.4945">
        <ele>158.34941101</ele>
        <time>2018-05-27T09:03:05Z</time>
      </trkpt>
      <trkpt lat="43.50519" lon="1.49462">
        <ele>158.24954224</ele>
        <time>2018-05-27T09:03:09Z</time>
      </trkpt>
      <trkpt lat="43.50504" lon="1.49476">
        <ele>158.24954224</ele>
        <time>2018-05-27T09:03:12Z</time>
      </trkpt>
      <trkpt lat="43.50498" lon="1.49485">
        <ele>160.01826477</ele>
        <time>2018-05-27T09:03:13Z</time>
      </trkpt>
      <trkpt lat="43.50491" lon="1.49494">
        <ele>160.01826477</ele>
        <time>2018-05-27T09:03:16Z</time>
      </trkpt>
      <trkpt lat="43.50479" lon="1.49508">
        <ele>161.14605713</ele>
        <time>2018-05-27T09:03:19Z</time>
      </trkpt>
      <trkpt lat="43.50468" lon="1.49519">
        <ele>162.4241333</ele>
        <time>2018-05-27T09:03:23Z</time>
      </trkpt>
      <trkpt lat="43.50454" lon="1.49531">
        <ele>162.4241333</ele>
        <time>2018-05-27T09:03:27Z</time>
      </trkpt>
      <trkpt lat="43.50441" lon="1.49544">
        <ele>163.55717468</ele>
        <time>2018-05-27T09:03:31Z</time>
      </trkpt>
      <trkpt lat="43.50428" lon="1.49557">
        <ele>163.55717468</ele>
        <time>2018-05-27T09:03:35Z</time>
      </trkpt>
      <trkpt lat="43.50414" lon="1.49569">
        <ele>164.6690979</ele>
        <time>2018-05-27T09:03:38Z</time>
      </trkpt>
      <trkpt lat="43.50403" lon="1.49584">
        <ele>164.6690979</ele>
        <time>2018-05-27T09:03:41Z</time>
      </trkpt>
      <trkpt lat="43.50395" lon="1.49597">
        <ele>165.70707703</ele>
        <time>2018-05-27T09:03:43Z</time>
      </trkpt>
      <trkpt lat="43.50388" lon="1.49606">
        <ele>165.70707703</ele>
        <time>2018-05-27T09:03:46Z</time>
      </trkpt>
      <trkpt lat="43.5038" lon="1.49617">
        <ele>166.83935547</ele>
        <time>2018-05-27T09:03:49Z</time>
      </trkpt>
      <trkpt lat="43.50371" lon="1.49629">
        <ele>166.83935547</ele>
        <time>2018-05-27T09:03:52Z</time>
      </trkpt>
      <trkpt lat="43.50363" lon="1.49639">
        <ele>166.83935547</ele>
        <time>2018-05-27T09:03:55Z</time>
      </trkpt>
      <trkpt lat="43.50353" lon="1.4965">
        <ele>167.66693115</ele>
        <time>2018-05-27T09:03:59Z</time>
      </trkpt>
      <trkpt lat="43.50341" lon="1.49661">
        <ele>168.81391907</ele>
        <time>2018-05-27T09:04:03Z</time>
      </trkpt>
      <trkpt lat="43.50331" lon="1.49669">
        <ele>168.81391907</ele>
        <time>2018-05-27T09:04:07Z</time>
      </trkpt>
      <trkpt lat="43.50319" lon="1.49677">
        <ele>168.81391907</ele>
        <time>2018-05-27T09:04:10Z</time>
      </trkpt>
      <trkpt lat="43.50309" lon="1.49683">
        <ele>170.38642883</ele>
        <time>2018-05-27T09:04:13Z</time>
      </trkpt>
      <trkpt lat="43.50299" lon="1.49692">
        <ele>170.38642883</ele>
        <time>2018-05-27T09:04:16Z</time>
      </trkpt>
      <trkpt lat="43.50288" lon="1.49701">
        <ele>171.05053711</ele>
        <time>2018-05-27T09:04:20Z</time>
      </trkpt>
      <trkpt lat="43.50275" lon="1.49709">
        <ele>171.05053711</ele>
        <time>2018-05-27T09:04:24Z</time>
      </trkpt>
      <trkpt lat="43.50265" lon="1.49709">
        <ele>172.15539551</ele>
        <time>2018-05-27T09:04:27Z</time>
      </trkpt>
      <trkpt lat="43.50252" lon="1.49719">
        <ele>172.15539551</ele>
        <time>2018-05-27T09:04:31Z</time>
      </trkpt>
      <trkpt lat="43.50241" lon="1.49726">
        <ele>173.13258362</ele>
        <time>2018-05-27T09:04:34Z</time>
      </trkpt>
      <trkpt lat="43.50229" lon="1.49729">
        <ele>173.13258362</ele>
        <time>2018-05-27T09:04:37Z</time>
      </trkpt>
      <trkpt lat="43.50218" lon="1.49736">
        <ele>174.27267456</ele>
        <time>2018-05-27T09:04:41Z</time>
      </trkpt>
      <trkpt lat="43.50207" lon="1.49743">
        <ele>174.27267456</ele>
        <time>2018-05-27T09:04:45Z</time>
      </trkpt>
      <trkpt lat="43.50196" lon="1.49748">
        <ele>175.1085968</ele>
        <time>2018-05-27T09:04:49Z</time>
      </trkpt>
      <trkpt lat="43.5019" lon="1.49757">
        <ele>175.1085968</ele>
        <time>2018-05-27T09:04:54Z</time>
      </trkpt>
      <trkpt lat="43.50179" lon="1.49768">
        <ele>175.1085968</ele>
        <time>2018-05-27T09:04:58Z</time>
      </trkpt>
      <trkpt lat="43.50164" lon="1.49776">
        <ele>176.26821899</ele>
        <time>2018-05-27T09:05:00Z</time>
      </trkpt>
      <trkpt lat="43.50154" lon="1.4978">
        <ele>176.26821899</ele>
        <time>2018-05-27T09:05:03Z</time>
      </trkpt>
      <trkpt lat="43.50146" lon="1.49787">
        <ele>177.56521606</ele>
        <time>2018-05-27T09:05:07Z</time>
      </trkpt>
      <trkpt lat="43.50139" lon="1.49801">
        <ele>179.5222168</ele>
        <time>2018-05-27T09:05:13Z</time>
      </trkpt>
      <trkpt lat="43.50132" lon="1.49808">
        <ele>179.5222168</ele>
        <time>2018-05-27T09:05:18Z</time>
      </trkpt>
      <trkpt lat="43.50122" lon="1.49816">
        <ele>179.5222168</ele>
        <time>2018-05-27T09:05:22Z</time>
      </trkpt>
      <trkpt lat="43.50112" lon="1.49826">
        <ele>179.5222168</ele>
        <time>2018-05-27T09:05:26Z</time>
      </trkpt>
      <trkpt lat="43.50103" lon="1.49837">
        <ele>179.75942993</ele>
        <time>2018-05-27T09:05:30Z</time>
      </trkpt>
      <trkpt lat="43.50094" lon="1.49848">
        <ele>181.48812866</ele>
        <time>2018-05-27T09:05:35Z</time>
      </trkpt>
      <trkpt lat="43.50084" lon="1.49851">
        <ele>183.54122925</ele>
        <time>2018-05-27T09:05:41Z</time>
      </trkpt>
      <trkpt lat="43.50073" lon="1.49858">
        <ele>184.56422424</ele>
        <time>2018-05-27T09:06:11Z</time>
      </trkpt>
      <trkpt lat="43.50069" lon="1.49865">
        <ele>184.81086731</ele>
        <time>2018-05-27T09:06:13Z</time>
      </trkpt>
      <trkpt lat="43.50062" lon="1.49876">
        <ele>184.81086731</ele>
        <time>2018-05-27T09:06:31Z</time>
      </trkpt>
      <trkpt lat="43.50058" lon="1.49886">
        <ele>184.81086731</ele>
        <time>2018-05-27T09:06:38Z</time>
      </trkpt>
      <trkpt lat="43.50052" lon="1.49895">
        <ele>184.81086731</ele>
        <time>2018-05-27T09:06:54Z</time>
      </trkpt>
      <trkpt lat="43.50039" lon="1.49903">
        <ele>184.81086731</ele>
        <time>2018-05-27T09:06:58Z</time>
      </trkpt>
      <trkpt lat="43.50027" lon="1.49908">
        <ele>184.49397278</ele>
        <time>2018-05-27T09:07:02Z</time>
      </trkpt>
      <trkpt lat="43.50015" lon="1.49907">
        <ele>187.46697998</ele>
        <time>2018-05-27T09:07:08Z</time>
      </trkpt>
      <trkpt lat="43.50008" lon="1.49895">
        <ele>188.71955872</ele>
        <time>2018-05-27T09:07:11Z</time>
      </trkpt>
      <trkpt lat="43.50002" lon="1.49886">
        <ele>189.85476685</ele>
        <time>2018-05-27T09:07:13Z</time>
      </trkpt>
      <trkpt lat="43.49994" lon="1.49877">
        <ele>192.35325623</ele>
        <time>2018-05-27T09:07:18Z</time>
      </trkpt>
      <trkpt lat="43.49989" lon="1.49865">
        <ele>193.40937805</ele>
        <time>2018-05-27T09:07:22Z</time>
      </trkpt>
      <trkpt lat="43.4999" lon="1.49852">
        <ele>194.56761169</ele>
        <time>2018-05-27T09:07:25Z</time>
      </trkpt>
      <trkpt lat="43.49988" lon="1.4984">
        <ele>195.83322144</ele>
        <time>2018-05-27T09:07:28Z</time>
      </trkpt>
      <trkpt lat="43.49986" lon="1.49825">
        <ele>195.83322144</ele>
        <time>2018-05-27T09:07:30Z</time>
      </trkpt>
      <trkpt lat="43.49984" lon="1.49817">
        <ele>198.17802429</ele>
        <time>2018-05-27T09:07:34Z</time>
      </trkpt>
      <trkpt lat="43.49977" lon="1.49808">
        <ele>199.34109497</ele>
        <time>2018-05-27T09:07:39Z</time>
      </trkpt>
      <trkpt lat="43.49969" lon="1.49795">
        <ele>202.01591492</ele>
        <time>2018-05-27T09:07:44Z</time>
      </trkpt>
      <trkpt lat="43.49956" lon="1.49793">
        <ele>203.38127136</ele>
        <time>2018-05-27T09:07:48Z</time>
      </trkpt>
      <trkpt lat="43.49946" lon="1.49795">
        <ele>205.46636963</ele>
        <time>2018-05-27T09:07:54Z</time>
      </trkpt>
      <trkpt lat="43.49935" lon="1.49799">
        <ele>205.46636963</ele>
        <time>2018-05-27T09:08:01Z</time>
      </trkpt>
      <trkpt lat="43.49924" lon="1.498">
        <ele>208.23109436</ele>
        <time>2018-05-27T09:08:26Z</time>
      </trkpt>
      <trkpt lat="43.49918" lon="1.49799">
        <ele>209.96000671</ele>
        <time>2018-05-27T09:08:54Z</time>
      </trkpt>
      <trkpt lat="43.49907" lon="1.49786">
        <ele>210.88517761</ele>
        <time>2018-05-27T09:08:58Z</time>
      </trkpt>
      <trkpt lat="43.49895" lon="1.49787">
        <ele>210.88517761</ele>
        <time>2018-05-27T09:09:03Z</time>
      </trkpt>
      <trkpt lat="43.49886" lon="1.49791">
        <ele>213.99763489</ele>
        <time>2018-05-27T09:09:45Z</time>
      </trkpt>
      <trkpt lat="43.49884" lon="1.4979">
        <ele>214.33456421</ele>
        <time>2018-05-27T09:09:52Z</time>
      </trkpt>
      <trkpt lat="43.4987" lon="1.49777">
        <ele>214.33456421</ele>
        <time>2018-05-27T09:09:56Z</time>
      </trkpt>
      <trkpt lat="43.49861" lon="1.49768">
        <ele>219.65112305</ele>
        <time>2018-05-27T09:11:26Z</time>
      </trkpt>
      <trkpt lat="43.49855" lon="1.49766">
        <ele>219.65112305</ele>
        <time>2018-05-27T09:11:33Z</time>
      </trkpt>
      <trkpt lat="43.49841" lon="1.49764">
        <ele>219.69871521</ele>
        <time>2018-05-27T09:11:40Z</time>
      </trkpt>
      <trkpt lat="43.4983" lon="1.49759">
        <ele>219.69871521</ele>
        <time>2018-05-27T09:11:44Z</time>
      </trkpt>
      <trkpt lat="43.4982" lon="1.49755">
        <ele>221.46008301</ele>
        <time>2018-05-27T09:11:50Z</time>
      </trkpt>
      <trkpt lat="43.49814" lon="1.4974">
        <ele>221.46008301</ele>
        <time>2018-05-27T09:11:54Z</time>
      </trkpt>
      <trkpt lat="43.49808" lon="1.49739">
        <ele>222.57188416</ele>
        <time>2018-05-27T09:12:04Z</time>
      </trkpt>
      <trkpt lat="43.49797" lon="1.49754">
        <ele>222.57188416</ele>
        <time>2018-05-27T09:12:08Z</time>
      </trkpt>
      <trkpt lat="43.49789" lon="1.49767">
        <ele>222.57188416</ele>
        <time>2018-05-27T09:12:12Z</time>
      </trkpt>
      <trkpt lat="43.49781" lon="1.49778">
        <ele>222.49530029</ele>
        <time>2018-05-27T09:12:13Z</time>
      </trkpt>
      <trkpt lat="43.49776" lon="1.49787">
        <ele>222.49530029</ele>
        <time>2018-05-27T09:12:16Z</time>
      </trkpt>
      <trkpt lat="43.49766" lon="1.498">
        <ele>222.49530029</ele>
        <time>2018-05-27T09:12:19Z</time>
      </trkpt>
      <trkpt lat="43.49757" lon="1.49813">
        <ele>222.49530029</ele>
        <time>2018-05-27T09:12:22Z</time>
      </trkpt>
      <trkpt lat="43.49748" lon="1.49826">
        <ele>222.49530029</ele>
        <time>2018-05-27T09:12:25Z</time>
      </trkpt>
      <trkpt lat="43.4974" lon="1.49839">
        <ele>222.49530029</ele>
        <time>2018-05-27T09:12:28Z</time>
      </trkpt>
      <trkpt lat="43.49733" lon="1.49852">
        <ele>222.49530029</ele>
        <time>2018-05-27T09:12:30Z</time>
      </trkpt>
      <trkpt lat="43.49727" lon="1.49863">
        <ele>222.49530029</ele>
        <time>2018-05-27T09:12:33Z</time>
      </trkpt>
      <trkpt lat="43.4972" lon="1.49875">
        <ele>222.49530029</ele>
        <time>2018-05-27T09:12:36Z</time>
      </trkpt>
      <trkpt lat="43.49713" lon="1.49889">
        <ele>222.49530029</ele>
        <time>2018-05-27T09:12:39Z</time>
      </trkpt>
      <trkpt lat="43.49705" lon="1.49902">
        <ele>222.41889954</ele>
        <time>2018-05-27T09:12:43Z</time>
      </trkpt>
      <trkpt lat="43.49696" lon="1.49914">
        <ele>223.72064209</ele>
        <time>2018-05-27T09:12:47Z</time>
      </trkpt>
      <trkpt lat="43.49689" lon="1.49923">
        <ele>223.72064209</ele>
        <time>2018-05-27T09:12:53Z</time>
      </trkpt>
      <trkpt lat="43.49691" lon="1.49935">
        <ele>222.15057373</ele>
        <time>2018-05-27T09:12:58Z</time>
      </trkpt>
      <trkpt lat="43.49705" lon="1.49947">
        <ele>219.70526123</ele>
        <time>2018-05-27T09:13:00Z</time>
      </trkpt>
      <trkpt lat="43.49718" lon="1.49961">
        <ele>217.24562073</ele>
        <time>2018-05-27T09:13:02Z</time>
      </trkpt>
      <trkpt lat="43.49729" lon="1.4998">
        <ele>214.5750885</ele>
        <time>2018-05-27T09:13:04Z</time>
      </trkpt>
      <trkpt lat="43.49733" lon="1.49999">
        <ele>213.22622681</ele>
        <time>2018-05-27T09:13:05Z</time>
      </trkpt>
      <trkpt lat="43.49735" lon="1.50013">
        <ele>212.03097534</ele>
        <time>2018-05-27T09:13:06Z</time>
      </trkpt>
      <trkpt lat="43.49738" lon="1.50028">
        <ele>210.93489075</ele>
        <time>2018-05-27T09:13:07Z</time>
      </trkpt>
      <trkpt lat="43.49743" lon="1.50043">
        <ele>209.90202332</ele>
        <time>2018-05-27T09:13:08Z</time>
      </trkpt>
      <trkpt lat="43.4975" lon="1.50056">
        <ele>209.90202332</ele>
        <time>2018-05-27T09:13:09Z</time>
      </trkpt>
      <trkpt lat="43.49754" lon="1.50069">
        <ele>208.56634521</ele>
        <time>2018-05-27T09:13:10Z</time>
      </trkpt>
      <trkpt lat="43.49759" lon="1.50081">
        <ele>207.02513123</ele>
        <time>2018-05-27T09:13:11Z</time>
      </trkpt>
      <trkpt lat="43.49762" lon="1.50094">
        <ele>205.76905823</ele>
        <time>2018-05-27T09:13:12Z</time>
      </trkpt>
      <trkpt lat="43.49764" lon="1.50108">
        <ele>204.64595032</ele>
        <time>2018-05-27T09:13:13Z</time>
      </trkpt>
      <trkpt lat="43.49765" lon="1.50123">
        <ele>203.55114746</ele>
        <time>2018-05-27T09:13:14Z</time>
      </trkpt>
      <trkpt lat="43.49765" lon="1.50139">
        <ele>203.55114746</ele>
        <time>2018-05-27T09:13:15Z</time>
      </trkpt>
      <trkpt lat="43.49765" lon="1.50157">
        <ele>202.18707275</ele>
        <time>2018-05-27T09:13:16Z</time>
      </trkpt>
      <trkpt lat="43.49767" lon="1.50171">
        <ele>202.18707275</ele>
        <time>2018-05-27T09:13:17Z</time>
      </trkpt>
      <trkpt lat="43.4977" lon="1.50185">
        <ele>202.18707275</ele>
        <time>2018-05-27T09:13:18Z</time>
      </trkpt>
      <trkpt lat="43.49775" lon="1.50198">
        <ele>200.86773682</ele>
        <time>2018-05-27T09:13:19Z</time>
      </trkpt>
      <trkpt lat="43.49785" lon="1.50209">
        <ele>200.86773682</ele>
        <time>2018-05-27T09:13:21Z</time>
      </trkpt>
      <trkpt lat="43.49799" lon="1.50223">
        <ele>201.12471008</ele>
        <time>2018-05-27T09:13:23Z</time>
      </trkpt>
      <trkpt lat="43.49809" lon="1.50235">
        <ele>202.8548584</ele>
        <time>2018-05-27T09:13:26Z</time>
      </trkpt>
      <trkpt lat="43.49818" lon="1.50247">
        <ele>205.1144104</ele>
        <time>2018-05-27T09:13:29Z</time>
      </trkpt>
      <trkpt lat="43.49828" lon="1.5026">
        <ele>206.34980774</ele>
        <time>2018-05-27T09:13:32Z</time>
      </trkpt>
      <trkpt lat="43.49837" lon="1.50275">
        <ele>207.50968933</ele>
        <time>2018-05-27T09:13:35Z</time>
      </trkpt>
      <trkpt lat="43.49847" lon="1.5029">
        <ele>207.50968933</ele>
        <time>2018-05-27T09:13:38Z</time>
      </trkpt>
      <trkpt lat="43.49858" lon="1.50304">
        <ele>208.64111328</ele>
        <time>2018-05-27T09:13:41Z</time>
      </trkpt>
      <trkpt lat="43.49868" lon="1.50318">
        <ele>209.97937012</ele>
        <time>2018-05-27T09:13:44Z</time>
      </trkpt>
      <trkpt lat="43.49878" lon="1.50329">
        <ele>211.13313293</ele>
        <time>2018-05-27T09:13:47Z</time>
      </trkpt>
      <trkpt lat="43.49889" lon="1.5034">
        <ele>212.204422</ele>
        <time>2018-05-27T09:13:50Z</time>
      </trkpt>
      <trkpt lat="43.499" lon="1.50351">
        <ele>213.39012146</ele>
        <time>2018-05-27T09:13:54Z</time>
      </trkpt>
      <trkpt lat="43.49912" lon="1.50361">
        <ele>214.46388245</ele>
        <time>2018-05-27T09:13:58Z</time>
      </trkpt>
      <trkpt lat="43.4992" lon="1.5037">
        <ele>215.57389832</ele>
        <time>2018-05-27T09:14:03Z</time>
      </trkpt>
      <trkpt lat="43.49925" lon="1.50381">
        <ele>217.31561279</ele>
        <time>2018-05-27T09:14:37Z</time>
      </trkpt>
      <trkpt lat="43.49925" lon="1.50384">
        <ele>217.31561279</ele>
        <time>2018-05-27T09:14:41Z</time>
      </trkpt>
      <trkpt lat="43.49916" lon="1.50403">
        <ele>217.31561279</ele>
        <time>2018-05-27T09:14:44Z</time>
      </trkpt>
      <trkpt lat="43.49904" lon="1.50414">
        <ele>217.45536804</ele>
        <time>2018-05-27T09:14:47Z</time>
      </trkpt>
      <trkpt lat="43.4989" lon="1.50427">
        <ele>217.45536804</ele>
        <time>2018-05-27T09:14:50Z</time>
      </trkpt>
      <trkpt lat="43.49879" lon="1.50441">
        <ele>217.45536804</ele>
        <time>2018-05-27T09:14:53Z</time>
      </trkpt>
      <trkpt lat="43.49867" lon="1.5045">
        <ele>216.94424438</ele>
        <time>2018-05-27T09:14:56Z</time>
      </trkpt>
      <trkpt lat="43.49855" lon="1.50454">
        <ele>216.94424438</ele>
        <time>2018-05-27T09:14:59Z</time>
      </trkpt>
      <trkpt lat="43.49844" lon="1.50455">
        <ele>216.94424438</ele>
        <time>2018-05-27T09:15:02Z</time>
      </trkpt>
      <trkpt lat="43.49834" lon="1.50462">
        <ele>218.20065308</ele>
        <time>2018-05-27T09:15:05Z</time>
      </trkpt>
      <trkpt lat="43.49829" lon="1.50476">
        <ele>218.20065308</ele>
        <time>2018-05-27T09:15:08Z</time>
      </trkpt>
      <trkpt lat="43.49822" lon="1.5049">
        <ele>218.20065308</ele>
        <time>2018-05-27T09:15:11Z</time>
      </trkpt>
      <trkpt lat="43.49817" lon="1.505">
        <ele>219.68882751</ele>
        <time>2018-05-27T09:15:13Z</time>
      </trkpt>
      <trkpt lat="43.49814" lon="1.5051">
        <ele>219.68882751</ele>
        <time>2018-05-27T09:15:15Z</time>
      </trkpt>
      <trkpt lat="43.49806" lon="1.50521">
        <ele>219.68882751</ele>
        <time>2018-05-27T09:15:18Z</time>
      </trkpt>
      <trkpt lat="43.49796" lon="1.50533">
        <ele>219.68882751</ele>
        <time>2018-05-27T09:15:22Z</time>
      </trkpt>
      <trkpt lat="43.49789" lon="1.50548">
        <ele>219.68882751</ele>
        <time>2018-05-27T09:15:25Z</time>
      </trkpt>
      <trkpt lat="43.49785" lon="1.50563">
        <ele>219.68882751</ele>
        <time>2018-05-27T09:15:27Z</time>
      </trkpt>
      <trkpt lat="43.4978" lon="1.50577">
        <ele>219.68882751</ele>
        <time>2018-05-27T09:15:29Z</time>
      </trkpt>
      <trkpt lat="43.49776" lon="1.5059">
        <ele>219.68882751</ele>
        <time>2018-05-27T09:15:31Z</time>
      </trkpt>
      <trkpt lat="43.49772" lon="1.50602">
        <ele>219.68882751</ele>
        <time>2018-05-27T09:15:33Z</time>
      </trkpt>
      <trkpt lat="43.49768" lon="1.50613">
        <ele>219.68882751</ele>
        <time>2018-05-27T09:15:35Z</time>
      </trkpt>
      <trkpt lat="43.49765" lon="1.50624">
        <ele>219.68882751</ele>
        <time>2018-05-27T09:15:37Z</time>
      </trkpt>
      <trkpt lat="43.4976" lon="1.50635">
        <ele>219.68882751</ele>
        <time>2018-05-27T09:15:39Z</time>
      </trkpt>
      <trkpt lat="43.49756" lon="1.50649">
        <ele>219.68882751</ele>
        <time>2018-05-27T09:15:41Z</time>
      </trkpt>
      <trkpt lat="43.4975" lon="1.50663">
        <ele>219.95321655</ele>
        <time>2018-05-27T09:15:43Z</time>
      </trkpt>
      <trkpt lat="43.49746" lon="1.50677">
        <ele>217.78781128</ele>
        <time>2018-05-27T09:15:45Z</time>
      </trkpt>
      <trkpt lat="43.49741" lon="1.50692">
        <ele>216.72450256</ele>
        <time>2018-05-27T09:15:47Z</time>
      </trkpt>
      <trkpt lat="43.49733" lon="1.50708">
        <ele>215.79391479</ele>
        <time>2018-05-27T09:15:49Z</time>
      </trkpt>
      <trkpt lat="43.49732" lon="1.50726">
        <ele>215.79391479</ele>
        <time>2018-05-27T09:15:51Z</time>
      </trkpt>
      <trkpt lat="43.49739" lon="1.5074">
        <ele>214.9342804</ele>
        <time>2018-05-27T09:15:53Z</time>
      </trkpt>
      <trkpt lat="43.49746" lon="1.50755">
        <ele>213.19903564</ele>
        <time>2018-05-27T09:15:55Z</time>
      </trkpt>
      <trkpt lat="43.49751" lon="1.50774">
        <ele>211.75900269</ele>
        <time>2018-05-27T09:15:57Z</time>
      </trkpt>
      <trkpt lat="43.49754" lon="1.50792">
        <ele>210.22143555</ele>
        <time>2018-05-27T09:15:59Z</time>
      </trkpt>
      <trkpt lat="43.49749" lon="1.5081">
        <ele>207.17030334</ele>
        <time>2018-05-27T09:16:01Z</time>
      </trkpt>
      <trkpt lat="43.49735" lon="1.50828">
        <ele>203.48397827</ele>
        <time>2018-05-27T09:16:03Z</time>
      </trkpt>
      <trkpt lat="43.49725" lon="1.50845">
        <ele>201.26605225</ele>
        <time>2018-05-27T09:16:04Z</time>
      </trkpt>
      <trkpt lat="43.49719" lon="1.50857">
        <ele>198.83334351</ele>
        <time>2018-05-27T09:16:05Z</time>
      </trkpt>
      <trkpt lat="43.49713" lon="1.50868">
        <ele>196.51547241</ele>
        <time>2018-05-27T09:16:06Z</time>
      </trkpt>
      <trkpt lat="43.49707" lon="1.50879">
        <ele>194.18786621</ele>
        <time>2018-05-27T09:16:07Z</time>
      </trkpt>
      <trkpt lat="43.49702" lon="1.5089">
        <ele>192.12506104</ele>
        <time>2018-05-27T09:16:08Z</time>
      </trkpt>
      <trkpt lat="43.49697" lon="1.509">
        <ele>190.12258911</ele>
        <time>2018-05-27T09:16:09Z</time>
      </trkpt>
      <trkpt lat="43.49694" lon="1.50911">
        <ele>187.96844482</ele>
        <time>2018-05-27T09:16:10Z</time>
      </trkpt>
      <trkpt lat="43.49693" lon="1.50922">
        <ele>185.73234558</ele>
        <time>2018-05-27T09:16:11Z</time>
      </trkpt>
      <trkpt lat="43.49693" lon="1.50935">
        <ele>183.51002502</ele>
        <time>2018-05-27T09:16:12Z</time>
      </trkpt>
      <trkpt lat="43.49691" lon="1.50947">
        <ele>181.49130249</ele>
        <time>2018-05-27T09:16:13Z</time>
      </trkpt>
      <trkpt lat="43.4969" lon="1.50958">
        <ele>179.84796143</ele>
        <time>2018-05-27T09:16:14Z</time>
      </trkpt>
      <trkpt lat="43.49688" lon="1.50969">
        <ele>178.5629425</ele>
        <time>2018-05-27T09:16:16Z</time>
      </trkpt>
      <trkpt lat="43.49683" lon="1.50979">
        <ele>174.56976318</ele>
        <time>2018-05-27T09:16:22Z</time>
      </trkpt>
      <trkpt lat="43.4969" lon="1.50986">
        <ele>173.42623901</ele>
        <time>2018-05-27T09:16:25Z</time>
      </trkpt>
      <trkpt lat="43.49702" lon="1.50986">
        <ele>172.33665466</ele>
        <time>2018-05-27T09:16:29Z</time>
      </trkpt>
      <trkpt lat="43.49718" lon="1.50983">
        <ele>172.33665466</ele>
        <time>2018-05-27T09:16:32Z</time>
      </trkpt>
      <trkpt lat="43.49731" lon="1.50982">
        <ele>172.33665466</ele>
        <time>2018-05-27T09:16:35Z</time>
      </trkpt>
      <trkpt lat="43.49744" lon="1.50982">
        <ele>172.47854614</ele>
        <time>2018-05-27T09:16:38Z</time>
      </trkpt>
      <trkpt lat="43.49757" lon="1.50982">
        <ele>172.47854614</ele>
        <time>2018-05-27T09:16:41Z</time>
      </trkpt>
      <trkpt lat="43.4977" lon="1.50981">
        <ele>173.94699097</ele>
        <time>2018-05-27T09:16:43Z</time>
      </trkpt>
      <trkpt lat="43.49782" lon="1.50981">
        <ele>173.94699097</ele>
        <time>2018-05-27T09:16:46Z</time>
      </trkpt>
      <trkpt lat="43.49797" lon="1.5098">
        <ele>175.00047302</ele>
        <time>2018-05-27T09:16:49Z</time>
      </trkpt>
      <trkpt lat="43.49809" lon="1.50975">
        <ele>175.00047302</ele>
        <time>2018-05-27T09:16:53Z</time>
      </trkpt>
      <trkpt lat="43.49818" lon="1.50965">
        <ele>176.0342865</ele>
        <time>2018-05-27T09:16:57Z</time>
      </trkpt>
      <trkpt lat="43.49822" lon="1.50955">
        <ele>177.19291687</ele>
        <time>2018-05-27T09:17:01Z</time>
      </trkpt>
      <trkpt lat="43.49827" lon="1.50943">
        <ele>179.48143005</ele>
        <time>2018-05-27T09:18:49Z</time>
      </trkpt>
      <trkpt lat="43.49829" lon="1.50948">
        <ele>176.98016357</ele>
        <time>2018-05-27T09:18:54Z</time>
      </trkpt>
      <trkpt lat="43.4985" lon="1.50967">
        <ele>174.23995972</ele>
        <time>2018-05-27T09:18:56Z</time>
      </trkpt>
      <trkpt lat="43.49862" lon="1.50981">
        <ele>172.86462402</ele>
        <time>2018-05-27T09:18:58Z</time>
      </trkpt>
      <trkpt lat="43.49873" lon="1.50985">
        <ele>171.48616028</ele>
        <time>2018-05-27T09:19:03Z</time>
      </trkpt>
      <trkpt lat="43.49873" lon="1.50987">
        <ele>169.24891663</ele>
        <time>2018-05-27T09:19:09Z</time>
      </trkpt>
      <trkpt lat="43.49864" lon="1.51008">
        <ele>165.47676086</ele>
        <time>2018-05-27T09:19:11Z</time>
      </trkpt>
      <trkpt lat="43.49849" lon="1.51033">
        <ele>162.74801636</ele>
        <time>2018-05-27T09:19:13Z</time>
      </trkpt>
      <trkpt lat="43.49839" lon="1.51047">
        <ele>160.53826904</ele>
        <time>2018-05-27T09:19:15Z</time>
      </trkpt>
      <trkpt lat="43.49828" lon="1.51064">
        <ele>158.41017151</ele>
        <time>2018-05-27T09:19:17Z</time>
      </trkpt>
      <trkpt lat="43.4982" lon="1.51083">
        <ele>156.91827393</ele>
        <time>2018-05-27T09:19:19Z</time>
      </trkpt>
      <trkpt lat="43.49818" lon="1.51099">
        <ele>156.91827393</ele>
        <time>2018-05-27T09:19:20Z</time>
      </trkpt>
      <trkpt lat="43.49822" lon="1.51115">
        <ele>155.42349243</ele>
        <time>2018-05-27T09:19:21Z</time>
      </trkpt>
      <trkpt lat="43.49832" lon="1.51131">
        <ele>155.42349243</ele>
        <time>2018-05-27T09:19:22Z</time>
      </trkpt>
      <trkpt lat="43.49836" lon="1.51142">
        <ele>155.42349243</ele>
        <time>2018-05-27T09:19:23Z</time>
      </trkpt>
      <trkpt lat="43.49842" lon="1.51155">
        <ele>154.48512268</ele>
        <time>2018-05-27T09:19:24Z</time>
      </trkpt>
      <trkpt lat="43.4985" lon="1.51167">
        <ele>154.48512268</ele>
        <time>2018-05-27T09:19:26Z</time>
      </trkpt>
      <trkpt lat="43.49857" lon="1.51184">
        <ele>153.26396179</ele>
        <time>2018-05-27T09:19:28Z</time>
      </trkpt>
      <trkpt lat="43.49863" lon="1.51202">
        <ele>152.01963806</ele>
        <time>2018-05-27T09:19:30Z</time>
      </trkpt>
      <trkpt lat="43.4987" lon="1.5122">
        <ele>152.01963806</ele>
        <time>2018-05-27T09:19:32Z</time>
      </trkpt>
      <trkpt lat="43.49877" lon="1.51239">
        <ele>150.59913635</ele>
        <time>2018-05-27T09:19:34Z</time>
      </trkpt>
      <trkpt lat="43.49884" lon="1.51258">
        <ele>149.01074219</ele>
        <time>2018-05-27T09:19:36Z</time>
      </trkpt>
      <trkpt lat="43.49894" lon="1.51275">
        <ele>147.86849976</ele>
        <time>2018-05-27T09:19:38Z</time>
      </trkpt>
      <trkpt lat="43.49905" lon="1.51292">
        <ele>146.90377808</ele>
        <time>2018-05-27T09:19:40Z</time>
      </trkpt>
      <trkpt lat="43.49917" lon="1.51308">
        <ele>146.90377808</ele>
        <time>2018-05-27T09:19:42Z</time>
      </trkpt>
      <trkpt lat="43.4993" lon="1.51321">
        <ele>145.75846863</ele>
        <time>2018-05-27T09:19:44Z</time>
      </trkpt>
      <trkpt lat="43.49944" lon="1.51336">
        <ele>144.45556641</ele>
        <time>2018-05-27T09:19:46Z</time>
      </trkpt>
      <trkpt lat="43.49958" lon="1.51354">
        <ele>143.18359375</ele>
        <time>2018-05-27T09:19:48Z</time>
      </trkpt>
      <trkpt lat="43.49971" lon="1.5137">
        <ele>141.79095459</ele>
        <time>2018-05-27T09:19:50Z</time>
      </trkpt>
      <trkpt lat="43.49985" lon="1.51382">
        <ele>140.66897583</ele>
        <time>2018-05-27T09:19:52Z</time>
      </trkpt>
      <trkpt lat="43.49996" lon="1.51394">
        <ele>140.66897583</ele>
        <time>2018-05-27T09:19:54Z</time>
      </trkpt>
      <trkpt lat="43.49997" lon="1.51413">
        <ele>139.35209656</ele>
        <time>2018-05-27T09:19:56Z</time>
      </trkpt>
      <trkpt lat="43.49992" lon="1.5143">
        <ele>139.35209656</ele>
        <time>2018-05-27T09:19:58Z</time>
      </trkpt>
      <trkpt lat="43.49991" lon="1.51444">
        <ele>139.35209656</ele>
        <time>2018-05-27T09:20:00Z</time>
      </trkpt>
      <trkpt lat="43.49995" lon="1.51447">
        <ele>137.53059387</ele>
        <time>2018-05-27T09:20:13Z</time>
      </trkpt>
      <trkpt lat="43.50006" lon="1.51443">
        <ele>137.53059387</ele>
        <time>2018-05-27T09:20:16Z</time>
      </trkpt>
      <trkpt lat="43.50019" lon="1.51433">
        <ele>137.53059387</ele>
        <time>2018-05-27T09:20:19Z</time>
      </trkpt>
      <trkpt lat="43.50027" lon="1.51421">
        <ele>137.53059387</ele>
        <time>2018-05-27T09:20:22Z</time>
      </trkpt>
      <trkpt lat="43.50036" lon="1.51406">
        <ele>137.53059387</ele>
        <time>2018-05-27T09:20:25Z</time>
      </trkpt>
      <trkpt lat="43.50047" lon="1.51393">
        <ele>137.53059387</ele>
        <time>2018-05-27T09:20:27Z</time>
      </trkpt>
      <trkpt lat="43.50056" lon="1.51381">
        <ele>137.53059387</ele>
        <time>2018-05-27T09:20:29Z</time>
      </trkpt>
      <trkpt lat="43.50067" lon="1.5137">
        <ele>137.53059387</ele>
        <time>2018-05-27T09:20:32Z</time>
      </trkpt>
      <trkpt lat="43.50078" lon="1.51358">
        <ele>136.73721313</ele>
        <time>2018-05-27T09:20:34Z</time>
      </trkpt>
      <trkpt lat="43.50089" lon="1.51346">
        <ele>136.73721313</ele>
        <time>2018-05-27T09:20:37Z</time>
      </trkpt>
      <trkpt lat="43.50102" lon="1.51333">
        <ele>136.73721313</ele>
        <time>2018-05-27T09:20:40Z</time>
      </trkpt>
      <trkpt lat="43.50115" lon="1.5132">
        <ele>136.73721313</ele>
        <time>2018-05-27T09:20:43Z</time>
      </trkpt>
      <trkpt lat="43.50127" lon="1.51306">
        <ele>136.73721313</ele>
        <time>2018-05-27T09:20:46Z</time>
      </trkpt>
      <trkpt lat="43.50139" lon="1.51294">
        <ele>136.73721313</ele>
        <time>2018-05-27T09:20:49Z</time>
      </trkpt>
      <trkpt lat="43.50151" lon="1.5128">
        <ele>136.73721313</ele>
        <time>2018-05-27T09:20:52Z</time>
      </trkpt>
      <trkpt lat="43.50163" lon="1.51267">
        <ele>136.73721313</ele>
        <time>2018-05-27T09:20:55Z</time>
      </trkpt>
      <trkpt lat="43.50176" lon="1.51252">
        <ele>136.73721313</ele>
        <time>2018-05-27T09:20:58Z</time>
      </trkpt>
      <trkpt lat="43.50187" lon="1.5124">
        <ele>136.73721313</ele>
        <time>2018-05-27T09:21:00Z</time>
      </trkpt>
      <trkpt lat="43.50198" lon="1.51229">
        <ele>136.73721313</ele>
        <time>2018-05-27T09:21:03Z</time>
      </trkpt>
      <trkpt lat="43.50209" lon="1.51217">
        <ele>136.73721313</ele>
        <time>2018-05-27T09:21:05Z</time>
      </trkpt>
      <trkpt lat="43.50219" lon="1.51207">
        <ele>136.73721313</ele>
        <time>2018-05-27T09:21:07Z</time>
      </trkpt>
      <trkpt lat="43.5023" lon="1.51195">
        <ele>136.73721313</ele>
        <time>2018-05-27T09:21:10Z</time>
      </trkpt>
      <trkpt lat="43.50246" lon="1.51177">
        <ele>135.86494446</ele>
        <time>2018-05-27T09:21:13Z</time>
      </trkpt>
      <trkpt lat="43.50256" lon="1.51168">
        <ele>135.86494446</ele>
        <time>2018-05-27T09:21:16Z</time>
      </trkpt>
      <trkpt lat="43.50267" lon="1.51155">
        <ele>135.86494446</ele>
        <time>2018-05-27T09:21:18Z</time>
      </trkpt>
      <trkpt lat="43.50277" lon="1.51143">
        <ele>135.86494446</ele>
        <time>2018-05-27T09:21:21Z</time>
      </trkpt>
      <trkpt lat="43.50288" lon="1.5113">
        <ele>135.86494446</ele>
        <time>2018-05-27T09:21:24Z</time>
      </trkpt>
      <trkpt lat="43.50299" lon="1.51122">
        <ele>135.86494446</ele>
        <time>2018-05-27T09:21:27Z</time>
      </trkpt>
      <trkpt lat="43.50311" lon="1.51128">
        <ele>135.86494446</ele>
        <time>2018-05-27T09:21:30Z</time>
      </trkpt>
      <trkpt lat="43.50324" lon="1.51141">
        <ele>135.86494446</ele>
        <time>2018-05-27T09:21:33Z</time>
      </trkpt>
      <trkpt lat="43.50331" lon="1.5114">
        <ele>133.75074768</ele>
        <time>2018-05-27T09:28:38Z</time>
      </trkpt>
      <trkpt lat="43.50333" lon="1.51141">
        <ele>134.24707031</ele>
        <time>2018-05-27T09:28:44Z</time>
      </trkpt>
      <trkpt lat="43.50335" lon="1.51152">
        <ele>134.24707031</ele>
        <time>2018-05-27T09:28:51Z</time>
      </trkpt>
    </trkseg>
  </trk>
</gpx>